<?xml version='1.0' encoding='UTF-8'?><gpx version="1.1" creator="JPX - https://github.com/jenetics/jpx" xmlns="http://www.topografix.com/GPX/1/1"><trk><trkseg><trkpt lat="44.60766784108505" lon="10.20916939653516"><ele>709.0</ele><time>2026-05-03T11:12:46.999Z</time></trkpt><trkpt lat="44.607673866466136" lon="10.20930901079476"><ele>709.0</ele><time>2026-05-03T11:12:48.999Z</time></trkpt><trkpt lat="44.607689885891325" lon="10.209448988761801"><ele>709.0</ele><time>2026-05-03T11:12:50.999Z</time></trkpt><trkpt lat="44.607705929974614" lon="10.209597711187696"><ele>709.0</ele><time>2026-05-03T11:12:52.999Z</time></trkpt><trkpt lat="44.607732395293645" lon="10.209743551744026"><ele>709.0</ele><time>2026-05-03T11:12:54.999Z</time></trkpt><trkpt lat="44.60780509053031" lon="10.20988999328062"><ele>711.6</ele><time>2026-05-03T11:12:56.999Z</time></trkpt><trkpt lat="44.60784354461393" lon="10.209967905488476"><ele>714.2</ele><time>2026-05-03T11:12:57.999Z</time></trkpt><trkpt lat="44.607888670538735" lon="10.210123445619466"><ele>716.8000000000001</ele><time>2026-05-03T11:12:59.999Z</time></trkpt><trkpt lat="44.607897254109716" lon="10.210292207585297"><ele>719.4000000000001</ele><time>2026-05-03T11:13:01.999Z</time></trkpt><trkpt lat="44.60791077717825" lon="10.21046928208057"><ele>722.0</ele><time>2026-05-03T11:13:03.999Z</time></trkpt><trkpt lat="44.60792447604549" lon="10.210566181188282"><ele>722.0</ele><time>2026-05-03T11:13:04.999Z</time></trkpt><trkpt lat="44.607937128175806" lon="10.210656024372868"><ele>722.0</ele><time>2026-05-03T11:13:05.999Z</time></trkpt><trkpt lat="44.60796080380591" lon="10.210810051856889"><ele>722.0</ele><time>2026-05-03T11:13:07.999Z</time></trkpt><trkpt lat="44.60797872905377" lon="10.210962760616049"><ele>722.0</ele><time>2026-05-03T11:13:09.999Z</time></trkpt><trkpt lat="44.607991801143235" lon="10.21104973289842"><ele>722.0</ele><time>2026-05-03T11:13:10.999Z</time></trkpt><trkpt lat="44.6080191652118" lon="10.211206671652814"><ele>721.0</ele><time>2026-05-03T11:13:12.999Z</time></trkpt><trkpt lat="44.60804131459963" lon="10.211352718812119"><ele>720.0</ele><time>2026-05-03T11:13:14.999Z</time></trkpt><trkpt lat="44.6080519352338" lon="10.211471782588632"><ele>719.0</ele><time>2026-05-03T11:13:16.999Z</time></trkpt><trkpt lat="44.60802781779377" lon="10.211634354767131"><ele>718.0</ele><time>2026-05-03T11:13:18.999Z</time></trkpt><trkpt lat="44.60800181971743" lon="10.211751054763457"><ele>717.0</ele><time>2026-05-03T11:13:19.999Z</time></trkpt><trkpt lat="44.60796985631958" lon="10.211849041694332"><ele>715.7142857142857</ele><time>2026-05-03T11:13:20.999Z</time></trkpt><trkpt lat="44.607950880485724" lon="10.21193848228145"><ele>714.4285714285713</ele><time>2026-05-03T11:13:21.999Z</time></trkpt><trkpt lat="44.607927469249375" lon="10.212027172003335"><ele>713.1428571428571</ele><time>2026-05-03T11:13:22.999Z</time></trkpt><trkpt lat="44.60794982698751" lon="10.21213484298489"><ele>711.8571428571429</ele><time>2026-05-03T11:13:23.999Z</time></trkpt><trkpt lat="44.60797000686567" lon="10.212225748684865"><ele>710.5714285714286</ele><time>2026-05-03T11:13:24.999Z</time></trkpt><trkpt lat="44.608006345071615" lon="10.212302595724065"><ele>709.2857142857143</ele><time>2026-05-03T11:13:25.999Z</time></trkpt><trkpt lat="44.608062331160845" lon="10.21237819156958"><ele>708.0</ele><time>2026-05-03T11:13:26.999Z</time></trkpt><trkpt lat="44.60811731727784" lon="10.212450148976387"><ele>706.1666666666666</ele><time>2026-05-03T11:13:27.999Z</time></trkpt><trkpt lat="44.60820890229732" lon="10.212565232551649"><ele>704.3333333333334</ele><time>2026-05-03T11:13:29.999Z</time></trkpt><trkpt lat="44.60825183528654" lon="10.212649058352568"><ele>702.5</ele><time>2026-05-03T11:13:30.999Z</time></trkpt><trkpt lat="44.60828525946905" lon="10.212744824517664"><ele>700.6666666666667</ele><time>2026-05-03T11:13:31.999Z</time></trkpt><trkpt lat="44.608303467641896" lon="10.212837011467006"><ele>698.8333333333334</ele><time>2026-05-03T11:13:32.999Z</time></trkpt><trkpt lat="44.60829832236339" lon="10.212926374036346"><ele>697.0</ele><time>2026-05-03T11:13:33.999Z</time></trkpt><trkpt lat="44.60830814522015" lon="10.213114097256117"><ele>694.6666666666667</ele><time>2026-05-03T11:13:35.999Z</time></trkpt><trkpt lat="44.608337381841274" lon="10.213281903258638"><ele>692.3333333333334</ele><time>2026-05-03T11:13:37.999Z</time></trkpt><trkpt lat="44.60838072876774" lon="10.213373897921267"><ele>690.0</ele><time>2026-05-03T11:13:38.999Z</time></trkpt><trkpt lat="44.60840634978949" lon="10.213461733882747"><ele>687.6666666666666</ele><time>2026-05-03T11:13:39.999Z</time></trkpt><trkpt lat="44.60844383142836" lon="10.213565029515204"><ele>685.3333333333333</ele><time>2026-05-03T11:13:40.999Z</time></trkpt><trkpt lat="44.608458727551" lon="10.213674161790093"><ele>683.0</ele><time>2026-05-03T11:13:41.999Z</time></trkpt><trkpt lat="44.608460407433874" lon="10.213785053762862"><ele>683.0</ele><time>2026-05-03T11:13:42.999Z</time></trkpt><trkpt lat="44.60846248430778" lon="10.213879872524535"><ele>683.0</ele><time>2026-05-03T11:13:43.999Z</time></trkpt><trkpt lat="44.60849155696931" lon="10.213979586037398"><ele>683.0</ele><time>2026-05-03T11:13:44.999Z</time></trkpt><trkpt lat="44.60851888137608" lon="10.214072594116436"><ele>683.0</ele><time>2026-05-03T11:13:45.999Z</time></trkpt><trkpt lat="44.608550289661494" lon="10.214155803627726"><ele>683.0</ele><time>2026-05-03T11:13:46.999Z</time></trkpt><trkpt lat="44.608602676262144" lon="10.2142692349316"><ele>683.0</ele><time>2026-05-03T11:13:48.999Z</time></trkpt><trkpt lat="44.608606267039285" lon="10.214377710333855"><ele>680.5</ele><time>2026-05-03T11:13:50.999Z</time></trkpt><trkpt lat="44.60858141297682" lon="10.214465313542224"><ele>678.0</ele><time>2026-05-03T11:13:52.999Z</time></trkpt><trkpt lat="44.60856206708034" lon="10.214574286918046"><ele>675.5</ele><time>2026-05-03T11:13:54.999Z</time></trkpt><trkpt lat="44.60855187492194" lon="10.21468173669257"><ele>673.0</ele><time>2026-05-03T11:13:56.999Z</time></trkpt><trkpt lat="44.60851977615128" lon="10.214792461921819"><ele>670.5</ele><time>2026-05-03T11:13:58.999Z</time></trkpt><trkpt lat="44.60845968058978" lon="10.214858406705165"><ele>668.0</ele><time>2026-05-03T11:14:00.999Z</time></trkpt><trkpt lat="44.60841338844101" lon="10.214932164623232"><ele>667.6666666666666</ele><time>2026-05-03T11:14:03.999Z</time></trkpt><trkpt lat="44.60840147606162" lon="10.215020921431584"><ele>667.3333333333333</ele><time>2026-05-03T11:14:06.999Z</time></trkpt><trkpt lat="44.60843089154593" lon="10.215103528102285"><ele>667.0</ele><time>2026-05-03T11:14:10.999Z</time></trkpt><trkpt lat="44.60848660700814" lon="10.215060668461671"><ele>666.6666666666666</ele><time>2026-05-03T11:14:12.999Z</time></trkpt><trkpt lat="44.60852477444271" lon="10.214970573917293"><ele>666.3333333333334</ele><time>2026-05-03T11:14:14.999Z</time></trkpt><trkpt lat="44.60859006185577" lon="10.21486554363802"><ele>666.0</ele><time>2026-05-03T11:14:16.999Z</time></trkpt><trkpt lat="44.60867630436388" lon="10.214740592338398"><ele>664.5999999999999</ele><time>2026-05-03T11:14:18.999Z</time></trkpt><trkpt lat="44.60873741663642" lon="10.214665209408452"><ele>663.2</ele><time>2026-05-03T11:14:19.999Z</time></trkpt><trkpt lat="44.60878708928027" lon="10.214548994970432"><ele>661.8</ele><time>2026-05-03T11:14:20.999Z</time></trkpt><trkpt lat="44.60884813312684" lon="10.214428662400696"><ele>660.4000000000001</ele><time>2026-05-03T11:14:21.999Z</time></trkpt><trkpt lat="44.60891591982759" lon="10.214335262732526"><ele>659.0</ele><time>2026-05-03T11:14:22.999Z</time></trkpt><trkpt lat="44.608990893062476" lon="10.214243529781038"><ele>659.0</ele><time>2026-05-03T11:14:23.999Z</time></trkpt><trkpt lat="44.60907085994203" lon="10.214133464895019"><ele>659.0</ele><time>2026-05-03T11:14:24.999Z</time></trkpt><trkpt lat="44.60915325422721" lon="10.21403713195164"><ele>659.0</ele><time>2026-05-03T11:14:25.999Z</time></trkpt><trkpt lat="44.60923123674833" lon="10.213941480545003"><ele>659.0</ele><time>2026-05-03T11:14:26.999Z</time></trkpt><trkpt lat="44.609298697147594" lon="10.213836525365"><ele>659.0</ele><time>2026-05-03T11:14:27.999Z</time></trkpt><trkpt lat="44.609360570758376" lon="10.21374523341827"><ele>656.3333333333333</ele><time>2026-05-03T11:14:28.999Z</time></trkpt><trkpt lat="44.60942966798898" lon="10.213664747776358"><ele>653.6666666666666</ele><time>2026-05-03T11:14:29.999Z</time></trkpt><trkpt lat="44.609494348867344" lon="10.213586473935196"><ele>651.0</ele><time>2026-05-03T11:14:30.999Z</time></trkpt><trkpt lat="44.60954914529732" lon="10.213509774135504"><ele>648.3333333333334</ele><time>2026-05-03T11:14:31.999Z</time></trkpt><trkpt lat="44.60957830184909" lon="10.213412805312378"><ele>645.6666666666667</ele><time>2026-05-03T11:14:32.999Z</time></trkpt><trkpt lat="44.60960633541853" lon="10.21331309248767"><ele>643.0</ele><time>2026-05-03T11:14:33.999Z</time></trkpt><trkpt lat="44.60963571402325" lon="10.213216550646623"><ele>644.5</ele><time>2026-05-03T11:14:34.998Z</time></trkpt><trkpt lat="44.60965697567424" lon="10.213126930323122"><ele>646.0</ele><time>2026-05-03T11:14:35.998Z</time></trkpt><trkpt lat="44.60966532356972" lon="10.213032692405823"><ele>647.5</ele><time>2026-05-03T11:14:36.998Z</time></trkpt><trkpt lat="44.60967622222305" lon="10.21292468608485"><ele>649.0</ele><time>2026-05-03T11:14:37.998Z</time></trkpt><trkpt lat="44.60968348668978" lon="10.21282239133902"><ele>650.5</ele><time>2026-05-03T11:14:38.998Z</time></trkpt><trkpt lat="44.60969422869355" lon="10.212720731548835"><ele>652.0</ele><time>2026-05-03T11:14:39.998Z</time></trkpt><trkpt lat="44.60970966731407" lon="10.212557785808489"><ele>652.0</ele><time>2026-05-03T11:14:41.998Z</time></trkpt><trkpt lat="44.609713546871696" lon="10.21245871371889"><ele>652.0</ele><time>2026-05-03T11:14:43.998Z</time></trkpt><trkpt lat="44.60976947352562" lon="10.21252282556261"><ele>652.0</ele><time>2026-05-03T11:14:45.999Z</time></trkpt><trkpt lat="44.609836482069646" lon="10.212572390456232"><ele>652.0</ele><time>2026-05-03T11:16:44Z</time></trkpt><trkpt lat="44.60991481164033" lon="10.212630011091953"><ele>652.0</ele><time>2026-05-03T11:16:46Z</time></trkpt><trkpt lat="44.610037780506254" lon="10.212665957074881"><ele>652.0</ele><time>2026-05-03T11:16:48Z</time></trkpt><trkpt lat="44.61010070733686" lon="10.212700307992067"><ele>652.0</ele><time>2026-05-03T11:16:49Z</time></trkpt><trkpt lat="44.61016329607616" lon="10.212737234950794"><ele>652.0</ele><time>2026-05-03T11:16:50Z</time></trkpt><trkpt lat="44.61024042112793" lon="10.212796704277784"><ele>652.0</ele><time>2026-05-03T11:16:51Z</time></trkpt><trkpt lat="44.61032242474569" lon="10.212881448284264"><ele>652.0</ele><time>2026-05-03T11:16:52Z</time></trkpt><trkpt lat="44.61040081880649" lon="10.212978896354425"><ele>652.0</ele><time>2026-05-03T11:16:53Z</time></trkpt><trkpt lat="44.610475866520716" lon="10.213066840303052"><ele>649.4</ele><time>2026-05-03T11:16:54Z</time></trkpt><trkpt lat="44.610549894108594" lon="10.213161601638866"><ele>646.8000000000001</ele><time>2026-05-03T11:16:55Z</time></trkpt><trkpt lat="44.61059789679653" lon="10.213288323035956"><ele>644.2</ele><time>2026-05-03T11:16:56Z</time></trkpt><trkpt lat="44.610660367451146" lon="10.213412255154633"><ele>641.6</ele><time>2026-05-03T11:16:57Z</time></trkpt><trkpt lat="44.610711206444044" lon="10.21352786424938"><ele>639.0</ele><time>2026-05-03T11:16:58Z</time></trkpt><trkpt lat="44.610775025272204" lon="10.213623321149916"><ele>639.0</ele><time>2026-05-03T11:16:59Z</time></trkpt><trkpt lat="44.61085358490343" lon="10.21369731427252"><ele>639.0</ele><time>2026-05-03T11:17:00Z</time></trkpt><trkpt lat="44.61093001939731" lon="10.213782441363785"><ele>639.0</ele><time>2026-05-03T11:17:01Z</time></trkpt><trkpt lat="44.61098755580721" lon="10.213895050564762"><ele>639.0</ele><time>2026-05-03T11:17:02Z</time></trkpt><trkpt lat="44.61099889218287" lon="10.21402624203153"><ele>639.0</ele><time>2026-05-03T11:17:03Z</time></trkpt><trkpt lat="44.61102767336077" lon="10.214166400898039"><ele>636.0</ele><time>2026-05-03T11:17:04Z</time></trkpt><trkpt lat="44.61104230812936" lon="10.214323862009227"><ele>633.0</ele><time>2026-05-03T11:17:05Z</time></trkpt><trkpt lat="44.61105575835177" lon="10.214487840085887"><ele>630.0</ele><time>2026-05-03T11:17:06Z</time></trkpt><trkpt lat="44.61108110948252" lon="10.214661661747357"><ele>627.0</ele><time>2026-05-03T11:17:07Z</time></trkpt><trkpt lat="44.61110305977872" lon="10.214847006232816"><ele>624.75</ele><time>2026-05-03T11:17:08Z</time></trkpt><trkpt lat="44.61111891035471" lon="10.215039789034472"><ele>622.5</ele><time>2026-05-03T11:17:09Z</time></trkpt><trkpt lat="44.611123192780795" lon="10.215227044288671"><ele>620.25</ele><time>2026-05-03T11:17:10Z</time></trkpt><trkpt lat="44.611097898494705" lon="10.215398004025639"><ele>618.0</ele><time>2026-05-03T11:17:11Z</time></trkpt><trkpt lat="44.611111101451435" lon="10.215562171020318"><ele>616.0</ele><time>2026-05-03T11:17:12Z</time></trkpt><trkpt lat="44.61111342172398" lon="10.215727123932997"><ele>614.0</ele><time>2026-05-03T11:17:13Z</time></trkpt><trkpt lat="44.61113067530708" lon="10.215896659500407"><ele>612.0</ele><time>2026-05-03T11:17:14Z</time></trkpt><trkpt lat="44.611145120282714" lon="10.216068258616597"><ele>610.0</ele><time>2026-05-03T11:17:15Z</time></trkpt><trkpt lat="44.61114878489034" lon="10.216252006998532"><ele>610.0</ele><time>2026-05-03T11:17:16Z</time></trkpt><trkpt lat="44.61114399751928" lon="10.216434486984756"><ele>610.0</ele><time>2026-05-03T11:17:17Z</time></trkpt><trkpt lat="44.61113995521915" lon="10.21661373179439"><ele>610.0</ele><time>2026-05-03T11:17:18Z</time></trkpt><trkpt lat="44.61113183417352" lon="10.2167872891536"><ele>610.0</ele><time>2026-05-03T11:17:19Z</time></trkpt><trkpt lat="44.61112720127718" lon="10.216945461497561"><ele>610.8333333333334</ele><time>2026-05-03T11:17:20Z</time></trkpt><trkpt lat="44.611129103413845" lon="10.217081189483762"><ele>611.6666666666667</ele><time>2026-05-03T11:17:21Z</time></trkpt><trkpt lat="44.611143211652134" lon="10.217203537716017"><ele>612.5</ele><time>2026-05-03T11:17:22Z</time></trkpt><trkpt lat="44.61119561039291" lon="10.217303519821957"><ele>613.3333333333334</ele><time>2026-05-03T11:17:23Z</time></trkpt><trkpt lat="44.61127129746683" lon="10.21737443403422"><ele>614.1666666666666</ele><time>2026-05-03T11:17:24Z</time></trkpt><trkpt lat="44.61132587990757" lon="10.217454780143548"><ele>615.0</ele><time>2026-05-03T11:17:25Z</time></trkpt><trkpt lat="44.61138551045166" lon="10.217533920653649"><ele>610.3333333333334</ele><time>2026-05-03T11:17:26Z</time></trkpt><trkpt lat="44.61159763577512" lon="10.2174161279614"><ele>605.6666666666667</ele><time>2026-05-03T11:17:27Z</time></trkpt><trkpt lat="44.61171277231444" lon="10.217438412943034"><ele>601.0</ele><time>2026-05-03T11:17:28Z</time></trkpt><trkpt lat="44.611821054299014" lon="10.217473400934338"><ele>601.0</ele><time>2026-05-03T11:17:29Z</time></trkpt><trkpt lat="44.61190954775016" lon="10.217525836265677"><ele>601.0</ele><time>2026-05-03T11:17:30Z</time></trkpt><trkpt lat="44.6119682414747" lon="10.217615428450404"><ele>601.0</ele><time>2026-05-03T11:17:31Z</time></trkpt><trkpt lat="44.61198959558279" lon="10.217736946574394"><ele>601.0</ele><time>2026-05-03T11:17:32Z</time></trkpt><trkpt lat="44.611977836614095" lon="10.217852802151993"><ele>601.0</ele><time>2026-05-03T11:17:33Z</time></trkpt><trkpt lat="44.61194095488749" lon="10.217965690720758"><ele>601.0</ele><time>2026-05-03T11:17:34Z</time></trkpt><trkpt lat="44.61190538446338" lon="10.218102506712107"><ele>599.5</ele><time>2026-05-03T11:17:35Z</time></trkpt><trkpt lat="44.61188741318298" lon="10.218220554663572"><ele>598.0</ele><time>2026-05-03T11:17:36Z</time></trkpt><trkpt lat="44.61187169426239" lon="10.218350609140812"><ele>596.5</ele><time>2026-05-03T11:17:37Z</time></trkpt><trkpt lat="44.61186618535363" lon="10.218482718996171"><ele>595.0</ele><time>2026-05-03T11:17:38Z</time></trkpt><trkpt lat="44.61187972225511" lon="10.218603501331712"><ele>593.5</ele><time>2026-05-03T11:17:39Z</time></trkpt><trkpt lat="44.6119041574938" lon="10.218703928849532"><ele>592.0</ele><time>2026-05-03T11:17:40Z</time></trkpt><trkpt lat="44.61192786633892" lon="10.218790185731802"><ele>592.0</ele><time>2026-05-03T11:17:41Z</time></trkpt><trkpt lat="44.611948541395726" lon="10.218920164164848"><ele>592.0</ele><time>2026-05-03T11:17:43Z</time></trkpt><trkpt lat="44.61198273344824" lon="10.219037337112942"><ele>592.0</ele><time>2026-05-03T11:17:45Z</time></trkpt><trkpt lat="44.611978707518915" lon="10.21921225014827"><ele>592.0</ele><time>2026-05-03T11:17:47Z</time></trkpt><trkpt lat="44.6119511255336" lon="10.219309660569033"><ele>592.0</ele><time>2026-05-03T11:17:48Z</time></trkpt><trkpt lat="44.611910128851186" lon="10.219415617551947"><ele>591.4</ele><time>2026-05-03T11:17:49Z</time></trkpt><trkpt lat="44.61184836743419" lon="10.219521127800233"><ele>590.8000000000001</ele><time>2026-05-03T11:17:50Z</time></trkpt><trkpt lat="44.611817360389374" lon="10.21965529894544"><ele>590.2</ele><time>2026-05-03T11:17:51Z</time></trkpt><trkpt lat="44.61181369317835" lon="10.219807521598812"><ele>589.6</ele><time>2026-05-03T11:17:52Z</time></trkpt><trkpt lat="44.61181769540137" lon="10.219962086392936"><ele>589.0</ele><time>2026-05-03T11:17:53Z</time></trkpt><trkpt lat="44.61181844078156" lon="10.220116226038988"><ele>588.6</ele><time>2026-05-03T11:17:54Z</time></trkpt><trkpt lat="44.61181581442229" lon="10.220268510210587"><ele>588.2</ele><time>2026-05-03T11:17:55Z</time></trkpt><trkpt lat="44.61180943897765" lon="10.22041978017464"><ele>587.8000000000001</ele><time>2026-05-03T11:17:56Z</time></trkpt><trkpt lat="44.61179733737518" lon="10.220570498435398"><ele>587.4</ele><time>2026-05-03T11:17:57Z</time></trkpt><trkpt lat="44.61178565907709" lon="10.22072454661899"><ele>587.0</ele><time>2026-05-03T11:17:58Z</time></trkpt><trkpt lat="44.61177288127509" lon="10.220875498994017"><ele>587.0</ele><time>2026-05-03T11:17:59Z</time></trkpt><trkpt lat="44.61175894296732" lon="10.221012052689227"><ele>587.0</ele><time>2026-05-03T11:18:00Z</time></trkpt><trkpt lat="44.61174164329329" lon="10.221145786343882"><ele>587.0</ele><time>2026-05-03T11:18:01Z</time></trkpt><trkpt lat="44.611726348469226" lon="10.2212744447684"><ele>587.0</ele><time>2026-05-03T11:18:02Z</time></trkpt><trkpt lat="44.611709176732845" lon="10.221390204594215"><ele>587.0</ele><time>2026-05-03T11:18:03Z</time></trkpt><trkpt lat="44.611688698548974" lon="10.22150293929897"><ele>586.1666666666666</ele><time>2026-05-03T11:18:04Z</time></trkpt><trkpt lat="44.611665304797334" lon="10.22160457854318"><ele>585.3333333333333</ele><time>2026-05-03T11:18:05Z</time></trkpt><trkpt lat="44.61165206003609" lon="10.221706109908428"><ele>584.5</ele><time>2026-05-03T11:18:06Z</time></trkpt><trkpt lat="44.61166590987275" lon="10.221812217278064"><ele>583.6666666666666</ele><time>2026-05-03T11:18:07Z</time></trkpt><trkpt lat="44.611695421800924" lon="10.221903440737051"><ele>582.8333333333334</ele><time>2026-05-03T11:18:08Z</time></trkpt><trkpt lat="44.611729356316324" lon="10.221994214577013"><ele>582.0</ele><time>2026-05-03T11:18:09Z</time></trkpt><trkpt lat="44.611762858122894" lon="10.222096010944579"><ele>582.0</ele><time>2026-05-03T11:18:10Z</time></trkpt><trkpt lat="44.611802116319566" lon="10.222207188197503"><ele>582.0</ele><time>2026-05-03T11:18:11Z</time></trkpt><trkpt lat="44.61184442262108" lon="10.22231957113519"><ele>582.0</ele><time>2026-05-03T11:18:12Z</time></trkpt><trkpt lat="44.61188752663862" lon="10.22244223285583"><ele>582.0</ele><time>2026-05-03T11:18:13Z</time></trkpt><trkpt lat="44.611933437209686" lon="10.222562798422084"><ele>582.0</ele><time>2026-05-03T11:18:14Z</time></trkpt><trkpt lat="44.61197593678267" lon="10.222681142308483"><ele>583.6666666666666</ele><time>2026-05-03T11:18:15Z</time></trkpt><trkpt lat="44.612004209494586" lon="10.222791165132582"><ele>585.3333333333334</ele><time>2026-05-03T11:18:16Z</time></trkpt><trkpt lat="44.612030057337016" lon="10.222898326195754"><ele>587.0</ele><time>2026-05-03T11:18:17Z</time></trkpt><trkpt lat="44.61205248487019" lon="10.222995708256436"><ele>588.6666666666667</ele><time>2026-05-03T11:18:18Z</time></trkpt><trkpt lat="44.61206325523292" lon="10.22309627758784"><ele>590.3333333333334</ele><time>2026-05-03T11:18:19Z</time></trkpt><trkpt lat="44.61206465893078" lon="10.223200901112381"><ele>592.0</ele><time>2026-05-03T11:18:20Z</time></trkpt><trkpt lat="44.612052585727234" lon="10.223325401345882"><ele>592.0</ele><time>2026-05-03T11:18:21Z</time></trkpt><trkpt lat="44.612027134272715" lon="10.223464558803093"><ele>592.0</ele><time>2026-05-03T11:18:22Z</time></trkpt><trkpt lat="44.611987378506626" lon="10.223605711943076"><ele>592.0</ele><time>2026-05-03T11:18:23Z</time></trkpt><trkpt lat="44.61194557053561" lon="10.22374971084781"><ele>592.0</ele><time>2026-05-03T11:18:24Z</time></trkpt><trkpt lat="44.611911607040796" lon="10.223891239532982"><ele>592.0</ele><time>2026-05-03T11:18:25Z</time></trkpt><trkpt lat="44.61187129770976" lon="10.224029369510268"><ele>585.6</ele><time>2026-05-03T11:18:26Z</time></trkpt><trkpt lat="44.61182723961995" lon="10.22416009730992"><ele>579.2</ele><time>2026-05-03T11:18:27Z</time></trkpt><trkpt lat="44.611799588444846" lon="10.224298289669585"><ele>572.8</ele><time>2026-05-03T11:18:28.001Z</time></trkpt><trkpt lat="44.61179217151815" lon="10.22444364679814"><ele>566.4</ele><time>2026-05-03T11:18:29.001Z</time></trkpt><trkpt lat="44.61177770699285" lon="10.224591807505176"><ele>560.0</ele><time>2026-05-03T11:18:30.001Z</time></trkpt><trkpt lat="44.61177044260683" lon="10.224743869254402"><ele>559.5</ele><time>2026-05-03T11:18:31.001Z</time></trkpt><trkpt lat="44.61176670680308" lon="10.224886337691075"><ele>559.0</ele><time>2026-05-03T11:18:32.001Z</time></trkpt><trkpt lat="44.611764458156955" lon="10.22498653485921"><ele>558.5</ele><time>2026-05-03T11:18:33.001Z</time></trkpt><trkpt lat="44.61176784551171" lon="10.225090026497314"><ele>558.0</ele><time>2026-05-03T11:18:34.001Z</time></trkpt><trkpt lat="44.611764501089354" lon="10.225192329545687"><ele>557.5</ele><time>2026-05-03T11:18:35.001Z</time></trkpt><trkpt lat="44.611752190951904" lon="10.22529062358444"><ele>557.0</ele><time>2026-05-03T11:18:36.001Z</time></trkpt><trkpt lat="44.61173890595118" lon="10.225385536549442"><ele>557.0</ele><time>2026-05-03T11:18:37.001Z</time></trkpt><trkpt lat="44.611711915393414" lon="10.225467092791497"><ele>557.0</ele><time>2026-05-03T11:18:38.001Z</time></trkpt><trkpt lat="44.611649216142375" lon="10.22557966688629"><ele>557.0</ele><time>2026-05-03T11:18:40.001Z</time></trkpt><trkpt lat="44.61161399971537" lon="10.225679941721538"><ele>557.0</ele><time>2026-05-03T11:18:42.001Z</time></trkpt><trkpt lat="44.61161884120686" lon="10.225771222192368"><ele>557.0</ele><time>2026-05-03T11:18:44.001Z</time></trkpt><trkpt lat="44.61168424855072" lon="10.225832678961757"><ele>557.0</ele><time>2026-05-03T11:18:46.001Z</time></trkpt><trkpt lat="44.611782437657254" lon="10.2258592229062"><ele>556.8000000000001</ele><time>2026-05-03T11:18:48Z</time></trkpt><trkpt lat="44.61188109094887" lon="10.225952835852157"><ele>556.6</ele><time>2026-05-03T11:18:50Z</time></trkpt><trkpt lat="44.61198535456609" lon="10.22604438091462"><ele>556.4000000000001</ele><time>2026-05-03T11:18:52Z</time></trkpt><trkpt lat="44.61207102081894" lon="10.226125126762595"><ele>556.2</ele><time>2026-05-03T11:18:54Z</time></trkpt><trkpt lat="44.61214359312428" lon="10.226225982740237"><ele>556.0</ele><time>2026-05-03T11:18:56Z</time></trkpt><trkpt lat="44.612173609220044" lon="10.226311935062233"><ele>556.8333333333334</ele><time>2026-05-03T11:18:57Z</time></trkpt><trkpt lat="44.612187846792494" lon="10.226419116915709"><ele>557.6666666666667</ele><time>2026-05-03T11:18:58Z</time></trkpt><trkpt lat="44.61219277955159" lon="10.226527245456507"><ele>558.5</ele><time>2026-05-03T11:18:59Z</time></trkpt><trkpt lat="44.61220143491" lon="10.226643456461767"><ele>559.3333333333334</ele><time>2026-05-03T11:19:00Z</time></trkpt><trkpt lat="44.61221327024286" lon="10.226768147960831"><ele>560.1666666666666</ele><time>2026-05-03T11:19:01Z</time></trkpt><trkpt lat="44.612239171894764" lon="10.2268835199127"><ele>561.0</ele><time>2026-05-03T11:19:02Z</time></trkpt><trkpt lat="44.61229070911551" lon="10.226980362823998"><ele>561.0</ele><time>2026-05-03T11:19:03Z</time></trkpt><trkpt lat="44.612365888764835" lon="10.227053119800111"><ele>561.0</ele><time>2026-05-03T11:19:04Z</time></trkpt><trkpt lat="44.612457330620295" lon="10.227094514310577"><ele>561.0</ele><time>2026-05-03T11:19:05Z</time></trkpt><trkpt lat="44.61255551714802" lon="10.227126614550107"><ele>561.0</ele><time>2026-05-03T11:19:06Z</time></trkpt><trkpt lat="44.61266007301766" lon="10.227163069494306"><ele>561.0</ele><time>2026-05-03T11:19:07Z</time></trkpt><trkpt lat="44.61276682524071" lon="10.227202358541087"><ele>558.2</ele><time>2026-05-03T11:19:08Z</time></trkpt><trkpt lat="44.612876972615716" lon="10.227237437385762"><ele>555.4000000000001</ele><time>2026-05-03T11:19:09Z</time></trkpt><trkpt lat="44.61298907688818" lon="10.227274775886492"><ele>552.6</ele><time>2026-05-03T11:19:10Z</time></trkpt><trkpt lat="44.61309700332757" lon="10.22731512228109"><ele>549.8000000000001</ele><time>2026-05-03T11:19:11Z</time></trkpt><trkpt lat="44.61319342089765" lon="10.227351815842434"><ele>547.0</ele><time>2026-05-03T11:19:12Z</time></trkpt><trkpt lat="44.61328273751663" lon="10.227385473643313"><ele>547.0</ele><time>2026-05-03T11:19:13Z</time></trkpt><trkpt lat="44.61337274121448" lon="10.227408032347363"><ele>547.0</ele><time>2026-05-03T11:19:14Z</time></trkpt><trkpt lat="44.61345895254292" lon="10.22743431180319"><ele>547.0</ele><time>2026-05-03T11:19:15Z</time></trkpt><trkpt lat="44.61353849742725" lon="10.22748376363626"><ele>547.0</ele><time>2026-05-03T11:19:16Z</time></trkpt><trkpt lat="44.61360918217863" lon="10.22756928246113"><ele>547.0</ele><time>2026-05-03T11:19:17Z</time></trkpt><trkpt lat="44.61366340754899" lon="10.22767966545804"><ele>547.8000000000001</ele><time>2026-05-03T11:19:18Z</time></trkpt><trkpt lat="44.61370970414921" lon="10.22780675639075"><ele>548.6</ele><time>2026-05-03T11:19:19Z</time></trkpt><trkpt lat="44.61374426225851" lon="10.22795077561558"><ele>549.4000000000001</ele><time>2026-05-03T11:19:20Z</time></trkpt><trkpt lat="44.61376918883888" lon="10.228107336181008"><ele>550.2</ele><time>2026-05-03T11:19:21Z</time></trkpt><trkpt lat="44.613789658145194" lon="10.228264265523189"><ele>551.0</ele><time>2026-05-03T11:19:22Z</time></trkpt><trkpt lat="44.61381411918269" lon="10.228416450040596"><ele>551.0</ele><time>2026-05-03T11:19:23Z</time></trkpt><trkpt lat="44.61383578293579" lon="10.228559194745479"><ele>551.0</ele><time>2026-05-03T11:19:24Z</time></trkpt><trkpt lat="44.61384971196896" lon="10.228700568560637"><ele>551.0</ele><time>2026-05-03T11:19:25Z</time></trkpt><trkpt lat="44.61385007981113" lon="10.228842998991087"><ele>551.0</ele><time>2026-05-03T11:19:26Z</time></trkpt><trkpt lat="44.61384349477265" lon="10.22899303177125"><ele>551.0</ele><time>2026-05-03T11:19:27Z</time></trkpt><trkpt lat="44.61382863701414" lon="10.229143526849214"><ele>551.2</ele><time>2026-05-03T11:19:28Z</time></trkpt><trkpt lat="44.61380415374867" lon="10.229299673673198"><ele>551.4000000000001</ele><time>2026-05-03T11:19:29Z</time></trkpt><trkpt lat="44.61378156156518" lon="10.229456363639525"><ele>551.6</ele><time>2026-05-03T11:19:30Z</time></trkpt><trkpt lat="44.61376473920409" lon="10.22961616053191"><ele>551.8000000000001</ele><time>2026-05-03T11:19:31Z</time></trkpt><trkpt lat="44.61374559955117" lon="10.229759331312968"><ele>552.0</ele><time>2026-05-03T11:19:32Z</time></trkpt><trkpt lat="44.613736224414424" lon="10.229905707362528"><ele>550.4</ele><time>2026-05-03T11:19:33Z</time></trkpt><trkpt lat="44.61373989957828" lon="10.230048482995016"><ele>548.8000000000001</ele><time>2026-05-03T11:19:34Z</time></trkpt><trkpt lat="44.61375141677987" lon="10.230205873094256"><ele>547.2</ele><time>2026-05-03T11:19:35Z</time></trkpt><trkpt lat="44.61377312457357" lon="10.23036129804963"><ele>545.6</ele><time>2026-05-03T11:19:36Z</time></trkpt><trkpt lat="44.61380090679899" lon="10.230523037275296"><ele>544.0</ele><time>2026-05-03T11:19:37Z</time></trkpt><trkpt lat="44.613851586316834" lon="10.230684392082232"><ele>541.5</ele><time>2026-05-03T11:19:38Z</time></trkpt><trkpt lat="44.61391434866023" lon="10.230835611289981"><ele>539.0</ele><time>2026-05-03T11:19:39Z</time></trkpt><trkpt lat="44.61398826937555" lon="10.230971516131076"><ele>536.5</ele><time>2026-05-03T11:19:40Z</time></trkpt><trkpt lat="44.6140478846326" lon="10.231105332458837"><ele>534.0</ele><time>2026-05-03T11:19:41Z</time></trkpt><trkpt lat="44.61410400074106" lon="10.231241310933319"><ele>534.0</ele><time>2026-05-03T11:19:42Z</time></trkpt><trkpt lat="44.61416447985394" lon="10.231376069339714"><ele>534.0</ele><time>2026-05-03T11:19:43Z</time></trkpt><trkpt lat="44.6142232603535" lon="10.231508545295132"><ele>534.0</ele><time>2026-05-03T11:19:44Z</time></trkpt><trkpt lat="44.61427970777204" lon="10.23164782293911"><ele>534.0</ele><time>2026-05-03T11:19:45Z</time></trkpt><trkpt lat="44.61433227225159" lon="10.231776514520773"><ele>534.0</ele><time>2026-05-03T11:19:46Z</time></trkpt><trkpt lat="44.614383694830735" lon="10.231894079393086"><ele>534.5</ele><time>2026-05-03T11:19:47Z</time></trkpt><trkpt lat="44.61443915005692" lon="10.232003682190351"><ele>535.0</ele><time>2026-05-03T11:19:48Z</time></trkpt><trkpt lat="44.61450077884516" lon="10.232105915868454"><ele>535.5</ele><time>2026-05-03T11:19:49Z</time></trkpt><trkpt lat="44.614567031737046" lon="10.232194667953872"><ele>536.0</ele><time>2026-05-03T11:19:50Z</time></trkpt><trkpt lat="44.61463139703213" lon="10.232276096954358"><ele>536.5</ele><time>2026-05-03T11:19:51Z</time></trkpt><trkpt lat="44.61468538627552" lon="10.232349479361494"><ele>537.0</ele><time>2026-05-03T11:19:52Z</time></trkpt><trkpt lat="44.61472714017999" lon="10.23242845681139"><ele>535.0</ele><time>2026-05-03T11:19:53Z</time></trkpt><trkpt lat="44.614781388257185" lon="10.232573407307521"><ele>533.0</ele><time>2026-05-03T11:19:55Z</time></trkpt><trkpt lat="44.61480553909892" lon="10.232717823017047"><ele>531.0</ele><time>2026-05-03T11:19:57.001Z</time></trkpt><trkpt lat="44.61478900142108" lon="10.2328896027663"><ele>529.0</ele><time>2026-05-03T11:19:59.001Z</time></trkpt><trkpt lat="44.614768594170165" lon="10.232997874647111"><ele>527.0</ele><time>2026-05-03T11:20:00.001Z</time></trkpt><trkpt lat="44.6147317302496" lon="10.23310917169058"><ele>526.2</ele><time>2026-05-03T11:20:01.001Z</time></trkpt><trkpt lat="44.6146925726133" lon="10.233212537497097"><ele>525.4000000000001</ele><time>2026-05-03T11:20:02.001Z</time></trkpt><trkpt lat="44.61464877157596" lon="10.233339630956085"><ele>524.5999999999999</ele><time>2026-05-03T11:20:03.001Z</time></trkpt><trkpt lat="44.61460577581858" lon="10.23347854391925"><ele>523.8</ele><time>2026-05-03T11:20:04.001Z</time></trkpt><trkpt lat="44.61456098721465" lon="10.233628390008077"><ele>523.0</ele><time>2026-05-03T11:20:05.001Z</time></trkpt><trkpt lat="44.61451580255665" lon="10.23376448361096"><ele>521.0</ele><time>2026-05-03T11:20:06.001Z</time></trkpt><trkpt lat="44.61448040674273" lon="10.233890077358673"><ele>519.0</ele><time>2026-05-03T11:20:07.001Z</time></trkpt><trkpt lat="44.6144461819537" lon="10.234004745605294"><ele>517.0</ele><time>2026-05-03T11:20:08.001Z</time></trkpt><trkpt lat="44.61441300175001" lon="10.2341156239519"><ele>515.0</ele><time>2026-05-03T11:20:09.001Z</time></trkpt><trkpt lat="44.61437622703973" lon="10.234237551148988"><ele>513.0</ele><time>2026-05-03T11:20:10.001Z</time></trkpt><trkpt lat="44.61434169581213" lon="10.234376546335703"><ele>512.5</ele><time>2026-05-03T11:20:11.001Z</time></trkpt><trkpt lat="44.614306443883" lon="10.234519985387537"><ele>512.0</ele><time>2026-05-03T11:20:12.001Z</time></trkpt><trkpt lat="44.61426858540675" lon="10.234669945534515"><ele>511.5</ele><time>2026-05-03T11:20:13.001Z</time></trkpt><trkpt lat="44.614225683076164" lon="10.234813871876796"><ele>511.0</ele><time>2026-05-03T11:20:14.001Z</time></trkpt><trkpt lat="44.61415675484956" lon="10.234956505096399"><ele>511.0</ele><time>2026-05-03T11:20:15.001Z</time></trkpt><trkpt lat="44.61406348965523" lon="10.235089998578683"><ele>511.0</ele><time>2026-05-03T11:20:16.001Z</time></trkpt><trkpt lat="44.61398369938634" lon="10.235208910447499"><ele>511.0</ele><time>2026-05-03T11:20:17.001Z</time></trkpt><trkpt lat="44.61391690199936" lon="10.235334329874258"><ele>511.0</ele><time>2026-05-03T11:20:18.001Z</time></trkpt><trkpt lat="44.6138568960165" lon="10.235474151446548"><ele>511.0</ele><time>2026-05-03T11:20:19.001Z</time></trkpt><trkpt lat="44.61379552637199" lon="10.23561979163138"><ele>511.0</ele><time>2026-05-03T11:20:20.001Z</time></trkpt><trkpt lat="44.613735075169004" lon="10.235767927900504"><ele>511.0</ele><time>2026-05-03T11:20:21.001Z</time></trkpt><trkpt lat="44.61366877180349" lon="10.235917684255428"><ele>511.0</ele><time>2026-05-03T11:20:22.001Z</time></trkpt><trkpt lat="44.61359642564597" lon="10.236066075560215"><ele>508.75</ele><time>2026-05-03T11:20:23.001Z</time></trkpt><trkpt lat="44.613526053910256" lon="10.236212468571365"><ele>506.5</ele><time>2026-05-03T11:20:24.001Z</time></trkpt><trkpt lat="44.613462622105224" lon="10.23635303178662"><ele>504.25</ele><time>2026-05-03T11:20:25.001Z</time></trkpt><trkpt lat="44.6134006573835" lon="10.236491364394851"><ele>502.0</ele><time>2026-05-03T11:20:26.001Z</time></trkpt><trkpt lat="44.61334371059128" lon="10.236625659962108"><ele>501.75</ele><time>2026-05-03T11:20:27.001Z</time></trkpt><trkpt lat="44.61329593446381" lon="10.236768207107103"><ele>501.5</ele><time>2026-05-03T11:20:28.001Z</time></trkpt><trkpt lat="44.61326458503838" lon="10.23693544259263"><ele>501.25</ele><time>2026-05-03T11:20:29.001Z</time></trkpt><trkpt lat="44.613244782800734" lon="10.237104769175396"><ele>501.0</ele><time>2026-05-03T11:20:30.001Z</time></trkpt><trkpt lat="44.61322299778291" lon="10.237273749598883"><ele>499.25</ele><time>2026-05-03T11:20:31.001Z</time></trkpt><trkpt lat="44.61318041903922" lon="10.237437521917483"><ele>497.5</ele><time>2026-05-03T11:20:32.001Z</time></trkpt><trkpt lat="44.61312551338028" lon="10.23759922856597"><ele>495.75</ele><time>2026-05-03T11:20:33.001Z</time></trkpt><trkpt lat="44.61305427846875" lon="10.237752072560726"><ele>494.0</ele><time>2026-05-03T11:20:34.001Z</time></trkpt><trkpt lat="44.61297932665811" lon="10.237907096103411"><ele>494.0</ele><time>2026-05-03T11:20:35.001Z</time></trkpt><trkpt lat="44.61291014194722" lon="10.238061531786066"><ele>494.0</ele><time>2026-05-03T11:20:36.001Z</time></trkpt><trkpt lat="44.612837827279925" lon="10.238221334123857"><ele>494.0</ele><time>2026-05-03T11:20:37.001Z</time></trkpt><trkpt lat="44.61276731441938" lon="10.238379591382257"><ele>494.0</ele><time>2026-05-03T11:20:38.001Z</time></trkpt><trkpt lat="44.612695597324446" lon="10.23852327312192"><ele>492.25</ele><time>2026-05-03T11:20:39.001Z</time></trkpt><trkpt lat="44.61261139094275" lon="10.238656812151419"><ele>490.5</ele><time>2026-05-03T11:20:40.001Z</time></trkpt><trkpt lat="44.61253367140539" lon="10.238778449696033"><ele>488.75</ele><time>2026-05-03T11:20:41.001Z</time></trkpt><trkpt lat="44.61244150656505" lon="10.238887961892022"><ele>487.0</ele><time>2026-05-03T11:20:42.001Z</time></trkpt><trkpt lat="44.6123459813033" lon="10.238988298556933"><ele>486.5</ele><time>2026-05-03T11:20:43.001Z</time></trkpt><trkpt lat="44.61224295573172" lon="10.239098327304275"><ele>486.0</ele><time>2026-05-03T11:20:44.001Z</time></trkpt><trkpt lat="44.61214488267583" lon="10.239199396431053"><ele>485.5</ele><time>2026-05-03T11:20:45.001Z</time></trkpt><trkpt lat="44.612055725112356" lon="10.239302107256284"><ele>485.0</ele><time>2026-05-03T11:20:46.001Z</time></trkpt><trkpt lat="44.61198774788655" lon="10.239415727652895"><ele>483.0</ele><time>2026-05-03T11:20:47.001Z</time></trkpt><trkpt lat="44.611946552560724" lon="10.239552744159557"><ele>481.0</ele><time>2026-05-03T11:20:48.001Z</time></trkpt><trkpt lat="44.61193709241051" lon="10.239721252125898"><ele>479.0</ele><time>2026-05-03T11:20:49.001Z</time></trkpt><trkpt lat="44.6119292777822" lon="10.239871253306601"><ele>477.0</ele><time>2026-05-03T11:20:50.001Z</time></trkpt><trkpt lat="44.61192406991411" lon="10.240005914544868"><ele>475.0</ele><time>2026-05-03T11:20:51.001Z</time></trkpt><trkpt lat="44.611927043784746" lon="10.240119575684776"><ele>474.83333333333337</ele><time>2026-05-03T11:20:52.001Z</time></trkpt><trkpt lat="44.611959792363365" lon="10.240219818068082"><ele>474.6666666666667</ele><time>2026-05-03T11:20:53.001Z</time></trkpt><trkpt lat="44.61201815055372" lon="10.240305886433813"><ele>474.5</ele><time>2026-05-03T11:20:54.001Z</time></trkpt><trkpt lat="44.6121040498946" lon="10.240374288698176"><ele>474.33333333333337</ele><time>2026-05-03T11:20:55.001Z</time></trkpt><trkpt lat="44.61219384498028" lon="10.24042354570886"><ele>474.1666666666667</ele><time>2026-05-03T11:20:56.001Z</time></trkpt><trkpt lat="44.612273856209555" lon="10.240476901344863"><ele>474.0</ele><time>2026-05-03T11:20:57.001Z</time></trkpt><trkpt lat="44.61231752162137" lon="10.240551600759762"><ele>471.79999999999995</ele><time>2026-05-03T11:20:58.001Z</time></trkpt><trkpt lat="44.612323539557146" lon="10.240658047540053"><ele>469.59999999999997</ele><time>2026-05-03T11:20:59.001Z</time></trkpt><trkpt lat="44.61229438982232" lon="10.240775879650869"><ele>467.4</ele><time>2026-05-03T11:21:00.001Z</time></trkpt><trkpt lat="44.612238841075985" lon="10.24089294525222"><ele>465.2</ele><time>2026-05-03T11:21:01.001Z</time></trkpt><trkpt lat="44.61217335062251" lon="10.241006979276015"><ele>463.0</ele><time>2026-05-03T11:21:02.001Z</time></trkpt><trkpt lat="44.612112476628695" lon="10.24112930068407"><ele>463.0</ele><time>2026-05-03T11:21:03.001Z</time></trkpt><trkpt lat="44.612041427058585" lon="10.241254899269025"><ele>463.0</ele><time>2026-05-03T11:21:04.001Z</time></trkpt><trkpt lat="44.611956106483" lon="10.241350804684691"><ele>463.0</ele><time>2026-05-03T11:21:05.001Z</time></trkpt><trkpt lat="44.61185313562591" lon="10.241424776983294"><ele>463.0</ele><time>2026-05-03T11:21:06.001Z</time></trkpt><trkpt lat="44.61173399088689" lon="10.241465434398496"><ele>463.5</ele><time>2026-05-03T11:21:07.001Z</time></trkpt><trkpt lat="44.61161033690021" lon="10.241461783159489"><ele>464.0</ele><time>2026-05-03T11:21:08.001Z</time></trkpt><trkpt lat="44.61148471635313" lon="10.241431076193166"><ele>464.5</ele><time>2026-05-03T11:21:09.001Z</time></trkpt><trkpt lat="44.611359848311565" lon="10.241393402664697"><ele>465.0</ele><time>2026-05-03T11:21:10.001Z</time></trkpt><trkpt lat="44.61123752737004" lon="10.241365796697238"><ele>461.5</ele><time>2026-05-03T11:21:11.001Z</time></trkpt><trkpt lat="44.6111178409601" lon="10.241336359048091"><ele>458.0</ele><time>2026-05-03T11:21:12.001Z</time></trkpt><trkpt lat="44.61100611532707" lon="10.241315228141012"><ele>454.5</ele><time>2026-05-03T11:21:13.001Z</time></trkpt><trkpt lat="44.61089239960664" lon="10.241318964327952"><ele>451.0</ele><time>2026-05-03T11:21:14.001Z</time></trkpt><trkpt lat="44.61079122948002" lon="10.241341734032318"><ele>451.0</ele><time>2026-05-03T11:21:15.001Z</time></trkpt><trkpt lat="44.61069660724517" lon="10.241390041306618"><ele>451.0</ele><time>2026-05-03T11:21:16.001Z</time></trkpt><trkpt lat="44.61061311215333" lon="10.241474051411108"><ele>451.0</ele><time>2026-05-03T11:21:17.001Z</time></trkpt><trkpt lat="44.61056277076032" lon="10.241567152110347"><ele>451.0</ele><time>2026-05-03T11:21:18.001Z</time></trkpt><trkpt lat="44.610539178741334" lon="10.241691432528386"><ele>451.0</ele><time>2026-05-03T11:21:19.001Z</time></trkpt><trkpt lat="44.61055440570628" lon="10.241837097193502"><ele>450.25</ele><time>2026-05-03T11:21:20.001Z</time></trkpt><trkpt lat="44.61060847815348" lon="10.241986977397527"><ele>449.5</ele><time>2026-05-03T11:21:21.001Z</time></trkpt><trkpt lat="44.61068886317331" lon="10.242133134169453"><ele>448.75</ele><time>2026-05-03T11:21:22.001Z</time></trkpt><trkpt lat="44.610775773799155" lon="10.242284988783755"><ele>448.0</ele><time>2026-05-03T11:21:23.001Z</time></trkpt><trkpt lat="44.610858833165516" lon="10.242433221913936"><ele>447.0</ele><time>2026-05-03T11:21:24.001Z</time></trkpt><trkpt lat="44.6109395858322" lon="10.242586103871254"><ele>446.0</ele><time>2026-05-03T11:21:25.001Z</time></trkpt><trkpt lat="44.611020374180534" lon="10.242737848260365"><ele>445.0</ele><time>2026-05-03T11:21:26.001Z</time></trkpt><trkpt lat="44.61110696127562" lon="10.242891323659487"><ele>444.0</ele><time>2026-05-03T11:21:27.001Z</time></trkpt><trkpt lat="44.61119642547924" lon="10.243048233627185"><ele>442.0</ele><time>2026-05-03T11:21:28.001Z</time></trkpt><trkpt lat="44.61127837139172" lon="10.243201042683873"><ele>440.0</ele><time>2026-05-03T11:21:29.001Z</time></trkpt><trkpt lat="44.61136164209889" lon="10.243355227660675"><ele>438.0</ele><time>2026-05-03T11:21:30.001Z</time></trkpt><trkpt lat="44.6114366195594" lon="10.243488011710035"><ele>436.0</ele><time>2026-05-03T11:21:31.001Z</time></trkpt><trkpt lat="44.61151151960329" lon="10.243624816708609"><ele>436.0</ele><time>2026-05-03T11:21:32.001Z</time></trkpt><trkpt lat="44.61157863565261" lon="10.2437526591414"><ele>436.0</ele><time>2026-05-03T11:21:33.001Z</time></trkpt><trkpt lat="44.61163966211555" lon="10.243881239209523"><ele>436.0</ele><time>2026-05-03T11:21:34.001Z</time></trkpt><trkpt lat="44.61170927473232" lon="10.244013220801381"><ele>436.0</ele><time>2026-05-03T11:21:35.001Z</time></trkpt><trkpt lat="44.61177587182357" lon="10.24415295302466"><ele>434.25</ele><time>2026-05-03T11:21:36.001Z</time></trkpt><trkpt lat="44.61183997087854" lon="10.244300004803977"><ele>432.5</ele><time>2026-05-03T11:21:37.001Z</time></trkpt><trkpt lat="44.61188723698014" lon="10.244454630974396"><ele>430.75</ele><time>2026-05-03T11:21:38.001Z</time></trkpt><trkpt lat="44.61190635204293" lon="10.244624391914497"><ele>429.0</ele><time>2026-05-03T11:21:39.001Z</time></trkpt><trkpt lat="44.61189393224476" lon="10.244829018568506"><ele>427.25</ele><time>2026-05-03T11:21:40.001Z</time></trkpt><trkpt lat="44.61187703482964" lon="10.245032746779758"><ele>425.5</ele><time>2026-05-03T11:21:41.001Z</time></trkpt><trkpt lat="44.611861131735004" lon="10.245238791967916"><ele>423.75</ele><time>2026-05-03T11:21:42.001Z</time></trkpt><trkpt lat="44.61185105782263" lon="10.245439609083618"><ele>422.0</ele><time>2026-05-03T11:21:43.001Z</time></trkpt><trkpt lat="44.61185586656608" lon="10.245624813855391"><ele>419.25</ele><time>2026-05-03T11:21:44.001Z</time></trkpt><trkpt lat="44.6118764309971" lon="10.245812213754675"><ele>416.5</ele><time>2026-05-03T11:21:45.001Z</time></trkpt><trkpt lat="44.6118990160201" lon="10.246004502756797"><ele>413.75</ele><time>2026-05-03T11:21:46.001Z</time></trkpt><trkpt lat="44.61192044273232" lon="10.24621348158218"><ele>411.0</ele><time>2026-05-03T11:21:47.001Z</time></trkpt><trkpt lat="44.61192900953982" lon="10.246420792597435"><ele>409.25</ele><time>2026-05-03T11:21:48.001Z</time></trkpt><trkpt lat="44.6119259747042" lon="10.246634888225097"><ele>407.5</ele><time>2026-05-03T11:21:49.001Z</time></trkpt><trkpt lat="44.61190134999765" lon="10.246846368821307"><ele>405.75</ele><time>2026-05-03T11:21:50.001Z</time></trkpt><trkpt lat="44.61185771717632" lon="10.247035964731728"><ele>404.0</ele><time>2026-05-03T11:21:51.001Z</time></trkpt><trkpt lat="44.61178797389256" lon="10.247216332561573"><ele>404.25</ele><time>2026-05-03T11:21:52.001Z</time></trkpt><trkpt lat="44.61169742179795" lon="10.247371230224752"><ele>404.5</ele><time>2026-05-03T11:21:53.001Z</time></trkpt><trkpt lat="44.61161244658711" lon="10.247491735538867"><ele>404.75</ele><time>2026-05-03T11:21:54.001Z</time></trkpt><trkpt lat="44.61154344632076" lon="10.24760712200132"><ele>405.0</ele><time>2026-05-03T11:21:55.001Z</time></trkpt><trkpt lat="44.61150330474107" lon="10.247749379477948"><ele>405.0</ele><time>2026-05-03T11:21:56.001Z</time></trkpt><trkpt lat="44.611474417353016" lon="10.247913623256844"><ele>405.0</ele><time>2026-05-03T11:21:57.001Z</time></trkpt><trkpt lat="44.61146046574796" lon="10.248100619586287"><ele>405.0</ele><time>2026-05-03T11:21:58.001Z</time></trkpt><trkpt lat="44.61145061632732" lon="10.248306596609956"><ele>405.0</ele><time>2026-05-03T11:21:59.001Z</time></trkpt><trkpt lat="44.611442176792465" lon="10.248489386853219"><ele>405.2</ele><time>2026-05-03T11:22:00.001Z</time></trkpt><trkpt lat="44.61144398502182" lon="10.248654358472331"><ele>405.4</ele><time>2026-05-03T11:22:01.001Z</time></trkpt><trkpt lat="44.61146387800966" lon="10.248797905321863"><ele>405.6</ele><time>2026-05-03T11:22:02.001Z</time></trkpt><trkpt lat="44.61151991889705" lon="10.248900252990648"><ele>405.8</ele><time>2026-05-03T11:22:03.001Z</time></trkpt><trkpt lat="44.61159302651916" lon="10.24899871875622"><ele>406.0</ele><time>2026-05-03T11:22:04.001Z</time></trkpt><trkpt lat="44.61168607084167" lon="10.249088851102236"><ele>404.75</ele><time>2026-05-03T11:22:05.001Z</time></trkpt><trkpt lat="44.61179485406374" lon="10.249179346582007"><ele>403.5</ele><time>2026-05-03T11:22:06.001Z</time></trkpt><trkpt lat="44.61189966227" lon="10.249275420032355"><ele>402.25</ele><time>2026-05-03T11:22:07.001Z</time></trkpt><trkpt lat="44.61198846727052" lon="10.249382262583135"><ele>401.0</ele><time>2026-05-03T11:22:08.001Z</time></trkpt><trkpt lat="44.61205303430818" lon="10.249518084802212"><ele>401.0</ele><time>2026-05-03T11:22:09.001Z</time></trkpt><trkpt lat="44.612099034908624" lon="10.249670520735547"><ele>401.0</ele><time>2026-05-03T11:22:10.001Z</time></trkpt><trkpt lat="44.6121164022813" lon="10.249853782004447"><ele>401.0</ele><time>2026-05-03T11:22:11.001Z</time></trkpt><trkpt lat="44.61212275594561" lon="10.250052646032099"><ele>401.0</ele><time>2026-05-03T11:22:12.001Z</time></trkpt><trkpt lat="44.612132288355504" lon="10.250255077990124"><ele>398.5</ele><time>2026-05-03T11:22:13.001Z</time></trkpt><trkpt lat="44.61214591922129" lon="10.250450705277391"><ele>396.0</ele><time>2026-05-03T11:22:14.001Z</time></trkpt><trkpt lat="44.61216711629624" lon="10.250645038938947"><ele>393.5</ele><time>2026-05-03T11:22:15.001Z</time></trkpt><trkpt lat="44.61218645431552" lon="10.25084423036011"><ele>391.0</ele><time>2026-05-03T11:22:16.001Z</time></trkpt><trkpt lat="44.6122176134243" lon="10.251036774190336"><ele>388.5</ele><time>2026-05-03T11:22:17.001Z</time></trkpt><trkpt lat="44.61225818725841" lon="10.251223708580673"><ele>386.0</ele><time>2026-05-03T11:22:18.001Z</time></trkpt><trkpt lat="44.61230947694719" lon="10.25141229838391"><ele>383.5</ele><time>2026-05-03T11:22:19.001Z</time></trkpt><trkpt lat="44.6123645837075" lon="10.251613640678782"><ele>381.0</ele><time>2026-05-03T11:22:20.001Z</time></trkpt><trkpt lat="44.61241347818041" lon="10.251812703684548"><ele>378.3333333333333</ele><time>2026-05-03T11:22:21.001Z</time></trkpt><trkpt lat="44.61245475094022" lon="10.252021522122375"><ele>375.66666666666663</ele><time>2026-05-03T11:22:22.001Z</time></trkpt><trkpt lat="44.61249213347931" lon="10.2522368810394"><ele>373.0</ele><time>2026-05-03T11:22:23.001Z</time></trkpt><trkpt lat="44.61253170509872" lon="10.252453609685059"><ele>371.25</ele><time>2026-05-03T11:22:24.001Z</time></trkpt><trkpt lat="44.612576671136324" lon="10.252659883854145"><ele>369.5</ele><time>2026-05-03T11:22:25.001Z</time></trkpt><trkpt lat="44.61262637977376" lon="10.252857434781085"><ele>367.75</ele><time>2026-05-03T11:22:26.001Z</time></trkpt><trkpt lat="44.612682667498575" lon="10.25304387849302"><ele>366.0</ele><time>2026-05-03T11:22:27.001Z</time></trkpt><trkpt lat="44.612738315603906" lon="10.253232934020154"><ele>364.5</ele><time>2026-05-03T11:22:28.001Z</time></trkpt><trkpt lat="44.61278561977021" lon="10.253424338980118"><ele>363.0</ele><time>2026-05-03T11:22:29.001Z</time></trkpt><trkpt lat="44.61282555208251" lon="10.253628135932564"><ele>361.5</ele><time>2026-05-03T11:22:30.001Z</time></trkpt><trkpt lat="44.61286223202474" lon="10.253830117942421"><ele>360.0</ele><time>2026-05-03T11:22:31.001Z</time></trkpt><trkpt lat="44.61289533979434" lon="10.254042548298285"><ele>358.5</ele><time>2026-05-03T11:22:32.001Z</time></trkpt><trkpt lat="44.61292232131364" lon="10.254246146058321"><ele>357.0</ele><time>2026-05-03T11:22:33.001Z</time></trkpt><trkpt lat="44.61295071985798" lon="10.254445183486537"><ele>355.5</ele><time>2026-05-03T11:22:34.001Z</time></trkpt><trkpt lat="44.61297922075087" lon="10.254648143505317"><ele>354.0</ele><time>2026-05-03T11:22:35.001Z</time></trkpt><trkpt lat="44.61300611480641" lon="10.254857374979688"><ele>352.25</ele><time>2026-05-03T11:22:36.001Z</time></trkpt><trkpt lat="44.6130261694377" lon="10.255063282188114"><ele>350.5</ele><time>2026-05-03T11:22:37.001Z</time></trkpt><trkpt lat="44.61303884712314" lon="10.255254413591992"><ele>348.75</ele><time>2026-05-03T11:22:38.001Z</time></trkpt><trkpt lat="44.61303745450917" lon="10.25543656942105"><ele>347.0</ele><time>2026-05-03T11:22:39.001Z</time></trkpt><trkpt lat="44.61302021229943" lon="10.25562408436855"><ele>345.75</ele><time>2026-05-03T11:22:40.001Z</time></trkpt><trkpt lat="44.6129902085727" lon="10.255818960307412"><ele>344.5</ele><time>2026-05-03T11:22:41.001Z</time></trkpt><trkpt lat="44.612965491816865" lon="10.25601276282882"><ele>343.25</ele><time>2026-05-03T11:22:42.001Z</time></trkpt><trkpt lat="44.61294239074705" lon="10.25619886434826"><ele>342.0</ele><time>2026-05-03T11:22:43.001Z</time></trkpt><trkpt lat="44.61292785214677" lon="10.256375810055685"><ele>340.0</ele><time>2026-05-03T11:22:44.001Z</time></trkpt><trkpt lat="44.612912887508855" lon="10.256553178783978"><ele>338.0</ele><time>2026-05-03T11:22:45.001Z</time></trkpt><trkpt lat="44.6128970035237" lon="10.256731600924066"><ele>336.0</ele><time>2026-05-03T11:22:46.001Z</time></trkpt><trkpt lat="44.61287216335183" lon="10.256902348324887"><ele>334.0</ele><time>2026-05-03T11:22:47.001Z</time></trkpt><trkpt lat="44.61284637669015" lon="10.257074642665224"><ele>333.0</ele><time>2026-05-03T11:22:48.001Z</time></trkpt><trkpt lat="44.6128190766791" lon="10.257237594563296"><ele>332.0</ele><time>2026-05-03T11:22:49.001Z</time></trkpt><trkpt lat="44.61278301311294" lon="10.25738771331957"><ele>331.0</ele><time>2026-05-03T11:22:50.001Z</time></trkpt><trkpt lat="44.61274583803036" lon="10.25752318135444"><ele>330.0</ele><time>2026-05-03T11:22:51.001Z</time></trkpt><trkpt lat="44.612731265025616" lon="10.257665750997342"><ele>329.0</ele><time>2026-05-03T11:22:52.001Z</time></trkpt><trkpt lat="44.61273392529448" lon="10.257813350949897"><ele>327.0</ele><time>2026-05-03T11:22:53.001Z</time></trkpt><trkpt lat="44.612762668903855" lon="10.257955578394487"><ele>325.0</ele><time>2026-05-03T11:22:54.001Z</time></trkpt><trkpt lat="44.61280018775162" lon="10.258101285728722"><ele>323.0</ele><time>2026-05-03T11:22:55.001Z</time></trkpt><trkpt lat="44.61283529169723" lon="10.258247225628576"><ele>321.0</ele><time>2026-05-03T11:22:56.001Z</time></trkpt><trkpt lat="44.612874528588286" lon="10.258382245710843"><ele>319.0</ele><time>2026-05-03T11:22:57.001Z</time></trkpt><trkpt lat="44.61291047568761" lon="10.258502314284815"><ele>318.3333333333333</ele><time>2026-05-03T11:22:58.001Z</time></trkpt><trkpt lat="44.6129412525639" lon="10.258607046284842"><ele>317.66666666666663</ele><time>2026-05-03T11:22:59.001Z</time></trkpt><trkpt lat="44.61296806558761" lon="10.258703525036575"><ele>317.0</ele><time>2026-05-03T11:23:00.001Z</time></trkpt><trkpt lat="44.61299490496367" lon="10.2587851350428"><ele>316.3333333333333</ele><time>2026-05-03T11:23:01.001Z</time></trkpt><trkpt lat="44.613019589786894" lon="10.258886318391989"><ele>315.6666666666667</ele><time>2026-05-03T11:23:03.001Z</time></trkpt><trkpt lat="44.61306137301235" lon="10.258975441315705"><ele>315.0</ele><time>2026-05-03T11:24:08.001Z</time></trkpt><trkpt lat="44.613096516842106" lon="10.259097571098438"><ele>314.4</ele><time>2026-05-03T11:24:10.001Z</time></trkpt><trkpt lat="44.61312528749647" lon="10.259239845837032"><ele>313.8</ele><time>2026-05-03T11:24:12.001Z</time></trkpt><trkpt lat="44.61317218530823" lon="10.25937774606543"><ele>313.2</ele><time>2026-05-03T11:24:14.001Z</time></trkpt><trkpt lat="44.613215430394824" lon="10.259515330053699"><ele>312.6</ele><time>2026-05-03T11:24:16.001Z</time></trkpt><trkpt lat="44.61323867992337" lon="10.259614954187974"><ele>312.0</ele><time>2026-05-03T11:24:17.001Z</time></trkpt><trkpt lat="44.61326777605772" lon="10.259726517366879"><ele>311.3333333333333</ele><time>2026-05-03T11:24:18.001Z</time></trkpt><trkpt lat="44.61329777892055" lon="10.259835948417118"><ele>310.6666666666667</ele><time>2026-05-03T11:24:19.001Z</time></trkpt><trkpt lat="44.6133296531571" lon="10.259942239942925"><ele>310.0</ele><time>2026-05-03T11:24:20.001Z</time></trkpt><trkpt lat="44.61336331187682" lon="10.26005166845348"><ele>309.33333333333337</ele><time>2026-05-03T11:24:21.001Z</time></trkpt><trkpt lat="44.61339052076405" lon="10.26016806177676"><ele>308.6666666666667</ele><time>2026-05-03T11:24:22.001Z</time></trkpt><trkpt lat="44.61342276570642" lon="10.260278921083026"><ele>308.0</ele><time>2026-05-03T11:24:23.001Z</time></trkpt><trkpt lat="44.61345564651443" lon="10.26039388084608"><ele>308.0</ele><time>2026-05-03T11:24:24.001Z</time></trkpt><trkpt lat="44.61349399858948" lon="10.260508563068646"><ele>308.0</ele><time>2026-05-03T11:24:25.001Z</time></trkpt><trkpt lat="44.61352819261204" lon="10.260625212162836"><ele>308.0</ele><time>2026-05-03T11:24:26.001Z</time></trkpt><trkpt lat="44.61355643265266" lon="10.260744940378348"><ele>308.0</ele><time>2026-05-03T11:24:27.001Z</time></trkpt><trkpt lat="44.61358198300871" lon="10.260869533490242"><ele>308.0</ele><time>2026-05-03T11:24:28.001Z</time></trkpt><trkpt lat="44.6136032506126" lon="10.26099881900471"><ele>306.4</ele><time>2026-05-03T11:24:29.001Z</time></trkpt><trkpt lat="44.613615979197334" lon="10.26112961104431"><ele>304.8</ele><time>2026-05-03T11:24:30.001Z</time></trkpt><trkpt lat="44.61362481388762" lon="10.26126234532528"><ele>303.2</ele><time>2026-05-03T11:24:31.001Z</time></trkpt><trkpt lat="44.61362538276739" lon="10.261397767552184"><ele>301.6</ele><time>2026-05-03T11:24:32.001Z</time></trkpt><trkpt lat="44.61361618831712" lon="10.261523426044507"><ele>300.0</ele><time>2026-05-03T11:24:33.001Z</time></trkpt><trkpt lat="44.61359630055181" lon="10.261636040681617"><ele>298.5</ele><time>2026-05-03T11:24:34.001Z</time></trkpt><trkpt lat="44.613587501296244" lon="10.261750693248604"><ele>297.0</ele><time>2026-05-03T11:24:35.001Z</time></trkpt><trkpt lat="44.6136046399416" lon="10.261861488974912"><ele>295.5</ele><time>2026-05-03T11:24:36.001Z</time></trkpt><trkpt lat="44.613648775936525" lon="10.261960070520823"><ele>294.0</ele><time>2026-05-03T11:24:37.001Z</time></trkpt><trkpt lat="44.6137172105894" lon="10.262050241781324"><ele>292.5</ele><time>2026-05-03T11:24:38.001Z</time></trkpt><trkpt lat="44.613804737106825" lon="10.262132630741373"><ele>291.0</ele><time>2026-05-03T11:24:39.001Z</time></trkpt><trkpt lat="44.613897082787574" lon="10.262213852828413"><ele>288.8</ele><time>2026-05-03T11:24:40.001Z</time></trkpt><trkpt lat="44.61398460604121" lon="10.26230185439551"><ele>286.6</ele><time>2026-05-03T11:24:41.001Z</time></trkpt><trkpt lat="44.614072082307665" lon="10.26239848682146"><ele>284.4</ele><time>2026-05-03T11:24:42.001Z</time></trkpt><trkpt lat="44.614156740656775" lon="10.262500922436182"><ele>282.2</ele><time>2026-05-03T11:24:43.001Z</time></trkpt><trkpt lat="44.61423965986331" lon="10.262604247376013"><ele>280.0</ele><time>2026-05-03T11:24:44.001Z</time></trkpt><trkpt lat="44.61432485038135" lon="10.262704279619388"><ele>280.0</ele><time>2026-05-03T11:24:45.001Z</time></trkpt><trkpt lat="44.61441588169201" lon="10.262786127557668"><ele>280.0</ele><time>2026-05-03T11:24:46.001Z</time></trkpt><trkpt lat="44.61450836249625" lon="10.26285471059724"><ele>280.0</ele><time>2026-05-03T11:24:47.001Z</time></trkpt><trkpt lat="44.614599702872965" lon="10.262916875471756"><ele>280.0</ele><time>2026-05-03T11:24:48.001Z</time></trkpt><trkpt lat="44.61469459762472" lon="10.262978474622527"><ele>280.0</ele><time>2026-05-03T11:24:49.001Z</time></trkpt><trkpt lat="44.61478434806303" lon="10.263040177872847"><ele>280.4</ele><time>2026-05-03T11:24:50.001Z</time></trkpt><trkpt lat="44.61485029414877" lon="10.263088008078189"><ele>280.8</ele><time>2026-05-03T11:24:51.001Z</time></trkpt><trkpt lat="44.61492625785619" lon="10.26314672902409"><ele>281.2</ele><time>2026-05-03T11:24:53.001Z</time></trkpt><trkpt lat="44.614912755253755" lon="10.263413268348158"><ele>281.6</ele><time>2026-05-03T11:24:56.001Z</time></trkpt><trkpt lat="44.61488314496096" lon="10.263511622186728"><ele>282.0</ele><time>2026-05-03T11:24:57.001Z</time></trkpt><trkpt lat="44.61485085863587" lon="10.263616213201182"><ele>281.1666666666667</ele><time>2026-05-03T11:24:58.001Z</time></trkpt><trkpt lat="44.61483689382429" lon="10.263731791728752"><ele>280.3333333333333</ele><time>2026-05-03T11:24:59.001Z</time></trkpt><trkpt lat="44.61485823736889" lon="10.263849892998941"><ele>279.5</ele><time>2026-05-03T11:25:00.001Z</time></trkpt><trkpt lat="44.61489354413831" lon="10.263942899949694"><ele>278.66666666666663</ele><time>2026-05-03T11:25:01.001Z</time></trkpt><trkpt lat="44.61493384729741" lon="10.264043736069677"><ele>277.8333333333333</ele><time>2026-05-03T11:25:02.001Z</time></trkpt><trkpt lat="44.61498121529099" lon="10.264156954043255"><ele>277.0</ele><time>2026-05-03T11:25:03.001Z</time></trkpt><trkpt lat="44.61502407038751" lon="10.264271101748255"><ele>276.4</ele><time>2026-05-03T11:25:04.001Z</time></trkpt><trkpt lat="44.61505733184708" lon="10.264363491636805"><ele>275.79999999999995</ele><time>2026-05-03T11:25:05.001Z</time></trkpt><trkpt lat="44.61508564144115" lon="10.264481617388462"><ele>275.2</ele><time>2026-05-03T11:25:07.001Z</time></trkpt><trkpt lat="44.61504644820036" lon="10.264618057516257"><ele>274.59999999999997</ele><time>2026-05-03T11:25:09.001Z</time></trkpt><trkpt lat="44.61505546577069" lon="10.264756439591888"><ele>274.0</ele><time>2026-05-03T11:25:11.001Z</time></trkpt><trkpt lat="44.615142521738406" lon="10.264802379565632"><ele>274.0</ele><time>2026-05-03T11:25:13.001Z</time></trkpt><trkpt lat="44.61519296468641" lon="10.264872283437953"><ele>274.0</ele><time>2026-05-03T11:25:15.001Z</time></trkpt><trkpt lat="44.61523485294359" lon="10.264789003718928"><ele>274.0</ele><time>2026-05-03T11:25:19.001Z</time></trkpt><trkpt lat="44.61529751846752" lon="10.264691053925475"><ele>274.0</ele><time>2026-05-03T11:25:21Z</time></trkpt><trkpt lat="44.615391755980056" lon="10.264653882048972"><ele>274.0</ele><time>2026-05-03T11:25:23Z</time></trkpt><trkpt lat="44.61549245392404" lon="10.264617608807578"><ele>274.0</ele><time>2026-05-03T11:25:25Z</time></trkpt><trkpt lat="44.61556160978863" lon="10.26460546117301"><ele>275.2</ele><time>2026-05-03T11:25:26Z</time></trkpt><trkpt lat="44.61563814104009" lon="10.26458873034451"><ele>276.4</ele><time>2026-05-03T11:25:27Z</time></trkpt><trkpt lat="44.61571183583965" lon="10.26457900485743"><ele>277.6</ele><time>2026-05-03T11:25:28Z</time></trkpt><trkpt lat="44.615802436036816" lon="10.264574913190675"><ele>278.8</ele><time>2026-05-03T11:25:29Z</time></trkpt><trkpt lat="44.61590880512837" lon="10.264592614332859"><ele>280.0</ele><time>2026-05-03T11:25:30Z</time></trkpt><trkpt lat="44.616029620469554" lon="10.264634458861794"><ele>280.0</ele><time>2026-05-03T11:25:31Z</time></trkpt><trkpt lat="44.61614807249921" lon="10.264681147684025"><ele>280.0</ele><time>2026-05-03T11:25:32Z</time></trkpt><trkpt lat="44.61626928651572" lon="10.264735789892283"><ele>280.0</ele><time>2026-05-03T11:25:33Z</time></trkpt><trkpt lat="44.61639629644864" lon="10.264782605841665"><ele>280.0</ele><time>2026-05-03T11:25:34Z</time></trkpt><trkpt lat="44.61652784828848" lon="10.264831722671506"><ele>279.6</ele><time>2026-05-03T11:25:35Z</time></trkpt><trkpt lat="44.616655279847386" lon="10.264884323015842"><ele>279.2</ele><time>2026-05-03T11:25:36Z</time></trkpt><trkpt lat="44.616765227357845" lon="10.26491920176863"><ele>278.8</ele><time>2026-05-03T11:25:37Z</time></trkpt><trkpt lat="44.61683290130342" lon="10.264943847424968"><ele>278.4</ele><time>2026-05-03T11:25:38Z</time></trkpt><trkpt lat="44.61692370962593" lon="10.265002348854908"><ele>278.0</ele><time>2026-05-03T11:25:40Z</time></trkpt><trkpt lat="44.61699972881007" lon="10.265021988445127"><ele>278.2</ele><time>2026-05-03T11:25:41Z</time></trkpt><trkpt lat="44.61704440318679" lon="10.265179969902771"><ele>278.4</ele><time>2026-05-03T11:25:42Z</time></trkpt><trkpt lat="44.61711464791072" lon="10.265281368434664"><ele>278.59999999999997</ele><time>2026-05-03T11:25:43Z</time></trkpt><trkpt lat="44.6171898149092" lon="10.26538004718372"><ele>278.8</ele><time>2026-05-03T11:25:44Z</time></trkpt><trkpt lat="44.617269779318335" lon="10.26549569939696"><ele>279.0</ele><time>2026-05-03T11:25:45Z</time></trkpt><trkpt lat="44.61735271150462" lon="10.265621391743077"><ele>279.0</ele><time>2026-05-03T11:25:46Z</time></trkpt><trkpt lat="44.61743783803531" lon="10.265761242825702"><ele>279.0</ele><time>2026-05-03T11:25:47Z</time></trkpt><trkpt lat="44.617525233380405" lon="10.265905249839513"><ele>279.0</ele><time>2026-05-03T11:25:48Z</time></trkpt><trkpt lat="44.617617173436635" lon="10.266049957512667"><ele>279.0</ele><time>2026-05-03T11:25:49Z</time></trkpt><trkpt lat="44.61771321414421" lon="10.266201411051625"><ele>279.0</ele><time>2026-05-03T11:25:50Z</time></trkpt><trkpt lat="44.61780823081379" lon="10.266361786007229"><ele>279.0</ele><time>2026-05-03T11:25:51Z</time></trkpt><trkpt lat="44.61790810887479" lon="10.266524854444759"><ele>279.0</ele><time>2026-05-03T11:25:52Z</time></trkpt><trkpt lat="44.61800812575161" lon="10.266690890866629"><ele>278.0</ele><time>2026-05-03T11:25:53Z</time></trkpt><trkpt lat="44.61810586093614" lon="10.266857909914497"><ele>277.0</ele><time>2026-05-03T11:25:54Z</time></trkpt><trkpt lat="44.61819920590568" lon="10.267012585379245"><ele>276.0</ele><time>2026-05-03T11:25:55Z</time></trkpt><trkpt lat="44.618291076289175" lon="10.267165852668311"><ele>275.0</ele><time>2026-05-03T11:25:56Z</time></trkpt><trkpt lat="44.61838733359788" lon="10.267324067920836"><ele>274.0</ele><time>2026-05-03T11:25:57Z</time></trkpt><trkpt lat="44.61848751845657" lon="10.26748660759995"><ele>273.0</ele><time>2026-05-03T11:25:58Z</time></trkpt><trkpt lat="44.61859022690985" lon="10.267655593802179"><ele>272.0</ele><time>2026-05-03T11:25:59Z</time></trkpt><trkpt lat="44.61869892431443" lon="10.267830966927452"><ele>271.33333333333337</ele><time>2026-05-03T11:26:00Z</time></trkpt><trkpt lat="44.61881020086322" lon="10.268007362007964"><ele>270.6666666666667</ele><time>2026-05-03T11:26:01Z</time></trkpt><trkpt lat="44.61891605657415" lon="10.268163419090083"><ele>270.0</ele><time>2026-05-03T11:26:02Z</time></trkpt><trkpt lat="44.61904314643918" lon="10.268327327782478"><ele>269.3333333333333</ele><time>2026-05-03T11:26:03Z</time></trkpt><trkpt lat="44.61916838212607" lon="10.268473669190314"><ele>268.66666666666663</ele><time>2026-05-03T11:26:04Z</time></trkpt><trkpt lat="44.61930102923755" lon="10.268616048592001"><ele>268.0</ele><time>2026-05-03T11:26:05Z</time></trkpt><trkpt lat="44.61942909416477" lon="10.268733757572354"><ele>266.66666666666663</ele><time>2026-05-03T11:26:06Z</time></trkpt><trkpt lat="44.619562542690645" lon="10.26884466071836"><ele>265.3333333333333</ele><time>2026-05-03T11:26:07Z</time></trkpt><trkpt lat="44.61969408477726" lon="10.268946128994614"><ele>264.0</ele><time>2026-05-03T11:26:08Z</time></trkpt><trkpt lat="44.61983127048297" lon="10.269036627761473"><ele>262.6666666666667</ele><time>2026-05-03T11:26:09Z</time></trkpt><trkpt lat="44.61997001267373" lon="10.2691159607558"><ele>261.33333333333337</ele><time>2026-05-03T11:26:10Z</time></trkpt><trkpt lat="44.62011384332162" lon="10.269182457944282"><ele>260.0</ele><time>2026-05-03T11:26:11Z</time></trkpt><trkpt lat="44.620256147751995" lon="10.269247955685923"><ele>259.33333333333337</ele><time>2026-05-03T11:26:12Z</time></trkpt><trkpt lat="44.62039607577248" lon="10.269316156464166"><ele>258.6666666666667</ele><time>2026-05-03T11:26:13Z</time></trkpt><trkpt lat="44.620540213856145" lon="10.269385484740603"><ele>258.0</ele><time>2026-05-03T11:26:14Z</time></trkpt><trkpt lat="44.62068289997287" lon="10.269454957500036"><ele>258.0</ele><time>2026-05-03T11:26:15Z</time></trkpt><trkpt lat="44.62082652646411" lon="10.269515215017035"><ele>258.0</ele><time>2026-05-03T11:26:16Z</time></trkpt><trkpt lat="44.62096907711212" lon="10.269573937373346"><ele>258.0</ele><time>2026-05-03T11:26:17Z</time></trkpt><trkpt lat="44.62110849141088" lon="10.269633422274843"><ele>258.0</ele><time>2026-05-03T11:26:18Z</time></trkpt><trkpt lat="44.62124764003905" lon="10.269694650961192"><ele>257.0</ele><time>2026-05-03T11:26:19Z</time></trkpt><trkpt lat="44.6213911529377" lon="10.269758338189838"><ele>256.0</ele><time>2026-05-03T11:26:20Z</time></trkpt><trkpt lat="44.62153515735352" lon="10.269820819391054"><ele>255.0</ele><time>2026-05-03T11:26:21Z</time></trkpt><trkpt lat="44.62167816776117" lon="10.26988742249931"><ele>253.25</ele><time>2026-05-03T11:26:22Z</time></trkpt><trkpt lat="44.6218169654621" lon="10.269946271427234"><ele>251.5</ele><time>2026-05-03T11:26:23Z</time></trkpt><trkpt lat="44.621960561950644" lon="10.270006155385035"><ele>249.75</ele><time>2026-05-03T11:26:24Z</time></trkpt><trkpt lat="44.622099635462156" lon="10.270067811495736"><ele>248.0</ele><time>2026-05-03T11:26:25Z</time></trkpt><trkpt lat="44.622244484444316" lon="10.270131164596474"><ele>248.0</ele><time>2026-05-03T11:26:26Z</time></trkpt><trkpt lat="44.62237727971181" lon="10.27018510803155"><ele>248.0</ele><time>2026-05-03T11:26:27Z</time></trkpt><trkpt lat="44.62250136953517" lon="10.270235016152384"><ele>248.0</ele><time>2026-05-03T11:26:28Z</time></trkpt><trkpt lat="44.62261815210428" lon="10.270272812357003"><ele>248.0</ele><time>2026-05-03T11:26:29Z</time></trkpt><trkpt lat="44.622723445491715" lon="10.270293544126524"><ele>248.00000000000003</ele><time>2026-05-03T11:26:30Z</time></trkpt><trkpt lat="44.62281376785567" lon="10.27030789397947"><ele>248.0</ele><time>2026-05-03T11:26:31Z</time></trkpt><trkpt lat="44.62288726728089" lon="10.27035799918544"><ele>248.0</ele><time>2026-05-03T11:26:32Z</time></trkpt><trkpt lat="44.62294108429151" lon="10.270451900046572"><ele>248.0</ele><time>2026-05-03T11:26:33Z</time></trkpt><trkpt lat="44.62299127439551" lon="10.27054190373558"><ele>248.00000000000003</ele><time>2026-05-03T11:26:34Z</time></trkpt><trkpt lat="44.623076373692825" lon="10.270591099647364"><ele>248.0</ele><time>2026-05-03T11:26:35Z</time></trkpt><trkpt lat="44.62318375920619" lon="10.270621319530912"><ele>246.75</ele><time>2026-05-03T11:26:36Z</time></trkpt><trkpt lat="44.62329806488588" lon="10.270661248873537"><ele>245.5</ele><time>2026-05-03T11:26:37Z</time></trkpt><trkpt lat="44.623422732675415" lon="10.270714900755964"><ele>244.25</ele><time>2026-05-03T11:26:38Z</time></trkpt><trkpt lat="44.62355028421394" lon="10.270752140016281"><ele>243.0</ele><time>2026-05-03T11:26:39Z</time></trkpt><trkpt lat="44.62368468851765" lon="10.27078367358896"><ele>242.75</ele><time>2026-05-03T11:26:40Z</time></trkpt><trkpt lat="44.62382418595451" lon="10.27083343341126"><ele>242.5</ele><time>2026-05-03T11:26:41Z</time></trkpt><trkpt lat="44.62396136173314" lon="10.270883903609992"><ele>242.25</ele><time>2026-05-03T11:26:42Z</time></trkpt><trkpt lat="44.62410490930533" lon="10.270929848339087"><ele>242.0</ele><time>2026-05-03T11:26:43Z</time></trkpt><trkpt lat="44.62425683526556" lon="10.270980054100557"><ele>242.0</ele><time>2026-05-03T11:26:44Z</time></trkpt><trkpt lat="44.62440095205297" lon="10.271045690480921"><ele>242.0</ele><time>2026-05-03T11:26:45Z</time></trkpt><trkpt lat="44.62454950361739" lon="10.271121468391787"><ele>242.0</ele><time>2026-05-03T11:26:46Z</time></trkpt><trkpt lat="44.62470116153364" lon="10.271199465789882"><ele>242.0</ele><time>2026-05-03T11:26:47Z</time></trkpt><trkpt lat="44.62485124929631" lon="10.271269272404838"><ele>242.0</ele><time>2026-05-03T11:26:48Z</time></trkpt><trkpt lat="44.62498334909395" lon="10.271331204793881"><ele>242.0</ele><time>2026-05-03T11:26:49Z</time></trkpt><trkpt lat="44.62510679376831" lon="10.271388344951902"><ele>242.0</ele><time>2026-05-03T11:26:50Z</time></trkpt><trkpt lat="44.62522820032757" lon="10.271443442175023"><ele>242.0</ele><time>2026-05-03T11:26:51Z</time></trkpt><trkpt lat="44.625364725733846" lon="10.271507259800533"><ele>242.0</ele><time>2026-05-03T11:26:52Z</time></trkpt><trkpt lat="44.625500719577104" lon="10.271573626322954"><ele>242.0</ele><time>2026-05-03T11:26:53Z</time></trkpt><trkpt lat="44.62564261323292" lon="10.271639632197834"><ele>242.0</ele><time>2026-05-03T11:26:54Z</time></trkpt><trkpt lat="44.62577745632872" lon="10.271705094572507"><ele>242.0</ele><time>2026-05-03T11:26:55Z</time></trkpt><trkpt lat="44.625897107867836" lon="10.27175863309032"><ele>242.0</ele><time>2026-05-03T11:26:56Z</time></trkpt><trkpt lat="44.6260091282515" lon="10.271808604544614"><ele>242.0</ele><time>2026-05-03T11:26:57Z</time></trkpt><trkpt lat="44.626089335983416" lon="10.271866483681006"><ele>242.0</ele><time>2026-05-03T11:26:58Z</time></trkpt><trkpt lat="44.62615891302781" lon="10.27193713935451"><ele>242.0</ele><time>2026-05-03T11:26:59Z</time></trkpt><trkpt lat="44.62621385735072" lon="10.272016857212705"><ele>242.0</ele><time>2026-05-03T11:27:00Z</time></trkpt><trkpt lat="44.62628829590656" lon="10.272089211844674"><ele>242.0</ele><time>2026-05-03T11:27:01Z</time></trkpt><trkpt lat="44.62638636384793" lon="10.272119497924432"><ele>242.0</ele><time>2026-05-03T11:27:02Z</time></trkpt><trkpt lat="44.62649440158548" lon="10.272109516241732"><ele>242.0</ele><time>2026-05-03T11:27:03Z</time></trkpt><trkpt lat="44.62661124613365" lon="10.272094134018591"><ele>242.0</ele><time>2026-05-03T11:27:04Z</time></trkpt><trkpt lat="44.626739450982484" lon="10.272125368890208"><ele>242.0</ele><time>2026-05-03T11:27:05Z</time></trkpt><trkpt lat="44.6268787134928" lon="10.272187977494127"><ele>242.0</ele><time>2026-05-03T11:27:06Z</time></trkpt><trkpt lat="44.62701385249375" lon="10.272257886595487"><ele>242.0</ele><time>2026-05-03T11:27:07Z</time></trkpt><trkpt lat="44.627152483012544" lon="10.272319763787245"><ele>242.0</ele><time>2026-05-03T11:27:08Z</time></trkpt><trkpt lat="44.627305577877344" lon="10.272382310683438"><ele>241.33333333333334</ele><time>2026-05-03T11:27:09Z</time></trkpt><trkpt lat="44.62745815693878" lon="10.272445747272828"><ele>240.66666666666669</ele><time>2026-05-03T11:27:10Z</time></trkpt><trkpt lat="44.627612386631334" lon="10.272510514154062"><ele>240.0</ele><time>2026-05-03T11:27:11Z</time></trkpt><trkpt lat="44.62776413513725" lon="10.272565272525924"><ele>240.0</ele><time>2026-05-03T11:27:12Z</time></trkpt><trkpt lat="44.62792324956983" lon="10.272615563577114"><ele>240.0</ele><time>2026-05-03T11:27:13Z</time></trkpt><trkpt lat="44.628079850387934" lon="10.272648974635043"><ele>240.0</ele><time>2026-05-03T11:27:14Z</time></trkpt><trkpt lat="44.62822098031618" lon="10.272674325932819"><ele>240.0</ele><time>2026-05-03T11:27:15Z</time></trkpt><trkpt lat="44.62836498240739" lon="10.272692689677722"><ele>240.0</ele><time>2026-05-03T11:27:16Z</time></trkpt><trkpt lat="44.628516585263846" lon="10.272704777607503"><ele>240.0</ele><time>2026-05-03T11:27:17Z</time></trkpt><trkpt lat="44.62867334010753" lon="10.272707298010445"><ele>239.33333333333331</ele><time>2026-05-03T11:27:18Z</time></trkpt><trkpt lat="44.628831571421635" lon="10.272712838745312"><ele>238.66666666666666</ele><time>2026-05-03T11:27:19Z</time></trkpt><trkpt lat="44.62899887388257" lon="10.272720408129006"><ele>238.0</ele><time>2026-05-03T11:27:20Z</time></trkpt><trkpt lat="44.629175954256276" lon="10.272726344441772"><ele>238.0</ele><time>2026-05-03T11:27:21Z</time></trkpt><trkpt lat="44.62934673780812" lon="10.272730025710255"><ele>238.0</ele><time>2026-05-03T11:27:22Z</time></trkpt><trkpt lat="44.629529166680946" lon="10.272727278381648"><ele>238.0</ele><time>2026-05-03T11:27:23Z</time></trkpt><trkpt lat="44.62970452133987" lon="10.272722470037484"><ele>238.33333333333331</ele><time>2026-05-03T11:27:24Z</time></trkpt><trkpt lat="44.62986646596888" lon="10.272707757572592"><ele>238.66666666666669</ele><time>2026-05-03T11:27:25Z</time></trkpt><trkpt lat="44.63002857598991" lon="10.272680457126798"><ele>239.0</ele><time>2026-05-03T11:27:26Z</time></trkpt><trkpt lat="44.63019645815403" lon="10.272636884886943"><ele>238.66666666666669</ele><time>2026-05-03T11:27:27Z</time></trkpt><trkpt lat="44.63037725005464" lon="10.272577838408571"><ele>238.33333333333331</ele><time>2026-05-03T11:27:28Z</time></trkpt><trkpt lat="44.630549232311914" lon="10.272517846307395"><ele>238.0</ele><time>2026-05-03T11:27:29Z</time></trkpt><trkpt lat="44.63073155659126" lon="10.272451487965633"><ele>238.0</ele><time>2026-05-03T11:27:30Z</time></trkpt><trkpt lat="44.63090629848652" lon="10.272394254670436"><ele>238.0</ele><time>2026-05-03T11:27:31Z</time></trkpt><trkpt lat="44.63106334061936" lon="10.272346010291821"><ele>238.0</ele><time>2026-05-03T11:27:32Z</time></trkpt><trkpt lat="44.63122342029759" lon="10.272298222046798"><ele>238.66666666666666</ele><time>2026-05-03T11:27:33Z</time></trkpt><trkpt lat="44.63138621293002" lon="10.27225511460382"><ele>239.33333333333331</ele><time>2026-05-03T11:27:34Z</time></trkpt><trkpt lat="44.63154959390466" lon="10.272223256052753"><ele>240.0</ele><time>2026-05-03T11:27:35Z</time></trkpt><trkpt lat="44.63171908768901" lon="10.272199815602011"><ele>240.0</ele><time>2026-05-03T11:27:36Z</time></trkpt><trkpt lat="44.6318923092613" lon="10.272200329498238"><ele>240.0</ele><time>2026-05-03T11:27:37Z</time></trkpt><trkpt lat="44.63205901693176" lon="10.272217224296776"><ele>240.0</ele><time>2026-05-03T11:27:38Z</time></trkpt><trkpt lat="44.63222873558933" lon="10.272254784899307"><ele>238.66666666666669</ele><time>2026-05-03T11:27:39Z</time></trkpt><trkpt lat="44.632412001994744" lon="10.27229672629379"><ele>237.33333333333334</ele><time>2026-05-03T11:27:40Z</time></trkpt><trkpt lat="44.63258476952783" lon="10.272337868026664"><ele>236.0</ele><time>2026-05-03T11:27:41Z</time></trkpt><trkpt lat="44.63276336983013" lon="10.272380875112427"><ele>235.33333333333334</ele><time>2026-05-03T11:27:42Z</time></trkpt><trkpt lat="44.63293217009557" lon="10.272422469143924"><ele>234.66666666666669</ele><time>2026-05-03T11:27:43Z</time></trkpt><trkpt lat="44.63309428127271" lon="10.272471514357658"><ele>234.0</ele><time>2026-05-03T11:27:44Z</time></trkpt><trkpt lat="44.63326261060125" lon="10.272523436007189"><ele>234.0</ele><time>2026-05-03T11:27:45Z</time></trkpt><trkpt lat="44.633427007138025" lon="10.272574457912352"><ele>234.0</ele><time>2026-05-03T11:27:46Z</time></trkpt><trkpt lat="44.63359055183847" lon="10.27262894486593"><ele>234.0</ele><time>2026-05-03T11:27:47Z</time></trkpt><trkpt lat="44.633749577451105" lon="10.272703102859122"><ele>234.33333333333331</ele><time>2026-05-03T11:27:48Z</time></trkpt><trkpt lat="44.63391971786868" lon="10.272787073493825"><ele>234.66666666666666</ele><time>2026-05-03T11:27:49Z</time></trkpt><trkpt lat="44.63408398397365" lon="10.272876365636053"><ele>235.0</ele><time>2026-05-03T11:27:50Z</time></trkpt><trkpt lat="44.6342489490092" lon="10.272964736643008"><ele>235.0</ele><time>2026-05-03T11:27:51Z</time></trkpt><trkpt lat="44.634403661062436" lon="10.273046530680789"><ele>235.0</ele><time>2026-05-03T11:27:52Z</time></trkpt><trkpt lat="44.634564215733924" lon="10.273129337775657"><ele>235.0</ele><time>2026-05-03T11:27:53Z</time></trkpt><trkpt lat="44.63472256069921" lon="10.273211030403017"><ele>234.33333333333331</ele><time>2026-05-03T11:27:54Z</time></trkpt><trkpt lat="44.634895834337605" lon="10.273297706726188"><ele>233.66666666666669</ele><time>2026-05-03T11:27:55Z</time></trkpt><trkpt lat="44.63505725480333" lon="10.273372592298998"><ele>233.0</ele><time>2026-05-03T11:27:56Z</time></trkpt><trkpt lat="44.63521086802195" lon="10.273411235282353"><ele>232.66666666666669</ele><time>2026-05-03T11:27:57Z</time></trkpt><trkpt lat="44.63536935385364" lon="10.27341647529529"><ele>232.33333333333331</ele><time>2026-05-03T11:27:58Z</time></trkpt><trkpt lat="44.63553330910937" lon="10.273398824768769"><ele>232.0</ele><time>2026-05-03T11:27:59Z</time></trkpt><trkpt lat="44.63568484651313" lon="10.273358265508534"><ele>232.0</ele><time>2026-05-03T11:28:00Z</time></trkpt><trkpt lat="44.63582613618452" lon="10.27329841200271"><ele>232.0</ele><time>2026-05-03T11:28:01Z</time></trkpt><trkpt lat="44.63597707462624" lon="10.27322344425249"><ele>232.0</ele><time>2026-05-03T11:28:02Z</time></trkpt><trkpt lat="44.63612883363497" lon="10.273147121657928"><ele>233.0</ele><time>2026-05-03T11:28:03Z</time></trkpt><trkpt lat="44.636284390637876" lon="10.273061257219531"><ele>234.0</ele><time>2026-05-03T11:28:04Z</time></trkpt><trkpt lat="44.63644282458297" lon="10.272967072842585"><ele>235.0</ele><time>2026-05-03T11:28:05Z</time></trkpt><trkpt lat="44.63661189895318" lon="10.27288020471312"><ele>235.0</ele><time>2026-05-03T11:28:06Z</time></trkpt><trkpt lat="44.63677998027731" lon="10.272791828634878"><ele>235.0</ele><time>2026-05-03T11:28:07Z</time></trkpt><trkpt lat="44.63694412394177" lon="10.272715709420106"><ele>235.0</ele><time>2026-05-03T11:28:08Z</time></trkpt><trkpt lat="44.63711404142707" lon="10.272628286242835"><ele>234.0</ele><time>2026-05-03T11:28:09Z</time></trkpt><trkpt lat="44.637280373074766" lon="10.272560068140873"><ele>233.0</ele><time>2026-05-03T11:28:10Z</time></trkpt><trkpt lat="44.63745820836018" lon="10.272506602524585"><ele>232.0</ele><time>2026-05-03T11:28:11Z</time></trkpt><trkpt lat="44.63763011973962" lon="10.272498479121905"><ele>230.33333333333331</ele><time>2026-05-03T11:28:12Z</time></trkpt><trkpt lat="44.63781166526726" lon="10.272499609326257"><ele>228.66666666666669</ele><time>2026-05-03T11:28:13Z</time></trkpt><trkpt lat="44.637994397638856" lon="10.272521972897968"><ele>227.0</ele><time>2026-05-03T11:28:14Z</time></trkpt><trkpt lat="44.63817306611239" lon="10.27257314373893"><ele>227.0</ele><time>2026-05-03T11:28:15Z</time></trkpt><trkpt lat="44.63834959371767" lon="10.272629070126099"><ele>227.0</ele><time>2026-05-03T11:28:16Z</time></trkpt><trkpt lat="44.6385355996373" lon="10.27267531428261"><ele>227.0</ele><time>2026-05-03T11:28:17Z</time></trkpt><trkpt lat="44.63871755018909" lon="10.272721827754246"><ele>226.33333333333334</ele><time>2026-05-03T11:28:18Z</time></trkpt><trkpt lat="44.63889609200524" lon="10.272767174796511"><ele>225.66666666666669</ele><time>2026-05-03T11:28:19Z</time></trkpt><trkpt lat="44.63908208697229" lon="10.272809262481386"><ele>225.0</ele><time>2026-05-03T11:28:20Z</time></trkpt><trkpt lat="44.6392665936113" lon="10.27285422701756"><ele>225.0</ele><time>2026-05-03T11:28:21Z</time></trkpt><trkpt lat="44.63945283201219" lon="10.272896252025536"><ele>225.0</ele><time>2026-05-03T11:28:22Z</time></trkpt><trkpt lat="44.63964487205399" lon="10.272943197948"><ele>225.0</ele><time>2026-05-03T11:28:23Z</time></trkpt><trkpt lat="44.639834372214004" lon="10.272991760242567"><ele>224.0</ele><time>2026-05-03T11:28:24Z</time></trkpt><trkpt lat="44.64002283354749" lon="10.273042095651466"><ele>223.0</ele><time>2026-05-03T11:28:25Z</time></trkpt><trkpt lat="44.64021028887644" lon="10.273092126873912"><ele>222.0</ele><time>2026-05-03T11:28:26Z</time></trkpt><trkpt lat="44.6404059506695" lon="10.273144325608706"><ele>222.0</ele><time>2026-05-03T11:28:27Z</time></trkpt><trkpt lat="44.64059683028588" lon="10.273195649506327"><ele>222.0</ele><time>2026-05-03T11:28:28Z</time></trkpt><trkpt lat="44.64078703672548" lon="10.27324693140678"><ele>222.0</ele><time>2026-05-03T11:28:29Z</time></trkpt><trkpt lat="44.64097740089144" lon="10.273293492052682"><ele>221.33333333333331</ele><time>2026-05-03T11:28:30Z</time></trkpt><trkpt lat="44.641168597375355" lon="10.273342617406236"><ele>220.66666666666666</ele><time>2026-05-03T11:28:31Z</time></trkpt><trkpt lat="44.641358607898844" lon="10.27339687795063"><ele>220.0</ele><time>2026-05-03T11:28:32Z</time></trkpt><trkpt lat="44.641549944768855" lon="10.273446475809395"><ele>220.0</ele><time>2026-05-03T11:28:33Z</time></trkpt><trkpt lat="44.641745899867885" lon="10.273487380381123"><ele>220.0</ele><time>2026-05-03T11:28:34Z</time></trkpt><trkpt lat="44.64193458035215" lon="10.273534413418945"><ele>220.0</ele><time>2026-05-03T11:28:35Z</time></trkpt><trkpt lat="44.642124601228716" lon="10.27358292116617"><ele>220.33333333333331</ele><time>2026-05-03T11:28:36Z</time></trkpt><trkpt lat="44.642309995101805" lon="10.273636321514681"><ele>220.66666666666669</ele><time>2026-05-03T11:28:37Z</time></trkpt><trkpt lat="44.64249902365814" lon="10.273684033563448"><ele>221.0</ele><time>2026-05-03T11:28:38Z</time></trkpt><trkpt lat="44.642685883122844" lon="10.27373151880786"><ele>220.66666666666669</ele><time>2026-05-03T11:28:39Z</time></trkpt><trkpt lat="44.6428747105485" lon="10.27377530442056"><ele>220.33333333333331</ele><time>2026-05-03T11:28:40Z</time></trkpt><trkpt lat="44.64306334180513" lon="10.27382087224235"><ele>220.0</ele><time>2026-05-03T11:28:41Z</time></trkpt><trkpt lat="44.643251645213134" lon="10.273865107883974"><ele>220.0</ele><time>2026-05-03T11:28:42Z</time></trkpt><trkpt lat="44.643440847670924" lon="10.273907716366722"><ele>220.0</ele><time>2026-05-03T11:28:43Z</time></trkpt><trkpt lat="44.64363142362504" lon="10.273952489786112"><ele>220.0</ele><time>2026-05-03T11:28:44Z</time></trkpt><trkpt lat="44.64382405783993" lon="10.27399484871426"><ele>219.33333333333331</ele><time>2026-05-03T11:28:45Z</time></trkpt><trkpt lat="44.64401621821211" lon="10.274038305120628"><ele>218.66666666666669</ele><time>2026-05-03T11:28:46Z</time></trkpt><trkpt lat="44.64421710745063" lon="10.274088948696319"><ele>218.0</ele><time>2026-05-03T11:28:47Z</time></trkpt><trkpt lat="44.64441441607072" lon="10.274140681140766"><ele>218.66666666666669</ele><time>2026-05-03T11:28:48Z</time></trkpt><trkpt lat="44.64461249873414" lon="10.274187879189919"><ele>219.33333333333331</ele><time>2026-05-03T11:28:49Z</time></trkpt><trkpt lat="44.644818031196024" lon="10.274229854466382"><ele>220.0</ele><time>2026-05-03T11:28:50Z</time></trkpt><trkpt lat="44.64502041710279" lon="10.274275584066526"><ele>220.0</ele><time>2026-05-03T11:28:51Z</time></trkpt><trkpt lat="44.64522361581706" lon="10.274321749246415"><ele>220.0</ele><time>2026-05-03T11:28:52Z</time></trkpt><trkpt lat="44.64543089210283" lon="10.274370453642304"><ele>220.0</ele><time>2026-05-03T11:28:53Z</time></trkpt><trkpt lat="44.64563432151053" lon="10.27441663250426"><ele>220.0</ele><time>2026-05-03T11:28:54Z</time></trkpt><trkpt lat="44.64583802722625" lon="10.274462551848062"><ele>220.0</ele><time>2026-05-03T11:28:55Z</time></trkpt><trkpt lat="44.6460446750175" lon="10.274505903834296"><ele>220.0</ele><time>2026-05-03T11:28:56Z</time></trkpt><trkpt lat="44.646250655108645" lon="10.274551601508456"><ele>222.66666666666666</ele><time>2026-05-03T11:28:57Z</time></trkpt><trkpt lat="44.64645563692094" lon="10.274601948703022"><ele>225.33333333333331</ele><time>2026-05-03T11:28:58Z</time></trkpt><trkpt lat="44.6466637486309" lon="10.27464824420526"><ele>228.0</ele><time>2026-05-03T11:28:59Z</time></trkpt><trkpt lat="44.64686582383041" lon="10.274690985983153"><ele>228.0</ele><time>2026-05-03T11:29:00Z</time></trkpt><trkpt lat="44.647060307652275" lon="10.274734782966712"><ele>228.0</ele><time>2026-05-03T11:29:01Z</time></trkpt><trkpt lat="44.64725606964792" lon="10.274787945433985"><ele>228.0</ele><time>2026-05-03T11:29:02Z</time></trkpt><trkpt lat="44.64744788580464" lon="10.274853385201842"><ele>227.66666666666669</ele><time>2026-05-03T11:29:03Z</time></trkpt><trkpt lat="44.64763491671157" lon="10.27492979995666"><ele>227.33333333333334</ele><time>2026-05-03T11:29:04Z</time></trkpt><trkpt lat="44.647824271642655" lon="10.275013846290738"><ele>227.0</ele><time>2026-05-03T11:29:05Z</time></trkpt><trkpt lat="44.64801384771208" lon="10.275099164195078"><ele>227.0</ele><time>2026-05-03T11:29:06Z</time></trkpt><trkpt lat="44.64820476154616" lon="10.275184724576315"><ele>227.0</ele><time>2026-05-03T11:29:07Z</time></trkpt><trkpt lat="44.64838879933593" lon="10.275273693388888"><ele>227.0</ele><time>2026-05-03T11:29:08Z</time></trkpt><trkpt lat="44.648563757068445" lon="10.27536594175323"><ele>227.66666666666669</ele><time>2026-05-03T11:29:09Z</time></trkpt><trkpt lat="44.64872645688879" lon="10.27545822056485"><ele>228.33333333333331</ele><time>2026-05-03T11:29:10Z</time></trkpt><trkpt lat="44.648889254145836" lon="10.275551991139563"><ele>229.0</ele><time>2026-05-03T11:29:11Z</time></trkpt><trkpt lat="44.649064484211124" lon="10.27564973028341"><ele>227.66666666666666</ele><time>2026-05-03T11:29:12Z</time></trkpt><trkpt lat="44.64924115082388" lon="10.27574285847018"><ele>226.33333333333331</ele><time>2026-05-03T11:29:13Z</time></trkpt><trkpt lat="44.649424803840915" lon="10.275836697897194"><ele>225.0</ele><time>2026-05-03T11:29:14Z</time></trkpt><trkpt lat="44.64960534414532" lon="10.27593255135077"><ele>225.0</ele><time>2026-05-03T11:29:15Z</time></trkpt><trkpt lat="44.64979192737297" lon="10.276030235670907"><ele>225.0</ele><time>2026-05-03T11:29:16Z</time></trkpt><trkpt lat="44.64997509772931" lon="10.276137671839532"><ele>225.0</ele><time>2026-05-03T11:29:17Z</time></trkpt><trkpt lat="44.65015595403411" lon="10.276251803357455"><ele>224.66666666666669</ele><time>2026-05-03T11:29:18Z</time></trkpt><trkpt lat="44.65033816207297" lon="10.27636925101202"><ele>224.33333333333334</ele><time>2026-05-03T11:29:19Z</time></trkpt><trkpt lat="44.65051456967235" lon="10.276493063253914"><ele>224.0</ele><time>2026-05-03T11:29:20Z</time></trkpt><trkpt lat="44.65068669534927" lon="10.276622477824828"><ele>223.33333333333334</ele><time>2026-05-03T11:29:21Z</time></trkpt><trkpt lat="44.65084689352" lon="10.276759709036364"><ele>222.66666666666669</ele><time>2026-05-03T11:29:22Z</time></trkpt><trkpt lat="44.65100553562857" lon="10.27690619921274"><ele>222.0</ele><time>2026-05-03T11:29:23Z</time></trkpt><trkpt lat="44.65116022433663" lon="10.277059514842007"><ele>222.0</ele><time>2026-05-03T11:29:24Z</time></trkpt><trkpt lat="44.6513141744558" lon="10.27721619468242"><ele>222.0</ele><time>2026-05-03T11:29:25Z</time></trkpt><trkpt lat="44.65147028358229" lon="10.27736958677846"><ele>222.0</ele><time>2026-05-03T11:29:26Z</time></trkpt><trkpt lat="44.651626905721635" lon="10.277520745069967"><ele>222.0</ele><time>2026-05-03T11:29:27Z</time></trkpt><trkpt lat="44.65179030496943" lon="10.277682170166955"><ele>222.0</ele><time>2026-05-03T11:29:28Z</time></trkpt><trkpt lat="44.65195384705807" lon="10.277844564452744"><ele>222.0</ele><time>2026-05-03T11:29:29Z</time></trkpt><trkpt lat="44.65212306567521" lon="10.278015804287602"><ele>221.0</ele><time>2026-05-03T11:29:30Z</time></trkpt><trkpt lat="44.65229692331846" lon="10.278185398949795"><ele>220.0</ele><time>2026-05-03T11:29:31Z</time></trkpt><trkpt lat="44.65246382918271" lon="10.278350842544112"><ele>219.0</ele><time>2026-05-03T11:29:32Z</time></trkpt><trkpt lat="44.6526360021571" lon="10.278522093009341"><ele>219.33333333333331</ele><time>2026-05-03T11:29:33Z</time></trkpt><trkpt lat="44.652806229269196" lon="10.278692975797144"><ele>219.66666666666666</ele><time>2026-05-03T11:29:34Z</time></trkpt><trkpt lat="44.652981151862015" lon="10.27887440406077"><ele>220.0</ele><time>2026-05-03T11:29:35Z</time></trkpt><trkpt lat="44.653142626827425" lon="10.27905208290532"><ele>219.0</ele><time>2026-05-03T11:29:36Z</time></trkpt><trkpt lat="44.65330930112767" lon="10.279220913017156"><ele>218.0</ele><time>2026-05-03T11:29:37Z</time></trkpt><trkpt lat="44.65347641490994" lon="10.279386238157796"><ele>217.0</ele><time>2026-05-03T11:29:38Z</time></trkpt><trkpt lat="44.65364607575081" lon="10.27955435360156"><ele>217.0</ele><time>2026-05-03T11:29:39Z</time></trkpt><trkpt lat="44.65381526760576" lon="10.279725315778148"><ele>217.0</ele><time>2026-05-03T11:29:40Z</time></trkpt><trkpt lat="44.65398679006276" lon="10.279889742456039"><ele>217.0</ele><time>2026-05-03T11:29:41Z</time></trkpt><trkpt lat="44.654162685080436" lon="10.280044905881361"><ele>216.66666666666666</ele><time>2026-05-03T11:29:42Z</time></trkpt><trkpt lat="44.654338524084736" lon="10.280177153149317"><ele>216.33333333333331</ele><time>2026-05-03T11:29:43Z</time></trkpt><trkpt lat="44.65451282756124" lon="10.280304937984958"><ele>216.0</ele><time>2026-05-03T11:29:44Z</time></trkpt><trkpt lat="44.65469029990545" lon="10.280423533580619"><ele>216.0</ele><time>2026-05-03T11:29:45Z</time></trkpt><trkpt lat="44.654876335128534" lon="10.280529297767822"><ele>216.0</ele><time>2026-05-03T11:29:46Z</time></trkpt><trkpt lat="44.655062231632584" lon="10.280625798017134"><ele>216.0</ele><time>2026-05-03T11:29:47Z</time></trkpt><trkpt lat="44.655248549599314" lon="10.280718058928198"><ele>215.66666666666669</ele><time>2026-05-03T11:29:48Z</time></trkpt><trkpt lat="44.65543673904786" lon="10.280807109765892"><ele>215.33333333333334</ele><time>2026-05-03T11:29:49Z</time></trkpt><trkpt lat="44.65562784753388" lon="10.28089395028003"><ele>215.0</ele><time>2026-05-03T11:29:50Z</time></trkpt><trkpt lat="44.6558196600381" lon="10.280979455327069"><ele>215.0</ele><time>2026-05-03T11:29:51Z</time></trkpt><trkpt lat="44.65600466271432" lon="10.281065717633362"><ele>215.0</ele><time>2026-05-03T11:29:52Z</time></trkpt><trkpt lat="44.656184626300686" lon="10.281147239809867"><ele>215.0</ele><time>2026-05-03T11:29:53Z</time></trkpt><trkpt lat="44.656361927413556" lon="10.281224854924929"><ele>215.0</ele><time>2026-05-03T11:29:54Z</time></trkpt><trkpt lat="44.65652646935168" lon="10.281296795613528"><ele>215.0</ele><time>2026-05-03T11:29:55Z</time></trkpt><trkpt lat="44.65669516002201" lon="10.281370969560436"><ele>215.0</ele><time>2026-05-03T11:29:56Z</time></trkpt><trkpt lat="44.65685225339755" lon="10.281440754905152"><ele>214.33333333333334</ele><time>2026-05-03T11:29:57Z</time></trkpt><trkpt lat="44.65699685036238" lon="10.281504504676908"><ele>213.66666666666669</ele><time>2026-05-03T11:29:58Z</time></trkpt><trkpt lat="44.657150778471944" lon="10.281568787004685"><ele>213.0</ele><time>2026-05-03T11:29:59Z</time></trkpt><trkpt lat="44.657293890920904" lon="10.281635740053481"><ele>213.0</ele><time>2026-05-03T11:30:00Z</time></trkpt><trkpt lat="44.657437414515506" lon="10.281701908484214"><ele>213.0</ele><time>2026-05-03T11:30:01Z</time></trkpt><trkpt lat="44.657593697880976" lon="10.2817661852662"><ele>213.0</ele><time>2026-05-03T11:30:02Z</time></trkpt><trkpt lat="44.65774058435704" lon="10.281836025261477"><ele>213.25</ele><time>2026-05-03T11:30:03Z</time></trkpt><trkpt lat="44.65790269638682" lon="10.281907096090144"><ele>213.5</ele><time>2026-05-03T11:30:04Z</time></trkpt><trkpt lat="44.658041559020695" lon="10.28197436829185"><ele>213.75</ele><time>2026-05-03T11:30:05Z</time></trkpt><trkpt lat="44.65816275842861" lon="10.282027328074118"><ele>214.0</ele><time>2026-05-03T11:30:06Z</time></trkpt><trkpt lat="44.658272006747545" lon="10.28207631243366"><ele>214.0</ele><time>2026-05-03T11:30:07Z</time></trkpt><trkpt lat="44.658367877537295" lon="10.282141480959611"><ele>213.99999999999997</ele><time>2026-05-03T11:30:08Z</time></trkpt><trkpt lat="44.65845650755445" lon="10.282214245101748"><ele>213.99999999999997</ele><time>2026-05-03T11:30:09Z</time></trkpt><trkpt lat="44.658519473806244" lon="10.282295732788532"><ele>214.0</ele><time>2026-05-03T11:30:10Z</time></trkpt><trkpt lat="44.65859667241231" lon="10.28242945914888"><ele>214.0</ele><time>2026-05-03T11:30:12Z</time></trkpt><trkpt lat="44.658627947613624" lon="10.282535641961568"><ele>213.49999999999997</ele><time>2026-05-03T11:30:13Z</time></trkpt><trkpt lat="44.65864788775549" lon="10.28265635021142"><ele>213.0</ele><time>2026-05-03T11:30:14Z</time></trkpt><trkpt lat="44.65868606363871" lon="10.282750986297595"><ele>212.5</ele><time>2026-05-03T11:30:15Z</time></trkpt><trkpt lat="44.658750955815236" lon="10.282803429417942"><ele>212.0</ele><time>2026-05-03T11:30:16Z</time></trkpt><trkpt lat="44.65883408386297" lon="10.28281263505431"><ele>211.49999999999997</ele><time>2026-05-03T11:30:17Z</time></trkpt><trkpt lat="44.6589205523308" lon="10.282776559541723"><ele>211.0</ele><time>2026-05-03T11:30:18Z</time></trkpt><trkpt lat="44.65899709543427" lon="10.282696506694494"><ele>211.0</ele><time>2026-05-03T11:30:19Z</time></trkpt><trkpt lat="44.65908213997011" lon="10.28261181666673"><ele>211.0</ele><time>2026-05-03T11:30:20Z</time></trkpt><trkpt lat="44.65918830773768" lon="10.282566098287278"><ele>211.0</ele><time>2026-05-03T11:30:21Z</time></trkpt><trkpt lat="44.65931699367398" lon="10.282567809408981"><ele>211.0</ele><time>2026-05-03T11:30:22Z</time></trkpt><trkpt lat="44.659454161079175" lon="10.282597382325218"><ele>210.75</ele><time>2026-05-03T11:30:23Z</time></trkpt><trkpt lat="44.65958753790174" lon="10.282643285338148"><ele>210.5</ele><time>2026-05-03T11:30:24Z</time></trkpt><trkpt lat="44.65972162214827" lon="10.282699035807331"><ele>210.25</ele><time>2026-05-03T11:30:25Z</time></trkpt><trkpt lat="44.659858180781114" lon="10.28276145926174"><ele>210.0</ele><time>2026-05-03T11:30:26Z</time></trkpt><trkpt lat="44.65999851201146" lon="10.282826332724547"><ele>210.0</ele><time>2026-05-03T11:30:27Z</time></trkpt><trkpt lat="44.66013986985058" lon="10.282884391731024"><ele>210.0</ele><time>2026-05-03T11:30:28Z</time></trkpt><trkpt lat="44.66028399319151" lon="10.282943194874193"><ele>210.0</ele><time>2026-05-03T11:30:29Z</time></trkpt><trkpt lat="44.66043883904684" lon="10.283012082182497"><ele>208.66666666666669</ele><time>2026-05-03T11:30:30Z</time></trkpt><trkpt lat="44.66059302405643" lon="10.28308468966438"><ele>207.33333333333334</ele><time>2026-05-03T11:30:31Z</time></trkpt><trkpt lat="44.66075300454101" lon="10.283164049679371"><ele>206.0</ele><time>2026-05-03T11:30:32Z</time></trkpt><trkpt lat="44.66091578980414" lon="10.283236245964583"><ele>205.66666666666669</ele><time>2026-05-03T11:30:33Z</time></trkpt><trkpt lat="44.661078426501184" lon="10.283308614932622"><ele>205.33333333333331</ele><time>2026-05-03T11:30:34Z</time></trkpt><trkpt lat="44.661246153684495" lon="10.283386838525615"><ele>205.0</ele><time>2026-05-03T11:30:35Z</time></trkpt><trkpt lat="44.66141179712917" lon="10.283462797010722"><ele>204.66666666666666</ele><time>2026-05-03T11:30:36Z</time></trkpt><trkpt lat="44.66157275550301" lon="10.283539480036533"><ele>204.33333333333331</ele><time>2026-05-03T11:30:37Z</time></trkpt><trkpt lat="44.66172987719918" lon="10.283610863222234"><ele>204.0</ele><time>2026-05-03T11:30:38Z</time></trkpt><trkpt lat="44.66188324746808" lon="10.283673525772212"><ele>204.66666666666669</ele><time>2026-05-03T11:30:39Z</time></trkpt><trkpt lat="44.6620415846614" lon="10.283742492215726"><ele>205.33333333333334</ele><time>2026-05-03T11:30:40Z</time></trkpt><trkpt lat="44.66219430788602" lon="10.28381012188726"><ele>206.0</ele><time>2026-05-03T11:30:41Z</time></trkpt><trkpt lat="44.66234332659572" lon="10.28387788222745"><ele>205.33333333333334</ele><time>2026-05-03T11:30:42Z</time></trkpt><trkpt lat="44.66249004000298" lon="10.283943147229012"><ele>204.66666666666669</ele><time>2026-05-03T11:30:43Z</time></trkpt><trkpt lat="44.6626384990414" lon="10.2840066981799"><ele>204.0</ele><time>2026-05-03T11:30:44Z</time></trkpt><trkpt lat="44.66278889142129" lon="10.284067399149736"><ele>204.0</ele><time>2026-05-03T11:30:45Z</time></trkpt><trkpt lat="44.66294049825971" lon="10.284134548666694"><ele>204.0</ele><time>2026-05-03T11:30:46Z</time></trkpt><trkpt lat="44.663095337390395" lon="10.284206433868956"><ele>204.0</ele><time>2026-05-03T11:30:47Z</time></trkpt><trkpt lat="44.66325091672435" lon="10.284283809007176"><ele>204.0</ele><time>2026-05-03T11:30:48Z</time></trkpt><trkpt lat="44.663408044530414" lon="10.284362115886875"><ele>204.0</ele><time>2026-05-03T11:30:49Z</time></trkpt><trkpt lat="44.663571578521484" lon="10.284436706347568"><ele>204.0</ele><time>2026-05-03T11:30:50Z</time></trkpt><trkpt lat="44.663739546501915" lon="10.284512344454136"><ele>202.33333333333331</ele><time>2026-05-03T11:30:51Z</time></trkpt><trkpt lat="44.663912767529624" lon="10.284584252845029"><ele>200.66666666666666</ele><time>2026-05-03T11:30:52Z</time></trkpt><trkpt lat="44.6640853637805" lon="10.284651714935396"><ele>199.0</ele><time>2026-05-03T11:30:53Z</time></trkpt><trkpt lat="44.66425589300813" lon="10.284723166313388"><ele>198.33333333333331</ele><time>2026-05-03T11:30:54Z</time></trkpt><trkpt lat="44.66442752797166" lon="10.28480023383027"><ele>197.66666666666669</ele><time>2026-05-03T11:30:55Z</time></trkpt><trkpt lat="44.66460359734913" lon="10.284878051316763"><ele>197.0</ele><time>2026-05-03T11:30:56Z</time></trkpt><trkpt lat="44.6647812694319" lon="10.284959572098108"><ele>197.0</ele><time>2026-05-03T11:30:57Z</time></trkpt><trkpt lat="44.66495875306737" lon="10.285033948266827"><ele>197.0</ele><time>2026-05-03T11:30:58Z</time></trkpt><trkpt lat="44.66513436244971" lon="10.285105907110125"><ele>197.0</ele><time>2026-05-03T11:30:59Z</time></trkpt><trkpt lat="44.66531649093418" lon="10.28518438850165"><ele>196.33333333333334</ele><time>2026-05-03T11:31:00Z</time></trkpt><trkpt lat="44.66548644430007" lon="10.28526218638388"><ele>195.66666666666669</ele><time>2026-05-03T11:31:01Z</time></trkpt><trkpt lat="44.66564025964438" lon="10.28534547671227"><ele>195.0</ele><time>2026-05-03T11:31:02Z</time></trkpt><trkpt lat="44.66578534359339" lon="10.285409977403305"><ele>195.0</ele><time>2026-05-03T11:31:03Z</time></trkpt><trkpt lat="44.66592554524614" lon="10.28547335039935"><ele>195.0</ele><time>2026-05-03T11:31:04Z</time></trkpt><trkpt lat="44.666054923508426" lon="10.285529222873807"><ele>195.0</ele><time>2026-05-03T11:31:05Z</time></trkpt><trkpt lat="44.66617531057099" lon="10.285576398356945"><ele>195.0</ele><time>2026-05-03T11:31:06Z</time></trkpt><trkpt lat="44.66628987689819" lon="10.28562436804231"><ele>194.4</ele><time>2026-05-03T11:31:07Z</time></trkpt><trkpt lat="44.66638287727183" lon="10.285667211674175"><ele>193.8</ele><time>2026-05-03T11:31:08Z</time></trkpt><trkpt lat="44.66645464151742" lon="10.285721530084256"><ele>193.2</ele><time>2026-05-03T11:31:09Z</time></trkpt><trkpt lat="44.66650872670664" lon="10.28581421699313"><ele>192.6</ele><time>2026-05-03T11:31:10Z</time></trkpt><trkpt lat="44.66657391621292" lon="10.285941756748462"><ele>192.0</ele><time>2026-05-03T11:31:11Z</time></trkpt><trkpt lat="44.66666990929377" lon="10.286044415331313"><ele>192.0</ele><time>2026-05-03T11:31:12Z</time></trkpt><trkpt lat="44.66674234581458" lon="10.286187423120992"><ele>192.0</ele><time>2026-05-03T11:31:13Z</time></trkpt><trkpt lat="44.66679372301314" lon="10.286362723824562"><ele>192.0</ele><time>2026-05-03T11:31:14Z</time></trkpt><trkpt lat="44.66682480741926" lon="10.286566745078563"><ele>192.0</ele><time>2026-05-03T11:31:15Z</time></trkpt><trkpt lat="44.666853070604205" lon="10.286785170251964"><ele>191.66666666666666</ele><time>2026-05-03T11:31:16Z</time></trkpt><trkpt lat="44.66688613010291" lon="10.287011475760082"><ele>191.33333333333331</ele><time>2026-05-03T11:31:17Z</time></trkpt><trkpt lat="44.66692230784656" lon="10.287236509213889"><ele>191.0</ele><time>2026-05-03T11:31:18Z</time></trkpt><trkpt lat="44.66696018312704" lon="10.28748191169558"><ele>191.66666666666666</ele><time>2026-05-03T11:31:19Z</time></trkpt><trkpt lat="44.667008711004634" lon="10.287739513010079"><ele>192.33333333333331</ele><time>2026-05-03T11:31:20Z</time></trkpt><trkpt lat="44.667061205995736" lon="10.288006420921993"><ele>193.0</ele><time>2026-05-03T11:31:21Z</time></trkpt><trkpt lat="44.667124892966484" lon="10.288273073092526"><ele>193.0</ele><time>2026-05-03T11:31:22Z</time></trkpt><trkpt lat="44.66719075546525" lon="10.288517442010976"><ele>193.0</ele><time>2026-05-03T11:31:23Z</time></trkpt><trkpt lat="44.667262744833614" lon="10.288765802554746"><ele>193.0</ele><time>2026-05-03T11:31:24Z</time></trkpt><trkpt lat="44.667340829662145" lon="10.289015537552263"><ele>191.66666666666666</ele><time>2026-05-03T11:31:25Z</time></trkpt><trkpt lat="44.66743159901807" lon="10.289253876116238"><ele>190.33333333333331</ele><time>2026-05-03T11:31:26Z</time></trkpt><trkpt lat="44.667536493184365" lon="10.28948728978808"><ele>189.0</ele><time>2026-05-03T11:31:27Z</time></trkpt><trkpt lat="44.667647184473985" lon="10.289714150198492"><ele>189.0</ele><time>2026-05-03T11:31:28Z</time></trkpt><trkpt lat="44.66776317287006" lon="10.289931374457064"><ele>189.0</ele><time>2026-05-03T11:31:29Z</time></trkpt><trkpt lat="44.667885422750736" lon="10.29014217428778"><ele>189.0</ele><time>2026-05-03T11:31:30Z</time></trkpt><trkpt lat="44.66801476360954" lon="10.290341392229934"><ele>189.0</ele><time>2026-05-03T11:31:31Z</time></trkpt><trkpt lat="44.66815294333105" lon="10.29053404793213"><ele>189.0</ele><time>2026-05-03T11:31:32Z</time></trkpt><trkpt lat="44.668297686144435" lon="10.290720748923144"><ele>189.0</ele><time>2026-05-03T11:31:33Z</time></trkpt><trkpt lat="44.668452104478945" lon="10.290896158636773"><ele>188.66666666666666</ele><time>2026-05-03T11:31:34Z</time></trkpt><trkpt lat="44.66862555089477" lon="10.291036188922297"><ele>188.33333333333331</ele><time>2026-05-03T11:31:35Z</time></trkpt><trkpt lat="44.6687921138204" lon="10.291185575881656"><ele>188.0</ele><time>2026-05-03T11:31:36Z</time></trkpt><trkpt lat="44.668956675337654" lon="10.291327884998156"><ele>187.33333333333331</ele><time>2026-05-03T11:31:37Z</time></trkpt><trkpt lat="44.66912408507974" lon="10.291460638084654"><ele>186.66666666666666</ele><time>2026-05-03T11:31:38Z</time></trkpt><trkpt lat="44.669296767812135" lon="10.291581741952346"><ele>186.0</ele><time>2026-05-03T11:31:39Z</time></trkpt><trkpt lat="44.66947775071749" lon="10.291684505236159"><ele>186.0</ele><time>2026-05-03T11:31:40Z</time></trkpt><trkpt lat="44.66966572567692" lon="10.291777639229412"><ele>186.0</ele><time>2026-05-03T11:31:41Z</time></trkpt><trkpt lat="44.66985661167293" lon="10.2918657147681"><ele>186.0</ele><time>2026-05-03T11:31:42Z</time></trkpt><trkpt lat="44.67004875177817" lon="10.291951535766861"><ele>186.0</ele><time>2026-05-03T11:31:43Z</time></trkpt><trkpt lat="44.6702426147162" lon="10.292033879418733"><ele>186.0</ele><time>2026-05-03T11:31:44Z</time></trkpt><trkpt lat="44.670442105599555" lon="10.292108631837078"><ele>186.0</ele><time>2026-05-03T11:31:45Z</time></trkpt><trkpt lat="44.670637561352436" lon="10.292185400848101"><ele>185.33333333333334</ele><time>2026-05-03T11:31:46Z</time></trkpt><trkpt lat="44.67083511424758" lon="10.29226535739547"><ele>184.66666666666669</ele><time>2026-05-03T11:31:47Z</time></trkpt><trkpt lat="44.6710333530073" lon="10.292347058955993"><ele>184.0</ele><time>2026-05-03T11:31:48Z</time></trkpt><trkpt lat="44.67122837314883" lon="10.292427286063809"><ele>183.66666666666669</ele><time>2026-05-03T11:31:49Z</time></trkpt><trkpt lat="44.671425534385655" lon="10.292503081342398"><ele>183.33333333333334</ele><time>2026-05-03T11:31:50Z</time></trkpt><trkpt lat="44.67162287145232" lon="10.292579967976204"><ele>183.0</ele><time>2026-05-03T11:31:51Z</time></trkpt><trkpt lat="44.67181765636638" lon="10.292660834889444"><ele>182.33333333333334</ele><time>2026-05-03T11:31:52Z</time></trkpt><trkpt lat="44.67201799253979" lon="10.292738639220183"><ele>181.66666666666669</ele><time>2026-05-03T11:31:53Z</time></trkpt><trkpt lat="44.67221551878965" lon="10.292815400739165"><ele>181.0</ele><time>2026-05-03T11:31:54Z</time></trkpt><trkpt lat="44.67241805556584" lon="10.292896157098395"><ele>181.0</ele><time>2026-05-03T11:31:55Z</time></trkpt><trkpt lat="44.67262047273939" lon="10.292978310202331"><ele>181.0</ele><time>2026-05-03T11:31:56Z</time></trkpt><trkpt lat="44.672824134805424" lon="10.29305973322829"><ele>181.0</ele><time>2026-05-03T11:31:57Z</time></trkpt><trkpt lat="44.673025083202766" lon="10.293138253731902"><ele>181.33333333333334</ele><time>2026-05-03T11:31:58Z</time></trkpt><trkpt lat="44.67323284555131" lon="10.293216563711498"><ele>181.66666666666666</ele><time>2026-05-03T11:31:59Z</time></trkpt><trkpt lat="44.67343659779329" lon="10.293298620599979"><ele>182.0</ele><time>2026-05-03T11:32:00Z</time></trkpt><trkpt lat="44.673637893039256" lon="10.293380994770601"><ele>181.33333333333331</ele><time>2026-05-03T11:32:01Z</time></trkpt><trkpt lat="44.67383855875551" lon="10.293463472989865"><ele>180.66666666666666</ele><time>2026-05-03T11:32:02Z</time></trkpt><trkpt lat="44.67403881697334" lon="10.29354530532002"><ele>180.0</ele><time>2026-05-03T11:32:03Z</time></trkpt><trkpt lat="44.67423064438147" lon="10.293624861923087"><ele>180.0</ele><time>2026-05-03T11:32:04Z</time></trkpt><trkpt lat="44.674421794672355" lon="10.29370553957264"><ele>180.0</ele><time>2026-05-03T11:32:05Z</time></trkpt><trkpt lat="44.674617453166746" lon="10.293777577073175"><ele>180.0</ele><time>2026-05-03T11:32:06Z</time></trkpt><trkpt lat="44.674815228832486" lon="10.293857235857448"><ele>179.33333333333334</ele><time>2026-05-03T11:32:07Z</time></trkpt><trkpt lat="44.6750189187976" lon="10.293940522963556"><ele>178.66666666666669</ele><time>2026-05-03T11:32:08Z</time></trkpt><trkpt lat="44.67522779947211" lon="10.294022464796338"><ele>178.0</ele><time>2026-05-03T11:32:09Z</time></trkpt><trkpt lat="44.67543467506756" lon="10.294108237647839"><ele>177.66666666666669</ele><time>2026-05-03T11:32:10Z</time></trkpt><trkpt lat="44.67563876851887" lon="10.294191848400418"><ele>177.33333333333334</ele><time>2026-05-03T11:32:11Z</time></trkpt><trkpt lat="44.675837780101155" lon="10.29426879477927"><ele>177.0</ele><time>2026-05-03T11:32:12Z</time></trkpt><trkpt lat="44.676036741713396" lon="10.29434040538494"><ele>176.66666666666666</ele><time>2026-05-03T11:32:13Z</time></trkpt><trkpt lat="44.67623247768973" lon="10.29441154314628"><ele>176.33333333333331</ele><time>2026-05-03T11:32:14Z</time></trkpt><trkpt lat="44.67643156791199" lon="10.294471515843249"><ele>176.0</ele><time>2026-05-03T11:32:15Z</time></trkpt><trkpt lat="44.676634907818" lon="10.294510701670902"><ele>176.0</ele><time>2026-05-03T11:32:16Z</time></trkpt><trkpt lat="44.676842398998765" lon="10.294533556078521"><ele>176.0</ele><time>2026-05-03T11:32:17Z</time></trkpt><trkpt lat="44.67705110930415" lon="10.294543948103929"><ele>176.0</ele><time>2026-05-03T11:32:18Z</time></trkpt><trkpt lat="44.67726459451194" lon="10.294544536996387"><ele>176.0</ele><time>2026-05-03T11:32:19Z</time></trkpt><trkpt lat="44.67747392594308" lon="10.294530584461752"><ele>176.0</ele><time>2026-05-03T11:32:20Z</time></trkpt><trkpt lat="44.67768498058543" lon="10.294502609767987"><ele>176.0</ele><time>2026-05-03T11:32:21Z</time></trkpt><trkpt lat="44.677897587936215" lon="10.29446815611852"><ele>176.33333333333331</ele><time>2026-05-03T11:32:22Z</time></trkpt><trkpt lat="44.678108702760504" lon="10.294442219605509"><ele>176.66666666666666</ele><time>2026-05-03T11:32:23Z</time></trkpt><trkpt lat="44.678319899304014" lon="10.294416249904135"><ele>177.0</ele><time>2026-05-03T11:32:24Z</time></trkpt><trkpt lat="44.678531389772886" lon="10.294389791277828"><ele>176.66666666666666</ele><time>2026-05-03T11:32:25Z</time></trkpt><trkpt lat="44.678738831303264" lon="10.294362300590945"><ele>176.33333333333331</ele><time>2026-05-03T11:32:26Z</time></trkpt><trkpt lat="44.678942148583" lon="10.294332213016595"><ele>176.0</ele><time>2026-05-03T11:32:27Z</time></trkpt><trkpt lat="44.67913613518307" lon="10.294302821455917"><ele>176.0</ele><time>2026-05-03T11:32:28Z</time></trkpt><trkpt lat="44.67931380109005" lon="10.294278018927983"><ele>176.0</ele><time>2026-05-03T11:32:29Z</time></trkpt><trkpt lat="44.679472885548776" lon="10.29426231521925"><ele>176.0</ele><time>2026-05-03T11:32:30Z</time></trkpt><trkpt lat="44.67963002864439" lon="10.29424724817825"><ele>175.75</ele><time>2026-05-03T11:32:31Z</time></trkpt><trkpt lat="44.679772620250574" lon="10.294228566859214"><ele>175.5</ele><time>2026-05-03T11:32:32Z</time></trkpt><trkpt lat="44.679906452866746" lon="10.294205228065266"><ele>175.25</ele><time>2026-05-03T11:32:33Z</time></trkpt><trkpt lat="44.680035579620956" lon="10.294182288418646"><ele>175.0</ele><time>2026-05-03T11:32:34Z</time></trkpt><trkpt lat="44.68014750555558" lon="10.294174288142054"><ele>175.0</ele><time>2026-05-03T11:32:35Z</time></trkpt><trkpt lat="44.680245356356316" lon="10.294186027945667"><ele>175.0</ele><time>2026-05-03T11:32:36Z</time></trkpt><trkpt lat="44.68033689555842" lon="10.294210287314872"><ele>175.0</ele><time>2026-05-03T11:32:37Z</time></trkpt><trkpt lat="44.68040049818637" lon="10.294271774141034"><ele>175.0</ele><time>2026-05-03T11:32:38Z</time></trkpt><trkpt lat="44.68048593026867" lon="10.294324033035338"><ele>175.0</ele><time>2026-05-03T11:32:39Z</time></trkpt><trkpt lat="44.680585574700345" lon="10.294325818211181"><ele>174.5</ele><time>2026-05-03T11:32:40Z</time></trkpt><trkpt lat="44.68068180608757" lon="10.294267551444376"><ele>174.0</ele><time>2026-05-03T11:32:41Z</time></trkpt><trkpt lat="44.68077793978044" lon="10.294178244872324"><ele>173.5</ele><time>2026-05-03T11:32:42Z</time></trkpt><trkpt lat="44.68088958024216" lon="10.294104749817082"><ele>173.0</ele><time>2026-05-03T11:32:43Z</time></trkpt><trkpt lat="44.68102994536956" lon="10.294080191371965"><ele>172.33333333333331</ele><time>2026-05-03T11:32:44Z</time></trkpt><trkpt lat="44.68119350065835" lon="10.29408071932998"><ele>171.66666666666666</ele><time>2026-05-03T11:32:45Z</time></trkpt><trkpt lat="44.68135466072753" lon="10.294086232187006"><ele>171.0</ele><time>2026-05-03T11:32:46Z</time></trkpt><trkpt lat="44.68151658942755" lon="10.294082287978044"><ele>171.0</ele><time>2026-05-03T11:32:47Z</time></trkpt><trkpt lat="44.681679197043316" lon="10.294075509345973"><ele>171.0</ele><time>2026-05-03T11:32:48Z</time></trkpt><trkpt lat="44.68186221603051" lon="10.29406502039021"><ele>171.0</ele><time>2026-05-03T11:32:49Z</time></trkpt><trkpt lat="44.68204325471047" lon="10.294056913818656"><ele>170.0</ele><time>2026-05-03T11:32:50Z</time></trkpt><trkpt lat="44.68221931937566" lon="10.294048201711608"><ele>169.0</ele><time>2026-05-03T11:32:51Z</time></trkpt><trkpt lat="44.68240479201702" lon="10.294045774420026"><ele>168.0</ele><time>2026-05-03T11:32:52Z</time></trkpt><trkpt lat="44.68259426957542" lon="10.294055577136307"><ele>168.0</ele><time>2026-05-03T11:32:53Z</time></trkpt><trkpt lat="44.682770080369565" lon="10.29406777447969"><ele>168.0</ele><time>2026-05-03T11:32:54Z</time></trkpt><trkpt lat="44.68292920041857" lon="10.294100103983615"><ele>168.0</ele><time>2026-05-03T11:32:55Z</time></trkpt><trkpt lat="44.68310156326891" lon="10.294139081341742"><ele>168.0</ele><time>2026-05-03T11:32:56Z</time></trkpt><trkpt lat="44.683274969103884" lon="10.29419981489603"><ele>168.0</ele><time>2026-05-03T11:32:57Z</time></trkpt><trkpt lat="44.68344418368775" lon="10.294267171642865"><ele>168.0</ele><time>2026-05-03T11:32:58Z</time></trkpt><trkpt lat="44.683625816201186" lon="10.294332597332513"><ele>168.0</ele><time>2026-05-03T11:32:59Z</time></trkpt><trkpt lat="44.68380644825547" lon="10.294421464978441"><ele>168.0</ele><time>2026-05-03T11:33:00Z</time></trkpt><trkpt lat="44.68399727436277" lon="10.294510919954503"><ele>168.0</ele><time>2026-05-03T11:33:01Z</time></trkpt><trkpt lat="44.684190711853745" lon="10.294604207028256"><ele>168.0</ele><time>2026-05-03T11:33:02Z</time></trkpt><trkpt lat="44.684381281908394" lon="10.29469482019974"><ele>168.0</ele><time>2026-05-03T11:33:03Z</time></trkpt><trkpt lat="44.6845667111455" lon="10.294776063797316"><ele>168.0</ele><time>2026-05-03T11:33:04Z</time></trkpt><trkpt lat="44.684751613835125" lon="10.294861659582532"><ele>167.0</ele><time>2026-05-03T11:33:05Z</time></trkpt><trkpt lat="44.68493798083585" lon="10.29494962291214"><ele>166.0</ele><time>2026-05-03T11:33:06Z</time></trkpt><trkpt lat="44.68512799844641" lon="10.295039079326605"><ele>165.0</ele><time>2026-05-03T11:33:07Z</time></trkpt><trkpt lat="44.685318581387314" lon="10.295127634224528"><ele>164.66666666666666</ele><time>2026-05-03T11:33:08Z</time></trkpt><trkpt lat="44.685513622651015" lon="10.295216156228683"><ele>164.33333333333331</ele><time>2026-05-03T11:33:09Z</time></trkpt><trkpt lat="44.68570555241256" lon="10.295304975236128"><ele>164.0</ele><time>2026-05-03T11:33:10Z</time></trkpt><trkpt lat="44.685899621166065" lon="10.295394468158525"><ele>164.0</ele><time>2026-05-03T11:33:11Z</time></trkpt><trkpt lat="44.6860940335283" lon="10.295483274780162"><ele>164.0</ele><time>2026-05-03T11:33:12Z</time></trkpt><trkpt lat="44.68629155846258" lon="10.295573665546472"><ele>164.0</ele><time>2026-05-03T11:33:13Z</time></trkpt><trkpt lat="44.68648706566063" lon="10.295667049311026"><ele>163.66666666666666</ele><time>2026-05-03T11:33:14Z</time></trkpt><trkpt lat="44.68668054074945" lon="10.295757270760225"><ele>163.33333333333334</ele><time>2026-05-03T11:33:15Z</time></trkpt><trkpt lat="44.68686481811257" lon="10.295832001436821"><ele>163.0</ele><time>2026-05-03T11:33:16Z</time></trkpt><trkpt lat="44.68703720632873" lon="10.295911615207007"><ele>163.0</ele><time>2026-05-03T11:33:17Z</time></trkpt><trkpt lat="44.68720337165018" lon="10.295974482181862"><ele>163.0</ele><time>2026-05-03T11:33:18Z</time></trkpt><trkpt lat="44.68738770971603" lon="10.296017458905252"><ele>163.0</ele><time>2026-05-03T11:33:19Z</time></trkpt><trkpt lat="44.687571071044445" lon="10.296042229670098"><ele>162.33333333333334</ele><time>2026-05-03T11:33:20Z</time></trkpt><trkpt lat="44.687762249334554" lon="10.296035546361267"><ele>161.66666666666666</ele><time>2026-05-03T11:33:21Z</time></trkpt><trkpt lat="44.68795229069518" lon="10.296010280242912"><ele>161.0</ele><time>2026-05-03T11:33:22Z</time></trkpt><trkpt lat="44.688140890182304" lon="10.295966022374204"><ele>161.0</ele><time>2026-05-03T11:33:23Z</time></trkpt><trkpt lat="44.6883220261867" lon="10.29589820398304"><ele>161.0</ele><time>2026-05-03T11:33:24Z</time></trkpt><trkpt lat="44.68849562934199" lon="10.295811441688967"><ele>161.0</ele><time>2026-05-03T11:33:25Z</time></trkpt><trkpt lat="44.68865455551008" lon="10.295704497136029"><ele>161.0</ele><time>2026-05-03T11:33:26Z</time></trkpt><trkpt lat="44.688811408313455" lon="10.29559181353987"><ele>161.0</ele><time>2026-05-03T11:33:27Z</time></trkpt><trkpt lat="44.68895641452162" lon="10.295470185940736"><ele>161.0</ele><time>2026-05-03T11:33:28Z</time></trkpt><trkpt lat="44.68909663020281" lon="10.295328447911926"><ele>160.66666666666666</ele><time>2026-05-03T11:33:29Z</time></trkpt><trkpt lat="44.689236402481534" lon="10.29516819670381"><ele>160.33333333333334</ele><time>2026-05-03T11:33:30Z</time></trkpt><trkpt lat="44.689366591993874" lon="10.29499085625027"><ele>160.0</ele><time>2026-05-03T11:33:31Z</time></trkpt><trkpt lat="44.68948975765456" lon="10.294804693827228"><ele>160.0</ele><time>2026-05-03T11:33:32Z</time></trkpt><trkpt lat="44.6895941980849" lon="10.2945949733836"><ele>160.0</ele><time>2026-05-03T11:33:33Z</time></trkpt><trkpt lat="44.68968753147482" lon="10.294384732771585"><ele>160.0</ele><time>2026-05-03T11:33:34Z</time></trkpt><trkpt lat="44.68977031707773" lon="10.294171974559303"><ele>160.0</ele><time>2026-05-03T11:33:35Z</time></trkpt><trkpt lat="44.68983990185715" lon="10.293977082928734"><ele>160.0</ele><time>2026-05-03T11:33:36Z</time></trkpt><trkpt lat="44.689903442115316" lon="10.293781327336587"><ele>160.0</ele><time>2026-05-03T11:33:37Z</time></trkpt><trkpt lat="44.689962336315396" lon="10.293614622102238"><ele>160.0</ele><time>2026-05-03T11:33:38Z</time></trkpt><trkpt lat="44.690018507631805" lon="10.293459418718019"><ele>160.16666666666669</ele><time>2026-05-03T11:33:39Z</time></trkpt><trkpt lat="44.6900677290661" lon="10.293322223968959"><ele>160.33333333333334</ele><time>2026-05-03T11:33:40Z</time></trkpt><trkpt lat="44.69010917233152" lon="10.29319913052524"><ele>160.5</ele><time>2026-05-03T11:33:41Z</time></trkpt><trkpt lat="44.69014325134309" lon="10.293092747346833"><ele>160.66666666666666</ele><time>2026-05-03T11:33:42Z</time></trkpt><trkpt lat="44.690172674923595" lon="10.293009522177586"><ele>160.83333333333331</ele><time>2026-05-03T11:33:43Z</time></trkpt><trkpt lat="44.6902272225595" lon="10.29294283152878"><ele>161.0</ele><time>2026-05-03T11:33:44Z</time></trkpt><trkpt lat="44.690305296386605" lon="10.292908810448735"><ele>160.60000000000002</ele><time>2026-05-03T11:33:45Z</time></trkpt><trkpt lat="44.69040280258015" lon="10.292877759287785"><ele>160.20000000000002</ele><time>2026-05-03T11:33:46Z</time></trkpt><trkpt lat="44.6905052830195" lon="10.29285487323686"><ele>159.8</ele><time>2026-05-03T11:33:47Z</time></trkpt><trkpt lat="44.6906175845639" lon="10.292825848521138"><ele>159.4</ele><time>2026-05-03T11:33:48Z</time></trkpt><trkpt lat="44.69073763657174" lon="10.292807660655109"><ele>159.0</ele><time>2026-05-03T11:33:49Z</time></trkpt><trkpt lat="44.69086099590312" lon="10.292835222786383"><ele>159.0</ele><time>2026-05-03T11:33:50Z</time></trkpt><trkpt lat="44.69099249718633" lon="10.292903894393003"><ele>159.0</ele><time>2026-05-03T11:33:51Z</time></trkpt><trkpt lat="44.6911206920714" lon="10.292979941052392"><ele>159.0</ele><time>2026-05-03T11:33:52Z</time></trkpt><trkpt lat="44.691263985819354" lon="10.293051099571718"><ele>159.0</ele><time>2026-05-03T11:33:53Z</time></trkpt><trkpt lat="44.691416850987565" lon="10.293132210686815"><ele>158.33333333333334</ele><time>2026-05-03T11:33:54Z</time></trkpt><trkpt lat="44.69157507919429" lon="10.29322049124364"><ele>157.66666666666669</ele><time>2026-05-03T11:33:55Z</time></trkpt><trkpt lat="44.69173061440479" lon="10.293308472746068"><ele>157.0</ele><time>2026-05-03T11:33:56Z</time></trkpt><trkpt lat="44.69189137011363" lon="10.293389872009248"><ele>156.33333333333334</ele><time>2026-05-03T11:33:57Z</time></trkpt><trkpt lat="44.69205803058488" lon="10.293451399212051"><ele>155.66666666666666</ele><time>2026-05-03T11:33:58Z</time></trkpt><trkpt lat="44.69222943105413" lon="10.293509013473184"><ele>155.0</ele><time>2026-05-03T11:33:59Z</time></trkpt><trkpt lat="44.692406340851186" lon="10.293567194027025"><ele>155.0</ele><time>2026-05-03T11:34:00Z</time></trkpt><trkpt lat="44.69259687791478" lon="10.293625509096259"><ele>155.0</ele><time>2026-05-03T11:34:01Z</time></trkpt><trkpt lat="44.69278376125075" lon="10.293671034969547"><ele>155.0</ele><time>2026-05-03T11:34:02Z</time></trkpt><trkpt lat="44.69297485405373" lon="10.293707188266099"><ele>155.0</ele><time>2026-05-03T11:34:03Z</time></trkpt><trkpt lat="44.69316555166575" lon="10.293745910694886"><ele>155.0</ele><time>2026-05-03T11:34:04Z</time></trkpt><trkpt lat="44.69335462562754" lon="10.293783416943409"><ele>155.0</ele><time>2026-05-03T11:34:05Z</time></trkpt><trkpt lat="44.6935369096207" lon="10.293820233337271"><ele>155.0</ele><time>2026-05-03T11:34:06Z</time></trkpt><trkpt lat="44.693707475971586" lon="10.293856627545319"><ele>155.0</ele><time>2026-05-03T11:34:07Z</time></trkpt><trkpt lat="44.69387836514866" lon="10.293902946491563"><ele>155.0</ele><time>2026-05-03T11:34:08Z</time></trkpt><trkpt lat="44.69404590525924" lon="10.293973274350336"><ele>155.0</ele><time>2026-05-03T11:34:09Z</time></trkpt><trkpt lat="44.69422395241035" lon="10.294061506881537"><ele>155.0</ele><time>2026-05-03T11:34:10Z</time></trkpt><trkpt lat="44.69440632512384" lon="10.294145766994346"><ele>155.0</ele><time>2026-05-03T11:34:11Z</time></trkpt><trkpt lat="44.69458968880706" lon="10.294228095308751"><ele>154.33333333333331</ele><time>2026-05-03T11:34:12Z</time></trkpt><trkpt lat="44.69476963574626" lon="10.29430591154739"><ele>153.66666666666666</ele><time>2026-05-03T11:34:13Z</time></trkpt><trkpt lat="44.6949638458808" lon="10.29439505771331"><ele>153.0</ele><time>2026-05-03T11:34:14Z</time></trkpt><trkpt lat="44.695149245718625" lon="10.294476662199356"><ele>152.66666666666666</ele><time>2026-05-03T11:34:15Z</time></trkpt><trkpt lat="44.69533754035118" lon="10.294558141557669"><ele>152.33333333333331</ele><time>2026-05-03T11:34:16Z</time></trkpt><trkpt lat="44.69552868145759" lon="10.29464142707094"><ele>152.0</ele><time>2026-05-03T11:34:17Z</time></trkpt><trkpt lat="44.69571994098604" lon="10.294727306080228"><ele>151.66666666666666</ele><time>2026-05-03T11:34:18Z</time></trkpt><trkpt lat="44.69590827747068" lon="10.294811148850807"><ele>151.33333333333334</ele><time>2026-05-03T11:34:19Z</time></trkpt><trkpt lat="44.69609879106621" lon="10.294893751434493"><ele>151.0</ele><time>2026-05-03T11:34:20Z</time></trkpt><trkpt lat="44.69629344999784" lon="10.294977143853307"><ele>151.0</ele><time>2026-05-03T11:34:21Z</time></trkpt><trkpt lat="44.696487087045014" lon="10.295055574506339"><ele>151.0</ele><time>2026-05-03T11:34:22Z</time></trkpt><trkpt lat="44.69668541766042" lon="10.295126811537706"><ele>151.0</ele><time>2026-05-03T11:34:23Z</time></trkpt><trkpt lat="44.69688555476143" lon="10.295192765216756"><ele>150.0</ele><time>2026-05-03T11:34:24Z</time></trkpt><trkpt lat="44.69708538946625" lon="10.295246844626067"><ele>149.0</ele><time>2026-05-03T11:34:25Z</time></trkpt><trkpt lat="44.697280533107055" lon="10.295297124115255"><ele>148.0</ele><time>2026-05-03T11:34:26Z</time></trkpt><trkpt lat="44.69747577632351" lon="10.295343028010715"><ele>148.0</ele><time>2026-05-03T11:34:27Z</time></trkpt><trkpt lat="44.69766900161086" lon="10.295385487246424"><ele>148.0</ele><time>2026-05-03T11:34:28Z</time></trkpt><trkpt lat="44.697866191127346" lon="10.295421140246955"><ele>148.0</ele><time>2026-05-03T11:34:29Z</time></trkpt><trkpt lat="44.698064019186106" lon="10.295456229183056"><ele>148.0</ele><time>2026-05-03T11:34:30Z</time></trkpt><trkpt lat="44.6982639690122" lon="10.295491692220514"><ele>148.0</ele><time>2026-05-03T11:34:31Z</time></trkpt><trkpt lat="44.69846362194152" lon="10.2955292241645"><ele>148.0</ele><time>2026-05-03T11:34:32Z</time></trkpt><trkpt lat="44.69866431520848" lon="10.295566759504412"><ele>148.0</ele><time>2026-05-03T11:34:33Z</time></trkpt><trkpt lat="44.6988617196794" lon="10.295606426672057"><ele>148.0</ele><time>2026-05-03T11:34:34Z</time></trkpt><trkpt lat="44.69906471692528" lon="10.295656780429727"><ele>148.0</ele><time>2026-05-03T11:34:35Z</time></trkpt><trkpt lat="44.69926013047952" lon="10.29572426723118"><ele>147.66666666666669</ele><time>2026-05-03T11:34:36Z</time></trkpt><trkpt lat="44.69945526454662" lon="10.295810468997448"><ele>147.33333333333334</ele><time>2026-05-03T11:34:37Z</time></trkpt><trkpt lat="44.699644368954445" lon="10.295911688932819"><ele>147.0</ele><time>2026-05-03T11:34:38Z</time></trkpt><trkpt lat="44.699831733088935" lon="10.296016918800234"><ele>147.0</ele><time>2026-05-03T11:34:39Z</time></trkpt><trkpt lat="44.70001977923331" lon="10.296120281151543"><ele>147.0</ele><time>2026-05-03T11:34:40Z</time></trkpt><trkpt lat="44.70020514543916" lon="10.296220268017654"><ele>147.0</ele><time>2026-05-03T11:34:41Z</time></trkpt><trkpt lat="44.70038998261866" lon="10.296316708433455"><ele>146.33333333333334</ele><time>2026-05-03T11:34:42Z</time></trkpt><trkpt lat="44.70057718334025" lon="10.296408496521293"><ele>145.66666666666669</ele><time>2026-05-03T11:34:43Z</time></trkpt><trkpt lat="44.70076875416409" lon="10.29649562610705"><ele>145.0</ele><time>2026-05-03T11:34:44Z</time></trkpt><trkpt lat="44.70095892477988" lon="10.296583106284015"><ele>144.66666666666669</ele><time>2026-05-03T11:34:45Z</time></trkpt><trkpt lat="44.701152467129475" lon="10.296672322786959"><ele>144.33333333333334</ele><time>2026-05-03T11:34:46Z</time></trkpt><trkpt lat="44.701345378560305" lon="10.296760468005132"><ele>144.0</ele><time>2026-05-03T11:34:47Z</time></trkpt><trkpt lat="44.70153835367722" lon="10.296845500522876"><ele>144.0</ele><time>2026-05-03T11:34:48Z</time></trkpt><trkpt lat="44.70173224078882" lon="10.296929303825227"><ele>144.0</ele><time>2026-05-03T11:34:49Z</time></trkpt><trkpt lat="44.70192310735487" lon="10.297016147888467"><ele>144.0</ele><time>2026-05-03T11:34:50Z</time></trkpt><trkpt lat="44.702117547594696" lon="10.297107081131863"><ele>143.66666666666666</ele><time>2026-05-03T11:34:51Z</time></trkpt><trkpt lat="44.70231110659783" lon="10.297194463548216"><ele>143.33333333333331</ele><time>2026-05-03T11:34:52Z</time></trkpt><trkpt lat="44.702503194023684" lon="10.297283422383675"><ele>143.0</ele><time>2026-05-03T11:34:53Z</time></trkpt><trkpt lat="44.70269326897585" lon="10.297373383568203"><ele>142.33333333333331</ele><time>2026-05-03T11:34:54Z</time></trkpt><trkpt lat="44.70289005739995" lon="10.297462518030954"><ele>141.66666666666666</ele><time>2026-05-03T11:34:55Z</time></trkpt><trkpt lat="44.7030851117242" lon="10.2975514931222"><ele>141.0</ele><time>2026-05-03T11:34:56Z</time></trkpt><trkpt lat="44.703280406189386" lon="10.297639536275197"><ele>141.0</ele><time>2026-05-03T11:34:57Z</time></trkpt><trkpt lat="44.70347171218808" lon="10.297724568001506"><ele>141.0</ele><time>2026-05-03T11:34:58Z</time></trkpt><trkpt lat="44.70366414901265" lon="10.297810741301227"><ele>141.0</ele><time>2026-05-03T11:34:59Z</time></trkpt><trkpt lat="44.70385567454781" lon="10.297897446095787"><ele>141.66666666666666</ele><time>2026-05-03T11:35:00Z</time></trkpt><trkpt lat="44.70404112859601" lon="10.2979776878429"><ele>142.33333333333331</ele><time>2026-05-03T11:35:01Z</time></trkpt><trkpt lat="44.704223954393726" lon="10.298054236903026"><ele>143.0</ele><time>2026-05-03T11:35:02Z</time></trkpt><trkpt lat="44.7044020801871" lon="10.298128119089927"><ele>142.66666666666666</ele><time>2026-05-03T11:35:03Z</time></trkpt><trkpt lat="44.70457816258673" lon="10.29820612573636"><ele>142.33333333333334</ele><time>2026-05-03T11:35:04Z</time></trkpt><trkpt lat="44.7047559296994" lon="10.298274944860681"><ele>142.0</ele><time>2026-05-03T11:35:05Z</time></trkpt><trkpt lat="44.704939813826904" lon="10.29834049478032"><ele>142.0</ele><time>2026-05-03T11:35:06Z</time></trkpt><trkpt lat="44.70512823065887" lon="10.29840751842519"><ele>142.0</ele><time>2026-05-03T11:35:07Z</time></trkpt><trkpt lat="44.705311945120215" lon="10.298481639904592"><ele>142.0</ele><time>2026-05-03T11:35:08Z</time></trkpt><trkpt lat="44.70549753699242" lon="10.298556002563732"><ele>141.66666666666669</ele><time>2026-05-03T11:35:09Z</time></trkpt><trkpt lat="44.705692032646525" lon="10.298627890027706"><ele>141.33333333333334</ele><time>2026-05-03T11:35:10Z</time></trkpt><trkpt lat="44.70589555202035" lon="10.29870083239272"><ele>141.0</ele><time>2026-05-03T11:35:11Z</time></trkpt><trkpt lat="44.706098200551075" lon="10.298777478107871"><ele>140.66666666666666</ele><time>2026-05-03T11:35:12Z</time></trkpt><trkpt lat="44.70629320427917" lon="10.298854101930676"><ele>140.33333333333331</ele><time>2026-05-03T11:35:13Z</time></trkpt><trkpt lat="44.70648169421954" lon="10.298926094808312"><ele>140.0</ele><time>2026-05-03T11:35:14Z</time></trkpt><trkpt lat="44.70666981907129" lon="10.298998664047703"><ele>140.0</ele><time>2026-05-03T11:35:15Z</time></trkpt><trkpt lat="44.70683583646466" lon="10.299064807320336"><ele>140.0</ele><time>2026-05-03T11:35:16Z</time></trkpt><trkpt lat="44.70700388881953" lon="10.299126616341647"><ele>140.0</ele><time>2026-05-03T11:35:17Z</time></trkpt><trkpt lat="44.707160226986154" lon="10.29918674024884"><ele>139.66666666666666</ele><time>2026-05-03T11:35:18Z</time></trkpt><trkpt lat="44.70731567551552" lon="10.299245152872738"><ele>139.33333333333334</ele><time>2026-05-03T11:35:19Z</time></trkpt><trkpt lat="44.707485142206835" lon="10.299303633041568"><ele>139.0</ele><time>2026-05-03T11:35:20Z</time></trkpt><trkpt lat="44.70765143973828" lon="10.299367963579503"><ele>138.0</ele><time>2026-05-03T11:35:21Z</time></trkpt><trkpt lat="44.707824138638" lon="10.299436610770144"><ele>137.0</ele><time>2026-05-03T11:35:22Z</time></trkpt><trkpt lat="44.708005710452106" lon="10.299499573716478"><ele>136.0</ele><time>2026-05-03T11:35:23Z</time></trkpt><trkpt lat="44.70817791206865" lon="10.299562944738504"><ele>136.0</ele><time>2026-05-03T11:35:24Z</time></trkpt><trkpt lat="44.70835659276971" lon="10.299632950428922"><ele>136.0</ele><time>2026-05-03T11:35:25Z</time></trkpt><trkpt lat="44.708536671381005" lon="10.299699685650024"><ele>136.0</ele><time>2026-05-03T11:35:26Z</time></trkpt><trkpt lat="44.70872389834386" lon="10.29976426570364"><ele>136.33333333333334</ele><time>2026-05-03T11:35:27Z</time></trkpt><trkpt lat="44.70892025771567" lon="10.29981290385235"><ele>136.66666666666666</ele><time>2026-05-03T11:35:28Z</time></trkpt><trkpt lat="44.709118156315924" lon="10.299855392499172"><ele>137.0</ele><time>2026-05-03T11:35:29Z</time></trkpt><trkpt lat="44.709314091705096" lon="10.299893804110509"><ele>136.0</ele><time>2026-05-03T11:35:30Z</time></trkpt><trkpt lat="44.70951098252909" lon="10.299931528562105"><ele>135.0</ele><time>2026-05-03T11:35:31Z</time></trkpt><trkpt lat="44.70971098324365" lon="10.299971101162509"><ele>134.0</ele><time>2026-05-03T11:35:32Z</time></trkpt><trkpt lat="44.70991057205001" lon="10.300012021979352"><ele>134.0</ele><time>2026-05-03T11:35:33Z</time></trkpt><trkpt lat="44.71010919509397" lon="10.300063418456562"><ele>134.0</ele><time>2026-05-03T11:35:34Z</time></trkpt><trkpt lat="44.71029472028871" lon="10.300128839322326"><ele>134.0</ele><time>2026-05-03T11:35:35Z</time></trkpt><trkpt lat="44.71045627126985" lon="10.300210667258625"><ele>133.66666666666666</ele><time>2026-05-03T11:35:36Z</time></trkpt><trkpt lat="44.71061289459368" lon="10.30029513962608"><ele>133.33333333333334</ele><time>2026-05-03T11:35:37Z</time></trkpt><trkpt lat="44.7107696820182" lon="10.30038302421948"><ele>133.0</ele><time>2026-05-03T11:35:38Z</time></trkpt><trkpt lat="44.7109212170987" lon="10.300465297757487"><ele>133.0</ele><time>2026-05-03T11:35:39Z</time></trkpt><trkpt lat="44.71107127297276" lon="10.300555270881203"><ele>133.0</ele><time>2026-05-03T11:35:40Z</time></trkpt><trkpt lat="44.71122592152848" lon="10.300646509767452"><ele>133.0</ele><time>2026-05-03T11:35:41Z</time></trkpt><trkpt lat="44.71137463480492" lon="10.300731449049314"><ele>133.66666666666669</ele><time>2026-05-03T11:35:42Z</time></trkpt><trkpt lat="44.71153171405583" lon="10.30081386912348"><ele>134.33333333333334</ele><time>2026-05-03T11:35:43Z</time></trkpt><trkpt lat="44.71169450025004" lon="10.300884820275265"><ele>135.0</ele><time>2026-05-03T11:35:44Z</time></trkpt><trkpt lat="44.711861832005596" lon="10.300953203234046"><ele>134.0</ele><time>2026-05-03T11:35:45Z</time></trkpt><trkpt lat="44.712031836195706" lon="10.301027753541119"><ele>133.0</ele><time>2026-05-03T11:35:46Z</time></trkpt><trkpt lat="44.712213139738786" lon="10.3011052756603"><ele>132.0</ele><time>2026-05-03T11:35:47Z</time></trkpt><trkpt lat="44.71238688548593" lon="10.301181549867813"><ele>132.0</ele><time>2026-05-03T11:35:48Z</time></trkpt><trkpt lat="44.712562518478784" lon="10.301258295471886"><ele>132.0</ele><time>2026-05-03T11:35:49Z</time></trkpt><trkpt lat="44.712740555349605" lon="10.301333281260744"><ele>132.0</ele><time>2026-05-03T11:35:50Z</time></trkpt><trkpt lat="44.712927395058124" lon="10.301407535217384"><ele>131.0</ele><time>2026-05-03T11:35:51Z</time></trkpt><trkpt lat="44.713114250924946" lon="10.30148803302224"><ele>130.0</ele><time>2026-05-03T11:35:52Z</time></trkpt><trkpt lat="44.7133026497912" lon="10.301569870160382"><ele>129.0</ele><time>2026-05-03T11:35:53Z</time></trkpt><trkpt lat="44.71349224717193" lon="10.301648438209067"><ele>129.33333333333334</ele><time>2026-05-03T11:35:54Z</time></trkpt><trkpt lat="44.71368451999591" lon="10.301726361089646"><ele>129.66666666666669</ele><time>2026-05-03T11:35:55Z</time></trkpt><trkpt lat="44.713876965534226" lon="10.301805510087508"><ele>130.0</ele><time>2026-05-03T11:35:56Z</time></trkpt><trkpt lat="44.714069975087874" lon="10.301881262463425"><ele>130.0</ele><time>2026-05-03T11:35:57Z</time></trkpt><trkpt lat="44.71425705449287" lon="10.3019608505181"><ele>130.0</ele><time>2026-05-03T11:35:58Z</time></trkpt><trkpt lat="44.71444049897595" lon="10.302044291368247"><ele>130.0</ele><time>2026-05-03T11:35:59Z</time></trkpt><trkpt lat="44.714620547849556" lon="10.302130445218863"><ele>130.0</ele><time>2026-05-03T11:36:00Z</time></trkpt><trkpt lat="44.71479943267616" lon="10.302214813922594"><ele>130.0</ele><time>2026-05-03T11:36:01Z</time></trkpt><trkpt lat="44.71497958627537" lon="10.302295124854602"><ele>130.0</ele><time>2026-05-03T11:36:02Z</time></trkpt><trkpt lat="44.715158172182825" lon="10.302378231207934"><ele>129.33333333333334</ele><time>2026-05-03T11:36:03Z</time></trkpt><trkpt lat="44.71532919147798" lon="10.302462129837965"><ele>128.66666666666666</ele><time>2026-05-03T11:36:04Z</time></trkpt><trkpt lat="44.71550913090816" lon="10.302542897043358"><ele>128.0</ele><time>2026-05-03T11:36:05Z</time></trkpt><trkpt lat="44.71569122264271" lon="10.302618507982267"><ele>128.0</ele><time>2026-05-03T11:36:06Z</time></trkpt><trkpt lat="44.71587349080838" lon="10.302686578599399"><ele>128.0</ele><time>2026-05-03T11:36:07Z</time></trkpt><trkpt lat="44.71606334595836" lon="10.302754096244328"><ele>128.0</ele><time>2026-05-03T11:36:08Z</time></trkpt><trkpt lat="44.71625587364101" lon="10.302804474373092"><ele>127.66666666666666</ele><time>2026-05-03T11:36:09Z</time></trkpt><trkpt lat="44.716441121588815" lon="10.30285750659574"><ele>127.33333333333334</ele><time>2026-05-03T11:36:10Z</time></trkpt><trkpt lat="44.71661933533227" lon="10.302918254076"><ele>127.0</ele><time>2026-05-03T11:36:11Z</time></trkpt><trkpt lat="44.71680086194082" lon="10.302975998974137"><ele>127.0</ele><time>2026-05-03T11:36:12Z</time></trkpt><trkpt lat="44.71698372023646" lon="10.303037741002841"><ele>127.0</ele><time>2026-05-03T11:36:13Z</time></trkpt><trkpt lat="44.71716321961842" lon="10.30310088010612"><ele>127.0</ele><time>2026-05-03T11:36:14Z</time></trkpt><trkpt lat="44.717343099396935" lon="10.303167636804075"><ele>127.0</ele><time>2026-05-03T11:36:15Z</time></trkpt><trkpt lat="44.71752620139171" lon="10.303232788346113"><ele>127.0</ele><time>2026-05-03T11:36:16Z</time></trkpt><trkpt lat="44.71770070284176" lon="10.303300512654568"><ele>127.0</ele><time>2026-05-03T11:36:17Z</time></trkpt><trkpt lat="44.717861117317426" lon="10.303379464986717"><ele>127.0</ele><time>2026-05-03T11:36:18Z</time></trkpt><trkpt lat="44.718027323762485" lon="10.303471077417418"><ele>127.0</ele><time>2026-05-03T11:36:19Z</time></trkpt><trkpt lat="44.7181884450335" lon="10.303549520689463"><ele>127.0</ele><time>2026-05-03T11:36:20Z</time></trkpt><trkpt lat="44.71836233980527" lon="10.303639960161082"><ele>127.0</ele><time>2026-05-03T11:36:21Z</time></trkpt><trkpt lat="44.71851800790598" lon="10.303715376189803"><ele>127.0</ele><time>2026-05-03T11:36:22Z</time></trkpt><trkpt lat="44.718662958460605" lon="10.303786159494896"><ele>127.0</ele><time>2026-05-03T11:36:23Z</time></trkpt><trkpt lat="44.71879395450568" lon="10.303844204623825"><ele>127.0</ele><time>2026-05-03T11:36:24Z</time></trkpt><trkpt lat="44.71892669207748" lon="10.303908381390505"><ele>127.0</ele><time>2026-05-03T11:36:25Z</time></trkpt><trkpt lat="44.7190606284998" lon="10.303969319110305"><ele>127.0</ele><time>2026-05-03T11:36:26Z</time></trkpt><trkpt lat="44.7191905755117" lon="10.30403335535161"><ele>127.0</ele><time>2026-05-03T11:36:27Z</time></trkpt><trkpt lat="44.71932449838527" lon="10.30409466113134"><ele>126.75</ele><time>2026-05-03T11:36:28Z</time></trkpt><trkpt lat="44.719450990399075" lon="10.304152599754143"><ele>126.5</ele><time>2026-05-03T11:36:29Z</time></trkpt><trkpt lat="44.719574772324876" lon="10.304206909185588"><ele>126.25</ele><time>2026-05-03T11:36:30Z</time></trkpt><trkpt lat="44.71968466279661" lon="10.30425942301607"><ele>126.0</ele><time>2026-05-03T11:36:31Z</time></trkpt><trkpt lat="44.71978212027264" lon="10.30431187857885"><ele>126.0</ele><time>2026-05-03T11:36:32Z</time></trkpt><trkpt lat="44.71986370959971" lon="10.30434805634195"><ele>126.0</ele><time>2026-05-03T11:36:33Z</time></trkpt><trkpt lat="44.7199319102865" lon="10.304382288264705"><ele>126.0</ele><time>2026-05-03T11:36:34Z</time></trkpt><trkpt lat="44.72000026048261" lon="10.304407972280485"><ele>126.0</ele><time>2026-05-03T11:36:35Z</time></trkpt><trkpt lat="44.72006659047327" lon="10.304435768345147"><ele>126.0</ele><time>2026-05-03T11:36:38Z</time></trkpt><trkpt lat="44.720135415649004" lon="10.30443932048336"><ele>126.0</ele><time>2026-05-03T11:37:42Z</time></trkpt><trkpt lat="44.72023506459085" lon="10.304486768222034"><ele>125.6</ele><time>2026-05-03T11:37:44Z</time></trkpt><trkpt lat="44.72036442079086" lon="10.304539652560699"><ele>125.19999999999999</ele><time>2026-05-03T11:37:46Z</time></trkpt><trkpt lat="44.72044059099905" lon="10.304573699446417"><ele>124.80000000000001</ele><time>2026-05-03T11:37:47Z</time></trkpt><trkpt lat="44.720534100661936" lon="10.30460887340078"><ele>124.4</ele><time>2026-05-03T11:37:48Z</time></trkpt><trkpt lat="44.720632808607625" lon="10.304640839502067"><ele>124.0</ele><time>2026-05-03T11:37:49Z</time></trkpt><trkpt lat="44.72073507180751" lon="10.304671472970561"><ele>124.0</ele><time>2026-05-03T11:37:50Z</time></trkpt><trkpt lat="44.72084044988337" lon="10.304709036790461"><ele>124.0</ele><time>2026-05-03T11:37:51Z</time></trkpt><trkpt lat="44.720953378325476" lon="10.30475063018088"><ele>124.0</ele><time>2026-05-03T11:37:52Z</time></trkpt><trkpt lat="44.721088564350936" lon="10.304796504048964"><ele>124.0</ele><time>2026-05-03T11:37:53Z</time></trkpt><trkpt lat="44.72122531942419" lon="10.30484506700417"><ele>124.25</ele><time>2026-05-03T11:37:54Z</time></trkpt><trkpt lat="44.7213675635585" lon="10.304900785846135"><ele>124.5</ele><time>2026-05-03T11:37:55Z</time></trkpt><trkpt lat="44.72150624399774" lon="10.304953355851225"><ele>124.75</ele><time>2026-05-03T11:37:56Z</time></trkpt><trkpt lat="44.72164827973" lon="10.305009572841447"><ele>125.0</ele><time>2026-05-03T11:37:57Z</time></trkpt><trkpt lat="44.72179363293663" lon="10.30506563258626"><ele>124.5</ele><time>2026-05-03T11:37:58Z</time></trkpt><trkpt lat="44.72193814916865" lon="10.30511910817543"><ele>124.0</ele><time>2026-05-03T11:37:59Z</time></trkpt><trkpt lat="44.72206950129358" lon="10.305170990448302"><ele>123.5</ele><time>2026-05-03T11:38:00Z</time></trkpt><trkpt lat="44.72220827703637" lon="10.305221028766912"><ele>123.0</ele><time>2026-05-03T11:38:01Z</time></trkpt><trkpt lat="44.72234816631748" lon="10.30527813854163"><ele>123.0</ele><time>2026-05-03T11:38:02Z</time></trkpt><trkpt lat="44.72249485215135" lon="10.30534038338691"><ele>123.0</ele><time>2026-05-03T11:38:03Z</time></trkpt><trkpt lat="44.72264073500651" lon="10.305399483404317"><ele>123.0</ele><time>2026-05-03T11:38:04Z</time></trkpt><trkpt lat="44.72279000857403" lon="10.305463059166721"><ele>123.0</ele><time>2026-05-03T11:38:05Z</time></trkpt><trkpt lat="44.72294308551259" lon="10.305528545464357"><ele>123.0</ele><time>2026-05-03T11:38:06Z</time></trkpt><trkpt lat="44.72309336697117" lon="10.305589013998398"><ele>123.0</ele><time>2026-05-03T11:38:07Z</time></trkpt><trkpt lat="44.723246891267955" lon="10.305654030237864"><ele>123.0</ele><time>2026-05-03T11:38:08Z</time></trkpt><trkpt lat="44.72339796003354" lon="10.30571572973529"><ele>123.0</ele><time>2026-05-03T11:38:09Z</time></trkpt><trkpt lat="44.72355760273858" lon="10.305784034278464"><ele>123.0</ele><time>2026-05-03T11:38:10Z</time></trkpt><trkpt lat="44.72372021059383" lon="10.30585493489679"><ele>122.0</ele><time>2026-05-03T11:38:11Z</time></trkpt><trkpt lat="44.72388625795331" lon="10.30592337546168"><ele>121.0</ele><time>2026-05-03T11:38:12Z</time></trkpt><trkpt lat="44.72404912260342" lon="10.305992717063933"><ele>120.0</ele><time>2026-05-03T11:38:13Z</time></trkpt><trkpt lat="44.72421080804129" lon="10.306058397570716"><ele>120.0</ele><time>2026-05-03T11:38:14Z</time></trkpt><trkpt lat="44.72438567993897" lon="10.306138363781116"><ele>120.0</ele><time>2026-05-03T11:38:15Z</time></trkpt><trkpt lat="44.72455272988082" lon="10.306213438685623"><ele>120.0</ele><time>2026-05-03T11:38:16Z</time></trkpt><trkpt lat="44.72472822634169" lon="10.306289652478647"><ele>119.33333333333334</ele><time>2026-05-03T11:38:17Z</time></trkpt><trkpt lat="44.72490605256794" lon="10.306369257871609"><ele>118.66666666666667</ele><time>2026-05-03T11:38:18Z</time></trkpt><trkpt lat="44.72508245368847" lon="10.306445471343189"><ele>118.0</ele><time>2026-05-03T11:38:19Z</time></trkpt><trkpt lat="44.7252601551928" lon="10.306518238564921"><ele>118.0</ele><time>2026-05-03T11:38:20Z</time></trkpt><trkpt lat="44.72544323181289" lon="10.306587184758278"><ele>118.0</ele><time>2026-05-03T11:38:21Z</time></trkpt><trkpt lat="44.72563104316731" lon="10.30665279472467"><ele>118.0</ele><time>2026-05-03T11:38:22Z</time></trkpt><trkpt lat="44.725816199061825" lon="10.306722351114415"><ele>118.0</ele><time>2026-05-03T11:38:23Z</time></trkpt><trkpt lat="44.725993645009716" lon="10.306794244378342"><ele>118.0</ele><time>2026-05-03T11:38:24Z</time></trkpt><trkpt lat="44.72615732128207" lon="10.306855513252707"><ele>118.0</ele><time>2026-05-03T11:38:25Z</time></trkpt><trkpt lat="44.72632869649934" lon="10.306923241008478"><ele>117.66666666666667</ele><time>2026-05-03T11:38:26Z</time></trkpt><trkpt lat="44.726497351155835" lon="10.306989959880994"><ele>117.33333333333334</ele><time>2026-05-03T11:38:27Z</time></trkpt><trkpt lat="44.72667585039357" lon="10.307050192872946"><ele>117.0</ele><time>2026-05-03T11:38:28Z</time></trkpt><trkpt lat="44.726841489158545" lon="10.30711874532234"><ele>116.66666666666666</ele><time>2026-05-03T11:38:29Z</time></trkpt><trkpt lat="44.72702035278719" lon="10.307191511857162"><ele>116.33333333333333</ele><time>2026-05-03T11:38:30Z</time></trkpt><trkpt lat="44.72719139126092" lon="10.307258952709727"><ele>116.0</ele><time>2026-05-03T11:38:31Z</time></trkpt><trkpt lat="44.727375954421944" lon="10.30733294337058"><ele>116.0</ele><time>2026-05-03T11:38:32Z</time></trkpt><trkpt lat="44.72756087747705" lon="10.30740602791233"><ele>116.0</ele><time>2026-05-03T11:38:33Z</time></trkpt><trkpt lat="44.7277455493883" lon="10.307484933520186"><ele>116.0</ele><time>2026-05-03T11:38:34Z</time></trkpt><trkpt lat="44.727933707048805" lon="10.307562003274482"><ele>115.33333333333333</ele><time>2026-05-03T11:38:35Z</time></trkpt><trkpt lat="44.72812249115254" lon="10.307638372395724"><ele>114.66666666666666</ele><time>2026-05-03T11:38:36Z</time></trkpt><trkpt lat="44.72830466169703" lon="10.307712658776959"><ele>114.0</ele><time>2026-05-03T11:38:37Z</time></trkpt><trkpt lat="44.72849246864264" lon="10.30778758393314"><ele>113.33333333333334</ele><time>2026-05-03T11:38:38Z</time></trkpt><trkpt lat="44.72868628448749" lon="10.307867085817174"><ele>112.66666666666667</ele><time>2026-05-03T11:38:39Z</time></trkpt><trkpt lat="44.72887825982361" lon="10.307944497288108"><ele>112.0</ele><time>2026-05-03T11:38:40Z</time></trkpt><trkpt lat="44.72906571973917" lon="10.308026639156818"><ele>112.0</ele><time>2026-05-03T11:38:41Z</time></trkpt><trkpt lat="44.72923754437434" lon="10.308098136813815"><ele>112.0</ele><time>2026-05-03T11:38:42Z</time></trkpt><trkpt lat="44.72941425115532" lon="10.308172359988083"><ele>112.0</ele><time>2026-05-03T11:38:43Z</time></trkpt><trkpt lat="44.72959972398456" lon="10.308248921905978"><ele>112.0</ele><time>2026-05-03T11:38:44Z</time></trkpt><trkpt lat="44.72978692045395" lon="10.308324431546344"><ele>112.0</ele><time>2026-05-03T11:38:45Z</time></trkpt><trkpt lat="44.72997721763247" lon="10.308406644689097"><ele>112.0</ele><time>2026-05-03T11:38:46Z</time></trkpt><trkpt lat="44.73017155860093" lon="10.308489201630044"><ele>112.0</ele><time>2026-05-03T11:38:47Z</time></trkpt><trkpt lat="44.73036793982114" lon="10.308567141435223"><ele>112.0</ele><time>2026-05-03T11:38:48Z</time></trkpt><trkpt lat="44.730562748057615" lon="10.308648539522625"><ele>112.0</ele><time>2026-05-03T11:38:49Z</time></trkpt><trkpt lat="44.73076090911029" lon="10.308732859253123"><ele>112.0</ele><time>2026-05-03T11:38:50Z</time></trkpt><trkpt lat="44.73095712325863" lon="10.308817950036685"><ele>112.0</ele><time>2026-05-03T11:38:51Z</time></trkpt><trkpt lat="44.73114745529218" lon="10.308896388851442"><ele>112.0</ele><time>2026-05-03T11:38:52Z</time></trkpt><trkpt lat="44.731320547922564" lon="10.308965979949178"><ele>111.33333333333334</ele><time>2026-05-03T11:38:53Z</time></trkpt><trkpt lat="44.731499204171534" lon="10.309039288231773"><ele>110.66666666666666</ele><time>2026-05-03T11:38:54Z</time></trkpt><trkpt lat="44.73167920953919" lon="10.30911507265325"><ele>110.0</ele><time>2026-05-03T11:38:55Z</time></trkpt><trkpt lat="44.73184226857402" lon="10.309180888502647"><ele>110.0</ele><time>2026-05-03T11:38:56Z</time></trkpt><trkpt lat="44.732017596538576" lon="10.309251157206482"><ele>110.0</ele><time>2026-05-03T11:38:57Z</time></trkpt><trkpt lat="44.73219559641764" lon="10.309324753998988"><ele>110.0</ele><time>2026-05-03T11:38:58Z</time></trkpt><trkpt lat="44.732385899332606" lon="10.309408437621757"><ele>110.0</ele><time>2026-05-03T11:38:59Z</time></trkpt><trkpt lat="44.7325769448223" lon="10.309482248842274"><ele>110.0</ele><time>2026-05-03T11:39:00Z</time></trkpt><trkpt lat="44.732770920457284" lon="10.309553692401424"><ele>110.0</ele><time>2026-05-03T11:39:01Z</time></trkpt><trkpt lat="44.73296211057249" lon="10.309626134591545"><ele>110.0</ele><time>2026-05-03T11:39:02Z</time></trkpt><trkpt lat="44.73315457484085" lon="10.309697447341065"><ele>110.0</ele><time>2026-05-03T11:39:03Z</time></trkpt><trkpt lat="44.73334869980402" lon="10.309768564083939"><ele>110.0</ele><time>2026-05-03T11:39:04Z</time></trkpt><trkpt lat="44.73354398910563" lon="10.309833249668081"><ele>110.0</ele><time>2026-05-03T11:39:05Z</time></trkpt><trkpt lat="44.73373201086978" lon="10.309908108021675"><ele>110.0</ele><time>2026-05-03T11:39:06Z</time></trkpt><trkpt lat="44.73392023617823" lon="10.309979270100422"><ele>110.0</ele><time>2026-05-03T11:39:07Z</time></trkpt><trkpt lat="44.73411150142322" lon="10.310048223754478"><ele>110.0</ele><time>2026-05-03T11:39:08Z</time></trkpt><trkpt lat="44.73430109278926" lon="10.3101227136077"><ele>110.0</ele><time>2026-05-03T11:39:09Z</time></trkpt><trkpt lat="44.73449267919661" lon="10.310190182719596"><ele>110.0</ele><time>2026-05-03T11:39:10Z</time></trkpt><trkpt lat="44.73467873216908" lon="10.310262573531505"><ele>109.33333333333333</ele><time>2026-05-03T11:39:11Z</time></trkpt><trkpt lat="44.73486228547554" lon="10.310336544726326"><ele>108.66666666666666</ele><time>2026-05-03T11:39:12Z</time></trkpt><trkpt lat="44.73504446132716" lon="10.310408982588749"><ele>108.0</ele><time>2026-05-03T11:39:13Z</time></trkpt><trkpt lat="44.73522937301939" lon="10.310488109701707"><ele>108.0</ele><time>2026-05-03T11:39:14Z</time></trkpt><trkpt lat="44.735413981905886" lon="10.310572825846053"><ele>108.0</ele><time>2026-05-03T11:39:15Z</time></trkpt><trkpt lat="44.73560011847447" lon="10.310661823723539"><ele>108.0</ele><time>2026-05-03T11:39:16Z</time></trkpt><trkpt lat="44.73579152618649" lon="10.310749157420403"><ele>107.66666666666666</ele><time>2026-05-03T11:39:17Z</time></trkpt><trkpt lat="44.735988724768745" lon="10.310834308838587"><ele>107.33333333333333</ele><time>2026-05-03T11:39:18Z</time></trkpt><trkpt lat="44.73618496537862" lon="10.310919604156792"><ele>107.0</ele><time>2026-05-03T11:39:19Z</time></trkpt><trkpt lat="44.73637811091824" lon="10.311008161898064"><ele>107.0</ele><time>2026-05-03T11:39:20Z</time></trkpt><trkpt lat="44.736568147074536" lon="10.31109563562633"><ele>107.0</ele><time>2026-05-03T11:39:21Z</time></trkpt><trkpt lat="44.73675326324986" lon="10.311177069172956"><ele>107.0</ele><time>2026-05-03T11:39:22Z</time></trkpt><trkpt lat="44.736943800666644" lon="10.311265948140246"><ele>106.66666666666666</ele><time>2026-05-03T11:39:23Z</time></trkpt><trkpt lat="44.73714107587645" lon="10.311345153479593"><ele>106.33333333333334</ele><time>2026-05-03T11:39:24Z</time></trkpt><trkpt lat="44.73733534865056" lon="10.311432664801627"><ele>106.0</ele><time>2026-05-03T11:39:25Z</time></trkpt><trkpt lat="44.73753925680454" lon="10.311523956113573"><ele>105.33333333333334</ele><time>2026-05-03T11:39:26Z</time></trkpt><trkpt lat="44.73773948587454" lon="10.311608223203189"><ele>104.66666666666666</ele><time>2026-05-03T11:39:27Z</time></trkpt><trkpt lat="44.73792952510844" lon="10.31169513275145"><ele>104.0</ele><time>2026-05-03T11:39:28Z</time></trkpt><trkpt lat="44.738120423545396" lon="10.311775939181034"><ele>104.0</ele><time>2026-05-03T11:39:29Z</time></trkpt><trkpt lat="44.738301167817966" lon="10.311851818929089"><ele>104.0</ele><time>2026-05-03T11:39:30Z</time></trkpt><trkpt lat="44.73848795664548" lon="10.311936702255784"><ele>104.0</ele><time>2026-05-03T11:39:31Z</time></trkpt><trkpt lat="44.7386717252812" lon="10.312014104177525"><ele>104.0</ele><time>2026-05-03T11:39:32Z</time></trkpt><trkpt lat="44.73885909583372" lon="10.312087633115304"><ele>104.0</ele><time>2026-05-03T11:39:33Z</time></trkpt><trkpt lat="44.73904779693625" lon="10.31216683493028"><ele>104.0</ele><time>2026-05-03T11:39:34Z</time></trkpt><trkpt lat="44.7392326717507" lon="10.312248545831304"><ele>103.66666666666666</ele><time>2026-05-03T11:39:35Z</time></trkpt><trkpt lat="44.739419853515756" lon="10.312328882838594"><ele>103.33333333333334</ele><time>2026-05-03T11:39:36Z</time></trkpt><trkpt lat="44.73961323868113" lon="10.31241003995317"><ele>103.0</ele><time>2026-05-03T11:39:37Z</time></trkpt><trkpt lat="44.73980344072256" lon="10.312494862237156"><ele>103.0</ele><time>2026-05-03T11:39:38Z</time></trkpt><trkpt lat="44.73999515652665" lon="10.312578054540904"><ele>103.0</ele><time>2026-05-03T11:39:39Z</time></trkpt><trkpt lat="44.74018872230778" lon="10.312663294431154"><ele>103.0</ele><time>2026-05-03T11:39:40Z</time></trkpt><trkpt lat="44.740373815238" lon="10.31275430446818"><ele>102.33333333333334</ele><time>2026-05-03T11:39:41Z</time></trkpt><trkpt lat="44.74055683979884" lon="10.312827609112194"><ele>101.66666666666666</ele><time>2026-05-03T11:39:42Z</time></trkpt><trkpt lat="44.74074685664664" lon="10.312906414629467"><ele>101.0</ele><time>2026-05-03T11:39:43Z</time></trkpt><trkpt lat="44.74093550877125" lon="10.312997824016714"><ele>101.0</ele><time>2026-05-03T11:39:44Z</time></trkpt><trkpt lat="44.741121820968765" lon="10.313083116715891"><ele>101.0</ele><time>2026-05-03T11:39:45Z</time></trkpt><trkpt lat="44.74131023234769" lon="10.313166532003354"><ele>101.0</ele><time>2026-05-03T11:39:46Z</time></trkpt><trkpt lat="44.74150071862701" lon="10.313251450326844"><ele>101.0</ele><time>2026-05-03T11:39:47Z</time></trkpt><trkpt lat="44.74169297875597" lon="10.313334051481197"><ele>101.0</ele><time>2026-05-03T11:39:48Z</time></trkpt><trkpt lat="44.74189189347184" lon="10.313425482375369"><ele>101.0</ele><time>2026-05-03T11:39:49Z</time></trkpt><trkpt lat="44.7420866002593" lon="10.313509649015735"><ele>100.66666666666666</ele><time>2026-05-03T11:39:50Z</time></trkpt><trkpt lat="44.74227291194623" lon="10.313589298146825"><ele>100.33333333333334</ele><time>2026-05-03T11:39:51Z</time></trkpt><trkpt lat="44.74246660790406" lon="10.313669479829125"><ele>100.0</ele><time>2026-05-03T11:39:52Z</time></trkpt><trkpt lat="44.74266315328562" lon="10.313750465947173"><ele>100.33333333333334</ele><time>2026-05-03T11:39:53Z</time></trkpt><trkpt lat="44.742862020185605" lon="10.313832126091706"><ele>100.66666666666666</ele><time>2026-05-03T11:39:54Z</time></trkpt><trkpt lat="44.7430625766916" lon="10.313916958731589"><ele>101.0</ele><time>2026-05-03T11:39:55Z</time></trkpt><trkpt lat="44.743261229082634" lon="10.314003238507382"><ele>101.0</ele><time>2026-05-03T11:39:56Z</time></trkpt><trkpt lat="44.74346363077592" lon="10.314084023205055"><ele>101.0</ele><time>2026-05-03T11:39:57Z</time></trkpt><trkpt lat="44.74365441842792" lon="10.314161406034971"><ele>101.0</ele><time>2026-05-03T11:39:58Z</time></trkpt><trkpt lat="44.743825597689096" lon="10.314230799569144"><ele>100.0</ele><time>2026-05-03T11:39:59Z</time></trkpt><trkpt lat="44.74399553349653" lon="10.314299593042746"><ele>99.0</ele><time>2026-05-03T11:40:00Z</time></trkpt><trkpt lat="44.74416247088568" lon="10.31436239083187"><ele>98.0</ele><time>2026-05-03T11:40:01Z</time></trkpt><trkpt lat="44.74434105311914" lon="10.314437448274955"><ele>97.33333333333333</ele><time>2026-05-03T11:40:02Z</time></trkpt><trkpt lat="44.74451100354902" lon="10.314509994578392"><ele>96.66666666666666</ele><time>2026-05-03T11:40:03Z</time></trkpt><trkpt lat="44.74470183465858" lon="10.314594385094539"><ele>96.0</ele><time>2026-05-03T11:40:04Z</time></trkpt><trkpt lat="44.74489242346093" lon="10.314669070534167"><ele>96.33333333333334</ele><time>2026-05-03T11:40:05Z</time></trkpt><trkpt lat="44.74508592716811" lon="10.31476242435145"><ele>96.66666666666667</ele><time>2026-05-03T11:40:06Z</time></trkpt><trkpt lat="44.745286967241036" lon="10.314849220171604"><ele>97.0</ele><time>2026-05-03T11:40:07Z</time></trkpt><trkpt lat="44.745489306111864" lon="10.31493194151302"><ele>97.0</ele><time>2026-05-03T11:40:08Z</time></trkpt><trkpt lat="44.745692166641604" lon="10.315010058226957"><ele>97.0</ele><time>2026-05-03T11:40:09Z</time></trkpt><trkpt lat="44.745893696914365" lon="10.315090675292868"><ele>97.0</ele><time>2026-05-03T11:40:10Z</time></trkpt><trkpt lat="44.746097274005585" lon="10.315176576664566"><ele>96.33333333333334</ele><time>2026-05-03T11:40:11Z</time></trkpt><trkpt lat="44.74630206963358" lon="10.31526512883635"><ele>95.66666666666667</ele><time>2026-05-03T11:40:12Z</time></trkpt><trkpt lat="44.746511160648666" lon="10.315353882092499"><ele>95.0</ele><time>2026-05-03T11:40:13Z</time></trkpt><trkpt lat="44.74670371545335" lon="10.315438414279495"><ele>94.66666666666667</ele><time>2026-05-03T11:40:14Z</time></trkpt><trkpt lat="44.74688894841932" lon="10.315517309852495"><ele>94.33333333333333</ele><time>2026-05-03T11:40:15Z</time></trkpt><trkpt lat="44.747072555148684" lon="10.315590237602068"><ele>94.0</ele><time>2026-05-03T11:40:16Z</time></trkpt><trkpt lat="44.74726170115489" lon="10.315669970319146"><ele>94.0</ele><time>2026-05-03T11:40:17Z</time></trkpt><trkpt lat="44.74745731355753" lon="10.315753981453675"><ele>94.0</ele><time>2026-05-03T11:40:18Z</time></trkpt><trkpt lat="44.747658001534816" lon="10.315837433001782"><ele>94.0</ele><time>2026-05-03T11:40:19Z</time></trkpt><trkpt lat="44.747858664445594" lon="10.315917253075813"><ele>94.0</ele><time>2026-05-03T11:40:20Z</time></trkpt><trkpt lat="44.748059986720435" lon="10.316001648165736"><ele>94.0</ele><time>2026-05-03T11:40:21Z</time></trkpt><trkpt lat="44.74825782645279" lon="10.316083511701907"><ele>94.0</ele><time>2026-05-03T11:40:22Z</time></trkpt><trkpt lat="44.74845922754423" lon="10.316169951533421"><ele>94.33333333333333</ele><time>2026-05-03T11:40:23Z</time></trkpt><trkpt lat="44.74865954034511" lon="10.3162516108861"><ele>94.66666666666667</ele><time>2026-05-03T11:40:24Z</time></trkpt><trkpt lat="44.74885814589502" lon="10.316334660852444"><ele>95.0</ele><time>2026-05-03T11:40:25Z</time></trkpt><trkpt lat="44.74905612016583" lon="10.316414975737976"><ele>95.0</ele><time>2026-05-03T11:40:26Z</time></trkpt><trkpt lat="44.74925025535909" lon="10.316488515223837"><ele>95.0</ele><time>2026-05-03T11:40:27Z</time></trkpt><trkpt lat="44.749436119297826" lon="10.316561046370074"><ele>95.0</ele><time>2026-05-03T11:40:28Z</time></trkpt><trkpt lat="44.74962451838589" lon="10.316631386409256"><ele>93.66666666666667</ele><time>2026-05-03T11:40:29Z</time></trkpt><trkpt lat="44.74982183390306" lon="10.316702754812265"><ele>92.33333333333333</ele><time>2026-05-03T11:40:30Z</time></trkpt><trkpt lat="44.750013546740604" lon="10.31677506565502"><ele>91.0</ele><time>2026-05-03T11:40:31Z</time></trkpt><trkpt lat="44.75020816976054" lon="10.316838717396873"><ele>91.0</ele><time>2026-05-03T11:40:32Z</time></trkpt><trkpt lat="44.750400454854024" lon="10.31689708383578"><ele>91.0</ele><time>2026-05-03T11:40:33Z</time></trkpt><trkpt lat="44.750581983380165" lon="10.316951411307626"><ele>91.0</ele><time>2026-05-03T11:40:34Z</time></trkpt><trkpt lat="44.75074250233241" lon="10.317003919375903"><ele>91.0</ele><time>2026-05-03T11:40:35Z</time></trkpt><trkpt lat="44.75092066111679" lon="10.317061412740186"><ele>91.0</ele><time>2026-05-03T11:40:36Z</time></trkpt><trkpt lat="44.7510885342917" lon="10.317112859961796"><ele>91.0</ele><time>2026-05-03T11:40:37Z</time></trkpt><trkpt lat="44.75126358711562" lon="10.317171575956424"><ele>90.33333333333333</ele><time>2026-05-03T11:40:38Z</time></trkpt><trkpt lat="44.75143087314186" lon="10.31723827214128"><ele>89.66666666666667</ele><time>2026-05-03T11:40:39Z</time></trkpt><trkpt lat="44.75160396302215" lon="10.317314738292776"><ele>89.0</ele><time>2026-05-03T11:40:40Z</time></trkpt><trkpt lat="44.75177874354804" lon="10.317388145171442"><ele>89.0</ele><time>2026-05-03T11:40:41Z</time></trkpt><trkpt lat="44.7519608313717" lon="10.317458478705316"><ele>89.0</ele><time>2026-05-03T11:40:42Z</time></trkpt><trkpt lat="44.75215235700818" lon="10.317532613150883"><ele>89.0</ele><time>2026-05-03T11:40:43Z</time></trkpt><trkpt lat="44.75234580276395" lon="10.317603183759724"><ele>89.0</ele><time>2026-05-03T11:40:44Z</time></trkpt><trkpt lat="44.7525437436202" lon="10.317676326601045"><ele>89.0</ele><time>2026-05-03T11:40:45Z</time></trkpt><trkpt lat="44.75273515854325" lon="10.31774665068309"><ele>89.0</ele><time>2026-05-03T11:40:46Z</time></trkpt><trkpt lat="44.75293067442354" lon="10.317825675578689"><ele>88.0</ele><time>2026-05-03T11:40:47Z</time></trkpt><trkpt lat="44.75312831119532" lon="10.317904132600404"><ele>87.0</ele><time>2026-05-03T11:40:48Z</time></trkpt><trkpt lat="44.753332002421125" lon="10.317977456729219"><ele>86.0</ele><time>2026-05-03T11:40:49Z</time></trkpt><trkpt lat="44.75353166224641" lon="10.318053667178443"><ele>86.0</ele><time>2026-05-03T11:40:50Z</time></trkpt><trkpt lat="44.753722751078875" lon="10.318131204941935"><ele>86.0</ele><time>2026-05-03T11:40:51Z</time></trkpt><trkpt lat="44.75390493591717" lon="10.318206039827018"><ele>86.0</ele><time>2026-05-03T11:40:52Z</time></trkpt><trkpt lat="44.75410255027597" lon="10.318286358104872"><ele>86.0</ele><time>2026-05-03T11:40:53Z</time></trkpt><trkpt lat="44.75430481964547" lon="10.318368795045375"><ele>86.0</ele><time>2026-05-03T11:40:54Z</time></trkpt><trkpt lat="44.7545043736465" lon="10.318449357900965"><ele>86.0</ele><time>2026-05-03T11:40:55Z</time></trkpt><trkpt lat="44.75470639354729" lon="10.318525398074819"><ele>86.0</ele><time>2026-05-03T11:40:56Z</time></trkpt><trkpt lat="44.75490918515438" lon="10.31861095359866"><ele>86.0</ele><time>2026-05-03T11:40:57Z</time></trkpt><trkpt lat="44.75511024759583" lon="10.318697270582602"><ele>86.0</ele><time>2026-05-03T11:40:58Z</time></trkpt><trkpt lat="44.75530897652559" lon="10.318786081528929"><ele>86.0</ele><time>2026-05-03T11:40:59Z</time></trkpt><trkpt lat="44.755507332218116" lon="10.318873700313414"><ele>86.0</ele><time>2026-05-03T11:41:00Z</time></trkpt><trkpt lat="44.75570819822695" lon="10.318967098571694"><ele>86.0</ele><time>2026-05-03T11:41:01Z</time></trkpt><trkpt lat="44.755913188108636" lon="10.319051286030497"><ele>85.66666666666667</ele><time>2026-05-03T11:41:02Z</time></trkpt><trkpt lat="44.7561134886366" lon="10.319138310201055"><ele>85.33333333333333</ele><time>2026-05-03T11:41:03Z</time></trkpt><trkpt lat="44.756313594232935" lon="10.31922422929427"><ele>85.0</ele><time>2026-05-03T11:41:04Z</time></trkpt><trkpt lat="44.75651395443895" lon="10.319314147295641"><ele>85.0</ele><time>2026-05-03T11:41:05Z</time></trkpt><trkpt lat="44.75671368940677" lon="10.31940222200531"><ele>85.0</ele><time>2026-05-03T11:41:06Z</time></trkpt><trkpt lat="44.75691098204686" lon="10.319486846032818"><ele>85.0</ele><time>2026-05-03T11:41:07Z</time></trkpt><trkpt lat="44.75710152781467" lon="10.319576808191913"><ele>85.0</ele><time>2026-05-03T11:41:08Z</time></trkpt><trkpt lat="44.75729585740439" lon="10.319668091320008"><ele>85.0</ele><time>2026-05-03T11:41:09Z</time></trkpt><trkpt lat="44.75749104750588" lon="10.319753794224582"><ele>85.0</ele><time>2026-05-03T11:41:10Z</time></trkpt><trkpt lat="44.75768504791309" lon="10.319834472783109"><ele>84.33333333333333</ele><time>2026-05-03T11:41:11Z</time></trkpt><trkpt lat="44.757881896620624" lon="10.319910744049483"><ele>83.66666666666667</ele><time>2026-05-03T11:41:12Z</time></trkpt><trkpt lat="44.758079217266506" lon="10.319982857545778"><ele>83.0</ele><time>2026-05-03T11:41:13Z</time></trkpt><trkpt lat="44.758280602181095" lon="10.320061080288808"><ele>83.0</ele><time>2026-05-03T11:41:14Z</time></trkpt><trkpt lat="44.75848125795507" lon="10.3201359729901"><ele>83.0</ele><time>2026-05-03T11:41:15Z</time></trkpt><trkpt lat="44.75868614663102" lon="10.320211336712857"><ele>83.0</ele><time>2026-05-03T11:41:16Z</time></trkpt><trkpt lat="44.75888997467172" lon="10.320292335079234"><ele>82.66666666666667</ele><time>2026-05-03T11:41:17Z</time></trkpt><trkpt lat="44.75909636217128" lon="10.320374057289014"><ele>82.33333333333333</ele><time>2026-05-03T11:41:18Z</time></trkpt><trkpt lat="44.759302044174206" lon="10.320453070215795"><ele>82.0</ele><time>2026-05-03T11:41:19Z</time></trkpt><trkpt lat="44.75950897669815" lon="10.320534660221837"><ele>81.0</ele><time>2026-05-03T11:41:20Z</time></trkpt><trkpt lat="44.75972306812359" lon="10.32061281937958"><ele>80.0</ele><time>2026-05-03T11:41:21Z</time></trkpt><trkpt lat="44.759928417096084" lon="10.320691414515132"><ele>79.0</ele><time>2026-05-03T11:41:22Z</time></trkpt><trkpt lat="44.760139632919156" lon="10.320768274038587"><ele>78.66666666666666</ele><time>2026-05-03T11:41:23Z</time></trkpt><trkpt lat="44.76034883094658" lon="10.320850509102057"><ele>78.33333333333333</ele><time>2026-05-03T11:41:24Z</time></trkpt><trkpt lat="44.760555256886704" lon="10.320935788407212"><ele>78.0</ele><time>2026-05-03T11:41:25Z</time></trkpt><trkpt lat="44.76075406115639" lon="10.321010158316518"><ele>78.0</ele><time>2026-05-03T11:41:26Z</time></trkpt><trkpt lat="44.7609433647667" lon="10.321085217830735"><ele>78.0</ele><time>2026-05-03T11:41:27Z</time></trkpt><trkpt lat="44.76110874014346" lon="10.321148162188564"><ele>78.0</ele><time>2026-05-03T11:41:28Z</time></trkpt><trkpt lat="44.76127348813015" lon="10.321210780668874"><ele>79.33333333333333</ele><time>2026-05-03T11:41:29Z</time></trkpt><trkpt lat="44.761433057591255" lon="10.321277867037427"><ele>80.66666666666666</ele><time>2026-05-03T11:41:30Z</time></trkpt><trkpt lat="44.7615881230527" lon="10.321339583870946"><ele>82.0</ele><time>2026-05-03T11:41:31Z</time></trkpt><trkpt lat="44.761727881660754" lon="10.32138996433155"><ele>81.39999999999999</ele><time>2026-05-03T11:41:32Z</time></trkpt><trkpt lat="44.761831592612594" lon="10.32142643430582"><ele>80.8</ele><time>2026-05-03T11:41:33Z</time></trkpt><trkpt lat="44.76192181952301" lon="10.321480717848374"><ele>80.2</ele><time>2026-05-03T11:41:34Z</time></trkpt><trkpt lat="44.76199146495373" lon="10.321576284334972"><ele>79.6</ele><time>2026-05-03T11:41:35Z</time></trkpt><trkpt lat="44.76205271784973" lon="10.321677066852539"><ele>79.0</ele><time>2026-05-03T11:41:36Z</time></trkpt><trkpt lat="44.76213968367574" lon="10.321724983991103"><ele>79.0</ele><time>2026-05-03T11:41:37Z</time></trkpt><trkpt lat="44.76224560355714" lon="10.321692196294311"><ele>79.0</ele><time>2026-05-03T11:41:38Z</time></trkpt><trkpt lat="44.76237973111829" lon="10.321648013187092"><ele>79.0</ele><time>2026-05-03T11:41:39Z</time></trkpt><trkpt lat="44.76252356222819" lon="10.32166611716944"><ele>79.0</ele><time>2026-05-03T11:41:40Z</time></trkpt><trkpt lat="44.76267172734672" lon="10.32175137584001"><ele>78.0</ele><time>2026-05-03T11:41:41Z</time></trkpt><trkpt lat="44.762843815590934" lon="10.32185234458366"><ele>77.0</ele><time>2026-05-03T11:41:42Z</time></trkpt><trkpt lat="44.76303643275514" lon="10.3219272913232"><ele>76.0</ele><time>2026-05-03T11:41:43Z</time></trkpt><trkpt lat="44.763241255416546" lon="10.32200327991038"><ele>76.0</ele><time>2026-05-03T11:41:44Z</time></trkpt><trkpt lat="44.76344145278914" lon="10.32207327303255"><ele>76.0</ele><time>2026-05-03T11:41:45Z</time></trkpt><trkpt lat="44.7636254026078" lon="10.322136180105867"><ele>76.0</ele><time>2026-05-03T11:41:46Z</time></trkpt><trkpt lat="44.763786424708776" lon="10.322204062744817"><ele>76.0</ele><time>2026-05-03T11:41:47Z</time></trkpt><trkpt lat="44.763934837618415" lon="10.322258196598925"><ele>76.0</ele><time>2026-05-03T11:41:48Z</time></trkpt><trkpt lat="44.764061603111365" lon="10.322304910053166"><ele>76.0</ele><time>2026-05-03T11:41:49Z</time></trkpt><trkpt lat="44.76415331303544" lon="10.322348369452166"><ele>76.0</ele><time>2026-05-03T11:41:50Z</time></trkpt><trkpt lat="44.76422175958967" lon="10.32241691063142"><ele>76.0</ele><time>2026-05-03T11:41:51Z</time></trkpt><trkpt lat="44.764252214795164" lon="10.32252690143387"><ele>76.0</ele><time>2026-05-03T11:41:52Z</time></trkpt><trkpt lat="44.76426963786455" lon="10.32266370840437"><ele>76.0</ele><time>2026-05-03T11:41:53Z</time></trkpt><trkpt lat="44.764308370141364" lon="10.32275880054799"><ele>76.0</ele><time>2026-05-03T11:41:54Z</time></trkpt><trkpt lat="44.764388697768084" lon="10.322801798634217"><ele>76.0</ele><time>2026-05-03T11:41:55Z</time></trkpt><trkpt lat="44.76449901462832" lon="10.322763593431505"><ele>76.25</ele><time>2026-05-03T11:41:56Z</time></trkpt><trkpt lat="44.76459908902879" lon="10.322682262970512"><ele>76.5</ele><time>2026-05-03T11:41:57Z</time></trkpt><trkpt lat="44.76471576519474" lon="10.322601771441239"><ele>76.75</ele><time>2026-05-03T11:41:58Z</time></trkpt><trkpt lat="44.76485931651012" lon="10.322599475567905"><ele>77.0</ele><time>2026-05-03T11:41:59Z</time></trkpt><trkpt lat="44.765048001877744" lon="10.322623664279945"><ele>76.33333333333334</ele><time>2026-05-03T11:42:00Z</time></trkpt><trkpt lat="44.765244284050745" lon="10.322649024971312"><ele>75.66666666666667</ele><time>2026-05-03T11:42:01Z</time></trkpt><trkpt lat="44.76543489735593" lon="10.32269570034549"><ele>75.0</ele><time>2026-05-03T11:42:02Z</time></trkpt><trkpt lat="44.765590603104165" lon="10.322746185495927"><ele>75.0</ele><time>2026-05-03T11:42:03Z</time></trkpt><trkpt lat="44.76573267347063" lon="10.322788194589528"><ele>75.0</ele><time>2026-05-03T11:42:04Z</time></trkpt><trkpt lat="44.76587348532185" lon="10.322830277096969"><ele>75.0</ele><time>2026-05-03T11:42:05Z</time></trkpt><trkpt lat="44.766004315709296" lon="10.322874779293453"><ele>75.0</ele><time>2026-05-03T11:42:06Z</time></trkpt><trkpt lat="44.76612000391942" lon="10.32293312541773"><ele>74.2</ele><time>2026-05-03T11:42:07Z</time></trkpt><trkpt lat="44.766219701786675" lon="10.323008180819219"><ele>73.4</ele><time>2026-05-03T11:42:08Z</time></trkpt><trkpt lat="44.766299564156" lon="10.323100390929513"><ele>72.6</ele><time>2026-05-03T11:42:09Z</time></trkpt><trkpt lat="44.766363321038114" lon="10.323184762873069"><ele>71.8</ele><time>2026-05-03T11:42:10Z</time></trkpt><trkpt lat="44.76643059102803" lon="10.323318005526932"><ele>71.0</ele><time>2026-05-03T11:42:12Z</time></trkpt><trkpt lat="44.766470045423084" lon="10.32340803414564"><ele>71.0</ele><time>2026-05-03T11:42:13Z</time></trkpt><trkpt lat="44.76649774529169" lon="10.32352624218852"><ele>71.0</ele><time>2026-05-03T11:42:14Z</time></trkpt><trkpt lat="44.76651213322407" lon="10.323644251123605"><ele>71.0</ele><time>2026-05-03T11:42:15Z</time></trkpt><trkpt lat="44.76653684404021" lon="10.323769440855477"><ele>71.0</ele><time>2026-05-03T11:42:16Z</time></trkpt><trkpt lat="44.76658089888307" lon="10.323886379228064"><ele>71.0</ele><time>2026-05-03T11:42:17Z</time></trkpt><trkpt lat="44.76663763838643" lon="10.323987672588684"><ele>71.0</ele><time>2026-05-03T11:42:18Z</time></trkpt><trkpt lat="44.7667037962402" lon="10.324088306353062"><ele>71.0</ele><time>2026-05-03T11:42:19Z</time></trkpt><trkpt lat="44.7667873066078" lon="10.324180142107187"><ele>71.0</ele><time>2026-05-03T11:42:20Z</time></trkpt><trkpt lat="44.766878016325606" lon="10.324248035051685"><ele>71.0</ele><time>2026-05-03T11:42:21Z</time></trkpt><trkpt lat="44.76697140644019" lon="10.324321158690944"><ele>71.0</ele><time>2026-05-03T11:42:22Z</time></trkpt><trkpt lat="44.767055861237154" lon="10.324423699027502"><ele>71.0</ele><time>2026-05-03T11:42:23Z</time></trkpt><trkpt lat="44.76711682326177" lon="10.324560052799033"><ele>71.0</ele><time>2026-05-03T11:42:24Z</time></trkpt><trkpt lat="44.76715562879057" lon="10.324728132657583"><ele>71.0</ele><time>2026-05-03T11:42:25Z</time></trkpt><trkpt lat="44.767191853996565" lon="10.324913947708227"><ele>71.0</ele><time>2026-05-03T11:42:26Z</time></trkpt><trkpt lat="44.767236786054575" lon="10.325119627181964"><ele>70.33333333333334</ele><time>2026-05-03T11:42:27Z</time></trkpt><trkpt lat="44.76728742814657" lon="10.325339076340516"><ele>69.66666666666667</ele><time>2026-05-03T11:42:28Z</time></trkpt><trkpt lat="44.7673406719315" lon="10.325557378258761"><ele>69.0</ele><time>2026-05-03T11:42:29Z</time></trkpt><trkpt lat="44.76742075333246" lon="10.32578448188415"><ele>70.0</ele><time>2026-05-03T11:42:30Z</time></trkpt><trkpt lat="44.767522777101476" lon="10.326010531401055"><ele>71.0</ele><time>2026-05-03T11:42:31Z</time></trkpt><trkpt lat="44.76762212619699" lon="10.326217533941838"><ele>72.0</ele><time>2026-05-03T11:42:32Z</time></trkpt><trkpt lat="44.76773288236068" lon="10.326419585275207"><ele>72.0</ele><time>2026-05-03T11:42:33Z</time></trkpt><trkpt lat="44.76785279367833" lon="10.326618032526923"><ele>72.0</ele><time>2026-05-03T11:42:34Z</time></trkpt><trkpt lat="44.76797553710079" lon="10.326809096622037"><ele>72.0</ele><time>2026-05-03T11:42:35Z</time></trkpt><trkpt lat="44.768111364166934" lon="10.326985666137364"><ele>72.0</ele><time>2026-05-03T11:42:36Z</time></trkpt><trkpt lat="44.76825354664672" lon="10.327149117969334"><ele>72.0</ele><time>2026-05-03T11:42:37Z</time></trkpt><trkpt lat="44.768398529962425" lon="10.327301616982135"><ele>72.0</ele><time>2026-05-03T11:42:38Z</time></trkpt><trkpt lat="44.768548878803074" lon="10.327445092413413"><ele>70.66666666666667</ele><time>2026-05-03T11:42:39Z</time></trkpt><trkpt lat="44.76869762818498" lon="10.327581039565722"><ele>69.33333333333334</ele><time>2026-05-03T11:42:40Z</time></trkpt><trkpt lat="44.76886110038818" lon="10.3277140363161"><ele>68.0</ele><time>2026-05-03T11:42:41Z</time></trkpt><trkpt lat="44.769036524148426" lon="10.327843767201424"><ele>68.0</ele><time>2026-05-03T11:42:42Z</time></trkpt><trkpt lat="44.76923355585332" lon="10.327957865699375"><ele>68.0</ele><time>2026-05-03T11:42:43Z</time></trkpt><trkpt lat="44.76943201213432" lon="10.328061211779529"><ele>68.0</ele><time>2026-05-03T11:42:44Z</time></trkpt><trkpt lat="44.769630039814764" lon="10.328139083685207"><ele>69.33333333333334</ele><time>2026-05-03T11:42:45Z</time></trkpt><trkpt lat="44.76982876526818" lon="10.328200300640468"><ele>70.66666666666667</ele><time>2026-05-03T11:42:46Z</time></trkpt><trkpt lat="44.77003252758768" lon="10.328253945074866"><ele>72.0</ele><time>2026-05-03T11:42:47Z</time></trkpt><trkpt lat="44.77024706839298" lon="10.32827047762076"><ele>72.33333333333333</ele><time>2026-05-03T11:42:48Z</time></trkpt><trkpt lat="44.77045961435406" lon="10.328289068909058"><ele>72.66666666666666</ele><time>2026-05-03T11:42:49Z</time></trkpt><trkpt lat="44.770682286245915" lon="10.328296797274994"><ele>73.0</ele><time>2026-05-03T11:42:50Z</time></trkpt><trkpt lat="44.77090064547382" lon="10.328303097500454"><ele>72.5</ele><time>2026-05-03T11:42:51Z</time></trkpt><trkpt lat="44.77112450440374" lon="10.32830439578535"><ele>72.0</ele><time>2026-05-03T11:42:52Z</time></trkpt><trkpt lat="44.771350189170526" lon="10.328313805799688"><ele>72.0</ele><time>2026-05-03T11:42:53Z</time></trkpt><trkpt lat="44.77157118710425" lon="10.328314150415926"><ele>72.0</ele><time>2026-05-03T11:42:54Z</time></trkpt><trkpt lat="44.771792496698836" lon="10.328310030301644"><ele>72.0</ele><time>2026-05-03T11:42:55Z</time></trkpt><trkpt lat="44.772010231777315" lon="10.328314108016375"><ele>70.66666666666667</ele><time>2026-05-03T11:42:56Z</time></trkpt><trkpt lat="44.77222695326778" lon="10.328314909365245"><ele>69.33333333333334</ele><time>2026-05-03T11:42:57Z</time></trkpt><trkpt lat="44.772441730857075" lon="10.328309048135914"><ele>68.0</ele><time>2026-05-03T11:42:58Z</time></trkpt><trkpt lat="44.7726498367335" lon="10.328308066037351"><ele>68.66666666666667</ele><time>2026-05-03T11:42:59Z</time></trkpt><trkpt lat="44.77284258488156" lon="10.328317336482678"><ele>69.33333333333333</ele><time>2026-05-03T11:43:00Z</time></trkpt><trkpt lat="44.77303148152813" lon="10.328333056824562"><ele>70.0</ele><time>2026-05-03T11:43:01Z</time></trkpt><trkpt lat="44.77322607594161" lon="10.328359497429792"><ele>70.0</ele><time>2026-05-03T11:43:02Z</time></trkpt><trkpt lat="44.7734167386524" lon="10.328398969816257"><ele>70.0</ele><time>2026-05-03T11:43:03Z</time></trkpt><trkpt lat="44.773597205378096" lon="10.328454121132355"><ele>70.0</ele><time>2026-05-03T11:43:04Z</time></trkpt><trkpt lat="44.77376898679023" lon="10.32853022119806"><ele>70.33333333333333</ele><time>2026-05-03T11:43:05Z</time></trkpt><trkpt lat="44.773943224052175" lon="10.328609155050389"><ele>70.66666666666667</ele><time>2026-05-03T11:43:06Z</time></trkpt><trkpt lat="44.774117619591905" lon="10.32871020750914"><ele>71.0</ele><time>2026-05-03T11:43:07Z</time></trkpt><trkpt lat="44.774297032740286" lon="10.328840179336904"><ele>70.66666666666667</ele><time>2026-05-03T11:43:08Z</time></trkpt><trkpt lat="44.774462595576225" lon="10.329003063316907"><ele>70.33333333333333</ele><time>2026-05-03T11:43:09Z</time></trkpt><trkpt lat="44.77462624927479" lon="10.32916987435846"><ele>70.0</ele><time>2026-05-03T11:43:10Z</time></trkpt><trkpt lat="44.77478664021928" lon="10.329359212238277"><ele>70.0</ele><time>2026-05-03T11:43:11Z</time></trkpt><trkpt lat="44.77492011639834" lon="10.329523509897589"><ele>70.0</ele><time>2026-05-03T11:43:12Z</time></trkpt><trkpt lat="44.775039583819925" lon="10.329653133727737"><ele>70.0</ele><time>2026-05-03T11:43:13Z</time></trkpt><trkpt lat="44.775142701593865" lon="10.329757601806094"><ele>70.8</ele><time>2026-05-03T11:43:14Z</time></trkpt><trkpt lat="44.77525103832567" lon="10.329849614111783"><ele>71.6</ele><time>2026-05-03T11:43:15Z</time></trkpt><trkpt lat="44.77532740951991" lon="10.329945391624053"><ele>72.4</ele><time>2026-05-03T11:43:16Z</time></trkpt><trkpt lat="44.77537762307123" lon="10.330067455989587"><ele>73.2</ele><time>2026-05-03T11:43:17Z</time></trkpt><trkpt lat="44.77539971485919" lon="10.330221804790662"><ele>74.0</ele><time>2026-05-03T11:43:18Z</time></trkpt><trkpt lat="44.775400506878455" lon="10.33039405884969"><ele>73.60000000000001</ele><time>2026-05-03T11:43:19Z</time></trkpt><trkpt lat="44.7754010732318" lon="10.330566921425396"><ele>73.2</ele><time>2026-05-03T11:43:20Z</time></trkpt><trkpt lat="44.77542392969168" lon="10.33070472595211"><ele>72.80000000000001</ele><time>2026-05-03T11:43:21Z</time></trkpt><trkpt lat="44.77547060597864" lon="10.330816561207936"><ele>72.4</ele><time>2026-05-03T11:43:22Z</time></trkpt><trkpt lat="44.77554736478756" lon="10.33089835379632"><ele>72.0</ele><time>2026-05-03T11:43:23Z</time></trkpt><trkpt lat="44.775638224788906" lon="10.330924873435537"><ele>72.0</ele><time>2026-05-03T11:43:24Z</time></trkpt><trkpt lat="44.77572917250065" lon="10.330894396045924"><ele>72.0</ele><time>2026-05-03T11:43:25Z</time></trkpt><trkpt lat="44.77581024274068" lon="10.330815139959933"><ele>72.0</ele><time>2026-05-03T11:43:26Z</time></trkpt><trkpt lat="44.775888214522396" lon="10.330737476909325"><ele>72.0</ele><time>2026-05-03T11:43:27Z</time></trkpt><trkpt lat="44.77601517700424" lon="10.330682527571783"><ele>72.0</ele><time>2026-05-03T11:43:28Z</time></trkpt><trkpt lat="44.776147043159504" lon="10.330666113875159"><ele>72.0</ele><time>2026-05-03T11:43:29Z</time></trkpt><trkpt lat="44.776290978952545" lon="10.330673556835055"><ele>72.0</ele><time>2026-05-03T11:43:30Z</time></trkpt><trkpt lat="44.77643353328432" lon="10.330715830099807"><ele>72.0</ele><time>2026-05-03T11:43:31Z</time></trkpt><trkpt lat="44.77657940932137" lon="10.33075502616166"><ele>72.0</ele><time>2026-05-03T11:43:32Z</time></trkpt><trkpt lat="44.7767272152572" lon="10.330792499434148"><ele>71.75</ele><time>2026-05-03T11:43:33Z</time></trkpt><trkpt lat="44.776871332924294" lon="10.330857249267583"><ele>71.5</ele><time>2026-05-03T11:43:34Z</time></trkpt><trkpt lat="44.777006775027154" lon="10.330958008531628"><ele>71.25</ele><time>2026-05-03T11:43:35Z</time></trkpt><trkpt lat="44.777126195961884" lon="10.331069920039152"><ele>71.0</ele><time>2026-05-03T11:43:36Z</time></trkpt><trkpt lat="44.777256764120104" lon="10.331183283277884"><ele>71.0</ele><time>2026-05-03T11:43:37Z</time></trkpt><trkpt lat="44.777385708052435" lon="10.331286277972122"><ele>71.0</ele><time>2026-05-03T11:43:38Z</time></trkpt><trkpt lat="44.777512288343765" lon="10.331374112386172"><ele>71.0</ele><time>2026-05-03T11:43:39Z</time></trkpt><trkpt lat="44.777653286302765" lon="10.331466448737048"><ele>71.0</ele><time>2026-05-03T11:43:40Z</time></trkpt><trkpt lat="44.777810538567" lon="10.331540283396807"><ele>70.33333333333334</ele><time>2026-05-03T11:43:41Z</time></trkpt><trkpt lat="44.77796598284638" lon="10.331605173139714"><ele>69.66666666666667</ele><time>2026-05-03T11:43:42Z</time></trkpt><trkpt lat="44.77812325410342" lon="10.33165494345671"><ele>69.0</ele><time>2026-05-03T11:43:43Z</time></trkpt><trkpt lat="44.77828691612164" lon="10.331686260635603"><ele>69.0</ele><time>2026-05-03T11:43:44Z</time></trkpt><trkpt lat="44.778458230528734" lon="10.33170214765665"><ele>69.0</ele><time>2026-05-03T11:43:45Z</time></trkpt><trkpt lat="44.77862365571902" lon="10.331702054009387"><ele>69.0</ele><time>2026-05-03T11:43:46Z</time></trkpt><trkpt lat="44.77877589147965" lon="10.3316990397458"><ele>68.75</ele><time>2026-05-03T11:43:47Z</time></trkpt><trkpt lat="44.778911654770205" lon="10.331701716799584"><ele>68.5</ele><time>2026-05-03T11:43:48Z</time></trkpt><trkpt lat="44.77905605030935" lon="10.331704211571298"><ele>68.25</ele><time>2026-05-03T11:43:49Z</time></trkpt><trkpt lat="44.7792062472148" lon="10.331709938317546"><ele>68.0</ele><time>2026-05-03T11:43:50Z</time></trkpt><trkpt lat="44.779359850674126" lon="10.331703998227852"><ele>68.0</ele><time>2026-05-03T11:43:51Z</time></trkpt><trkpt lat="44.77952620718101" lon="10.331704187853786"><ele>68.0</ele><time>2026-05-03T11:43:52Z</time></trkpt><trkpt lat="44.779680170603854" lon="10.331704166851125"><ele>68.0</ele><time>2026-05-03T11:43:53Z</time></trkpt><trkpt lat="44.77985110975419" lon="10.331699924337167"><ele>68.0</ele><time>2026-05-03T11:43:54Z</time></trkpt><trkpt lat="44.780009790321316" lon="10.331698056383356"><ele>68.0</ele><time>2026-05-03T11:43:55Z</time></trkpt><trkpt lat="44.780164447648495" lon="10.331705384878191"><ele>68.0</ele><time>2026-05-03T11:43:56Z</time></trkpt><trkpt lat="44.78031008400125" lon="10.33171347022578"><ele>68.33333333333334</ele><time>2026-05-03T11:43:57Z</time></trkpt><trkpt lat="44.780472040274034" lon="10.3317082826308"><ele>68.66666666666667</ele><time>2026-05-03T11:43:58Z</time></trkpt><trkpt lat="44.780628501849094" lon="10.331715538134953"><ele>69.0</ele><time>2026-05-03T11:43:59.001Z</time></trkpt><trkpt lat="44.78078413558894" lon="10.331712457677256"><ele>69.0</ele><time>2026-05-03T11:44:00.001Z</time></trkpt><trkpt lat="44.78093133840358" lon="10.331710559067155"><ele>69.0</ele><time>2026-05-03T11:44:01.001Z</time></trkpt><trkpt lat="44.78107770488349" lon="10.331693141219398"><ele>69.0</ele><time>2026-05-03T11:44:02.001Z</time></trkpt><trkpt lat="44.78123755623699" lon="10.33165722226372"><ele>68.33333333333333</ele><time>2026-05-03T11:44:03.001Z</time></trkpt><trkpt lat="44.781386736510804" lon="10.331607476063503"><ele>67.66666666666666</ele><time>2026-05-03T11:44:04.001Z</time></trkpt><trkpt lat="44.78153801164373" lon="10.331528971847096"><ele>67.0</ele><time>2026-05-03T11:44:05.001Z</time></trkpt><trkpt lat="44.78166655997472" lon="10.331447910983094"><ele>67.0</ele><time>2026-05-03T11:44:06Z</time></trkpt><trkpt lat="44.781790182412365" lon="10.331378771997803"><ele>67.0</ele><time>2026-05-03T11:44:07Z</time></trkpt><trkpt lat="44.78190702440722" lon="10.331339553223351"><ele>67.0</ele><time>2026-05-03T11:44:08Z</time></trkpt><trkpt lat="44.782020407692805" lon="10.33133792476889"><ele>67.0</ele><time>2026-05-03T11:44:09Z</time></trkpt><trkpt lat="44.78211115723574" lon="10.331381185092228"><ele>67.0</ele><time>2026-05-03T11:44:10Z</time></trkpt><trkpt lat="44.782175890912626" lon="10.331425503969047"><ele>67.0</ele><time>2026-05-03T11:44:11Z</time></trkpt><trkpt lat="44.782256560184834" lon="10.331383731810265"><ele>67.0</ele><time>2026-05-03T11:44:12Z</time></trkpt><trkpt lat="44.78231845929003" lon="10.331274348824339"><ele>67.0</ele><time>2026-05-03T11:44:13Z</time></trkpt><trkpt lat="44.782386639384185" lon="10.33112533784538"><ele>67.0</ele><time>2026-05-03T11:44:14Z</time></trkpt><trkpt lat="44.78249878215135" lon="10.331012058115816"><ele>67.0</ele><time>2026-05-03T11:44:15Z</time></trkpt><trkpt lat="44.78265534406747" lon="10.330940165443355"><ele>67.0</ele><time>2026-05-03T11:44:16Z</time></trkpt><trkpt lat="44.78283798355192" lon="10.330877757190146"><ele>67.0</ele><time>2026-05-03T11:44:17Z</time></trkpt><trkpt lat="44.78301121382173" lon="10.330796477210981"><ele>67.0</ele><time>2026-05-03T11:44:18Z</time></trkpt><trkpt lat="44.783192056540415" lon="10.330705593589022"><ele>67.0</ele><time>2026-05-03T11:44:19Z</time></trkpt><trkpt lat="44.783367040947155" lon="10.330629518515224"><ele>67.0</ele><time>2026-05-03T11:44:20Z</time></trkpt><trkpt lat="44.78351865031909" lon="10.33055471109883"><ele>68.0</ele><time>2026-05-03T11:44:21Z</time></trkpt><trkpt lat="44.78366465077226" lon="10.330515147126835"><ele>69.0</ele><time>2026-05-03T11:44:22Z</time></trkpt><trkpt lat="44.78382818757511" lon="10.330472047163305"><ele>70.0</ele><time>2026-05-03T11:44:23Z</time></trkpt><trkpt lat="44.783980599567876" lon="10.330434930262767"><ele>70.0</ele><time>2026-05-03T11:44:24Z</time></trkpt><trkpt lat="44.78414128279424" lon="10.330403139123728"><ele>70.0</ele><time>2026-05-03T11:44:25Z</time></trkpt><trkpt lat="44.78430584368003" lon="10.330369502556527"><ele>70.0</ele><time>2026-05-03T11:44:26Z</time></trkpt><trkpt lat="44.78445576896138" lon="10.330355688917429"><ele>69.66666666666666</ele><time>2026-05-03T11:44:27Z</time></trkpt><trkpt lat="44.78461796221327" lon="10.330344508375605"><ele>69.33333333333333</ele><time>2026-05-03T11:44:28Z</time></trkpt><trkpt lat="44.78477661046159" lon="10.330344419485487"><ele>69.0</ele><time>2026-05-03T11:44:29Z</time></trkpt><trkpt lat="44.78493799043597" lon="10.330343810147278"><ele>69.0</ele><time>2026-05-03T11:44:30Z</time></trkpt><trkpt lat="44.7851027644138" lon="10.330336721926706"><ele>69.0</ele><time>2026-05-03T11:44:31Z</time></trkpt><trkpt lat="44.78527103190657" lon="10.330328340273137"><ele>69.0</ele><time>2026-05-03T11:44:32Z</time></trkpt><trkpt lat="44.78542548193562" lon="10.330326302871578"><ele>67.75</ele><time>2026-05-03T11:44:33Z</time></trkpt><trkpt lat="44.785575264540455" lon="10.330316741154062"><ele>66.5</ele><time>2026-05-03T11:44:34Z</time></trkpt><trkpt lat="44.7857034137984" lon="10.330307146468572"><ele>65.25</ele><time>2026-05-03T11:44:35Z</time></trkpt><trkpt lat="44.78582556524531" lon="10.330297712129905"><ele>64.0</ele><time>2026-05-03T11:44:36Z</time></trkpt><trkpt lat="44.785927944844815" lon="10.330294563208216"><ele>64.0</ele><time>2026-05-03T11:44:37Z</time></trkpt><trkpt lat="44.78600244754808" lon="10.3303187393511"><ele>64.0</ele><time>2026-05-03T11:44:38Z</time></trkpt><trkpt lat="44.78606859425088" lon="10.330378500741457"><ele>64.0</ele><time>2026-05-03T11:44:39Z</time></trkpt><trkpt lat="44.78613894581958" lon="10.330468999813144"><ele>64.0</ele><time>2026-05-03T11:44:40Z</time></trkpt><trkpt lat="44.78618495552405" lon="10.33059571537123"><ele>64.0</ele><time>2026-05-03T11:44:41Z</time></trkpt><trkpt lat="44.78622152509161" lon="10.330729793733967"><ele>64.4</ele><time>2026-05-03T11:44:42Z</time></trkpt><trkpt lat="44.78629396815695" lon="10.330832737444744"><ele>64.80000000000001</ele><time>2026-05-03T11:44:43Z</time></trkpt><trkpt lat="44.78639975828739" lon="10.330868363715132"><ele>65.19999999999999</ele><time>2026-05-03T11:44:44Z</time></trkpt><trkpt lat="44.786497332826556" lon="10.330848747122566"><ele>65.6</ele><time>2026-05-03T11:44:45Z</time></trkpt><trkpt lat="44.78659608059248" lon="10.330741895085623"><ele>66.0</ele><time>2026-05-03T11:44:46Z</time></trkpt><trkpt lat="44.78665162508373" lon="10.330570060737555"><ele>66.0</ele><time>2026-05-03T11:44:47Z</time></trkpt><trkpt lat="44.786741786433126" lon="10.330397055639914"><ele>66.0</ele><time>2026-05-03T11:44:48Z</time></trkpt><trkpt lat="44.786836037856105" lon="10.330247630889298"><ele>66.0</ele><time>2026-05-03T11:44:49Z</time></trkpt><trkpt lat="44.78695832676246" lon="10.330129676106164"><ele>66.0</ele><time>2026-05-03T11:44:50Z</time></trkpt><trkpt lat="44.78707879119326" lon="10.330017506239598"><ele>66.66666666666667</ele><time>2026-05-03T11:44:51Z</time></trkpt><trkpt lat="44.78721212323804" lon="10.329893477753805"><ele>67.33333333333334</ele><time>2026-05-03T11:44:52Z</time></trkpt><trkpt lat="44.787349378192694" lon="10.329750493179917"><ele>68.0</ele><time>2026-05-03T11:44:53Z</time></trkpt><trkpt lat="44.78748497103499" lon="10.329619902369583"><ele>68.0</ele><time>2026-05-03T11:44:54Z</time></trkpt><trkpt lat="44.78763183162695" lon="10.329460021696649"><ele>68.0</ele><time>2026-05-03T11:44:55Z</time></trkpt><trkpt lat="44.78778160235533" lon="10.329301807384025"><ele>68.0</ele><time>2026-05-03T11:44:56Z</time></trkpt><trkpt lat="44.78793189967888" lon="10.32913770140827"><ele>68.33333333333334</ele><time>2026-05-03T11:44:57Z</time></trkpt><trkpt lat="44.788062367894625" lon="10.328987386433457"><ele>68.66666666666667</ele><time>2026-05-03T11:44:58Z</time></trkpt><trkpt lat="44.7881879702772" lon="10.328852323863186"><ele>69.0</ele><time>2026-05-03T11:44:59Z</time></trkpt><trkpt lat="44.7882970777264" lon="10.328732718111732"><ele>69.0</ele><time>2026-05-03T11:45:00Z</time></trkpt><trkpt lat="44.78838761556684" lon="10.328622107978381"><ele>69.0</ele><time>2026-05-03T11:45:01Z</time></trkpt><trkpt lat="44.78847285298622" lon="10.328540704306064"><ele>69.0</ele><time>2026-05-03T11:45:02Z</time></trkpt><trkpt lat="44.78853317571056" lon="10.328477227865934"><ele>69.0</ele><time>2026-05-03T11:45:03Z</time></trkpt><trkpt lat="44.788590798183925" lon="10.328441080100056"><ele>69.0</ele><time>2026-05-03T11:45:04Z</time></trkpt><trkpt lat="44.78869011121069" lon="10.328380707930055"><ele>69.2</ele><time>2026-05-03T11:45:06Z</time></trkpt><trkpt lat="44.78873332627864" lon="10.328238845622934"><ele>69.4</ele><time>2026-05-03T11:45:08Z</time></trkpt><trkpt lat="44.78870192495424" lon="10.32809511223594"><ele>69.6</ele><time>2026-05-03T11:45:10Z</time></trkpt><trkpt lat="44.7886638487382" lon="10.327983424203202"><ele>69.8</ele><time>2026-05-03T11:45:11Z</time></trkpt><trkpt lat="44.78865098682407" lon="10.327843567430206"><ele>70.0</ele><time>2026-05-03T11:45:12Z</time></trkpt><trkpt lat="44.78864289271137" lon="10.327658393998796"><ele>69.0</ele><time>2026-05-03T11:45:13Z</time></trkpt><trkpt lat="44.78864483971139" lon="10.327461128108819"><ele>68.0</ele><time>2026-05-03T11:45:14Z</time></trkpt><trkpt lat="44.7886359491479" lon="10.32721817315089"><ele>67.0</ele><time>2026-05-03T11:45:15Z</time></trkpt><trkpt lat="44.788630178999824" lon="10.327006057525777"><ele>66.75</ele><time>2026-05-03T11:45:16Z</time></trkpt><trkpt lat="44.788630703109995" lon="10.326848408107578"><ele>66.5</ele><time>2026-05-03T11:45:17Z</time></trkpt><trkpt lat="44.788643559229904" lon="10.326701220765123"><ele>66.25</ele><time>2026-05-03T11:45:19Z</time></trkpt><trkpt lat="44.788793612423724" lon="10.32667553239871"><ele>66.0</ele><time>2026-05-03T11:45:21Z</time></trkpt><trkpt lat="44.78888906223032" lon="10.326676933784576"><ele>66.0</ele><time>2026-05-03T11:45:22Z</time></trkpt><trkpt lat="44.78898498527898" lon="10.32667840106763"><ele>66.0</ele><time>2026-05-03T11:45:23Z</time></trkpt><trkpt lat="44.78909414983093" lon="10.326670190709583"><ele>66.0</ele><time>2026-05-03T11:45:24Z</time></trkpt><trkpt lat="44.78920867282468" lon="10.326652125179123"><ele>66.0</ele><time>2026-05-03T11:45:25Z</time></trkpt><trkpt lat="44.78932711006766" lon="10.326637820341606"><ele>66.0</ele><time>2026-05-03T11:45:26Z</time></trkpt><trkpt lat="44.78944884663229" lon="10.326621879717553"><ele>65.8</ele><time>2026-05-03T11:45:27Z</time></trkpt><trkpt lat="44.78956865923185" lon="10.326606853876365"><ele>65.6</ele><time>2026-05-03T11:45:28Z</time></trkpt><trkpt lat="44.78967474456631" lon="10.326592911162443"><ele>65.4</ele><time>2026-05-03T11:45:29Z</time></trkpt><trkpt lat="44.78976821176749" lon="10.326581584057681"><ele>65.2</ele><time>2026-05-03T11:45:30Z</time></trkpt><trkpt lat="44.789851210145194" lon="10.326569880659836"><ele>65.0</ele><time>2026-05-03T11:45:31Z</time></trkpt><trkpt lat="44.789941853321885" lon="10.326553230929793"><ele>65.25</ele><time>2026-05-03T11:45:33Z</time></trkpt><trkpt lat="44.789960054262124" lon="10.326203800499009"><ele>65.5</ele><time>2026-05-03T11:46:17Z</time></trkpt><trkpt lat="44.789937147577575" lon="10.326101735856955"><ele>65.75</ele><time>2026-05-03T11:46:20Z</time></trkpt><trkpt lat="44.789848350405876" lon="10.32609177403969"><ele>66.0</ele><time>2026-05-03T11:46:22Z</time></trkpt><trkpt lat="44.789796588236094" lon="10.326173136289972"><ele>66.0</ele><time>2026-05-03T11:46:24Z</time></trkpt><trkpt lat="44.789800541744874" lon="10.326069613634122"><ele>66.0</ele><time>2026-05-03T11:49:08Z</time></trkpt><trkpt lat="44.78981055471581" lon="10.326446789629134"><ele>66.0</ele><time>2026-05-03T11:50:46.396Z</time></trkpt><trkpt lat="44.78978554939913" lon="10.326358481440671"><ele>66.0</ele><time>2026-05-03T11:52:02Z</time></trkpt><trkpt lat="44.789790253549256" lon="10.326262141355256"><ele>66.0</ele><time>2026-05-03T11:52:28Z</time></trkpt><trkpt lat="44.789773679452075" lon="10.326110108676922"><ele>66.0</ele><time>2026-05-03T11:52:30Z</time></trkpt><trkpt lat="44.78974966703515" lon="10.32601518083686"><ele>66.0</ele><time>2026-05-03T11:52:57Z</time></trkpt><trkpt lat="44.78990206405936" lon="10.32597983296326"><ele>66.0</ele><time>2026-05-03T11:53:06Z</time></trkpt><trkpt lat="44.78996969640221" lon="10.326018174586109"><ele>66.0</ele><time>2026-05-03T11:53:08Z</time></trkpt><trkpt lat="44.7900327336153" lon="10.326055802028417"><ele>66.0</ele><time>2026-05-03T11:53:12Z</time></trkpt><trkpt lat="44.79001908778174" lon="10.326145499595492"><ele>66.0</ele><time>2026-05-03T11:53:22Z</time></trkpt><trkpt lat="44.790006334137175" lon="10.326244244739437"><ele>66.0</ele><time>2026-05-03T11:53:34Z</time></trkpt><trkpt lat="44.7900848647325" lon="10.3262129802267"><ele>66.0</ele><time>2026-05-03T11:53:43Z</time></trkpt><trkpt lat="44.79012053759054" lon="10.326127394076376"><ele>66.0</ele><time>2026-05-03T11:57:53Z</time></trkpt><trkpt lat="44.79002605605356" lon="10.326191319700134"><ele>66.0</ele><time>2026-05-03T11:58:17Z</time></trkpt><trkpt lat="44.790131351952496" lon="10.326112853372774"><ele>65.0</ele><time>2026-05-03T11:58:29Z</time></trkpt><trkpt lat="44.78981346043406" lon="10.326562579416832"><ele>65.0</ele><time>2026-05-03T11:58:38Z</time></trkpt><trkpt lat="44.78975404652003" lon="10.32634474346686"><ele>65.0</ele><time>2026-05-03T11:59:17Z</time></trkpt><trkpt lat="44.78968411109654" lon="10.3263152602218"><ele>65.0</ele><time>2026-05-03T11:59:21Z</time></trkpt><trkpt lat="44.78976772002225" lon="10.326264204539564"><ele>65.0</ele><time>2026-05-03T11:59:24Z</time></trkpt><trkpt lat="44.78981836056458" lon="10.326334813418953"><ele>65.0</ele><time>2026-05-03T15:32:17.999Z</time></trkpt><trkpt lat="44.78981355532573" lon="10.326429563221916"><ele>65.0</ele><time>2026-05-03T15:32:28.999Z</time></trkpt><trkpt lat="44.78975992574479" lon="10.326350943185693"><ele>65.0</ele><time>2026-05-03T15:51:42.999Z</time></trkpt><trkpt lat="44.78983041276175" lon="10.326506164141271"><ele>65.0</ele><time>2026-05-03T15:51:51Z</time></trkpt><trkpt lat="44.78991829472169" lon="10.326416184633489"><ele>65.0</ele><time>2026-05-03T15:51:57Z</time></trkpt><trkpt lat="44.78994985169049" lon="10.326333278084512"><ele>65.0</ele><time>2026-05-03T15:52:37Z</time></trkpt><trkpt lat="44.78994573850791" lon="10.326186404179712"><ele>65.33333333333334</ele><time>2026-05-03T15:52:40Z</time></trkpt><trkpt lat="44.7898665676313" lon="10.325945969680628"><ele>65.66666666666667</ele><time>2026-05-03T16:21:28Z</time></trkpt><trkpt lat="44.7899397778968" lon="10.326224089186647"><ele>66.0</ele><time>2026-05-03T16:21:34Z</time></trkpt><trkpt lat="44.78989417363833" lon="10.326123568732749"><ele>66.0</ele><time>2026-05-03T16:21:56Z</time></trkpt><trkpt lat="44.78987591547275" lon="10.326030247916858"><ele>66.0</ele><time>2026-05-03T16:22:00Z</time></trkpt><trkpt lat="44.789850013372536" lon="10.325897857556425"><ele>66.0</ele><time>2026-05-03T16:22:20Z</time></trkpt><trkpt lat="44.79001825436044" lon="10.326340964662954"><ele>66.0</ele><time>2026-05-03T16:27:59Z</time></trkpt><trkpt lat="44.789939825465034" lon="10.326130539188467"><ele>66.0</ele><time>2026-05-03T16:28:13Z</time></trkpt><trkpt lat="44.79000386564925" lon="10.326315314778538"><ele>66.0</ele><time>2026-05-03T16:28:19Z</time></trkpt><trkpt lat="44.789939825465034" lon="10.326130539188467"><ele>66.0</ele><time>2026-05-03T16:29:45Z</time></trkpt><trkpt lat="44.78997459424849" lon="10.326270267540655"><ele>66.0</ele><time>2026-05-03T16:29:50Z</time></trkpt><trkpt lat="44.789942709173644" lon="10.326177883209057"><ele>66.0</ele><time>2026-05-03T16:30:16Z</time></trkpt><trkpt lat="44.79006164524794" lon="10.326342307819244"><ele>66.0</ele><time>2026-05-03T16:30:51Z</time></trkpt><trkpt lat="44.789939825465034" lon="10.326130539188467"><ele>66.0</ele><time>2026-05-03T16:31:02Z</time></trkpt><trkpt lat="44.789983456166816" lon="10.326276816969294"><ele>66.0</ele><time>2026-05-03T16:35:10.999Z</time></trkpt><trkpt lat="44.7900469904175" lon="10.326259968418633"><ele>66.0</ele><time>2026-05-03T17:29:32Z</time></trkpt><trkpt lat="44.7901233839767" lon="10.326224679317237"><ele>66.0</ele><time>2026-05-03T17:42:46.999Z</time></trkpt><trkpt lat="44.78998281209628" lon="10.326288203051849"><ele>66.0</ele><time>2026-05-03T17:54:00Z</time></trkpt><trkpt lat="44.79015624620491" lon="10.32631988638111"><ele>66.0</ele><time>2026-05-03T17:54:09Z</time></trkpt><trkpt lat="44.790061718840896" lon="10.32626691071519"><ele>66.0</ele><time>2026-05-03T17:54:15Z</time></trkpt><trkpt lat="44.79015624620491" lon="10.32631988638111"><ele>66.0</ele><time>2026-05-03T17:57:26Z</time></trkpt><trkpt lat="44.78998461408132" lon="10.326283077312759"><ele>66.0</ele><time>2026-05-03T17:58:19Z</time></trkpt><trkpt lat="44.79003652462349" lon="10.326153287614474"><ele>66.0</ele><time>2026-05-03T17:59:06Z</time></trkpt><trkpt lat="44.78992608847015" lon="10.326342251142574"><ele>66.0</ele><time>2026-05-03T18:00:35Z</time></trkpt><trkpt lat="44.78986976970675" lon="10.326399799005664"><ele>66.0</ele><time>2026-05-03T18:00:50Z</time></trkpt><trkpt lat="44.789860121427424" lon="10.326115692125912"><ele>66.0</ele><time>2026-05-03T18:00:51Z</time></trkpt><trkpt lat="44.78979388307861" lon="10.326022775648376"><ele>66.0</ele><time>2026-05-03T18:00:53Z</time></trkpt><trkpt lat="44.78977634164343" lon="10.32591476846739"><ele>66.0</ele><time>2026-05-03T18:00:55Z</time></trkpt><trkpt lat="44.78994552515917" lon="10.326275210837208"><ele>66.0</ele><time>2026-05-03T18:01:11Z</time></trkpt><trkpt lat="44.78987844030827" lon="10.326382416597623"><ele>66.0</ele><time>2026-05-03T18:01:13Z</time></trkpt><trkpt lat="44.78974965076842" lon="10.326454425184558"><ele>66.0</ele><time>2026-05-03T18:01:16Z</time></trkpt><trkpt lat="44.78994694886129" lon="10.32647877161615"><ele>66.0</ele><time>2026-05-03T18:01:20Z</time></trkpt><trkpt lat="44.789909418571746" lon="10.32638974706589"><ele>66.0</ele><time>2026-05-03T18:14:25Z</time></trkpt><trkpt lat="44.789845324776124" lon="10.326440109847935"><ele>66.0</ele><time>2026-05-03T18:14:41Z</time></trkpt><trkpt lat="44.78988735299785" lon="10.326369914708128"><ele>66.0</ele><time>2026-05-03T18:18:37.022Z</time></trkpt><trkpt lat="44.789838112155" lon="10.326442317580433"><ele>66.0</ele><time>2026-05-03T18:19:29.47Z</time></trkpt><trkpt lat="44.789927285781204" lon="10.326470167695557"><ele>66.0</ele><time>2026-05-03T18:20:50Z</time></trkpt><trkpt lat="44.78986095038951" lon="10.326580855838863"><ele>66.0</ele><time>2026-05-03T18:21:14Z</time></trkpt><trkpt lat="44.789665991590105" lon="10.326559712097149"><ele>66.0</ele><time>2026-05-03T18:21:19Z</time></trkpt><trkpt lat="44.78955006386027" lon="10.326569330069919"><ele>66.0</ele><time>2026-05-03T18:21:21Z</time></trkpt><trkpt lat="44.789404167873315" lon="10.32657281479284"><ele>66.0</ele><time>2026-05-03T18:21:23Z</time></trkpt><trkpt lat="44.789327215109026" lon="10.326589932267261"><ele>66.0</ele><time>2026-05-03T18:21:24Z</time></trkpt><trkpt lat="44.78924919274061" lon="10.326609760217364"><ele>66.0</ele><time>2026-05-03T18:21:25Z</time></trkpt><trkpt lat="44.78916793668526" lon="10.326615858558398"><ele>66.0</ele><time>2026-05-03T18:21:26Z</time></trkpt><trkpt lat="44.78907672450083" lon="10.326619259151517"><ele>66.0</ele><time>2026-05-03T18:21:27Z</time></trkpt><trkpt lat="44.78898687524503" lon="10.32663596509331"><ele>66.0</ele><time>2026-05-03T18:21:28Z</time></trkpt><trkpt lat="44.78888248232711" lon="10.326628731927341"><ele>66.0</ele><time>2026-05-03T18:21:29Z</time></trkpt><trkpt lat="44.78881333358922" lon="10.326638512914233"><ele>66.0</ele><time>2026-05-03T18:21:30Z</time></trkpt><trkpt lat="44.788736516037126" lon="10.326644520815792"><ele>66.0</ele><time>2026-05-03T18:21:32Z</time></trkpt><trkpt lat="44.788673293817595" lon="10.326678649776015"><ele>66.0</ele><time>2026-05-03T18:21:39Z</time></trkpt><trkpt lat="44.78861994305703" lon="10.326846800089022"><ele>66.0</ele><time>2026-05-03T18:21:43Z</time></trkpt><trkpt lat="44.78861679075665" lon="10.32693656446427"><ele>66.0</ele><time>2026-05-03T18:21:44Z</time></trkpt><trkpt lat="44.78861314540414" lon="10.327138741695181"><ele>66.0</ele><time>2026-05-03T18:21:46Z</time></trkpt><trkpt lat="44.788612388218745" lon="10.327262987179159"><ele>66.0</ele><time>2026-05-03T18:21:47Z</time></trkpt><trkpt lat="44.78862564798324" lon="10.32736426710417"><ele>66.16666666666667</ele><time>2026-05-03T18:21:48Z</time></trkpt><trkpt lat="44.78863049129237" lon="10.327483055946912"><ele>66.33333333333333</ele><time>2026-05-03T18:21:49Z</time></trkpt><trkpt lat="44.788623370037776" lon="10.327602377509285"><ele>66.5</ele><time>2026-05-03T18:21:50Z</time></trkpt><trkpt lat="44.78861883339644" lon="10.327715122733904"><ele>66.66666666666666</ele><time>2026-05-03T18:21:51Z</time></trkpt><trkpt lat="44.78861490876876" lon="10.327812345652784"><ele>66.83333333333333</ele><time>2026-05-03T18:21:52Z</time></trkpt><trkpt lat="44.78861071166812" lon="10.327936597468312"><ele>67.0</ele><time>2026-05-03T18:21:53Z</time></trkpt><trkpt lat="44.78863967041475" lon="10.328082310546398"><ele>67.4</ele><time>2026-05-03T18:21:55Z</time></trkpt><trkpt lat="44.78863616721596" lon="10.328220726733699"><ele>67.80000000000001</ele><time>2026-05-03T18:21:57Z</time></trkpt><trkpt lat="44.78860843256777" lon="10.328355493093285"><ele>68.2</ele><time>2026-05-03T18:21:59Z</time></trkpt><trkpt lat="44.788507218904236" lon="10.328439019260525"><ele>68.60000000000001</ele><time>2026-05-03T18:22:01Z</time></trkpt><trkpt lat="44.788440174718495" lon="10.328511300252224"><ele>69.0</ele><time>2026-05-03T18:22:03Z</time></trkpt><trkpt lat="44.78837627265498" lon="10.328579461955192"><ele>69.0</ele><time>2026-05-03T18:22:05Z</time></trkpt><trkpt lat="44.788321724649606" lon="10.328625953028666"><ele>69.0</ele><time>2026-05-03T18:22:07Z</time></trkpt><trkpt lat="44.78825956252957" lon="10.328669899908112"><ele>69.0</ele><time>2026-05-03T18:22:11Z</time></trkpt><trkpt lat="44.788316046978856" lon="10.328626819059119"><ele>69.0</ele><time>2026-05-03T18:22:57Z</time></trkpt><trkpt lat="44.78836767642871" lon="10.32857534945217"><ele>69.0</ele><time>2026-05-03T18:23:04Z</time></trkpt><trkpt lat="44.78832748046364" lon="10.328448908894172"><ele>69.0</ele><time>2026-05-03T18:23:10Z</time></trkpt><trkpt lat="44.78828197744561" lon="10.328380866682622"><ele>69.0</ele><time>2026-05-03T18:23:18Z</time></trkpt><trkpt lat="44.788227064112924" lon="10.328332077144733"><ele>69.0</ele><time>2026-05-03T18:23:23Z</time></trkpt><trkpt lat="44.78830433782337" lon="10.32825168199655"><ele>69.0</ele><time>2026-05-03T18:23:38Z</time></trkpt><trkpt lat="44.78832018335342" lon="10.328365100675093"><ele>69.0</ele><time>2026-05-03T18:27:27Z</time></trkpt><trkpt lat="44.78831998756846" lon="10.328461010021416"><ele>69.0</ele><time>2026-05-03T18:28:58Z</time></trkpt><trkpt lat="44.78836415012878" lon="10.328532845900456"><ele>69.0</ele><time>2026-05-03T18:29:14Z</time></trkpt><trkpt lat="44.78831846385709" lon="10.328611995197663"><ele>69.0</ele><time>2026-05-03T18:29:19Z</time></trkpt><trkpt lat="44.78827611404171" lon="10.328682716618985"><ele>69.0</ele><time>2026-05-03T18:30:27Z</time></trkpt><trkpt lat="44.78834747496965" lon="10.328691318086243"><ele>69.0</ele><time>2026-05-03T18:30:52Z</time></trkpt><trkpt lat="44.78839602457601" lon="10.32860126329249"><ele>69.0</ele><time>2026-05-03T18:30:54Z</time></trkpt><trkpt lat="44.78846251705768" lon="10.328538341498657"><ele>69.0</ele><time>2026-05-03T18:30:57Z</time></trkpt><trkpt lat="44.78851698843276" lon="10.32849168252361"><ele>69.0</ele><time>2026-05-03T18:30:59Z</time></trkpt><trkpt lat="44.78858189154618" lon="10.328442025830467"><ele>69.0</ele><time>2026-05-03T18:31:02Z</time></trkpt><trkpt lat="44.788666440532026" lon="10.328389986693747"><ele>69.16666666666667</ele><time>2026-05-03T18:31:05Z</time></trkpt><trkpt lat="44.78871458225001" lon="10.328324299595494"><ele>69.33333333333333</ele><time>2026-05-03T18:31:07Z</time></trkpt><trkpt lat="44.78874773245116" lon="10.328237780322958"><ele>69.5</ele><time>2026-05-03T18:31:09Z</time></trkpt><trkpt lat="44.788739555658644" lon="10.328101094848972"><ele>69.66666666666666</ele><time>2026-05-03T18:31:11Z</time></trkpt><trkpt lat="44.78870088413301" lon="10.327942859780533"><ele>69.83333333333333</ele><time>2026-05-03T18:31:13Z</time></trkpt><trkpt lat="44.78869801535577" lon="10.327828854006079"><ele>70.0</ele><time>2026-05-03T18:31:14Z</time></trkpt><trkpt lat="44.78868875658542" lon="10.327715970366755"><ele>69.4</ele><time>2026-05-03T18:31:15Z</time></trkpt><trkpt lat="44.7886821758695" lon="10.32760868387419"><ele>68.8</ele><time>2026-05-03T18:31:16Z</time></trkpt><trkpt lat="44.78868442712992" lon="10.327472093899832"><ele>68.2</ele><time>2026-05-03T18:31:17Z</time></trkpt><trkpt lat="44.78867113915483" lon="10.327254765866847"><ele>67.6</ele><time>2026-05-03T18:31:18Z</time></trkpt><trkpt lat="44.78867119756047" lon="10.32710352205418"><ele>67.0</ele><time>2026-05-03T18:31:19Z</time></trkpt><trkpt lat="44.78866154205168" lon="10.32698940299337"><ele>66.8</ele><time>2026-05-03T18:31:20Z</time></trkpt><trkpt lat="44.7886498133477" lon="10.326882140913884"><ele>66.6</ele><time>2026-05-03T18:31:21Z</time></trkpt><trkpt lat="44.788654883498864" lon="10.32672823619654"><ele>66.39999999999999</ele><time>2026-05-03T18:31:23Z</time></trkpt><trkpt lat="44.788644234810235" lon="10.326596239839255"><ele>66.2</ele><time>2026-05-03T18:31:26Z</time></trkpt><trkpt lat="44.788794010323386" lon="10.326694400942973"><ele>66.0</ele><time>2026-05-03T18:31:28Z</time></trkpt><trkpt lat="44.78892265083711" lon="10.326679065175158"><ele>66.0</ele><time>2026-05-03T18:31:30Z</time></trkpt><trkpt lat="44.788988002304166" lon="10.326671274365411"><ele>66.0</ele><time>2026-05-03T18:31:31Z</time></trkpt><trkpt lat="44.789170118466544" lon="10.326667516287397"><ele>66.0</ele><time>2026-05-03T18:31:33Z</time></trkpt><trkpt lat="44.78926057424422" lon="10.326643699803075"><ele>66.0</ele><time>2026-05-03T18:31:34Z</time></trkpt><trkpt lat="44.78934828057385" lon="10.326636507552946"><ele>66.0</ele><time>2026-05-03T18:31:35Z</time></trkpt><trkpt lat="44.78941842530849" lon="10.326620659467048"><ele>65.83333333333333</ele><time>2026-05-03T18:31:36Z</time></trkpt><trkpt lat="44.78949681075428" lon="10.326607236480546"><ele>65.66666666666667</ele><time>2026-05-03T18:31:37Z</time></trkpt><trkpt lat="44.789562197349284" lon="10.326596007871437"><ele>65.5</ele><time>2026-05-03T18:31:38Z</time></trkpt><trkpt lat="44.78966220171209" lon="10.326580471961426"><ele>65.33333333333334</ele><time>2026-05-03T18:31:40Z</time></trkpt><trkpt lat="44.78974057438381" lon="10.326581655691932"><ele>65.16666666666667</ele><time>2026-05-03T18:31:42Z</time></trkpt><trkpt lat="44.78982411652002" lon="10.3265467716581"><ele>65.0</ele><time>2026-05-03T18:31:45Z</time></trkpt><trkpt lat="44.789899054294224" lon="10.326556976205357"><ele>65.0</ele><time>2026-05-03T18:31:49Z</time></trkpt><trkpt lat="44.78982256699309" lon="10.326430708636584"><ele>65.0</ele><time>2026-05-03T18:42:35Z</time></trkpt><trkpt lat="44.789895302143194" lon="10.326395678456066"><ele>65.0</ele><time>2026-05-03T19:18:59.999Z</time></trkpt><trkpt lat="44.78983266921095" lon="10.326410263062376"><ele>65.0</ele><time>2026-05-03T19:19:37Z</time></trkpt><trkpt lat="44.789914091485144" lon="10.326419463263289"><ele>65.0</ele><time>2026-05-04T05:48:26Z</time></trkpt><trkpt lat="44.78994835775465" lon="10.32633548337972"><ele>65.0</ele><time>2026-05-04T05:49:12.999Z</time></trkpt><trkpt lat="44.789900370566556" lon="10.32640982203046"><ele>65.16666666666667</ele><time>2026-05-04T05:49:20.294Z</time></trkpt><trkpt lat="44.789862110731875" lon="10.326327178636872"><ele>65.33333333333334</ele><time>2026-05-04T05:50:38Z</time></trkpt><trkpt lat="44.789949461759285" lon="10.326309566165527"><ele>65.5</ele><time>2026-05-04T05:50:42Z</time></trkpt><trkpt lat="44.790029506465956" lon="10.326224411699608"><ele>65.66666666666667</ele><time>2026-05-04T05:50:48Z</time></trkpt><trkpt lat="44.790010488183555" lon="10.326115916597358"><ele>65.83333333333333</ele><time>2026-05-04T05:50:58Z</time></trkpt><trkpt lat="44.789964156071996" lon="10.326049858177502"><ele>66.0</ele><time>2026-05-04T05:51:05Z</time></trkpt><trkpt lat="44.789893390462" lon="10.326063485586934"><ele>66.0</ele><time>2026-05-04T05:51:10.999Z</time></trkpt><trkpt lat="44.789818956083685" lon="10.326121668995556"><ele>66.0</ele><time>2026-05-04T05:52:48Z</time></trkpt><trkpt lat="44.789931793256" lon="10.326184539720305"><ele>66.0</ele><time>2026-05-04T05:53:25.999Z</time></trkpt><trkpt lat="44.7899840735863" lon="10.32612446948284"><ele>66.0</ele><time>2026-05-04T05:53:32.999Z</time></trkpt><trkpt lat="44.79003985220238" lon="10.326169762495267"><ele>66.0</ele><time>2026-05-04T05:53:35.999Z</time></trkpt><trkpt lat="44.790051344767825" lon="10.326273311174207"><ele>66.0</ele><time>2026-05-04T05:53:39Z</time></trkpt><trkpt lat="44.790017523155186" lon="10.326354374132872"><ele>66.0</ele><time>2026-05-04T05:53:44Z</time></trkpt><trkpt lat="44.79001205158855" lon="10.326447221649168"><ele>66.0</ele><time>2026-05-04T05:54:16Z</time></trkpt><trkpt lat="44.790018755423695" lon="10.326544098726373"><ele>66.0</ele><time>2026-05-04T05:54:30Z</time></trkpt><trkpt lat="44.790119194637114" lon="10.326554967160154"><ele>66.0</ele><time>2026-05-04T05:54:56Z</time></trkpt><trkpt lat="44.79019613727248" lon="10.326544593340323"><ele>66.0</ele><time>2026-05-04T05:54:59Z</time></trkpt><trkpt lat="44.79027158351738" lon="10.326546857538167"><ele>66.0</ele><time>2026-05-04T05:55:01Z</time></trkpt><trkpt lat="44.79037241960875" lon="10.326522972492217"><ele>66.0</ele><time>2026-05-04T05:55:03Z</time></trkpt><trkpt lat="44.79046587341783" lon="10.32650899132105"><ele>66.0</ele><time>2026-05-04T05:55:05Z</time></trkpt><trkpt lat="44.79055708995471" lon="10.32650180498941"><ele>66.0</ele><time>2026-05-04T05:55:07Z</time></trkpt><trkpt lat="44.790661444767665" lon="10.32648686020791"><ele>66.0</ele><time>2026-05-04T05:55:08.999Z</time></trkpt><trkpt lat="44.790724956434204" lon="10.3264779630604"><ele>66.0</ele><time>2026-05-04T05:55:09.999Z</time></trkpt><trkpt lat="44.79078847491445" lon="10.326470130450128"><ele>66.0</ele><time>2026-05-04T05:55:10.999Z</time></trkpt><trkpt lat="44.79085296874733" lon="10.326460377505205"><ele>66.0</ele><time>2026-05-04T05:55:11.999Z</time></trkpt><trkpt lat="44.79092289384215" lon="10.326451571147281"><ele>66.0</ele><time>2026-05-04T05:55:12.999Z</time></trkpt><trkpt lat="44.79099797833056" lon="10.326440988763517"><ele>66.0</ele><time>2026-05-04T05:55:13.999Z</time></trkpt><trkpt lat="44.79106360914978" lon="10.326433909868157"><ele>66.0</ele><time>2026-05-04T05:55:14.999Z</time></trkpt><trkpt lat="44.79116147140221" lon="10.326420953304035"><ele>66.0</ele><time>2026-05-04T05:55:16.999Z</time></trkpt><trkpt lat="44.791236171291004" lon="10.326416429841858"><ele>66.0</ele><time>2026-05-04T05:55:19.999Z</time></trkpt><trkpt lat="44.79126133770889" lon="10.326577613504103"><ele>66.2</ele><time>2026-05-04T05:55:24.999Z</time></trkpt><trkpt lat="44.791276621105794" lon="10.326699353578398"><ele>66.39999999999999</ele><time>2026-05-04T05:55:26.999Z</time></trkpt><trkpt lat="44.79127961591425" lon="10.32683825536504"><ele>66.6</ele><time>2026-05-04T05:55:28.999Z</time></trkpt><trkpt lat="44.791289419329416" lon="10.326990636635305"><ele>66.8</ele><time>2026-05-04T05:55:30.999Z</time></trkpt><trkpt lat="44.791295834785316" lon="10.327142325640365"><ele>67.0</ele><time>2026-05-04T05:55:32.999Z</time></trkpt><trkpt lat="44.791304845774356" lon="10.327264722759137"><ele>67.0</ele><time>2026-05-04T05:55:34.999Z</time></trkpt><trkpt lat="44.79130390969391" lon="10.327358480203635"><ele>67.0</ele><time>2026-05-04T05:55:36.999Z</time></trkpt><trkpt lat="44.7913200570164" lon="10.327450384835153"><ele>67.0</ele><time>2026-05-04T05:55:39.999Z</time></trkpt><trkpt lat="44.791324376775115" lon="10.32754540236427"><ele>67.0</ele><time>2026-05-04T05:56:36Z</time></trkpt><trkpt lat="44.791322465398764" lon="10.327647546718147"><ele>67.0</ele><time>2026-05-04T05:56:46Z</time></trkpt><trkpt lat="44.79133735940502" lon="10.327753472400444"><ele>67.0</ele><time>2026-05-04T05:56:54Z</time></trkpt><trkpt lat="44.79134731138286" lon="10.327859972391552"><ele>67.0</ele><time>2026-05-04T05:57:00Z</time></trkpt><trkpt lat="44.79131612132729" lon="10.327937355266641"><ele>67.0</ele><time>2026-05-04T05:57:06Z</time></trkpt><trkpt lat="44.79124383216837" lon="10.32793573729874"><ele>67.0</ele><time>2026-05-04T05:57:11Z</time></trkpt><trkpt lat="44.7912248147437" lon="10.32803802177051"><ele>67.0</ele><time>2026-05-04T05:57:23Z</time></trkpt><trkpt lat="44.79121949556681" lon="10.328135647766846"><ele>67.0</ele><time>2026-05-04T05:57:28Z</time></trkpt><trkpt lat="44.791282430617336" lon="10.32817352341153"><ele>67.0</ele><time>2026-05-04T05:57:33.999Z</time></trkpt><trkpt lat="44.79133961588468" lon="10.328133318796288"><ele>67.0</ele><time>2026-05-04T05:57:44.999Z</time></trkpt><trkpt lat="44.791366370332334" lon="10.328052445483976"><ele>67.0</ele><time>2026-05-04T05:59:00Z</time></trkpt><trkpt lat="44.79138388496017" lon="10.32820664213067"><ele>67.0</ele><time>2026-05-04T05:59:08Z</time></trkpt><trkpt lat="44.79138136976815" lon="10.328325644571299"><ele>67.0</ele><time>2026-05-04T05:59:11Z</time></trkpt><trkpt lat="44.7913817691136" lon="10.328425493496411"><ele>67.0</ele><time>2026-05-04T05:59:12Z</time></trkpt><trkpt lat="44.79138327025457" lon="10.328585573057637"><ele>67.0</ele><time>2026-05-04T05:59:16Z</time></trkpt><trkpt lat="44.79133647854689" lon="10.328342106474329"><ele>67.0</ele><time>2026-05-04T05:59:17Z</time></trkpt><trkpt lat="44.79131899246822" lon="10.328227417931616"><ele>67.0</ele><time>2026-05-04T05:59:18Z</time></trkpt><trkpt lat="44.79130551532608" lon="10.32813427685422"><ele>67.0</ele><time>2026-05-04T05:59:21Z</time></trkpt><trkpt lat="44.79131322290251" lon="10.328041167626518"><ele>67.0</ele><time>2026-05-04T05:59:29Z</time></trkpt><trkpt lat="44.79134804349366" lon="10.328139720458275"><ele>67.0</ele><time>2026-05-04T06:07:53Z</time></trkpt><trkpt lat="44.791363109107955" lon="10.328049941191344"><ele>67.0</ele><time>2026-05-04T06:13:12Z</time></trkpt><trkpt lat="44.791384550159385" lon="10.327961048454219"><ele>67.0</ele><time>2026-05-04T06:13:27Z</time></trkpt><trkpt lat="44.79137026959714" lon="10.327866693647284"><ele>67.0</ele><time>2026-05-04T06:13:34Z</time></trkpt><trkpt lat="44.791353989797" lon="10.327778595549093"><ele>67.0</ele><time>2026-05-04T06:13:41Z</time></trkpt><trkpt lat="44.791335774506436" lon="10.327691407597685"><ele>67.0</ele><time>2026-05-04T06:13:47Z</time></trkpt><trkpt lat="44.79133619074793" lon="10.327573118651891"><ele>67.0</ele><time>2026-05-04T06:13:54Z</time></trkpt><trkpt lat="44.791357654113696" lon="10.327471656818563"><ele>67.0</ele><time>2026-05-04T06:14:00Z</time></trkpt><trkpt lat="44.791369270340574" lon="10.327375248009682"><ele>67.0</ele><time>2026-05-04T06:14:06Z</time></trkpt><trkpt lat="44.79130801939032" lon="10.327446447699584"><ele>67.0</ele><time>2026-05-04T06:15:18Z</time></trkpt><trkpt lat="44.79130674266282" lon="10.327589206646705"><ele>67.0</ele><time>2026-05-04T06:15:21Z</time></trkpt><trkpt lat="44.79130693950722" lon="10.327694078247532"><ele>67.0</ele><time>2026-05-04T06:15:23Z</time></trkpt><trkpt lat="44.79131037618677" lon="10.327789328792944"><ele>67.0</ele><time>2026-05-04T06:15:26Z</time></trkpt><trkpt lat="44.7913172268456" lon="10.327882374596163"><ele>67.0</ele><time>2026-05-04T06:15:43Z</time></trkpt><trkpt lat="44.7913180622574" lon="10.327984717249318"><ele>67.0</ele><time>2026-05-04T06:15:51Z</time></trkpt><trkpt lat="44.791215401517945" lon="10.328004849110652"><ele>67.0</ele><time>2026-05-04T06:15:54Z</time></trkpt><trkpt lat="44.79115002099103" lon="10.328010984761512"><ele>67.0</ele><time>2026-05-04T06:15:55Z</time></trkpt><trkpt lat="44.79108704143172" lon="10.328012534230934"><ele>67.0</ele><time>2026-05-04T06:15:56Z</time></trkpt><trkpt lat="44.79101716335519" lon="10.328014692912161"><ele>67.0</ele><time>2026-05-04T06:15:57Z</time></trkpt><trkpt lat="44.79093949941121" lon="10.328026149168746"><ele>67.0</ele><time>2026-05-04T06:15:58Z</time></trkpt><trkpt lat="44.7908515303138" lon="10.328033783325305"><ele>67.0</ele><time>2026-05-04T06:15:59Z</time></trkpt><trkpt lat="44.79075760129793" lon="10.328039788171479"><ele>67.0</ele><time>2026-05-04T06:16:00Z</time></trkpt><trkpt lat="44.79065763279797" lon="10.32805413911998"><ele>67.2</ele><time>2026-05-04T06:16:01Z</time></trkpt><trkpt lat="44.79055624646792" lon="10.328064839135207"><ele>67.4</ele><time>2026-05-04T06:16:02Z</time></trkpt><trkpt lat="44.7904473907462" lon="10.328070086759999"><ele>67.6</ele><time>2026-05-04T06:16:03Z</time></trkpt><trkpt lat="44.79033557217759" lon="10.328072963441711"><ele>67.8</ele><time>2026-05-04T06:16:04Z</time></trkpt><trkpt lat="44.79020877508597" lon="10.328071108528576"><ele>68.0</ele><time>2026-05-04T06:16:05Z</time></trkpt><trkpt lat="44.790089260812564" lon="10.328079694003913"><ele>68.0</ele><time>2026-05-04T06:16:06Z</time></trkpt><trkpt lat="44.78996951993069" lon="10.328082710284429"><ele>68.0</ele><time>2026-05-04T06:16:07Z</time></trkpt><trkpt lat="44.78985257180535" lon="10.328092759698391"><ele>68.0</ele><time>2026-05-04T06:16:08Z</time></trkpt><trkpt lat="44.789736925526846" lon="10.32810192154041"><ele>68.0</ele><time>2026-05-04T06:16:09Z</time></trkpt><trkpt lat="44.78963150029471" lon="10.32811021146916"><ele>68.0</ele><time>2026-05-04T06:16:10Z</time></trkpt><trkpt lat="44.78954577114001" lon="10.32812222800764"><ele>68.0</ele><time>2026-05-04T06:16:11Z</time></trkpt><trkpt lat="44.78947933594917" lon="10.328130717311106"><ele>68.0</ele><time>2026-05-04T06:16:12Z</time></trkpt><trkpt lat="44.78939172514017" lon="10.328136658935623"><ele>68.0</ele><time>2026-05-04T06:16:14Z</time></trkpt><trkpt lat="44.78931529016829" lon="10.328137263700869"><ele>68.0</ele><time>2026-05-04T06:16:20Z</time></trkpt><trkpt lat="44.78924591094197" lon="10.32814776558393"><ele>68.0</ele><time>2026-05-04T06:16:22Z</time></trkpt><trkpt lat="44.789182927978786" lon="10.328151046004747"><ele>68.33333333333334</ele><time>2026-05-04T06:16:24Z</time></trkpt><trkpt lat="44.78909348655617" lon="10.328150078032795"><ele>68.66666666666667</ele><time>2026-05-04T06:16:27Z</time></trkpt><trkpt lat="44.789007803658755" lon="10.32815492308718"><ele>69.0</ele><time>2026-05-04T06:16:30Z</time></trkpt><trkpt lat="44.78894159541672" lon="10.328157904839287"><ele>69.33333333333333</ele><time>2026-05-04T06:16:32Z</time></trkpt><trkpt lat="44.78887560994426" lon="10.328152575248506"><ele>69.66666666666666</ele><time>2026-05-04T06:16:39Z</time></trkpt><trkpt lat="44.78880223997295" lon="10.328157912027304"><ele>70.0</ele><time>2026-05-04T06:16:43Z</time></trkpt><trkpt lat="44.78872599879459" lon="10.328158101374191"><ele>70.0</ele><time>2026-05-04T06:16:49.999Z</time></trkpt><trkpt lat="44.78866222551333" lon="10.328126253505662"><ele>70.0</ele><time>2026-05-04T06:16:51Z</time></trkpt><trkpt lat="44.78866490889609" lon="10.32800684138161"><ele>70.0</ele><time>2026-05-04T06:16:52Z</time></trkpt><trkpt lat="44.78867379356508" lon="10.327832433145932"><ele>70.0</ele><time>2026-05-04T06:16:54Z</time></trkpt><trkpt lat="44.78866636038033" lon="10.327722931956986"><ele>70.0</ele><time>2026-05-04T06:16:55Z</time></trkpt><trkpt lat="44.78865851169539" lon="10.327604011672591"><ele>70.0</ele><time>2026-05-04T06:16:56Z</time></trkpt><trkpt lat="44.788649875271936" lon="10.327468205595496"><ele>69.4</ele><time>2026-05-04T06:16:57Z</time></trkpt><trkpt lat="44.78865440347515" lon="10.32732527846952"><ele>68.8</ele><time>2026-05-04T06:16:58Z</time></trkpt><trkpt lat="44.78863400092065" lon="10.327180664586589"><ele>68.2</ele><time>2026-05-04T06:16:59Z</time></trkpt><trkpt lat="44.78863005619928" lon="10.327028892286327"><ele>67.6</ele><time>2026-05-04T06:17:00Z</time></trkpt><trkpt lat="44.78862248290834" lon="10.32688636184275"><ele>67.0</ele><time>2026-05-04T06:17:01Z</time></trkpt><trkpt lat="44.78863319264617" lon="10.326746326059183"><ele>66.83333333333333</ele><time>2026-05-04T06:17:02Z</time></trkpt><trkpt lat="44.78861432417117" lon="10.326614454583007"><ele>66.66666666666666</ele><time>2026-05-04T06:17:03Z</time></trkpt><trkpt lat="44.7886126233794" lon="10.326483615957654"><ele>66.5</ele><time>2026-05-04T06:17:04Z</time></trkpt><trkpt lat="44.7886050816039" lon="10.326358984905921"><ele>66.33333333333333</ele><time>2026-05-04T06:17:05Z</time></trkpt><trkpt lat="44.78859907778958" lon="10.3262428234812"><ele>66.16666666666667</ele><time>2026-05-04T06:17:06Z</time></trkpt><trkpt lat="44.78859462319519" lon="10.326146075340965"><ele>66.0</ele><time>2026-05-04T06:17:07Z</time></trkpt><trkpt lat="44.78859527006989" lon="10.326055835533879"><ele>66.0</ele><time>2026-05-04T06:17:08Z</time></trkpt><trkpt lat="44.78858513764413" lon="10.325902331608955"><ele>66.0</ele><time>2026-05-04T06:17:10Z</time></trkpt><trkpt lat="44.788577439310984" lon="10.325790946704627"><ele>66.0</ele><time>2026-05-04T06:17:12Z</time></trkpt><trkpt lat="44.788569715088805" lon="10.325673395493006"><ele>66.0</ele><time>2026-05-04T06:17:14Z</time></trkpt><trkpt lat="44.788470459523424" lon="10.325599448965615"><ele>66.0</ele><time>2026-05-04T06:17:16Z</time></trkpt><trkpt lat="44.78840362397856" lon="10.32564114139956"><ele>65.66666666666667</ele><time>2026-05-04T06:17:17Z</time></trkpt><trkpt lat="44.7883372384223" lon="10.325666915554063"><ele>65.33333333333333</ele><time>2026-05-04T06:17:18Z</time></trkpt><trkpt lat="44.78826252141173" lon="10.32569103131703"><ele>65.0</ele><time>2026-05-04T06:17:19Z</time></trkpt><trkpt lat="44.78817581859267" lon="10.325719798833736"><ele>64.66666666666666</ele><time>2026-05-04T06:17:20Z</time></trkpt><trkpt lat="44.78808288524912" lon="10.325751311147295"><ele>64.33333333333333</ele><time>2026-05-04T06:17:21Z</time></trkpt><trkpt lat="44.787986368800794" lon="10.32578157002584"><ele>64.0</ele><time>2026-05-04T06:17:22Z</time></trkpt><trkpt lat="44.7878848829707" lon="10.325815690386271"><ele>64.0</ele><time>2026-05-04T06:17:23Z</time></trkpt><trkpt lat="44.78778105472383" lon="10.32585019524638"><ele>64.0</ele><time>2026-05-04T06:17:24Z</time></trkpt><trkpt lat="44.78767619494173" lon="10.325881295623176"><ele>64.0</ele><time>2026-05-04T06:17:25Z</time></trkpt><trkpt lat="44.78756963802646" lon="10.325914135581412"><ele>64.0</ele><time>2026-05-04T06:17:26Z</time></trkpt><trkpt lat="44.7874598072641" lon="10.325949474246508"><ele>64.0</ele><time>2026-05-04T06:17:27Z</time></trkpt><trkpt lat="44.787346489142635" lon="10.325984660622913"><ele>64.25</ele><time>2026-05-04T06:17:28Z</time></trkpt><trkpt lat="44.78723516973679" lon="10.326018232904854"><ele>64.5</ele><time>2026-05-04T06:17:29Z</time></trkpt><trkpt lat="44.78712508266484" lon="10.326053073836869"><ele>64.75</ele><time>2026-05-04T06:17:30Z</time></trkpt><trkpt lat="44.78700865085108" lon="10.326069746994426"><ele>65.0</ele><time>2026-05-04T06:17:31Z</time></trkpt><trkpt lat="44.78690391964021" lon="10.326104847915943"><ele>65.4</ele><time>2026-05-04T06:17:32Z</time></trkpt><trkpt lat="44.786800947304464" lon="10.326135923924925"><ele>65.8</ele><time>2026-05-04T06:17:33Z</time></trkpt><trkpt lat="44.78670256396106" lon="10.326166088819825"><ele>66.2</ele><time>2026-05-04T06:17:34Z</time></trkpt><trkpt lat="44.78660888024103" lon="10.326197254447122"><ele>66.6</ele><time>2026-05-04T06:17:35Z</time></trkpt><trkpt lat="44.786536803312195" lon="10.32621798318993"><ele>67.0</ele><time>2026-05-04T06:17:36Z</time></trkpt><trkpt lat="44.786425984348824" lon="10.326260447099347"><ele>67.0</ele><time>2026-05-04T06:17:38Z</time></trkpt><trkpt lat="44.786333637658565" lon="10.32628861234934"><ele>67.0</ele><time>2026-05-04T06:17:40Z</time></trkpt><trkpt lat="44.78625384651812" lon="10.326300466966575"><ele>67.0</ele><time>2026-05-04T06:17:42Z</time></trkpt><trkpt lat="44.786163273334495" lon="10.326332320223443"><ele>67.0</ele><time>2026-05-04T06:17:44Z</time></trkpt><trkpt lat="44.78606370202954" lon="10.326363474972997"><ele>67.0</ele><time>2026-05-04T06:17:46Z</time></trkpt><trkpt lat="44.78595136266819" lon="10.326394246164785"><ele>67.0</ele><time>2026-05-04T06:17:48Z</time></trkpt><trkpt lat="44.785888691199595" lon="10.326416153959892"><ele>67.0</ele><time>2026-05-04T06:17:49Z</time></trkpt><trkpt lat="44.78581929118203" lon="10.326438962487552"><ele>67.0</ele><time>2026-05-04T06:17:50Z</time></trkpt><trkpt lat="44.78574737253997" lon="10.326461986598375"><ele>67.0</ele><time>2026-05-04T06:17:51Z</time></trkpt><trkpt lat="44.78567275233877" lon="10.326482964531719"><ele>67.0</ele><time>2026-05-04T06:17:52Z</time></trkpt><trkpt lat="44.78559779956752" lon="10.326506322364747"><ele>67.0</ele><time>2026-05-04T06:17:53Z</time></trkpt><trkpt lat="44.78552727613825" lon="10.326527399045627"><ele>67.0</ele><time>2026-05-04T06:17:54Z</time></trkpt><trkpt lat="44.78546532985402" lon="10.326549604612685"><ele>67.0</ele><time>2026-05-04T06:17:55Z</time></trkpt><trkpt lat="44.78537466870995" lon="10.326565350313082"><ele>67.0</ele><time>2026-05-04T06:17:57Z</time></trkpt><trkpt lat="44.78528828030531" lon="10.326606589201889"><ele>67.0</ele><time>2026-05-04T06:18:53Z</time></trkpt><trkpt lat="44.78518921579051" lon="10.32662989088485"><ele>67.0</ele><time>2026-05-04T06:18:55Z</time></trkpt><trkpt lat="44.78512474440323" lon="10.326650032504052"><ele>67.0</ele><time>2026-05-04T06:18:56Z</time></trkpt><trkpt lat="44.78505202150427" lon="10.326673534290348"><ele>67.0</ele><time>2026-05-04T06:18:57Z</time></trkpt><trkpt lat="44.78496758433663" lon="10.3267071156453"><ele>66.5</ele><time>2026-05-04T06:18:58Z</time></trkpt><trkpt lat="44.78487345969336" lon="10.32675577161332"><ele>66.0</ele><time>2026-05-04T06:18:59Z</time></trkpt><trkpt lat="44.78477082307032" lon="10.326813157424132"><ele>65.5</ele><time>2026-05-04T06:19:00Z</time></trkpt><trkpt lat="44.78466191590342" lon="10.326879732064835"><ele>65.0</ele><time>2026-05-04T06:19:01Z</time></trkpt><trkpt lat="44.78454516403898" lon="10.32695344543579"><ele>65.0</ele><time>2026-05-04T06:19:02Z</time></trkpt><trkpt lat="44.78441983026951" lon="10.327036604917144"><ele>65.0</ele><time>2026-05-04T06:19:03Z</time></trkpt><trkpt lat="44.784287024833326" lon="10.327123334982279"><ele>65.0</ele><time>2026-05-04T06:19:04Z</time></trkpt><trkpt lat="44.7841460668387" lon="10.327212496736122"><ele>65.0</ele><time>2026-05-04T06:19:05Z</time></trkpt><trkpt lat="44.78400032393311" lon="10.32730602869605"><ele>65.66666666666667</ele><time>2026-05-04T06:19:06Z</time></trkpt><trkpt lat="44.78384929243088" lon="10.327400594579744"><ele>66.33333333333333</ele><time>2026-05-04T06:19:07Z</time></trkpt><trkpt lat="44.7836901778484" lon="10.327481477403145"><ele>67.0</ele><time>2026-05-04T06:19:08Z</time></trkpt><trkpt lat="44.783519929806396" lon="10.327546595654601"><ele>67.33333333333333</ele><time>2026-05-04T06:19:09Z</time></trkpt><trkpt lat="44.78334242778889" lon="10.327593859099188"><ele>67.66666666666667</ele><time>2026-05-04T06:19:10Z</time></trkpt><trkpt lat="44.78315897610413" lon="10.327619414524216"><ele>68.0</ele><time>2026-05-04T06:19:11Z</time></trkpt><trkpt lat="44.782973869290224" lon="10.32762361265669"><ele>68.0</ele><time>2026-05-04T06:19:12Z</time></trkpt><trkpt lat="44.782783662256385" lon="10.327610706115344"><ele>68.0</ele><time>2026-05-04T06:19:13Z</time></trkpt><trkpt lat="44.78259343200426" lon="10.32757690628807"><ele>68.0</ele><time>2026-05-04T06:19:14Z</time></trkpt><trkpt lat="44.78240088817023" lon="10.327541340866912"><ele>67.0</ele><time>2026-05-04T06:19:15Z</time></trkpt><trkpt lat="44.782205274782896" lon="10.327506781721192"><ele>66.0</ele><time>2026-05-04T06:19:16Z</time></trkpt><trkpt lat="44.782006097455124" lon="10.32747289288281"><ele>65.0</ele><time>2026-05-04T06:19:17Z</time></trkpt><trkpt lat="44.78180816500804" lon="10.327437264951683"><ele>64.33333333333334</ele><time>2026-05-04T06:19:18Z</time></trkpt><trkpt lat="44.78161005321378" lon="10.327404204396931"><ele>63.66666666666667</ele><time>2026-05-04T06:19:19Z</time></trkpt><trkpt lat="44.78141139033608" lon="10.327369215105348"><ele>63.0</ele><time>2026-05-04T06:19:20Z</time></trkpt><trkpt lat="44.7812101887001" lon="10.32733454260102"><ele>64.33333333333333</ele><time>2026-05-04T06:19:21Z</time></trkpt><trkpt lat="44.781007822331105" lon="10.327300668686608"><ele>65.66666666666666</ele><time>2026-05-04T06:19:22Z</time></trkpt><trkpt lat="44.7808011262829" lon="10.327263954066881"><ele>67.0</ele><time>2026-05-04T06:19:23Z</time></trkpt><trkpt lat="44.780590529520076" lon="10.32722712120077"><ele>67.0</ele><time>2026-05-04T06:19:24Z</time></trkpt><trkpt lat="44.78037592662455" lon="10.327193643859717"><ele>67.0</ele><time>2026-05-04T06:19:25Z</time></trkpt><trkpt lat="44.78016097671318" lon="10.327154698301714"><ele>67.0</ele><time>2026-05-04T06:19:26Z</time></trkpt><trkpt lat="44.779948177921156" lon="10.327116517006186"><ele>67.33333333333333</ele><time>2026-05-04T06:19:27Z</time></trkpt><trkpt lat="44.779738202291625" lon="10.327076660476923"><ele>67.66666666666667</ele><time>2026-05-04T06:19:28Z</time></trkpt><trkpt lat="44.77952617674337" lon="10.32703742638724"><ele>68.0</ele><time>2026-05-04T06:19:29Z</time></trkpt><trkpt lat="44.77931633585429" lon="10.326997730751014"><ele>68.0</ele><time>2026-05-04T06:19:30Z</time></trkpt><trkpt lat="44.77910409830462" lon="10.326958982756098"><ele>68.0</ele><time>2026-05-04T06:19:31Z</time></trkpt><trkpt lat="44.77889011050353" lon="10.326919567907026"><ele>68.0</ele><time>2026-05-04T06:19:32Z</time></trkpt><trkpt lat="44.778676597991115" lon="10.326879591286039"><ele>68.0</ele><time>2026-05-04T06:19:33Z</time></trkpt><trkpt lat="44.778465528724794" lon="10.326841476938565"><ele>68.0</ele><time>2026-05-04T06:19:34Z</time></trkpt><trkpt lat="44.77826062855822" lon="10.326803320577191"><ele>68.0</ele><time>2026-05-04T06:19:35Z</time></trkpt><trkpt lat="44.778061542751594" lon="10.326755154534494"><ele>68.0</ele><time>2026-05-04T06:19:36Z</time></trkpt><trkpt lat="44.77787047264936" lon="10.326695917115623"><ele>68.0</ele><time>2026-05-04T06:19:37Z</time></trkpt><trkpt lat="44.77768569058506" lon="10.326639551208899"><ele>68.0</ele><time>2026-05-04T06:19:38Z</time></trkpt><trkpt lat="44.777503881836736" lon="10.326596703682759"><ele>68.0</ele><time>2026-05-04T06:19:39Z</time></trkpt><trkpt lat="44.77733257674315" lon="10.326565236326266"><ele>68.0</ele><time>2026-05-04T06:19:40Z</time></trkpt><trkpt lat="44.77716419686764" lon="10.32653279447629"><ele>68.0</ele><time>2026-05-04T06:19:41Z</time></trkpt><trkpt lat="44.777003889281694" lon="10.326503033522558"><ele>68.5</ele><time>2026-05-04T06:19:42Z</time></trkpt><trkpt lat="44.77685078762921" lon="10.326476765807005"><ele>69.0</ele><time>2026-05-04T06:19:43Z</time></trkpt><trkpt lat="44.776713553165514" lon="10.32645320911952"><ele>69.5</ele><time>2026-05-04T06:19:44Z</time></trkpt><trkpt lat="44.77660223402806" lon="10.326433810504776"><ele>70.0</ele><time>2026-05-04T06:19:45Z</time></trkpt><trkpt lat="44.776535908265465" lon="10.326423142952681"><ele>70.0</ele><time>2026-05-04T06:19:46Z</time></trkpt><trkpt lat="44.77646041660048" lon="10.326401559912684"><ele>70.0</ele><time>2026-05-04T06:19:51Z</time></trkpt><trkpt lat="44.77637435577707" lon="10.32636166682975"><ele>70.0</ele><time>2026-05-04T06:19:53Z</time></trkpt><trkpt lat="44.77631662878648" lon="10.326309536255097"><ele>70.0</ele><time>2026-05-04T06:19:54Z</time></trkpt><trkpt lat="44.77626821955629" lon="10.326234731870706"><ele>70.0</ele><time>2026-05-04T06:19:55Z</time></trkpt><trkpt lat="44.77623187612815" lon="10.326142033674007"><ele>70.0</ele><time>2026-05-04T06:19:56Z</time></trkpt><trkpt lat="44.776211089289085" lon="10.32603863427031"><ele>69.8</ele><time>2026-05-04T06:19:57Z</time></trkpt><trkpt lat="44.7762012736799" lon="10.325919291920405"><ele>69.6</ele><time>2026-05-04T06:19:58Z</time></trkpt><trkpt lat="44.7761716041367" lon="10.325795735905686"><ele>69.4</ele><time>2026-05-04T06:19:59Z</time></trkpt><trkpt lat="44.77618855704777" lon="10.325639168509136"><ele>69.2</ele><time>2026-05-04T06:20:00Z</time></trkpt><trkpt lat="44.776198322206334" lon="10.325481923147843"><ele>69.0</ele><time>2026-05-04T06:20:01Z</time></trkpt><trkpt lat="44.77620944860626" lon="10.325302758173226"><ele>68.66666666666667</ele><time>2026-05-04T06:20:02Z</time></trkpt><trkpt lat="44.7762220894814" lon="10.325099206072855"><ele>68.33333333333334</ele><time>2026-05-04T06:20:03Z</time></trkpt><trkpt lat="44.77623586706598" lon="10.324877823693452"><ele>68.0</ele><time>2026-05-04T06:20:04Z</time></trkpt><trkpt lat="44.776249981521104" lon="10.324651145561381"><ele>68.66666666666667</ele><time>2026-05-04T06:20:05Z</time></trkpt><trkpt lat="44.77626464294928" lon="10.324415683060892"><ele>69.33333333333333</ele><time>2026-05-04T06:20:06Z</time></trkpt><trkpt lat="44.77629311425346" lon="10.32418394524331"><ele>70.0</ele><time>2026-05-04T06:20:07Z</time></trkpt><trkpt lat="44.776290556764195" lon="10.323951318868785"><ele>69.66666666666666</ele><time>2026-05-04T06:20:08Z</time></trkpt><trkpt lat="44.776274913126805" lon="10.32372008888305"><ele>69.33333333333333</ele><time>2026-05-04T06:20:09Z</time></trkpt><trkpt lat="44.7762535013973" lon="10.323503073476335"><ele>69.0</ele><time>2026-05-04T06:20:10Z</time></trkpt><trkpt lat="44.7762353635718" lon="10.323312361201824"><ele>69.0</ele><time>2026-05-04T06:20:11Z</time></trkpt><trkpt lat="44.776220188470326" lon="10.32315813532418"><ele>69.0</ele><time>2026-05-04T06:20:12Z</time></trkpt><trkpt lat="44.7762080604847" lon="10.323030551008786"><ele>69.0</ele><time>2026-05-04T06:20:13Z</time></trkpt><trkpt lat="44.77619754994028" lon="10.322916555229133"><ele>69.0</ele><time>2026-05-04T06:20:14Z</time></trkpt><trkpt lat="44.776187562597954" lon="10.322823064435598"><ele>69.0</ele><time>2026-05-04T06:20:15Z</time></trkpt><trkpt lat="44.776157434922965" lon="10.322699642994683"><ele>69.0</ele><time>2026-05-04T06:20:17Z</time></trkpt><trkpt lat="44.776168857888436" lon="10.322580696305852"><ele>69.4</ele><time>2026-05-04T06:20:19Z</time></trkpt><trkpt lat="44.77614443337725" lon="10.32249759821114"><ele>69.80000000000001</ele><time>2026-05-04T06:20:21Z</time></trkpt><trkpt lat="44.776151011984545" lon="10.322396486241926"><ele>70.19999999999999</ele><time>2026-05-04T06:20:24Z</time></trkpt><trkpt lat="44.77618041751407" lon="10.322258778483858"><ele>70.6</ele><time>2026-05-04T06:20:26Z</time></trkpt><trkpt lat="44.77614294088187" lon="10.322119656904308"><ele>71.0</ele><time>2026-05-04T06:20:28Z</time></trkpt><trkpt lat="44.776036597921085" lon="10.322053893005403"><ele>71.16666666666667</ele><time>2026-05-04T06:20:30Z</time></trkpt><trkpt lat="44.77591918682328" lon="10.322024757441916"><ele>71.33333333333334</ele><time>2026-05-04T06:20:32Z</time></trkpt><trkpt lat="44.77585303663011" lon="10.322006253167197"><ele>71.5</ele><time>2026-05-04T06:20:33Z</time></trkpt><trkpt lat="44.77577816908549" lon="10.321993583207627"><ele>71.66666666666667</ele><time>2026-05-04T06:20:34Z</time></trkpt><trkpt lat="44.77569893582899" lon="10.321989521225277"><ele>71.83333333333333</ele><time>2026-05-04T06:20:35Z</time></trkpt><trkpt lat="44.77562031715089" lon="10.3219964309822"><ele>72.0</ele><time>2026-05-04T06:20:36Z</time></trkpt><trkpt lat="44.77554200717176" lon="10.32201322633098"><ele>72.0</ele><time>2026-05-04T06:20:37Z</time></trkpt><trkpt lat="44.77546548271335" lon="10.32203764115515"><ele>72.0</ele><time>2026-05-04T06:20:38Z</time></trkpt><trkpt lat="44.77539275621218" lon="10.322063370108262"><ele>72.0</ele><time>2026-05-04T06:20:39Z</time></trkpt><trkpt lat="44.77532763376076" lon="10.322093377861835"><ele>72.0</ele><time>2026-05-04T06:20:40Z</time></trkpt><trkpt lat="44.77526723705791" lon="10.322124332525036"><ele>72.0</ele><time>2026-05-04T06:20:41Z</time></trkpt><trkpt lat="44.77516039095149" lon="10.322187278297273"><ele>72.0</ele><time>2026-05-04T06:20:43Z</time></trkpt><trkpt lat="44.775056351522444" lon="10.32225862166811"><ele>71.83333333333333</ele><time>2026-05-04T06:20:45Z</time></trkpt><trkpt lat="44.774950715752965" lon="10.322331021994604"><ele>71.66666666666667</ele><time>2026-05-04T06:20:47Z</time></trkpt><trkpt lat="44.77487145981966" lon="10.322386227039821"><ele>71.5</ele><time>2026-05-04T06:20:49Z</time></trkpt><trkpt lat="44.774798574356424" lon="10.322436611949906"><ele>71.33333333333334</ele><time>2026-05-04T06:20:51Z</time></trkpt><trkpt lat="44.77473077900806" lon="10.322479298247819"><ele>71.16666666666667</ele><time>2026-05-04T06:20:53Z</time></trkpt><trkpt lat="44.77465855284969" lon="10.322530733087161"><ele>71.0</ele><time>2026-05-04T06:20:55Z</time></trkpt><trkpt lat="44.77455329414447" lon="10.322604026663225"><ele>71.0</ele><time>2026-05-04T06:20:57Z</time></trkpt><trkpt lat="44.774496139379494" lon="10.322643569212985"><ele>71.0</ele><time>2026-05-04T06:20:58Z</time></trkpt><trkpt lat="44.77443441762939" lon="10.322681401352455"><ele>71.0</ele><time>2026-05-04T06:20:59Z</time></trkpt><trkpt lat="44.77436317189285" lon="10.32272546348944"><ele>71.0</ele><time>2026-05-04T06:21:00Z</time></trkpt><trkpt lat="44.77428636005256" lon="10.322775508316107"><ele>71.0</ele><time>2026-05-04T06:21:01Z</time></trkpt><trkpt lat="44.77421008073794" lon="10.322829216815187"><ele>71.0</ele><time>2026-05-04T06:21:02Z</time></trkpt><trkpt lat="44.77413039527324" lon="10.322881341744434"><ele>71.0</ele><time>2026-05-04T06:21:03Z</time></trkpt><trkpt lat="44.774052826834236" lon="10.322931349927172"><ele>71.0</ele><time>2026-05-04T06:21:04Z</time></trkpt><trkpt lat="44.77397970986484" lon="10.322978379372882"><ele>71.0</ele><time>2026-05-04T06:21:05Z</time></trkpt><trkpt lat="44.77390075366389" lon="10.323014548227608"><ele>71.0</ele><time>2026-05-04T06:21:06Z</time></trkpt><trkpt lat="44.77382884792584" lon="10.323054390911425"><ele>71.0</ele><time>2026-05-04T06:21:07Z</time></trkpt><trkpt lat="44.77375515939672" lon="10.323097511421812"><ele>71.0</ele><time>2026-05-04T06:21:08Z</time></trkpt><trkpt lat="44.773682599659764" lon="10.32314190174314"><ele>71.0</ele><time>2026-05-04T06:21:09Z</time></trkpt><trkpt lat="44.77360824499245" lon="10.323186736009694"><ele>71.0</ele><time>2026-05-04T06:21:10Z</time></trkpt><trkpt lat="44.773539370763395" lon="10.32322730014598"><ele>71.0</ele><time>2026-05-04T06:21:11Z</time></trkpt><trkpt lat="44.773475374587704" lon="10.323266826455704"><ele>71.0</ele><time>2026-05-04T06:21:12Z</time></trkpt><trkpt lat="44.773406380456684" lon="10.323308642896666"><ele>71.0</ele><time>2026-05-04T06:21:13Z</time></trkpt><trkpt lat="44.77333639664227" lon="10.323355310875487"><ele>71.0</ele><time>2026-05-04T06:21:14Z</time></trkpt><trkpt lat="44.77326269505751" lon="10.32339875094462"><ele>71.0</ele><time>2026-05-04T06:21:15Z</time></trkpt><trkpt lat="44.77318028303806" lon="10.32344523503526"><ele>71.0</ele><time>2026-05-04T06:21:16Z</time></trkpt><trkpt lat="44.773091327015926" lon="10.323496286174963"><ele>71.0</ele><time>2026-05-04T06:21:17Z</time></trkpt><trkpt lat="44.77299678040103" lon="10.323547057112826"><ele>71.0</ele><time>2026-05-04T06:21:18Z</time></trkpt><trkpt lat="44.772906414049274" lon="10.323596280666234"><ele>71.0</ele><time>2026-05-04T06:21:19Z</time></trkpt><trkpt lat="44.77281498426348" lon="10.323647934055707"><ele>71.0</ele><time>2026-05-04T06:21:20Z</time></trkpt><trkpt lat="44.77271898177052" lon="10.323699167277594"><ele>71.0</ele><time>2026-05-04T06:21:21Z</time></trkpt><trkpt lat="44.772625562559426" lon="10.32375549489578"><ele>71.0</ele><time>2026-05-04T06:21:22Z</time></trkpt><trkpt lat="44.772532693803335" lon="10.323803053460027"><ele>71.0</ele><time>2026-05-04T06:21:23Z</time></trkpt><trkpt lat="44.77244590834434" lon="10.323850182887314"><ele>71.0</ele><time>2026-05-04T06:21:24Z</time></trkpt><trkpt lat="44.77236003769369" lon="10.323897217842227"><ele>71.39999999999999</ele><time>2026-05-04T06:21:25Z</time></trkpt><trkpt lat="44.77227771027028" lon="10.323944279631176"><ele>71.8</ele><time>2026-05-04T06:21:26Z</time></trkpt><trkpt lat="44.77219041222397" lon="10.323993166922637"><ele>72.19999999999999</ele><time>2026-05-04T06:21:27Z</time></trkpt><trkpt lat="44.77210167476245" lon="10.324041544214014"><ele>72.6</ele><time>2026-05-04T06:21:28Z</time></trkpt><trkpt lat="44.77201297140735" lon="10.324089444229045"><ele>73.0</ele><time>2026-05-04T06:21:29Z</time></trkpt><trkpt lat="44.77192099336527" lon="10.324137388538807"><ele>72.8</ele><time>2026-05-04T06:21:30Z</time></trkpt><trkpt lat="44.77182425474618" lon="10.324184138944467"><ele>72.6</ele><time>2026-05-04T06:21:31Z</time></trkpt><trkpt lat="44.77172507844004" lon="10.32422285255858"><ele>72.4</ele><time>2026-05-04T06:21:32Z</time></trkpt><trkpt lat="44.771623912553245" lon="10.32425344885133"><ele>72.2</ele><time>2026-05-04T06:21:33Z</time></trkpt><trkpt lat="44.771517851848074" lon="10.324283368949493"><ele>72.0</ele><time>2026-05-04T06:21:34Z</time></trkpt><trkpt lat="44.771413619589055" lon="10.324304042960058"><ele>72.0</ele><time>2026-05-04T06:21:35Z</time></trkpt><trkpt lat="44.77131334430437" lon="10.324319593556456"><ele>72.0</ele><time>2026-05-04T06:21:36Z</time></trkpt><trkpt lat="44.77121273328796" lon="10.324323741747891"><ele>72.0</ele><time>2026-05-04T06:21:37Z</time></trkpt><trkpt lat="44.77111577365391" lon="10.32432309542901"><ele>72.0</ele><time>2026-05-04T06:21:38Z</time></trkpt><trkpt lat="44.77102131716053" lon="10.324314818007021"><ele>72.0</ele><time>2026-05-04T06:21:39Z</time></trkpt><trkpt lat="44.770934979382126" lon="10.324304701999875"><ele>72.14285714285715</ele><time>2026-05-04T06:21:40Z</time></trkpt><trkpt lat="44.77085621953483" lon="10.324290449684426"><ele>72.28571428571429</ele><time>2026-05-04T06:21:41Z</time></trkpt><trkpt lat="44.77078467703982" lon="10.32427534987033"><ele>72.42857142857143</ele><time>2026-05-04T06:21:42Z</time></trkpt><trkpt lat="44.770718945867415" lon="10.324263581964761"><ele>72.57142857142858</ele><time>2026-05-04T06:21:43Z</time></trkpt><trkpt lat="44.770655910994755" lon="10.324249968155858"><ele>72.71428571428572</ele><time>2026-05-04T06:21:44Z</time></trkpt><trkpt lat="44.77058797643361" lon="10.324236497164277"><ele>72.85714285714286</ele><time>2026-05-04T06:21:45Z</time></trkpt><trkpt lat="44.77051994275023" lon="10.324220696257477"><ele>73.0</ele><time>2026-05-04T06:21:46Z</time></trkpt><trkpt lat="44.77044565863944" lon="10.324203509190486"><ele>73.0</ele><time>2026-05-04T06:21:47Z</time></trkpt><trkpt lat="44.77037547182972" lon="10.32418325131267"><ele>73.0</ele><time>2026-05-04T06:21:48Z</time></trkpt><trkpt lat="44.77029507874322" lon="10.324160655747914"><ele>73.0</ele><time>2026-05-04T06:21:49Z</time></trkpt><trkpt lat="44.770214981821226" lon="10.324136978852401"><ele>73.0</ele><time>2026-05-04T06:21:50Z</time></trkpt><trkpt lat="44.77012723022012" lon="10.324110254303626"><ele>73.0</ele><time>2026-05-04T06:21:51Z</time></trkpt><trkpt lat="44.770029827616" lon="10.324081147190748"><ele>73.0</ele><time>2026-05-04T06:21:52Z</time></trkpt><trkpt lat="44.769929842639804" lon="10.324052742385062"><ele>73.2</ele><time>2026-05-04T06:21:53Z</time></trkpt><trkpt lat="44.76983111165697" lon="10.324019465233071"><ele>73.4</ele><time>2026-05-04T06:21:54Z</time></trkpt><trkpt lat="44.76973691095813" lon="10.323989905748007"><ele>73.60000000000001</ele><time>2026-05-04T06:21:55Z</time></trkpt><trkpt lat="44.76964342116735" lon="10.323960969119756"><ele>73.8</ele><time>2026-05-04T06:21:56Z</time></trkpt><trkpt lat="44.76955083421045" lon="10.323932577439813"><ele>74.0</ele><time>2026-05-04T06:21:57Z</time></trkpt><trkpt lat="44.769458479853924" lon="10.323903106131029"><ele>73.8</ele><time>2026-05-04T06:21:58Z</time></trkpt><trkpt lat="44.769364617852176" lon="10.323867622081876"><ele>73.60000000000001</ele><time>2026-05-04T06:21:59Z</time></trkpt><trkpt lat="44.76927585450544" lon="10.323837226459347"><ele>73.4</ele><time>2026-05-04T06:22:00Z</time></trkpt><trkpt lat="44.76918637859695" lon="10.323803460994302"><ele>73.2</ele><time>2026-05-04T06:22:01Z</time></trkpt><trkpt lat="44.76909403753916" lon="10.3237731340847"><ele>73.0</ele><time>2026-05-04T06:22:02Z</time></trkpt><trkpt lat="44.76900725218222" lon="10.323745177450544"><ele>72.83333333333333</ele><time>2026-05-04T06:22:03Z</time></trkpt><trkpt lat="44.768919627397636" lon="10.323712744488642"><ele>72.66666666666666</ele><time>2026-05-04T06:22:04Z</time></trkpt><trkpt lat="44.76882858063616" lon="10.323678665133318"><ele>72.5</ele><time>2026-05-04T06:22:05Z</time></trkpt><trkpt lat="44.768743036440455" lon="10.323643779167028"><ele>72.33333333333333</ele><time>2026-05-04T06:22:06Z</time></trkpt><trkpt lat="44.76865825064189" lon="10.323611743736842"><ele>72.16666666666667</ele><time>2026-05-04T06:22:07Z</time></trkpt><trkpt lat="44.768575127429344" lon="10.32358304089338"><ele>72.0</ele><time>2026-05-04T06:22:08Z</time></trkpt><trkpt lat="44.76849928487121" lon="10.32355153580685"><ele>72.0</ele><time>2026-05-04T06:22:09Z</time></trkpt><trkpt lat="44.7684290998433" lon="10.323522130635672"><ele>72.0</ele><time>2026-05-04T06:22:10Z</time></trkpt><trkpt lat="44.7683636946645" lon="10.32349504266507"><ele>72.0</ele><time>2026-05-04T06:22:11Z</time></trkpt><trkpt lat="44.76830126336722" lon="10.32346868795792"><ele>72.0</ele><time>2026-05-04T06:22:12Z</time></trkpt><trkpt lat="44.76818702858046" lon="10.323423293124513"><ele>72.0</ele><time>2026-05-04T06:22:14Z</time></trkpt><trkpt lat="44.76808879445122" lon="10.323382814951128"><ele>72.0</ele><time>2026-05-04T06:22:16Z</time></trkpt><trkpt lat="44.768012548077934" lon="10.323350906947084"><ele>72.0</ele><time>2026-05-04T06:22:18Z</time></trkpt><trkpt lat="44.767936769782345" lon="10.32331394071529"><ele>72.0</ele><time>2026-05-04T06:22:21Z</time></trkpt><trkpt lat="44.76787402902915" lon="10.323288836829965"><ele>72.0</ele><time>2026-05-04T06:22:29Z</time></trkpt><trkpt lat="44.76779570422014" lon="10.323279820139613"><ele>72.0</ele><time>2026-05-04T06:22:58Z</time></trkpt><trkpt lat="44.7677312850564" lon="10.32321874945192"><ele>72.0</ele><time>2026-05-04T06:23:04Z</time></trkpt><trkpt lat="44.76767054310133" lon="10.32317266282472"><ele>72.0</ele><time>2026-05-04T06:23:12Z</time></trkpt><trkpt lat="44.76758193473699" lon="10.323111595696654"><ele>72.25</ele><time>2026-05-04T06:23:14Z</time></trkpt><trkpt lat="44.767514602446504" lon="10.322975869873295"><ele>72.5</ele><time>2026-05-04T06:23:16Z</time></trkpt><trkpt lat="44.76753057817916" lon="10.322748058542643"><ele>72.75</ele><time>2026-05-04T06:23:18Z</time></trkpt><trkpt lat="44.767546755484744" lon="10.322634826684649"><ele>73.0</ele><time>2026-05-04T06:23:19Z</time></trkpt><trkpt lat="44.76757751817794" lon="10.322500204545275"><ele>73.0</ele><time>2026-05-04T06:23:20Z</time></trkpt><trkpt lat="44.76761158866912" lon="10.322348568421809"><ele>73.0</ele><time>2026-05-04T06:23:21Z</time></trkpt><trkpt lat="44.7676498132468" lon="10.322196293518086"><ele>73.0</ele><time>2026-05-04T06:23:22Z</time></trkpt><trkpt lat="44.76769066995351" lon="10.32204573413241"><ele>73.0</ele><time>2026-05-04T06:23:23Z</time></trkpt><trkpt lat="44.7677352479795" lon="10.321900860978177"><ele>72.5</ele><time>2026-05-04T06:23:24Z</time></trkpt><trkpt lat="44.76778291649067" lon="10.32176185416668"><ele>72.0</ele><time>2026-05-04T06:23:25Z</time></trkpt><trkpt lat="44.76783248728807" lon="10.321623921276856"><ele>71.5</ele><time>2026-05-04T06:23:26Z</time></trkpt><trkpt lat="44.76788528752659" lon="10.321480946642582"><ele>71.0</ele><time>2026-05-04T06:23:27Z</time></trkpt><trkpt lat="44.7679449538803" lon="10.321335426842957"><ele>70.5</ele><time>2026-05-04T06:23:28Z</time></trkpt><trkpt lat="44.76801146441525" lon="10.321182624818588"><ele>70.0</ele><time>2026-05-04T06:23:29Z</time></trkpt><trkpt lat="44.76808047313365" lon="10.321034025919099"><ele>69.5</ele><time>2026-05-04T06:23:30Z</time></trkpt><trkpt lat="44.7681563034616" lon="10.320887336665493"><ele>69.0</ele><time>2026-05-04T06:23:31Z</time></trkpt><trkpt lat="44.76823541103384" lon="10.320744326907136"><ele>69.0</ele><time>2026-05-04T06:23:32Z</time></trkpt><trkpt lat="44.768318500813365" lon="10.320608593651752"><ele>69.0</ele><time>2026-05-04T06:23:33Z</time></trkpt><trkpt lat="44.76840792402348" lon="10.32048310303377"><ele>69.0</ele><time>2026-05-04T06:23:34Z</time></trkpt><trkpt lat="44.76849900734408" lon="10.320357127242504"><ele>69.0</ele><time>2026-05-04T06:23:35Z</time></trkpt><trkpt lat="44.76859318424487" lon="10.320227018064179"><ele>69.25</ele><time>2026-05-04T06:23:36Z</time></trkpt><trkpt lat="44.768689211185766" lon="10.32009349854974"><ele>69.5</ele><time>2026-05-04T06:23:37Z</time></trkpt><trkpt lat="44.768789529171336" lon="10.319953074724467"><ele>69.75</ele><time>2026-05-04T06:23:38Z</time></trkpt><trkpt lat="44.76890525051804" lon="10.319800057064473"><ele>70.0</ele><time>2026-05-04T06:23:39Z</time></trkpt><trkpt lat="44.76904445809328" lon="10.319626808439512"><ele>70.0</ele><time>2026-05-04T06:23:40Z</time></trkpt><trkpt lat="44.769196070299465" lon="10.319436159242928"><ele>70.0</ele><time>2026-05-04T06:23:41Z</time></trkpt><trkpt lat="44.76935801316735" lon="10.319228393241069"><ele>70.0</ele><time>2026-05-04T06:23:42Z</time></trkpt><trkpt lat="44.76952763070721" lon="10.319004754702279"><ele>71.5</ele><time>2026-05-04T06:23:43Z</time></trkpt><trkpt lat="44.769702641500466" lon="10.31876526323264"><ele>73.0</ele><time>2026-05-04T06:23:44Z</time></trkpt><trkpt lat="44.769882442314305" lon="10.318511407359026"><ele>73.0</ele><time>2026-05-04T06:23:45Z</time></trkpt><trkpt lat="44.770062285726596" lon="10.318244359944059"><ele>73.0</ele><time>2026-05-04T06:23:46Z</time></trkpt><trkpt lat="44.7702367390218" lon="10.317979925462927"><ele>73.0</ele><time>2026-05-04T06:23:47Z</time></trkpt><trkpt lat="44.77040630313403" lon="10.31771439241164"><ele>73.0</ele><time>2026-05-04T06:23:48Z</time></trkpt><trkpt lat="44.77057314133379" lon="10.317452335115275"><ele>74.5</ele><time>2026-05-04T06:23:49Z</time></trkpt><trkpt lat="44.77073777768685" lon="10.317189992730032"><ele>76.0</ele><time>2026-05-04T06:23:50Z</time></trkpt><trkpt lat="44.77089404881997" lon="10.316929574038879"><ele>74.5</ele><time>2026-05-04T06:23:51Z</time></trkpt><trkpt lat="44.77103722665621" lon="10.316659334642768"><ele>73.0</ele><time>2026-05-04T06:23:52Z</time></trkpt><trkpt lat="44.77116744451821" lon="10.316382600770941"><ele>71.5</ele><time>2026-05-04T06:23:53Z</time></trkpt><trkpt lat="44.77128959099916" lon="10.316092201548463"><ele>70.0</ele><time>2026-05-04T06:23:54Z</time></trkpt><trkpt lat="44.771397190258995" lon="10.315797541069289"><ele>72.5</ele><time>2026-05-04T06:23:55Z</time></trkpt><trkpt lat="44.771492520815876" lon="10.315495777923937"><ele>75.0</ele><time>2026-05-04T06:23:56Z</time></trkpt><trkpt lat="44.771570420713594" lon="10.31518098243713"><ele>75.0</ele><time>2026-05-04T06:23:57Z</time></trkpt><trkpt lat="44.771640778352136" lon="10.31486019751385"><ele>75.0</ele><time>2026-05-04T06:23:58Z</time></trkpt><trkpt lat="44.771711731518984" lon="10.314537802612554"><ele>74.0</ele><time>2026-05-04T06:23:59Z</time></trkpt><trkpt lat="44.77178277587465" lon="10.314214881499824"><ele>73.0</ele><time>2026-05-04T06:24:00Z</time></trkpt><trkpt lat="44.77185169298882" lon="10.313887753537683"><ele>73.0</ele><time>2026-05-04T06:24:01Z</time></trkpt><trkpt lat="44.771919037503565" lon="10.313559636934333"><ele>73.0</ele><time>2026-05-04T06:24:02Z</time></trkpt><trkpt lat="44.77198782404062" lon="10.313235517861512"><ele>73.33333333333333</ele><time>2026-05-04T06:24:03Z</time></trkpt><trkpt lat="44.77205454791335" lon="10.312911760405393"><ele>73.66666666666667</ele><time>2026-05-04T06:24:04Z</time></trkpt><trkpt lat="44.77211337268928" lon="10.3126316488346"><ele>74.0</ele><time>2026-05-04T06:24:05Z</time></trkpt><trkpt lat="44.772161517778876" lon="10.312405648529415"><ele>74.25</ele><time>2026-05-04T06:24:06Z</time></trkpt><trkpt lat="44.77220204049518" lon="10.31221146745251"><ele>74.5</ele><time>2026-05-04T06:24:07Z</time></trkpt><trkpt lat="44.77223877749072" lon="10.312039080118089"><ele>74.75</ele><time>2026-05-04T06:24:08Z</time></trkpt><trkpt lat="44.772276386294955" lon="10.311863080990046"><ele>75.0</ele><time>2026-05-04T06:24:09Z</time></trkpt><trkpt lat="44.77231030370683" lon="10.311695744933163"><ele>75.0</ele><time>2026-05-04T06:24:10Z</time></trkpt><trkpt lat="44.77233554630516" lon="10.311577677995206"><ele>75.0</ele><time>2026-05-04T06:24:11Z</time></trkpt><trkpt lat="44.77237251280538" lon="10.31142063288332"><ele>75.0</ele><time>2026-05-04T06:24:13Z</time></trkpt><trkpt lat="44.772390253346224" lon="10.311334797409074"><ele>75.0</ele><time>2026-05-04T06:24:14Z</time></trkpt><trkpt lat="44.772425129823006" lon="10.311183872013391"><ele>75.0</ele><time>2026-05-04T06:24:16Z</time></trkpt><trkpt lat="44.772453724449136" lon="10.311056116109675"><ele>75.0</ele><time>2026-05-04T06:24:18Z</time></trkpt><trkpt lat="44.77248074055383" lon="10.310928572115369"><ele>75.0</ele><time>2026-05-04T06:24:20Z</time></trkpt><trkpt lat="44.77251470375839" lon="10.310760248205955"><ele>75.0</ele><time>2026-05-04T06:24:22Z</time></trkpt><trkpt lat="44.772535990736756" lon="10.310662898932865"><ele>75.0</ele><time>2026-05-04T06:24:23Z</time></trkpt><trkpt lat="44.77255624138984" lon="10.31055605718813"><ele>75.0</ele><time>2026-05-04T06:24:24Z</time></trkpt><trkpt lat="44.772577781482894" lon="10.31045689634748"><ele>75.0</ele><time>2026-05-04T06:24:25Z</time></trkpt><trkpt lat="44.77259639283427" lon="10.310359320302666"><ele>75.0</ele><time>2026-05-04T06:24:26Z</time></trkpt><trkpt lat="44.77261491106453" lon="10.31026678662329"><ele>75.0</ele><time>2026-05-04T06:24:27Z</time></trkpt><trkpt lat="44.77263715089216" lon="10.310175048802831"><ele>75.0</ele><time>2026-05-04T06:24:28Z</time></trkpt><trkpt lat="44.77268068265839" lon="10.310008305303555"><ele>75.0</ele><time>2026-05-04T06:24:30Z</time></trkpt><trkpt lat="44.77270526086637" lon="10.309921503966798"><ele>75.0</ele><time>2026-05-04T06:24:31Z</time></trkpt><trkpt lat="44.77274966746166" lon="10.309764337432627"><ele>75.4</ele><time>2026-05-04T06:24:33Z</time></trkpt><trkpt lat="44.77278814551189" lon="10.309642595541925"><ele>75.8</ele><time>2026-05-04T06:24:35Z</time></trkpt><trkpt lat="44.77281480736314" lon="10.309555134049539"><ele>76.2</ele><time>2026-05-04T06:24:38Z</time></trkpt><trkpt lat="44.77285168369754" lon="10.309429044898975"><ele>76.6</ele><time>2026-05-04T06:24:43Z</time></trkpt><trkpt lat="44.772896007745544" lon="10.309307248199607"><ele>77.0</ele><time>2026-05-04T06:24:45Z</time></trkpt><trkpt lat="44.772955371242794" lon="10.309155794381436"><ele>77.0</ele><time>2026-05-04T06:24:47Z</time></trkpt><trkpt lat="44.77298687672451" lon="10.309078586403675"><ele>77.0</ele><time>2026-05-04T06:24:48Z</time></trkpt><trkpt lat="44.773025241119086" lon="10.308994229757245"><ele>77.0</ele><time>2026-05-04T06:24:49Z</time></trkpt><trkpt lat="44.77307101840384" lon="10.308895031704498"><ele>77.0</ele><time>2026-05-04T06:24:50Z</time></trkpt><trkpt lat="44.77311880876357" lon="10.308790416315373"><ele>77.0</ele><time>2026-05-04T06:24:51Z</time></trkpt><trkpt lat="44.77317181908111" lon="10.308681124642108"><ele>77.0</ele><time>2026-05-04T06:24:52Z</time></trkpt><trkpt lat="44.77322699071282" lon="10.30857009709811"><ele>76.75</ele><time>2026-05-04T06:24:53Z</time></trkpt><trkpt lat="44.77328453753659" lon="10.308447989234791"><ele>76.5</ele><time>2026-05-04T06:24:54Z</time></trkpt><trkpt lat="44.773352404055004" lon="10.30832085679943"><ele>76.25</ele><time>2026-05-04T06:24:55Z</time></trkpt><trkpt lat="44.77342548106318" lon="10.308193262359161"><ele>76.0</ele><time>2026-05-04T06:24:56Z</time></trkpt><trkpt lat="44.77350144749891" lon="10.308066337519344"><ele>75.25</ele><time>2026-05-04T06:24:57Z</time></trkpt><trkpt lat="44.773583137455674" lon="10.307938352693428"><ele>74.5</ele><time>2026-05-04T06:24:58Z</time></trkpt><trkpt lat="44.77366768701243" lon="10.30781256500641"><ele>73.75</ele><time>2026-05-04T06:24:59Z</time></trkpt><trkpt lat="44.7737557478844" lon="10.307687274549464"><ele>73.0</ele><time>2026-05-04T06:25:00Z</time></trkpt><trkpt lat="44.77384869225027" lon="10.307562959343713"><ele>73.0</ele><time>2026-05-04T06:25:01Z</time></trkpt><trkpt lat="44.773948084699754" lon="10.307439757001848"><ele>73.0</ele><time>2026-05-04T06:25:02Z</time></trkpt><trkpt lat="44.774053476524" lon="10.307314937113148"><ele>73.0</ele><time>2026-05-04T06:25:03Z</time></trkpt><trkpt lat="44.77415979522246" lon="10.307196275644898"><ele>73.0</ele><time>2026-05-04T06:25:04Z</time></trkpt><trkpt lat="44.77425619807501" lon="10.307100841099423"><ele>73.6</ele><time>2026-05-04T06:25:05Z</time></trkpt><trkpt lat="44.774340105805486" lon="10.307018541190693"><ele>74.19999999999999</ele><time>2026-05-04T06:25:06Z</time></trkpt><trkpt lat="44.77441710957257" lon="10.306945361574197"><ele>74.8</ele><time>2026-05-04T06:25:07Z</time></trkpt><trkpt lat="44.77449420474479" lon="10.306873973455932"><ele>75.39999999999999</ele><time>2026-05-04T06:25:08Z</time></trkpt><trkpt lat="44.77457231883144" lon="10.30680220063549"><ele>76.0</ele><time>2026-05-04T06:25:09Z</time></trkpt><trkpt lat="44.774653031034646" lon="10.306727352374017"><ele>76.2</ele><time>2026-05-04T06:25:10Z</time></trkpt><trkpt lat="44.77473767193488" lon="10.306648088066435"><ele>76.39999999999999</ele><time>2026-05-04T06:25:11Z</time></trkpt><trkpt lat="44.77482284389247" lon="10.306566087904201"><ele>76.6</ele><time>2026-05-04T06:25:12Z</time></trkpt><trkpt lat="44.774912685925855" lon="10.306486927503784"><ele>76.8</ele><time>2026-05-04T06:25:13Z</time></trkpt><trkpt lat="44.7749992782018" lon="10.306408252934606"><ele>77.0</ele><time>2026-05-04T06:25:14Z</time></trkpt><trkpt lat="44.77508869384941" lon="10.30632400052043"><ele>76.75</ele><time>2026-05-04T06:25:15Z</time></trkpt><trkpt lat="44.77518592898716" lon="10.306235246563736"><ele>76.5</ele><time>2026-05-04T06:25:16Z</time></trkpt><trkpt lat="44.77528548798703" lon="10.306141114110515"><ele>76.25</ele><time>2026-05-04T06:25:17Z</time></trkpt><trkpt lat="44.77538725485883" lon="10.30604650452848"><ele>76.0</ele><time>2026-05-04T06:25:18Z</time></trkpt><trkpt lat="44.775490897352654" lon="10.305949198976407"><ele>76.0</ele><time>2026-05-04T06:25:19Z</time></trkpt><trkpt lat="44.77560202144359" lon="10.305849066542791"><ele>76.0</ele><time>2026-05-04T06:25:20Z</time></trkpt><trkpt lat="44.775712020304205" lon="10.305749237822798"><ele>76.0</ele><time>2026-05-04T06:25:21Z</time></trkpt><trkpt lat="44.77582032274347" lon="10.305657146191132"><ele>76.0</ele><time>2026-05-04T06:25:22Z</time></trkpt><trkpt lat="44.77592367051405" lon="10.305559970018631"><ele>75.75</ele><time>2026-05-04T06:25:23Z</time></trkpt><trkpt lat="44.77602983862739" lon="10.305465011212116"><ele>75.5</ele><time>2026-05-04T06:25:24Z</time></trkpt><trkpt lat="44.77613716092613" lon="10.305365531186071"><ele>75.25</ele><time>2026-05-04T06:25:25Z</time></trkpt><trkpt lat="44.77624037076948" lon="10.305264854117333"><ele>75.0</ele><time>2026-05-04T06:25:26Z</time></trkpt><trkpt lat="44.77635162538317" lon="10.305160659365395"><ele>75.0</ele><time>2026-05-04T06:25:27Z</time></trkpt><trkpt lat="44.77646596430028" lon="10.305055487896853"><ele>75.0</ele><time>2026-05-04T06:25:28Z</time></trkpt><trkpt lat="44.77658414508281" lon="10.304949459660117"><ele>75.0</ele><time>2026-05-04T06:25:29Z</time></trkpt><trkpt lat="44.77670546796352" lon="10.30484295748511"><ele>75.0</ele><time>2026-05-04T06:25:30Z</time></trkpt><trkpt lat="44.776826069022775" lon="10.30473422240906"><ele>75.75</ele><time>2026-05-04T06:25:31Z</time></trkpt><trkpt lat="44.77694219566895" lon="10.304628670468434"><ele>76.5</ele><time>2026-05-04T06:25:32Z</time></trkpt><trkpt lat="44.77705744487722" lon="10.304523526683084"><ele>77.25</ele><time>2026-05-04T06:25:33Z</time></trkpt><trkpt lat="44.77717369676328" lon="10.304417037002942"><ele>78.0</ele><time>2026-05-04T06:25:34Z</time></trkpt><trkpt lat="44.777290993538585" lon="10.30430189173072"><ele>78.0</ele><time>2026-05-04T06:25:35Z</time></trkpt><trkpt lat="44.77741402522992" lon="10.30418403866612"><ele>78.0</ele><time>2026-05-04T06:25:36Z</time></trkpt><trkpt lat="44.7775407351399" lon="10.304056767268849"><ele>78.0</ele><time>2026-05-04T06:25:37Z</time></trkpt><trkpt lat="44.77767430825086" lon="10.30392206315753"><ele>77.0</ele><time>2026-05-04T06:25:38Z</time></trkpt><trkpt lat="44.77781359122689" lon="10.303772305994405"><ele>76.0</ele><time>2026-05-04T06:25:39Z</time></trkpt><trkpt lat="44.77796476723116" lon="10.303613721754687"><ele>75.0</ele><time>2026-05-04T06:25:40Z</time></trkpt><trkpt lat="44.778113184031746" lon="10.303449196670067"><ele>75.0</ele><time>2026-05-04T06:25:41Z</time></trkpt><trkpt lat="44.77826972111508" lon="10.303269880775034"><ele>75.0</ele><time>2026-05-04T06:25:42Z</time></trkpt><trkpt lat="44.77843268499297" lon="10.30307949145722"><ele>75.0</ele><time>2026-05-04T06:25:43Z</time></trkpt><trkpt lat="44.778606755117316" lon="10.302884176796566"><ele>75.0</ele><time>2026-05-04T06:25:44Z</time></trkpt><trkpt lat="44.77878831797539" lon="10.302678264048925"><ele>75.0</ele><time>2026-05-04T06:25:45Z</time></trkpt><trkpt lat="44.77896458602056" lon="10.302463051420688"><ele>75.0</ele><time>2026-05-04T06:25:46Z</time></trkpt><trkpt lat="44.77912907225577" lon="10.302231681384395"><ele>75.0</ele><time>2026-05-04T06:25:47Z</time></trkpt><trkpt lat="44.779276557861614" lon="10.301981368599927"><ele>73.0</ele><time>2026-05-04T06:25:48Z</time></trkpt><trkpt lat="44.779408642238145" lon="10.301714349001893"><ele>71.0</ele><time>2026-05-04T06:25:49Z</time></trkpt><trkpt lat="44.779525053740166" lon="10.301438650834198"><ele>71.5</ele><time>2026-05-04T06:25:50Z</time></trkpt><trkpt lat="44.77964672899432" lon="10.301161968002999"><ele>72.0</ele><time>2026-05-04T06:25:51Z</time></trkpt><trkpt lat="44.779703572526884" lon="10.300841678379872"><ele>73.0</ele><time>2026-05-04T06:25:52Z</time></trkpt><trkpt lat="44.779829928758126" lon="10.300565122637966"><ele>74.0</ele><time>2026-05-04T06:25:53Z</time></trkpt><trkpt lat="44.77980763324705" lon="10.30021376180871"><ele>74.0</ele><time>2026-05-04T06:25:54Z</time></trkpt><trkpt lat="44.779833499889335" lon="10.299896699764712"><ele>74.0</ele><time>2026-05-04T06:25:55Z</time></trkpt><trkpt lat="44.779863747555794" lon="10.299580246243364"><ele>74.5</ele><time>2026-05-04T06:25:56Z</time></trkpt><trkpt lat="44.77989015618811" lon="10.29926439064808"><ele>75.0</ele><time>2026-05-04T06:25:57Z</time></trkpt><trkpt lat="44.779915950093006" lon="10.298944383639366"><ele>73.5</ele><time>2026-05-04T06:25:58Z</time></trkpt><trkpt lat="44.77994272687787" lon="10.298619378544315"><ele>72.0</ele><time>2026-05-04T06:25:59Z</time></trkpt><trkpt lat="44.779965621496906" lon="10.298277183176666"><ele>72.0</ele><time>2026-05-04T06:26:00Z</time></trkpt><trkpt lat="44.7799951706435" lon="10.297950076577163"><ele>72.0</ele><time>2026-05-04T06:26:01Z</time></trkpt><trkpt lat="44.78002727945435" lon="10.297623212141897"><ele>72.0</ele><time>2026-05-04T06:26:02Z</time></trkpt><trkpt lat="44.780055122964534" lon="10.297287383081345"><ele>72.0</ele><time>2026-05-04T06:26:03Z</time></trkpt><trkpt lat="44.780083991653974" lon="10.296950974369436"><ele>72.0</ele><time>2026-05-04T06:26:04Z</time></trkpt><trkpt lat="44.78011858935489" lon="10.296617571912714"><ele>72.0</ele><time>2026-05-04T06:26:05Z</time></trkpt><trkpt lat="44.78014573228851" lon="10.296282624336747"><ele>72.0</ele><time>2026-05-04T06:26:06Z</time></trkpt><trkpt lat="44.780173767718736" lon="10.29594634031179"><ele>72.0</ele><time>2026-05-04T06:26:07Z</time></trkpt><trkpt lat="44.780205327166584" lon="10.295610681202849"><ele>73.0</ele><time>2026-05-04T06:26:08Z</time></trkpt><trkpt lat="44.78023342492767" lon="10.295267732845444"><ele>74.0</ele><time>2026-05-04T06:26:09Z</time></trkpt><trkpt lat="44.78027587521524" lon="10.29494683813449"><ele>71.5</ele><time>2026-05-04T06:26:10Z</time></trkpt><trkpt lat="44.78031012464938" lon="10.2945999102728"><ele>69.0</ele><time>2026-05-04T06:26:11Z</time></trkpt><trkpt lat="44.78034238979321" lon="10.294243549492114"><ele>68.5</ele><time>2026-05-04T06:26:12Z</time></trkpt><trkpt lat="44.78038758909666" lon="10.293893089722888"><ele>68.0</ele><time>2026-05-04T06:26:13Z</time></trkpt><trkpt lat="44.780446970351505" lon="10.293548009689657"><ele>68.0</ele><time>2026-05-04T06:26:14Z</time></trkpt><trkpt lat="44.78052093563523" lon="10.293205284440399"><ele>68.0</ele><time>2026-05-04T06:26:15Z</time></trkpt><trkpt lat="44.780611553237065" lon="10.29286848787908"><ele>70.0</ele><time>2026-05-04T06:26:16Z</time></trkpt><trkpt lat="44.78071398388239" lon="10.292540284553354"><ele>72.0</ele><time>2026-05-04T06:26:17Z</time></trkpt><trkpt lat="44.780828880484" lon="10.292220119225473"><ele>72.0</ele><time>2026-05-04T06:26:18Z</time></trkpt><trkpt lat="44.78096101359304" lon="10.291915084962675"><ele>72.0</ele><time>2026-05-04T06:26:19Z</time></trkpt><trkpt lat="44.78109911898797" lon="10.291622711507816"><ele>72.0</ele><time>2026-05-04T06:26:20Z</time></trkpt><trkpt lat="44.78124730040338" lon="10.29134499531371"><ele>72.0</ele><time>2026-05-04T06:26:21Z</time></trkpt><trkpt lat="44.78140919357099" lon="10.291077206018333"><ele>72.0</ele><time>2026-05-04T06:26:22Z</time></trkpt><trkpt lat="44.781585328219" lon="10.29082516221444"><ele>72.0</ele><time>2026-05-04T06:26:23Z</time></trkpt><trkpt lat="44.7817739085948" lon="10.290584489399258"><ele>72.0</ele><time>2026-05-04T06:26:24Z</time></trkpt><trkpt lat="44.781971610195434" lon="10.29035156754158"><ele>72.0</ele><time>2026-05-04T06:26:25Z</time></trkpt><trkpt lat="44.78217315346788" lon="10.290115464066606"><ele>72.0</ele><time>2026-05-04T06:26:26Z</time></trkpt><trkpt lat="44.78238272169337" lon="10.289882829431445"><ele>72.0</ele><time>2026-05-04T06:26:27Z</time></trkpt><trkpt lat="44.78259560344494" lon="10.289646365820508"><ele>73.0</ele><time>2026-05-04T06:26:28Z</time></trkpt><trkpt lat="44.78280727653736" lon="10.289407088510966"><ele>74.0</ele><time>2026-05-04T06:26:29Z</time></trkpt><trkpt lat="44.78302228157725" lon="10.289164533957939"><ele>74.0</ele><time>2026-05-04T06:26:30Z</time></trkpt><trkpt lat="44.78323385193107" lon="10.288924558432992"><ele>74.0</ele><time>2026-05-04T06:26:31Z</time></trkpt><trkpt lat="44.78344865535423" lon="10.288682339967089"><ele>73.5</ele><time>2026-05-04T06:26:32Z</time></trkpt><trkpt lat="44.783653700884514" lon="10.28844788006588"><ele>73.0</ele><time>2026-05-04T06:26:33Z</time></trkpt><trkpt lat="44.78383757408897" lon="10.288216460391586"><ele>74.0</ele><time>2026-05-04T06:26:34Z</time></trkpt><trkpt lat="44.78400431665624" lon="10.287970995139647"><ele>75.0</ele><time>2026-05-04T06:26:35Z</time></trkpt><trkpt lat="44.78415358095514" lon="10.287710777034912"><ele>75.0</ele><time>2026-05-04T06:26:36Z</time></trkpt><trkpt lat="44.78428362054221" lon="10.287445099854251"><ele>75.0</ele><time>2026-05-04T06:26:37Z</time></trkpt><trkpt lat="44.78439566490225" lon="10.28716440601539"><ele>74.5</ele><time>2026-05-04T06:26:38Z</time></trkpt><trkpt lat="44.7844944642026" lon="10.286870774589454"><ele>74.0</ele><time>2026-05-04T06:26:39Z</time></trkpt><trkpt lat="44.78457641703393" lon="10.286561562122099"><ele>73.5</ele><time>2026-05-04T06:26:40Z</time></trkpt><trkpt lat="44.784645316065614" lon="10.286246320051927"><ele>73.0</ele><time>2026-05-04T06:26:41Z</time></trkpt><trkpt lat="44.78471460162767" lon="10.285932855372605"><ele>73.0</ele><time>2026-05-04T06:26:42Z</time></trkpt><trkpt lat="44.784781463759806" lon="10.285626409980857"><ele>73.0</ele><time>2026-05-04T06:26:43Z</time></trkpt><trkpt lat="44.78484840742506" lon="10.285323348867554"><ele>74.0</ele><time>2026-05-04T06:26:44Z</time></trkpt><trkpt lat="44.78491542710301" lon="10.285023850957614"><ele>75.0</ele><time>2026-05-04T06:26:45Z</time></trkpt><trkpt lat="44.78498972990978" lon="10.284733581931075"><ele>76.0</ele><time>2026-05-04T06:26:46Z</time></trkpt><trkpt lat="44.785074589095316" lon="10.28444972985795"><ele>76.66666666666666</ele><time>2026-05-04T06:26:47Z</time></trkpt><trkpt lat="44.785170274419464" lon="10.284174759700237"><ele>77.33333333333333</ele><time>2026-05-04T06:26:48Z</time></trkpt><trkpt lat="44.785283749219516" lon="10.283913378615368"><ele>78.0</ele><time>2026-05-04T06:26:49Z</time></trkpt><trkpt lat="44.785405481140984" lon="10.283657455403835"><ele>79.33333333333333</ele><time>2026-05-04T06:26:50Z</time></trkpt><trkpt lat="44.78553538302934" lon="10.283412512665887"><ele>80.66666666666666</ele><time>2026-05-04T06:26:51Z</time></trkpt><trkpt lat="44.78568033688195" lon="10.283178545862874"><ele>82.0</ele><time>2026-05-04T06:26:52Z</time></trkpt><trkpt lat="44.78584109254596" lon="10.282958077752347"><ele>77.5</ele><time>2026-05-04T06:26:53Z</time></trkpt><trkpt lat="44.78600847329116" lon="10.282739944868627"><ele>73.0</ele><time>2026-05-04T06:26:54Z</time></trkpt><trkpt lat="44.786182316585695" lon="10.282536260215235"><ele>73.0</ele><time>2026-05-04T06:26:55Z</time></trkpt><trkpt lat="44.78637090159555" lon="10.28234991227693"><ele>73.0</ele><time>2026-05-04T06:26:56Z</time></trkpt><trkpt lat="44.78657130870229" lon="10.282176386988063"><ele>72.5</ele><time>2026-05-04T06:26:57Z</time></trkpt><trkpt lat="44.786783454426654" lon="10.28201779560015"><ele>72.0</ele><time>2026-05-04T06:26:58Z</time></trkpt><trkpt lat="44.78700315964054" lon="10.281879156973236"><ele>73.0</ele><time>2026-05-04T06:26:59Z</time></trkpt><trkpt lat="44.78724183433916" lon="10.281760004531135"><ele>74.0</ele><time>2026-05-04T06:27:00Z</time></trkpt><trkpt lat="44.78748982884087" lon="10.281670354250872"><ele>74.0</ele><time>2026-05-04T06:27:01Z</time></trkpt><trkpt lat="44.78774435464906" lon="10.281603883696272"><ele>74.0</ele><time>2026-05-04T06:27:02Z</time></trkpt><trkpt lat="44.78800521811559" lon="10.281561602568255"><ele>74.0</ele><time>2026-05-04T06:27:03Z</time></trkpt><trkpt lat="44.78827604426552" lon="10.281549221892266"><ele>74.0</ele><time>2026-05-04T06:27:04Z</time></trkpt><trkpt lat="44.78854124527629" lon="10.28156148532675"><ele>72.5</ele><time>2026-05-04T06:27:05Z</time></trkpt><trkpt lat="44.78881134250791" lon="10.28159926435266"><ele>71.0</ele><time>2026-05-04T06:27:06Z</time></trkpt><trkpt lat="44.78908512241297" lon="10.281661220984423"><ele>70.5</ele><time>2026-05-04T06:27:07Z</time></trkpt><trkpt lat="44.78935209690639" lon="10.281740458446222"><ele>70.0</ele><time>2026-05-04T06:27:08Z</time></trkpt><trkpt lat="44.789615081287025" lon="10.281818392830433"><ele>70.0</ele><time>2026-05-04T06:27:09Z</time></trkpt><trkpt lat="44.78987352938311" lon="10.281895890472727"><ele>70.0</ele><time>2026-05-04T06:27:10Z</time></trkpt><trkpt lat="44.7901322308109" lon="10.281975019536604"><ele>67.5</ele><time>2026-05-04T06:27:11Z</time></trkpt><trkpt lat="44.790388428271285" lon="10.28205185031292"><ele>65.0</ele><time>2026-05-04T06:27:12Z</time></trkpt><trkpt lat="44.79064141474564" lon="10.282125927207108"><ele>65.0</ele><time>2026-05-04T06:27:13Z</time></trkpt><trkpt lat="44.79089086532485" lon="10.282197573954312"><ele>65.0</ele><time>2026-05-04T06:27:14Z</time></trkpt><trkpt lat="44.791140707494904" lon="10.282270365493861"><ele>64.5</ele><time>2026-05-04T06:27:15Z</time></trkpt><trkpt lat="44.791387997590945" lon="10.282344016151773"><ele>64.0</ele><time>2026-05-04T06:27:16Z</time></trkpt><trkpt lat="44.79163688144747" lon="10.282415497206562"><ele>64.0</ele><time>2026-05-04T06:27:17Z</time></trkpt><trkpt lat="44.79188679882861" lon="10.282480698576448"><ele>64.0</ele><time>2026-05-04T06:27:18Z</time></trkpt><trkpt lat="44.792139714408535" lon="10.282523553844861"><ele>64.0</ele><time>2026-05-04T06:27:19Z</time></trkpt><trkpt lat="44.792394807496215" lon="10.282546995879558"><ele>64.0</ele><time>2026-05-04T06:27:19.999Z</time></trkpt><trkpt lat="44.79265288599131" lon="10.282555135131172"><ele>63.0</ele><time>2026-05-04T06:27:21Z</time></trkpt><trkpt lat="44.79290964181916" lon="10.282548997929462"><ele>62.0</ele><time>2026-05-04T06:27:22Z</time></trkpt><trkpt lat="44.79316200355297" lon="10.282530005914957"><ele>62.0</ele><time>2026-05-04T06:27:23Z</time></trkpt><trkpt lat="44.79341396327725" lon="10.282505917051118"><ele>62.0</ele><time>2026-05-04T06:27:24Z</time></trkpt><trkpt lat="44.793663113498894" lon="10.282476950361762"><ele>64.0</ele><time>2026-05-04T06:27:25Z</time></trkpt><trkpt lat="44.79390316580225" lon="10.282444687612013"><ele>66.0</ele><time>2026-05-04T06:27:26Z</time></trkpt><trkpt lat="44.79413874942813" lon="10.282413968042126"><ele>66.5</ele><time>2026-05-04T06:27:27Z</time></trkpt><trkpt lat="44.79437254261924" lon="10.282380647120194"><ele>67.0</ele><time>2026-05-04T06:27:28Z</time></trkpt><trkpt lat="44.79460720088741" lon="10.28234910062415"><ele>67.0</ele><time>2026-05-04T06:27:29Z</time></trkpt><trkpt lat="44.79484217072852" lon="10.282316614343008"><ele>67.0</ele><time>2026-05-04T06:27:30Z</time></trkpt><trkpt lat="44.79507981723074" lon="10.282283641100523"><ele>65.5</ele><time>2026-05-04T06:27:31Z</time></trkpt><trkpt lat="44.795317721377316" lon="10.282251897762778"><ele>64.0</ele><time>2026-05-04T06:27:32Z</time></trkpt><trkpt lat="44.79555145630154" lon="10.282222932684258"><ele>64.0</ele><time>2026-05-04T06:27:33Z</time></trkpt><trkpt lat="44.7957874780869" lon="10.282190122672977"><ele>64.0</ele><time>2026-05-04T06:27:34Z</time></trkpt><trkpt lat="44.79602192561912" lon="10.282158428073439"><ele>63.0</ele><time>2026-05-04T06:27:35Z</time></trkpt><trkpt lat="44.79625855153374" lon="10.28212616321829"><ele>62.0</ele><time>2026-05-04T06:27:36Z</time></trkpt><trkpt lat="44.796498072511525" lon="10.282093914473279"><ele>62.0</ele><time>2026-05-04T06:27:37Z</time></trkpt><trkpt lat="44.79674117707299" lon="10.282062520738814"><ele>62.0</ele><time>2026-05-04T06:27:38Z</time></trkpt><trkpt lat="44.79698491837679" lon="10.282030236766307"><ele>63.0</ele><time>2026-05-04T06:27:39Z</time></trkpt><trkpt lat="44.79722704073998" lon="10.281997411204028"><ele>64.0</ele><time>2026-05-04T06:27:40Z</time></trkpt><trkpt lat="44.797469840892006" lon="10.281964698796312"><ele>64.5</ele><time>2026-05-04T06:27:41Z</time></trkpt><trkpt lat="44.79771292553797" lon="10.281939966815928"><ele>65.0</ele><time>2026-05-04T06:27:42Z</time></trkpt><trkpt lat="44.79796306162141" lon="10.281918864173841"><ele>65.0</ele><time>2026-05-04T06:27:43Z</time></trkpt><trkpt lat="44.798218347831806" lon="10.281904273018796"><ele>65.0</ele><time>2026-05-04T06:27:44Z</time></trkpt><trkpt lat="44.79848337621023" lon="10.281899131253141"><ele>65.0</ele><time>2026-05-04T06:27:45Z</time></trkpt><trkpt lat="44.79875303160572" lon="10.281908868643654"><ele>65.0</ele><time>2026-05-04T06:27:46Z</time></trkpt><trkpt lat="44.79902929273318" lon="10.281931338097602"><ele>65.0</ele><time>2026-05-04T06:27:47Z</time></trkpt><trkpt lat="44.799300178818164" lon="10.281967917780161"><ele>65.0</ele><time>2026-05-04T06:27:48Z</time></trkpt><trkpt lat="44.799568673466844" lon="10.282019445854406"><ele>64.0</ele><time>2026-05-04T06:27:49Z</time></trkpt><trkpt lat="44.79983363758421" lon="10.282080037844034"><ele>63.0</ele><time>2026-05-04T06:27:50Z</time></trkpt><trkpt lat="44.80009050468381" lon="10.28215351276373"><ele>62.0</ele><time>2026-05-04T06:27:51Z</time></trkpt><trkpt lat="44.80033619071059" lon="10.282236178955186"><ele>61.0</ele><time>2026-05-04T06:27:52Z</time></trkpt><trkpt lat="44.80056531276832" lon="10.282323089065613"><ele>60.5</ele><time>2026-05-04T06:27:53Z</time></trkpt><trkpt lat="44.80078850386922" lon="10.28241320505438"><ele>60.0</ele><time>2026-05-04T06:27:54Z</time></trkpt><trkpt lat="44.80100594497885" lon="10.282502069986116"><ele>60.0</ele><time>2026-05-04T06:27:55Z</time></trkpt><trkpt lat="44.80121840002435" lon="10.282588798869153"><ele>60.0</ele><time>2026-05-04T06:27:56Z</time></trkpt><trkpt lat="44.80142759869547" lon="10.282680363736489"><ele>60.0</ele><time>2026-05-04T06:27:57Z</time></trkpt><trkpt lat="44.80163749229061" lon="10.282770762625388"><ele>59.33333333333333</ele><time>2026-05-04T06:27:58Z</time></trkpt><trkpt lat="44.80184853876959" lon="10.282859896533338"><ele>58.666666666666664</ele><time>2026-05-04T06:27:59Z</time></trkpt><trkpt lat="44.80206177562893" lon="10.282949401898112"><ele>58.0</ele><time>2026-05-04T06:28:00Z</time></trkpt><trkpt lat="44.8022796538596" lon="10.283042716777851"><ele>58.5</ele><time>2026-05-04T06:28:01Z</time></trkpt><trkpt lat="44.802500540852144" lon="10.283135974887845"><ele>59.0</ele><time>2026-05-04T06:28:02Z</time></trkpt><trkpt lat="44.80272111825127" lon="10.283229137254478"><ele>59.0</ele><time>2026-05-04T06:28:03Z</time></trkpt><trkpt lat="44.80294394180168" lon="10.283326526782117"><ele>59.0</ele><time>2026-05-04T06:28:04Z</time></trkpt><trkpt lat="44.80316714991255" lon="10.283423528485534"><ele>59.0</ele><time>2026-05-04T06:28:05Z</time></trkpt><trkpt lat="44.80339016814554" lon="10.283521920957755"><ele>59.0</ele><time>2026-05-04T06:28:06Z</time></trkpt><trkpt lat="44.80361389611831" lon="10.283618102323167"><ele>59.0</ele><time>2026-05-04T06:28:07Z</time></trkpt><trkpt lat="44.80383633331422" lon="10.283707644683394"><ele>59.0</ele><time>2026-05-04T06:28:08Z</time></trkpt><trkpt lat="44.80405780375736" lon="10.28378568152635"><ele>59.0</ele><time>2026-05-04T06:28:09Z</time></trkpt><trkpt lat="44.804282675075015" lon="10.283848522225922"><ele>59.0</ele><time>2026-05-04T06:28:10Z</time></trkpt><trkpt lat="44.80450784617998" lon="10.283893764501133"><ele>57.333333333333336</ele><time>2026-05-04T06:28:11Z</time></trkpt><trkpt lat="44.804732689953184" lon="10.283916227731815"><ele>55.66666666666667</ele><time>2026-05-04T06:28:12Z</time></trkpt><trkpt lat="44.804956648313464" lon="10.283918479558968"><ele>54.0</ele><time>2026-05-04T06:28:13Z</time></trkpt><trkpt lat="44.80517810939418" lon="10.283903073591892"><ele>54.0</ele><time>2026-05-04T06:28:14Z</time></trkpt><trkpt lat="44.805393453732314" lon="10.283870551874392"><ele>54.0</ele><time>2026-05-04T06:28:15Z</time></trkpt><trkpt lat="44.805603390355564" lon="10.283820818215155"><ele>54.0</ele><time>2026-05-04T06:28:16Z</time></trkpt><trkpt lat="44.80580412470875" lon="10.283758671040095"><ele>53.66666666666667</ele><time>2026-05-04T06:28:17Z</time></trkpt><trkpt lat="44.806001462920506" lon="10.283681002668905"><ele>53.333333333333336</ele><time>2026-05-04T06:28:18Z</time></trkpt><trkpt lat="44.806197383242534" lon="10.283594656462489"><ele>53.0</ele><time>2026-05-04T06:28:19Z</time></trkpt><trkpt lat="44.80639986968669" lon="10.283519324320716"><ele>53.0</ele><time>2026-05-04T06:28:20Z</time></trkpt><trkpt lat="44.80660471195045" lon="10.283452988788236"><ele>53.0</ele><time>2026-05-04T06:28:21Z</time></trkpt><trkpt lat="44.80681314296103" lon="10.283399261938007"><ele>53.0</ele><time>2026-05-04T06:28:22Z</time></trkpt><trkpt lat="44.807028651771304" lon="10.283363773854163"><ele>53.66666666666667</ele><time>2026-05-04T06:28:23Z</time></trkpt><trkpt lat="44.80724861310972" lon="10.283349987223634"><ele>54.33333333333333</ele><time>2026-05-04T06:28:24Z</time></trkpt><trkpt lat="44.807474061893764" lon="10.28335434876516"><ele>55.0</ele><time>2026-05-04T06:28:25Z</time></trkpt><trkpt lat="44.80771205953376" lon="10.283375176646041"><ele>55.0</ele><time>2026-05-04T06:28:26Z</time></trkpt><trkpt lat="44.80795930820617" lon="10.283410895436182"><ele>55.0</ele><time>2026-05-04T06:28:27Z</time></trkpt><trkpt lat="44.80821964945061" lon="10.2834626547261"><ele>55.0</ele><time>2026-05-04T06:28:28Z</time></trkpt><trkpt lat="44.80848436430129" lon="10.283530588409196"><ele>55.0</ele><time>2026-05-04T06:28:29Z</time></trkpt><trkpt lat="44.80876036914751" lon="10.283617826898725"><ele>55.0</ele><time>2026-05-04T06:28:30Z</time></trkpt><trkpt lat="44.80903192716066" lon="10.283716401934877"><ele>55.0</ele><time>2026-05-04T06:28:31Z</time></trkpt><trkpt lat="44.80929968136393" lon="10.283815052407663"><ele>55.0</ele><time>2026-05-04T06:28:32Z</time></trkpt><trkpt lat="44.809569173140986" lon="10.283915253733328"><ele>55.0</ele><time>2026-05-04T06:28:33Z</time></trkpt><trkpt lat="44.809825184813064" lon="10.284117481220585"><ele>55.0</ele><time>2026-05-04T06:28:34Z</time></trkpt><trkpt lat="44.810115986630976" lon="10.284125815150965"><ele>55.0</ele><time>2026-05-04T06:28:35Z</time></trkpt><trkpt lat="44.81038967268071" lon="10.28423305675994"><ele>54.0</ele><time>2026-05-04T06:28:36Z</time></trkpt><trkpt lat="44.810661928904125" lon="10.284335858806774"><ele>53.0</ele><time>2026-05-04T06:28:37Z</time></trkpt><trkpt lat="44.81092902842741" lon="10.284436080366014"><ele>52.5</ele><time>2026-05-04T06:28:38Z</time></trkpt><trkpt lat="44.811188804712096" lon="10.284532909771332"><ele>52.0</ele><time>2026-05-04T06:28:39Z</time></trkpt><trkpt lat="44.81144019851175" lon="10.284633601690071"><ele>52.0</ele><time>2026-05-04T06:28:40Z</time></trkpt><trkpt lat="44.81168479239487" lon="10.284728756625896"><ele>52.0</ele><time>2026-05-04T06:28:41Z</time></trkpt><trkpt lat="44.81192726585722" lon="10.284825000944636"><ele>51.5</ele><time>2026-05-04T06:28:42Z</time></trkpt><trkpt lat="44.812168556252836" lon="10.284917569116034"><ele>51.0</ele><time>2026-05-04T06:28:43Z</time></trkpt><trkpt lat="44.81240453141593" lon="10.285002352475002"><ele>51.0</ele><time>2026-05-04T06:28:44Z</time></trkpt><trkpt lat="44.81262733160258" lon="10.285072345563824"><ele>51.0</ele><time>2026-05-04T06:28:45Z</time></trkpt><trkpt lat="44.81284842714953" lon="10.285126746553997"><ele>51.0</ele><time>2026-05-04T06:28:46Z</time></trkpt><trkpt lat="44.813072162241276" lon="10.285160743732787"><ele>51.0</ele><time>2026-05-04T06:28:47Z</time></trkpt><trkpt lat="44.81329460473639" lon="10.285171079401092"><ele>51.0</ele><time>2026-05-04T06:28:48Z</time></trkpt><trkpt lat="44.81351753951416" lon="10.285158404659061"><ele>49.666666666666664</ele><time>2026-05-04T06:28:49Z</time></trkpt><trkpt lat="44.81373733867478" lon="10.285120635646633"><ele>48.33333333333333</ele><time>2026-05-04T06:28:50Z</time></trkpt><trkpt lat="44.813953902821005" lon="10.285052145827459"><ele>47.0</ele><time>2026-05-04T06:28:51Z</time></trkpt><trkpt lat="44.81416774120542" lon="10.284964950542427"><ele>47.33333333333333</ele><time>2026-05-04T06:28:52Z</time></trkpt><trkpt lat="44.814381079483674" lon="10.284867395935805"><ele>47.666666666666664</ele><time>2026-05-04T06:28:53Z</time></trkpt><trkpt lat="44.81458938647673" lon="10.284772182660316"><ele>48.0</ele><time>2026-05-04T06:28:54Z</time></trkpt><trkpt lat="44.814784294857326" lon="10.284682624701992"><ele>47.666666666666664</ele><time>2026-05-04T06:28:55Z</time></trkpt><trkpt lat="44.81497707486686" lon="10.284597662790397"><ele>47.33333333333333</ele><time>2026-05-04T06:28:56Z</time></trkpt><trkpt lat="44.815161088989626" lon="10.284536134998552"><ele>47.0</ele><time>2026-05-04T06:28:57Z</time></trkpt><trkpt lat="44.81532716095835" lon="10.284502553550482"><ele>47.0</ele><time>2026-05-04T06:28:58Z</time></trkpt><trkpt lat="44.815483659989766" lon="10.284492784785472"><ele>47.0</ele><time>2026-05-04T06:28:59Z</time></trkpt><trkpt lat="44.81563575574027" lon="10.284500085133057"><ele>47.0</ele><time>2026-05-04T06:29:00Z</time></trkpt><trkpt lat="44.815781494745615" lon="10.28452875621297"><ele>47.0</ele><time>2026-05-04T06:29:01Z</time></trkpt><trkpt lat="44.81592356539331" lon="10.284568131135856"><ele>47.0</ele><time>2026-05-04T06:29:02Z</time></trkpt><trkpt lat="44.81606098383312" lon="10.284619803443084"><ele>47.0</ele><time>2026-05-04T06:29:03Z</time></trkpt><trkpt lat="44.81619313771328" lon="10.284681068026103"><ele>47.0</ele><time>2026-05-04T06:29:04Z</time></trkpt><trkpt lat="44.816325460265524" lon="10.284746123022996"><ele>47.25</ele><time>2026-05-04T06:29:05Z</time></trkpt><trkpt lat="44.8164563610354" lon="10.28481300074282"><ele>47.5</ele><time>2026-05-04T06:29:06Z</time></trkpt><trkpt lat="44.81658370784568" lon="10.284877889360923"><ele>47.75</ele><time>2026-05-04T06:29:07Z</time></trkpt><trkpt lat="44.81670970807703" lon="10.284939359339198"><ele>48.0</ele><time>2026-05-04T06:29:08Z</time></trkpt><trkpt lat="44.81682447047705" lon="10.284996553267625"><ele>48.599999999999994</ele><time>2026-05-04T06:29:09Z</time></trkpt><trkpt lat="44.81693696080903" lon="10.285025100365717"><ele>49.199999999999996</ele><time>2026-05-04T06:29:10Z</time></trkpt><trkpt lat="44.817047738856054" lon="10.285020973983457"><ele>49.8</ele><time>2026-05-04T06:29:11Z</time></trkpt><trkpt lat="44.81715122348691" lon="10.28498125306595"><ele>50.4</ele><time>2026-05-04T06:29:12Z</time></trkpt><trkpt lat="44.8172457014408" lon="10.284901645225888"><ele>51.0</ele><time>2026-05-04T06:29:13Z</time></trkpt><trkpt lat="44.81732285950418" lon="10.284789279328088"><ele>51.199999999999996</ele><time>2026-05-04T06:29:14Z</time></trkpt><trkpt lat="44.81737544072923" lon="10.284649605934696"><ele>51.4</ele><time>2026-05-04T06:29:15Z</time></trkpt><trkpt lat="44.817400577958715" lon="10.284497325936677"><ele>51.6</ele><time>2026-05-04T06:29:16Z</time></trkpt><trkpt lat="44.81740229585071" lon="10.284352160006522"><ele>51.8</ele><time>2026-05-04T06:29:17Z</time></trkpt><trkpt lat="44.81738270810976" lon="10.28420962421255"><ele>52.0</ele><time>2026-05-04T06:29:18Z</time></trkpt><trkpt lat="44.817338140248744" lon="10.284073006585354"><ele>52.0</ele><time>2026-05-04T06:29:19Z</time></trkpt><trkpt lat="44.81728022479029" lon="10.283955143260375"><ele>52.0</ele><time>2026-05-04T06:29:20Z</time></trkpt><trkpt lat="44.817204355957436" lon="10.283861740960663"><ele>52.0</ele><time>2026-05-04T06:29:21Z</time></trkpt><trkpt lat="44.81711469534827" lon="10.28379440112747"><ele>52.0</ele><time>2026-05-04T06:29:22Z</time></trkpt><trkpt lat="44.81701985311072" lon="10.28375170276551"><ele>52.0</ele><time>2026-05-04T06:29:23Z</time></trkpt><trkpt lat="44.81692206673457" lon="10.283703961993178"><ele>52.0</ele><time>2026-05-04T06:29:24Z</time></trkpt><trkpt lat="44.81683052129814" lon="10.283625253057906"><ele>52.0</ele><time>2026-05-04T06:29:25Z</time></trkpt><trkpt lat="44.81675954764604" lon="10.283527703901981"><ele>52.0</ele><time>2026-05-04T06:29:26Z</time></trkpt><trkpt lat="44.81670602487636" lon="10.283412409070017"><ele>52.0</ele><time>2026-05-04T06:29:27Z</time></trkpt><trkpt lat="44.81666962677578" lon="10.283274665707168"><ele>52.0</ele><time>2026-05-04T06:29:28Z</time></trkpt><trkpt lat="44.816655048264536" lon="10.283123862073396"><ele>52.0</ele><time>2026-05-04T06:29:29Z</time></trkpt><trkpt lat="44.81665337658608" lon="10.28296125787102"><ele>52.0</ele><time>2026-05-04T06:29:30Z</time></trkpt><trkpt lat="44.816644077562636" lon="10.28278490276231"><ele>52.0</ele><time>2026-05-04T06:29:31Z</time></trkpt><trkpt lat="44.81663738573986" lon="10.282616099780585"><ele>52.0</ele><time>2026-05-04T06:29:32Z</time></trkpt><trkpt lat="44.8166308789088" lon="10.282451724656811"><ele>52.0</ele><time>2026-05-04T06:29:33Z</time></trkpt><trkpt lat="44.81661825438619" lon="10.282287488097127"><ele>52.0</ele><time>2026-05-04T06:29:34Z</time></trkpt><trkpt lat="44.8166008507569" lon="10.282124496564654"><ele>52.0</ele><time>2026-05-04T06:29:35Z</time></trkpt><trkpt lat="44.816580905254206" lon="10.281958384115322"><ele>52.0</ele><time>2026-05-04T06:29:36Z</time></trkpt><trkpt lat="44.81655830989421" lon="10.281785541973246"><ele>52.0</ele><time>2026-05-04T06:29:37Z</time></trkpt><trkpt lat="44.8165352028333" lon="10.281607444456442"><ele>52.0</ele><time>2026-05-04T06:29:38Z</time></trkpt><trkpt lat="44.81650549733983" lon="10.281400780139455"><ele>52.0</ele><time>2026-05-04T06:29:39Z</time></trkpt><trkpt lat="44.81647400425681" lon="10.281164634013708"><ele>52.0</ele><time>2026-05-04T06:29:40Z</time></trkpt><trkpt lat="44.81644074725543" lon="10.280904678374752"><ele>52.0</ele><time>2026-05-04T06:29:41Z</time></trkpt><trkpt lat="44.81641172924209" lon="10.280620555020626"><ele>52.0</ele><time>2026-05-04T06:29:42Z</time></trkpt><trkpt lat="44.816386129111436" lon="10.280315173109985"><ele>52.0</ele><time>2026-05-04T06:29:43Z</time></trkpt><trkpt lat="44.81636497240614" lon="10.279995560859044"><ele>51.5</ele><time>2026-05-04T06:29:44Z</time></trkpt><trkpt lat="44.81635739324892" lon="10.279661807037865"><ele>51.0</ele><time>2026-05-04T06:29:45Z</time></trkpt><trkpt lat="44.816361297817366" lon="10.279323127186723"><ele>51.0</ele><time>2026-05-04T06:29:46Z</time></trkpt><trkpt lat="44.81637592967048" lon="10.278982509852455"><ele>51.0</ele><time>2026-05-04T06:29:47Z</time></trkpt><trkpt lat="44.81639963116007" lon="10.278642366877028"><ele>51.5</ele><time>2026-05-04T06:29:48Z</time></trkpt><trkpt lat="44.816428902062945" lon="10.278301683907141"><ele>52.0</ele><time>2026-05-04T06:29:49Z</time></trkpt><trkpt lat="44.816459261861404" lon="10.277970398890185"><ele>52.0</ele><time>2026-05-04T06:29:50Z</time></trkpt><trkpt lat="44.816489050066124" lon="10.277642390316105"><ele>52.0</ele><time>2026-05-04T06:29:51Z</time></trkpt><trkpt lat="44.81651998765992" lon="10.277316294047967"><ele>51.0</ele><time>2026-05-04T06:29:52Z</time></trkpt><trkpt lat="44.81654953147127" lon="10.276991416001826"><ele>50.0</ele><time>2026-05-04T06:29:53Z</time></trkpt><trkpt lat="44.816575447199206" lon="10.276667397944603"><ele>51.0</ele><time>2026-05-04T06:29:54Z</time></trkpt><trkpt lat="44.816607223119576" lon="10.276343595315785"><ele>52.0</ele><time>2026-05-04T06:29:55Z</time></trkpt><trkpt lat="44.81663707374101" lon="10.276010450788116"><ele>52.0</ele><time>2026-05-04T06:29:56Z</time></trkpt><trkpt lat="44.81666586852522" lon="10.275668654931087"><ele>52.0</ele><time>2026-05-04T06:29:57Z</time></trkpt><trkpt lat="44.81669942265453" lon="10.275327709217224"><ele>51.5</ele><time>2026-05-04T06:29:58Z</time></trkpt><trkpt lat="44.81673040002935" lon="10.274980020468826"><ele>51.0</ele><time>2026-05-04T06:29:59Z</time></trkpt><trkpt lat="44.81676176433885" lon="10.274627164994177"><ele>51.0</ele><time>2026-05-04T06:30:00Z</time></trkpt><trkpt lat="44.81679149999103" lon="10.274260828589348"><ele>51.0</ele><time>2026-05-04T06:30:01Z</time></trkpt><trkpt lat="44.81682499717732" lon="10.27389356379774"><ele>51.0</ele><time>2026-05-04T06:30:02Z</time></trkpt><trkpt lat="44.816857289017705" lon="10.273515783784976"><ele>51.0</ele><time>2026-05-04T06:30:03Z</time></trkpt><trkpt lat="44.816890280295866" lon="10.27314202676864"><ele>51.5</ele><time>2026-05-04T06:30:04Z</time></trkpt><trkpt lat="44.816924820075194" lon="10.272761242876058"><ele>52.0</ele><time>2026-05-04T06:30:05Z</time></trkpt><trkpt lat="44.81695784935742" lon="10.27237573811363"><ele>52.5</ele><time>2026-05-04T06:30:06Z</time></trkpt><trkpt lat="44.816992364012" lon="10.271991386895053"><ele>53.0</ele><time>2026-05-04T06:30:07Z</time></trkpt><trkpt lat="44.81702996326491" lon="10.271605440921318"><ele>53.0</ele><time>2026-05-04T06:30:08Z</time></trkpt><trkpt lat="44.817068514028044" lon="10.271221751011021"><ele>53.0</ele><time>2026-05-04T06:30:09Z</time></trkpt><trkpt lat="44.81710300292245" lon="10.270835985053237"><ele>53.5</ele><time>2026-05-04T06:30:10Z</time></trkpt><trkpt lat="44.81714114573434" lon="10.270450017894374"><ele>54.0</ele><time>2026-05-04T06:30:11Z</time></trkpt><trkpt lat="44.81718610066318" lon="10.270059975319159"><ele>53.5</ele><time>2026-05-04T06:30:12Z</time></trkpt><trkpt lat="44.8172324285306" lon="10.269666299215004"><ele>53.0</ele><time>2026-05-04T06:30:13Z</time></trkpt><trkpt lat="44.817271302335996" lon="10.269267149852476"><ele>52.5</ele><time>2026-05-04T06:30:14Z</time></trkpt><trkpt lat="44.8173118748971" lon="10.26886705584565"><ele>52.0</ele><time>2026-05-04T06:30:15Z</time></trkpt><trkpt lat="44.81734859503433" lon="10.268461110846477"><ele>52.5</ele><time>2026-05-04T06:30:16Z</time></trkpt><trkpt lat="44.81738530968522" lon="10.26805320249698"><ele>53.0</ele><time>2026-05-04T06:30:17Z</time></trkpt><trkpt lat="44.817421110634044" lon="10.267638108022402"><ele>51.0</ele><time>2026-05-04T06:30:18Z</time></trkpt><trkpt lat="44.81745592480879" lon="10.267217839343736"><ele>49.0</ele><time>2026-05-04T06:30:19Z</time></trkpt><trkpt lat="44.817491478254446" lon="10.266794073796538"><ele>49.5</ele><time>2026-05-04T06:30:20Z</time></trkpt><trkpt lat="44.81752922990194" lon="10.266369164395"><ele>50.0</ele><time>2026-05-04T06:30:21Z</time></trkpt><trkpt lat="44.817565506442456" lon="10.265939310249884"><ele>51.0</ele><time>2026-05-04T06:30:22Z</time></trkpt><trkpt lat="44.81760512691984" lon="10.265508352312937"><ele>52.0</ele><time>2026-05-04T06:30:23Z</time></trkpt><trkpt lat="44.817641483283055" lon="10.265076917643052"><ele>50.5</ele><time>2026-05-04T06:30:24Z</time></trkpt><trkpt lat="44.817677860017575" lon="10.264651994610336"><ele>49.0</ele><time>2026-05-04T06:30:25Z</time></trkpt><trkpt lat="44.81772357734237" lon="10.26423239259614"><ele>50.5</ele><time>2026-05-04T06:30:26Z</time></trkpt><trkpt lat="44.817783748180005" lon="10.26382132737075"><ele>52.0</ele><time>2026-05-04T06:30:27Z</time></trkpt><trkpt lat="44.81786187831942" lon="10.263421425735519"><ele>52.5</ele><time>2026-05-04T06:30:28Z</time></trkpt><trkpt lat="44.81795605119321" lon="10.26303415777262"><ele>53.0</ele><time>2026-05-04T06:30:29Z</time></trkpt><trkpt lat="44.81806391485831" lon="10.26265785790426"><ele>53.0</ele><time>2026-05-04T06:30:30Z</time></trkpt><trkpt lat="44.81818036756725" lon="10.262290558738256"><ele>53.0</ele><time>2026-05-04T06:30:31Z</time></trkpt><trkpt lat="44.81830745469442" lon="10.261936134596011"><ele>53.0</ele><time>2026-05-04T06:30:32Z</time></trkpt><trkpt lat="44.81844655791947" lon="10.261595979038349"><ele>53.0</ele><time>2026-05-04T06:30:33Z</time></trkpt><trkpt lat="44.81859098621991" lon="10.261267890354446"><ele>53.0</ele><time>2026-05-04T06:30:34Z</time></trkpt><trkpt lat="44.81873612634276" lon="10.26094748111577"><ele>53.0</ele><time>2026-05-04T06:30:35Z</time></trkpt><trkpt lat="44.81887078005075" lon="10.260653617510176"><ele>53.0</ele><time>2026-05-04T06:30:36Z</time></trkpt><trkpt lat="44.81899471400938" lon="10.26038797865113"><ele>53.0</ele><time>2026-05-04T06:30:37Z</time></trkpt><trkpt lat="44.81911567470196" lon="10.260136101709376"><ele>53.0</ele><time>2026-05-04T06:30:38Z</time></trkpt><trkpt lat="44.81923102447023" lon="10.259889236727158"><ele>52.0</ele><time>2026-05-04T06:30:39Z</time></trkpt><trkpt lat="44.81933829147313" lon="10.259644824687157"><ele>51.0</ele><time>2026-05-04T06:30:40Z</time></trkpt><trkpt lat="44.81943963668637" lon="10.259413715949652"><ele>50.0</ele><time>2026-05-04T06:30:41Z</time></trkpt><trkpt lat="44.81953178214469" lon="10.259190100036815"><ele>50.0</ele><time>2026-05-04T06:30:42Z</time></trkpt><trkpt lat="44.81961710349083" lon="10.258961297165348"><ele>50.0</ele><time>2026-05-04T06:30:43Z</time></trkpt><trkpt lat="44.819690083202524" lon="10.25873277792295"><ele>50.0</ele><time>2026-05-04T06:30:44Z</time></trkpt><trkpt lat="44.81974756781479" lon="10.258493723534972"><ele>50.333333333333336</ele><time>2026-05-04T06:30:45Z</time></trkpt><trkpt lat="44.81978488463192" lon="10.258249151212764"><ele>50.66666666666667</ele><time>2026-05-04T06:30:46Z</time></trkpt><trkpt lat="44.81980908890283" lon="10.258001897420963"><ele>51.0</ele><time>2026-05-04T06:30:47Z</time></trkpt><trkpt lat="44.81981893134782" lon="10.257755457396929"><ele>51.33333333333333</ele><time>2026-05-04T06:30:48Z</time></trkpt><trkpt lat="44.81981584050086" lon="10.25751117537602"><ele>51.666666666666664</ele><time>2026-05-04T06:30:49Z</time></trkpt><trkpt lat="44.81979448253941" lon="10.257265757939276"><ele>52.0</ele><time>2026-05-04T06:30:50Z</time></trkpt><trkpt lat="44.81976211831996" lon="10.257025834089397"><ele>52.666666666666664</ele><time>2026-05-04T06:30:51Z</time></trkpt><trkpt lat="44.819724504897565" lon="10.256786721226604"><ele>53.33333333333333</ele><time>2026-05-04T06:30:52Z</time></trkpt><trkpt lat="44.819683351464604" lon="10.256550498326053"><ele>54.0</ele><time>2026-05-04T06:30:53Z</time></trkpt><trkpt lat="44.81964414219591" lon="10.256309247525188"><ele>54.0</ele><time>2026-05-04T06:30:54Z</time></trkpt><trkpt lat="44.81960551997135" lon="10.256063265793975"><ele>54.0</ele><time>2026-05-04T06:30:55Z</time></trkpt><trkpt lat="44.819571938204035" lon="10.255815599794936"><ele>54.0</ele><time>2026-05-04T06:30:56Z</time></trkpt><trkpt lat="44.81955129194176" lon="10.255568752812419"><ele>53.33333333333333</ele><time>2026-05-04T06:30:57Z</time></trkpt><trkpt lat="44.819543071488646" lon="10.255315928122629"><ele>52.666666666666664</ele><time>2026-05-04T06:30:58Z</time></trkpt><trkpt lat="44.81955173891175" lon="10.255061656686197"><ele>52.0</ele><time>2026-05-04T06:30:59Z</time></trkpt><trkpt lat="44.81958457508009" lon="10.254814147709645"><ele>52.666666666666664</ele><time>2026-05-04T06:31:00Z</time></trkpt><trkpt lat="44.81963641385852" lon="10.254573015965857"><ele>53.33333333333333</ele><time>2026-05-04T06:31:01Z</time></trkpt><trkpt lat="44.81970272142675" lon="10.254342321739989"><ele>54.0</ele><time>2026-05-04T06:31:02Z</time></trkpt><trkpt lat="44.819782398392114" lon="10.25413126918684"><ele>53.33333333333333</ele><time>2026-05-04T06:31:03Z</time></trkpt><trkpt lat="44.819864762704185" lon="10.253936363427588"><ele>52.666666666666664</ele><time>2026-05-04T06:31:04Z</time></trkpt><trkpt lat="44.81995846618293" lon="10.253755968302812"><ele>52.0</ele><time>2026-05-04T06:31:05Z</time></trkpt><trkpt lat="44.82006237826355" lon="10.253596382478944"><ele>52.0</ele><time>2026-05-04T06:31:06Z</time></trkpt><trkpt lat="44.82017257390183" lon="10.253449206860234"><ele>52.0</ele><time>2026-05-04T06:31:07Z</time></trkpt><trkpt lat="44.82029059553598" lon="10.253316124111103"><ele>52.0</ele><time>2026-05-04T06:31:08Z</time></trkpt><trkpt lat="44.82041408291283" lon="10.253197019191443"><ele>52.0</ele><time>2026-05-04T06:31:09Z</time></trkpt><trkpt lat="44.8205230570194" lon="10.253105149177498"><ele>52.0</ele><time>2026-05-04T06:31:10Z</time></trkpt><trkpt lat="44.82061354311826" lon="10.25303970969442"><ele>52.0</ele><time>2026-05-04T06:31:11Z</time></trkpt><trkpt lat="44.82069501211837" lon="10.252986194186263"><ele>52.0</ele><time>2026-05-04T06:31:12Z</time></trkpt><trkpt lat="44.820761505276515" lon="10.25293467139985"><ele>52.0</ele><time>2026-05-04T06:31:13Z</time></trkpt><trkpt lat="44.82085343767021" lon="10.25285067247219"><ele>52.0</ele><time>2026-05-04T06:31:15Z</time></trkpt><trkpt lat="44.82093838154563" lon="10.252768275568037"><ele>52.0</ele><time>2026-05-04T06:31:17Z</time></trkpt><trkpt lat="44.82100465177034" lon="10.252718878130453"><ele>52.0</ele><time>2026-05-04T06:31:19Z</time></trkpt><trkpt lat="44.82111339849109" lon="10.252673483399503"><ele>52.0</ele><time>2026-05-04T06:31:21Z</time></trkpt><trkpt lat="44.82119273284214" lon="10.252670460797374"><ele>52.0</ele><time>2026-05-04T06:31:22Z</time></trkpt><trkpt lat="44.82128435039926" lon="10.252668207936201"><ele>52.2</ele><time>2026-05-04T06:31:23Z</time></trkpt><trkpt lat="44.8213744924945" lon="10.252631272193575"><ele>52.400000000000006</ele><time>2026-05-04T06:31:23.999Z</time></trkpt><trkpt lat="44.82146087122719" lon="10.252561911434546"><ele>52.599999999999994</ele><time>2026-05-04T06:31:24.999Z</time></trkpt><trkpt lat="44.821530914141896" lon="10.252464475321563"><ele>52.8</ele><time>2026-05-04T06:31:25.999Z</time></trkpt><trkpt lat="44.821603615522086" lon="10.252365486047244"><ele>53.0</ele><time>2026-05-04T06:31:26.999Z</time></trkpt><trkpt lat="44.821689514494416" lon="10.252285327157605"><ele>53.0</ele><time>2026-05-04T06:31:27.999Z</time></trkpt><trkpt lat="44.82178764832805" lon="10.252228674703677"><ele>53.0</ele><time>2026-05-04T06:31:28.999Z</time></trkpt><trkpt lat="44.82189426598008" lon="10.252188389448836"><ele>53.0</ele><time>2026-05-04T06:31:29.999Z</time></trkpt><trkpt lat="44.822009525344235" lon="10.252159268417845"><ele>53.0</ele><time>2026-05-04T06:31:30.999Z</time></trkpt><trkpt lat="44.822133573326816" lon="10.252149225145795"><ele>53.25</ele><time>2026-05-04T06:31:31.999Z</time></trkpt><trkpt lat="44.82226245524602" lon="10.252151960744698"><ele>53.5</ele><time>2026-05-04T06:31:33Z</time></trkpt><trkpt lat="44.82239838015098" lon="10.25215953321846"><ele>53.75</ele><time>2026-05-04T06:31:34Z</time></trkpt><trkpt lat="44.82254091311283" lon="10.252169863001136"><ele>54.0</ele><time>2026-05-04T06:31:35Z</time></trkpt><trkpt lat="44.822690111380055" lon="10.252184780679125"><ele>53.0</ele><time>2026-05-04T06:31:36Z</time></trkpt><trkpt lat="44.822845482675824" lon="10.252208419280027"><ele>52.0</ele><time>2026-05-04T06:31:37Z</time></trkpt><trkpt lat="44.82300593764919" lon="10.25224162816591"><ele>51.0</ele><time>2026-05-04T06:31:38Z</time></trkpt><trkpt lat="44.82316914778573" lon="10.252282781360497"><ele>51.0</ele><time>2026-05-04T06:31:39Z</time></trkpt><trkpt lat="44.82333546701767" lon="10.252332321232059"><ele>51.0</ele><time>2026-05-04T06:31:40Z</time></trkpt><trkpt lat="44.82350500165114" lon="10.25239384129593"><ele>51.0</ele><time>2026-05-04T06:31:41Z</time></trkpt><trkpt lat="44.8236754054418" lon="10.252466253018135"><ele>51.0</ele><time>2026-05-04T06:31:42Z</time></trkpt><trkpt lat="44.82384412350279" lon="10.252547599723414"><ele>51.0</ele><time>2026-05-04T06:31:43Z</time></trkpt><trkpt lat="44.82401081915883" lon="10.252634390917551"><ele>51.0</ele><time>2026-05-04T06:31:44Z</time></trkpt><trkpt lat="44.82417257405425" lon="10.252727787761783"><ele>51.0</ele><time>2026-05-04T06:31:45Z</time></trkpt><trkpt lat="44.82433280742997" lon="10.252830120709303"><ele>51.0</ele><time>2026-05-04T06:31:46Z</time></trkpt><trkpt lat="44.82448846717855" lon="10.25293905044017"><ele>51.0</ele><time>2026-05-04T06:31:47Z</time></trkpt><trkpt lat="44.82463964425651" lon="10.253055698751687"><ele>51.33333333333333</ele><time>2026-05-04T06:31:48Z</time></trkpt><trkpt lat="44.8247877343543" lon="10.253176519840183"><ele>51.666666666666664</ele><time>2026-05-04T06:31:49Z</time></trkpt><trkpt lat="44.82493522015322" lon="10.253299976265753"><ele>52.0</ele><time>2026-05-04T06:31:50Z</time></trkpt><trkpt lat="44.82508649284277" lon="10.253425423208958"><ele>51.0</ele><time>2026-05-04T06:31:51Z</time></trkpt><trkpt lat="44.825245611253784" lon="10.253537754798952"><ele>50.0</ele><time>2026-05-04T06:31:52Z</time></trkpt><trkpt lat="44.82540859149233" lon="10.253636075702717"><ele>49.0</ele><time>2026-05-04T06:31:53Z</time></trkpt><trkpt lat="44.82557792205823" lon="10.253723995111272"><ele>49.0</ele><time>2026-05-04T06:31:54Z</time></trkpt><trkpt lat="44.82575298644818" lon="10.253802136451004"><ele>49.0</ele><time>2026-05-04T06:31:55Z</time></trkpt><trkpt lat="44.825935762064056" lon="10.253868358161943"><ele>49.0</ele><time>2026-05-04T06:31:56Z</time></trkpt><trkpt lat="44.82612306635909" lon="10.2539227572481"><ele>50.0</ele><time>2026-05-04T06:31:57Z</time></trkpt><trkpt lat="44.82631467760518" lon="10.253964579986652"><ele>51.0</ele><time>2026-05-04T06:31:58Z</time></trkpt><trkpt lat="44.826511254968345" lon="10.253994454538816"><ele>52.0</ele><time>2026-05-04T06:31:59Z</time></trkpt><trkpt lat="44.826711215502606" lon="10.25401315320247"><ele>51.33333333333333</ele><time>2026-05-04T06:32:00Z</time></trkpt><trkpt lat="44.82691408912637" lon="10.25400711951328"><ele>50.66666666666667</ele><time>2026-05-04T06:32:01Z</time></trkpt><trkpt lat="44.827118513568806" lon="10.253982827452498"><ele>50.0</ele><time>2026-05-04T06:32:02Z</time></trkpt><trkpt lat="44.82731829210974" lon="10.253942754418986"><ele>50.0</ele><time>2026-05-04T06:32:03Z</time></trkpt><trkpt lat="44.82751857960136" lon="10.253890447165748"><ele>50.0</ele><time>2026-05-04T06:32:04Z</time></trkpt><trkpt lat="44.82771611086636" lon="10.253823766798215"><ele>50.0</ele><time>2026-05-04T06:32:05Z</time></trkpt><trkpt lat="44.8279104453213" lon="10.253740799489764"><ele>51.0</ele><time>2026-05-04T06:32:06Z</time></trkpt><trkpt lat="44.82810068100607" lon="10.253642695489551"><ele>52.0</ele><time>2026-05-04T06:32:07Z</time></trkpt><trkpt lat="44.82828278509171" lon="10.25353095429468"><ele>53.0</ele><time>2026-05-04T06:32:08Z</time></trkpt><trkpt lat="44.828457917931026" lon="10.25340589119657"><ele>52.0</ele><time>2026-05-04T06:32:09Z</time></trkpt><trkpt lat="44.82862312598923" lon="10.253267662133938"><ele>51.0</ele><time>2026-05-04T06:32:10Z</time></trkpt><trkpt lat="44.82878498170571" lon="10.253116541659983"><ele>50.0</ele><time>2026-05-04T06:32:11Z</time></trkpt><trkpt lat="44.828941284343735" lon="10.252954758188976"><ele>50.0</ele><time>2026-05-04T06:32:12Z</time></trkpt><trkpt lat="44.829093659875305" lon="10.252786795490957"><ele>50.0</ele><time>2026-05-04T06:32:13Z</time></trkpt><trkpt lat="44.829238498213925" lon="10.252606322882821"><ele>50.0</ele><time>2026-05-04T06:32:14Z</time></trkpt><trkpt lat="44.8293765096033" lon="10.252417531812378"><ele>50.333333333333336</ele><time>2026-05-04T06:32:15Z</time></trkpt><trkpt lat="44.829505538084085" lon="10.252216249174516"><ele>50.66666666666667</ele><time>2026-05-04T06:32:16Z</time></trkpt><trkpt lat="44.829626268355085" lon="10.252010340614673"><ele>51.0</ele><time>2026-05-04T06:32:17Z</time></trkpt><trkpt lat="44.829739579401384" lon="10.251796290981247"><ele>51.0</ele><time>2026-05-04T06:32:18Z</time></trkpt><trkpt lat="44.82983913155351" lon="10.251575850688157"><ele>51.0</ele><time>2026-05-04T06:32:19Z</time></trkpt><trkpt lat="44.82992937795696" lon="10.251352698426139"><ele>51.0</ele><time>2026-05-04T06:32:20Z</time></trkpt><trkpt lat="44.830014043358126" lon="10.25112622488334"><ele>51.0</ele><time>2026-05-04T06:32:21Z</time></trkpt><trkpt lat="44.83009658738569" lon="10.250900544619471"><ele>51.0</ele><time>2026-05-04T06:32:22Z</time></trkpt><trkpt lat="44.83017693975985" lon="10.250673765298671"><ele>51.0</ele><time>2026-05-04T06:32:23Z</time></trkpt><trkpt lat="44.83025354249859" lon="10.250446743812837"><ele>51.33333333333333</ele><time>2026-05-04T06:32:24Z</time></trkpt><trkpt lat="44.83032170859759" lon="10.25022007318177"><ele>51.666666666666664</ele><time>2026-05-04T06:32:25Z</time></trkpt><trkpt lat="44.830384373674036" lon="10.250006250371264"><ele>52.0</ele><time>2026-05-04T06:32:26Z</time></trkpt><trkpt lat="44.83043609498353" lon="10.249813499152772"><ele>51.8</ele><time>2026-05-04T06:32:27Z</time></trkpt><trkpt lat="44.83047500114833" lon="10.249659125450775"><ele>51.6</ele><time>2026-05-04T06:32:28Z</time></trkpt><trkpt lat="44.830505443902325" lon="10.249536387263593"><ele>51.4</ele><time>2026-05-04T06:32:29Z</time></trkpt><trkpt lat="44.8305288331198" lon="10.24943557634747"><ele>51.199999999999996</ele><time>2026-05-04T06:32:30Z</time></trkpt><trkpt lat="44.8305662843463" lon="10.2492753491918"><ele>51.0</ele><time>2026-05-04T06:32:32Z</time></trkpt><trkpt lat="44.830598472263524" lon="10.249133860508593"><ele>51.0</ele><time>2026-05-04T06:32:34Z</time></trkpt><trkpt lat="44.830630476667785" lon="10.248990180271297"><ele>51.0</ele><time>2026-05-04T06:32:36Z</time></trkpt><trkpt lat="44.830647544147254" lon="10.248904446236862"><ele>51.0</ele><time>2026-05-04T06:32:37Z</time></trkpt><trkpt lat="44.83066504298884" lon="10.248809397993437"><ele>51.0</ele><time>2026-05-04T06:32:38Z</time></trkpt><trkpt lat="44.83068281387014" lon="10.248703351392958"><ele>51.0</ele><time>2026-05-04T06:32:39Z</time></trkpt><trkpt lat="44.83070178701673" lon="10.248593948776497"><ele>51.0</ele><time>2026-05-04T06:32:40Z</time></trkpt><trkpt lat="44.83071926287936" lon="10.2484843262501"><ele>51.333333333333336</ele><time>2026-05-04T06:32:41Z</time></trkpt><trkpt lat="44.83073741369404" lon="10.24836537763525"><ele>51.66666666666667</ele><time>2026-05-04T06:32:42Z</time></trkpt><trkpt lat="44.83075496755107" lon="10.24824801693115"><ele>52.0</ele><time>2026-05-04T06:32:43Z</time></trkpt><trkpt lat="44.83077199209995" lon="10.248136797404152"><ele>52.333333333333336</ele><time>2026-05-04T06:32:44Z</time></trkpt><trkpt lat="44.830787454260694" lon="10.24802928717356"><ele>52.66666666666667</ele><time>2026-05-04T06:32:45Z</time></trkpt><trkpt lat="44.830810821955865" lon="10.247878023094787"><ele>53.0</ele><time>2026-05-04T06:32:47Z</time></trkpt><trkpt lat="44.83082670301049" lon="10.247767443812624"><ele>53.00000000000001</ele><time>2026-05-04T06:32:49Z</time></trkpt><trkpt lat="44.83084064076608" lon="10.247640837711085"><ele>53.0</ele><time>2026-05-04T06:32:52Z</time></trkpt><trkpt lat="44.830855376173545" lon="10.247544801400055"><ele>53.0</ele><time>2026-05-04T06:32:54Z</time></trkpt><trkpt lat="44.83087518120742" lon="10.247390500546107"><ele>53.0</ele><time>2026-05-04T06:32:56Z</time></trkpt><trkpt lat="44.830887013135516" lon="10.247291707656235"><ele>53.00000000000001</ele><time>2026-05-04T06:32:57Z</time></trkpt><trkpt lat="44.8308996177012" lon="10.247177037342674"><ele>53.0</ele><time>2026-05-04T06:32:58Z</time></trkpt><trkpt lat="44.83091174568692" lon="10.247049532533117"><ele>53.0</ele><time>2026-05-04T06:32:59Z</time></trkpt><trkpt lat="44.83092508642897" lon="10.246912487931379"><ele>53.0</ele><time>2026-05-04T06:33:00Z</time></trkpt><trkpt lat="44.830939880192126" lon="10.246768857978488"><ele>53.0</ele><time>2026-05-04T06:33:01Z</time></trkpt><trkpt lat="44.830955137817746" lon="10.246621700439677"><ele>53.0</ele><time>2026-05-04T06:33:02Z</time></trkpt><trkpt lat="44.83097033007066" lon="10.2464659139286"><ele>53.0</ele><time>2026-05-04T06:33:03Z</time></trkpt><trkpt lat="44.83098386934236" lon="10.24631397196859"><ele>53.0</ele><time>2026-05-04T06:33:04Z</time></trkpt><trkpt lat="44.830995379853306" lon="10.246160236716294"><ele>53.0</ele><time>2026-05-04T06:33:05Z</time></trkpt><trkpt lat="44.831008148391604" lon="10.246003060315745"><ele>53.0</ele><time>2026-05-04T06:33:06Z</time></trkpt><trkpt lat="44.831020475637416" lon="10.245839326949673"><ele>53.0</ele><time>2026-05-04T06:33:07Z</time></trkpt><trkpt lat="44.831032083515645" lon="10.24567081426611"><ele>53.25</ele><time>2026-05-04T06:33:08Z</time></trkpt><trkpt lat="44.83104339098184" lon="10.245502140661806"><ele>53.5</ele><time>2026-05-04T06:33:09Z</time></trkpt><trkpt lat="44.83105138102207" lon="10.245324830434054"><ele>53.75</ele><time>2026-05-04T06:33:10Z</time></trkpt><trkpt lat="44.831059479891366" lon="10.245147881907897"><ele>54.0</ele><time>2026-05-04T06:33:11Z</time></trkpt><trkpt lat="44.83106650886966" lon="10.24497421230176"><ele>54.0</ele><time>2026-05-04T06:33:12Z</time></trkpt><trkpt lat="44.83107181635896" lon="10.244805908972099"><ele>54.0</ele><time>2026-05-04T06:33:13Z</time></trkpt><trkpt lat="44.831074188912" lon="10.244637710836061"><ele>54.0</ele><time>2026-05-04T06:33:14Z</time></trkpt><trkpt lat="44.83107546651966" lon="10.244474968960665"><ele>54.0</ele><time>2026-05-04T06:33:15Z</time></trkpt><trkpt lat="44.831077682818666" lon="10.244313997222815"><ele>54.0</ele><time>2026-05-04T06:33:16Z</time></trkpt><trkpt lat="44.83107964628924" lon="10.24414615270399"><ele>54.0</ele><time>2026-05-04T06:33:17Z</time></trkpt><trkpt lat="44.83107907271001" lon="10.2439753469195"><ele>54.0</ele><time>2026-05-04T06:33:18Z</time></trkpt><trkpt lat="44.8310774171426" lon="10.24380022678074"><ele>54.0</ele><time>2026-05-04T06:33:19Z</time></trkpt><trkpt lat="44.8310737574158" lon="10.243621679106514"><ele>54.0</ele><time>2026-05-04T06:33:20Z</time></trkpt><trkpt lat="44.831069961037144" lon="10.243441442604674"><ele>54.0</ele><time>2026-05-04T06:33:21Z</time></trkpt><trkpt lat="44.83106539539386" lon="10.24326281415358"><ele>54.0</ele><time>2026-05-04T06:33:22Z</time></trkpt><trkpt lat="44.831060709944296" lon="10.243079356709481"><ele>54.0</ele><time>2026-05-04T06:33:23Z</time></trkpt><trkpt lat="44.831055634993426" lon="10.242896767610363"><ele>54.0</ele><time>2026-05-04T06:33:24Z</time></trkpt><trkpt lat="44.831050329469605" lon="10.24271520510583"><ele>54.0</ele><time>2026-05-04T06:33:25Z</time></trkpt><trkpt lat="44.83104290208438" lon="10.242529096090482"><ele>54.0</ele><time>2026-05-04T06:33:26Z</time></trkpt><trkpt lat="44.83103574638942" lon="10.242338396107574"><ele>54.0</ele><time>2026-05-04T06:33:27Z</time></trkpt><trkpt lat="44.83102817544381" lon="10.242143387543997"><ele>54.0</ele><time>2026-05-04T06:33:28Z</time></trkpt><trkpt lat="44.83101679095958" lon="10.241945124240361"><ele>54.0</ele><time>2026-05-04T06:33:29Z</time></trkpt><trkpt lat="44.83100586021131" lon="10.241745528122767"><ele>54.0</ele><time>2026-05-04T06:33:30Z</time></trkpt><trkpt lat="44.83099611273771" lon="10.241542929076926"><ele>54.0</ele><time>2026-05-04T06:33:31Z</time></trkpt><trkpt lat="44.83098368429208" lon="10.241336687691604"><ele>53.66666666666667</ele><time>2026-05-04T06:33:32Z</time></trkpt><trkpt lat="44.830968219091446" lon="10.241126702844847"><ele>53.333333333333336</ele><time>2026-05-04T06:33:33Z</time></trkpt><trkpt lat="44.83095254730313" lon="10.240915659356894"><ele>53.0</ele><time>2026-05-04T06:33:34Z</time></trkpt><trkpt lat="44.830934621441365" lon="10.240698274186316"><ele>52.66666666666667</ele><time>2026-05-04T06:33:35Z</time></trkpt><trkpt lat="44.83091699277659" lon="10.240479861763578"><ele>52.33333333333333</ele><time>2026-05-04T06:33:36Z</time></trkpt><trkpt lat="44.830898750594564" lon="10.240262183525452"><ele>52.0</ele><time>2026-05-04T06:33:37Z</time></trkpt><trkpt lat="44.830884069151594" lon="10.240040794384221"><ele>52.0</ele><time>2026-05-04T06:33:38Z</time></trkpt><trkpt lat="44.83086881653622" lon="10.239822031773278"><ele>52.0</ele><time>2026-05-04T06:33:39Z</time></trkpt><trkpt lat="44.83085613338861" lon="10.239605784339725"><ele>52.0</ele><time>2026-05-04T06:33:40Z</time></trkpt><trkpt lat="44.83084469298549" lon="10.239394021075405"><ele>52.0</ele><time>2026-05-04T06:33:41Z</time></trkpt><trkpt lat="44.83083527113689" lon="10.239191014950915"><ele>52.0</ele><time>2026-05-04T06:33:42Z</time></trkpt><trkpt lat="44.830828128343484" lon="10.238986279551057"><ele>52.0</ele><time>2026-05-04T06:33:43Z</time></trkpt><trkpt lat="44.830821243877104" lon="10.238788369206627"><ele>52.0</ele><time>2026-05-04T06:33:44Z</time></trkpt><trkpt lat="44.83082028387303" lon="10.238601560927632"><ele>52.0</ele><time>2026-05-04T06:33:45Z</time></trkpt><trkpt lat="44.8308179098927" lon="10.23842932987617"><ele>52.0</ele><time>2026-05-04T06:33:46Z</time></trkpt><trkpt lat="44.83081342931707" lon="10.238272447877248"><ele>52.0</ele><time>2026-05-04T06:33:47Z</time></trkpt><trkpt lat="44.830811213858105" lon="10.238128274642914"><ele>52.0</ele><time>2026-05-04T06:33:48Z</time></trkpt><trkpt lat="44.83081133510793" lon="10.2379916626531"><ele>52.0</ele><time>2026-05-04T06:33:49Z</time></trkpt><trkpt lat="44.83080964680364" lon="10.23785424454064"><ele>52.400000000000006</ele><time>2026-05-04T06:33:50Z</time></trkpt><trkpt lat="44.830810381504556" lon="10.237712405636259"><ele>52.800000000000004</ele><time>2026-05-04T06:33:51Z</time></trkpt><trkpt lat="44.83081270677194" lon="10.237561950303212"><ele>53.2</ele><time>2026-05-04T06:33:52Z</time></trkpt><trkpt lat="44.830816774129616" lon="10.237404332690117"><ele>53.6</ele><time>2026-05-04T06:33:53Z</time></trkpt><trkpt lat="44.83082234441584" lon="10.237233809448538"><ele>54.0</ele><time>2026-05-04T06:33:54Z</time></trkpt><trkpt lat="44.83082682749793" lon="10.237059738976596"><ele>54.0</ele><time>2026-05-04T06:33:55Z</time></trkpt><trkpt lat="44.83083492403021" lon="10.236886186411267"><ele>54.0</ele><time>2026-05-04T06:33:56Z</time></trkpt><trkpt lat="44.83084429354501" lon="10.23671690518885"><ele>54.0</ele><time>2026-05-04T06:33:57Z</time></trkpt><trkpt lat="44.83085488324383" lon="10.236551167125105"><ele>54.0</ele><time>2026-05-04T06:33:58Z</time></trkpt><trkpt lat="44.83086556912414" lon="10.236385161244314"><ele>53.5</ele><time>2026-05-04T06:33:59Z</time></trkpt><trkpt lat="44.830878324026386" lon="10.236221362048713"><ele>53.0</ele><time>2026-05-04T06:34:00Z</time></trkpt><trkpt lat="44.830892048491116" lon="10.236058306059203"><ele>52.5</ele><time>2026-05-04T06:34:01Z</time></trkpt><trkpt lat="44.830906745403865" lon="10.235894120748863"><ele>52.0</ele><time>2026-05-04T06:34:02Z</time></trkpt><trkpt lat="44.830922155549295" lon="10.2357313302004"><ele>51.75</ele><time>2026-05-04T06:34:03Z</time></trkpt><trkpt lat="44.830939382268475" lon="10.235569071691543"><ele>51.5</ele><time>2026-05-04T06:34:04Z</time></trkpt><trkpt lat="44.830957014067764" lon="10.235405200328735"><ele>51.25</ele><time>2026-05-04T06:34:05Z</time></trkpt><trkpt lat="44.83097452186962" lon="10.235247908160755"><ele>51.0</ele><time>2026-05-04T06:34:06Z</time></trkpt><trkpt lat="44.830991775922485" lon="10.23509189735357"><ele>50.599999999999994</ele><time>2026-05-04T06:34:07Z</time></trkpt><trkpt lat="44.83100949533718" lon="10.234940005262303"><ele>50.2</ele><time>2026-05-04T06:34:08Z</time></trkpt><trkpt lat="44.83102802910675" lon="10.234792087810716"><ele>49.8</ele><time>2026-05-04T06:34:09Z</time></trkpt><trkpt lat="44.83104728751707" lon="10.234648100020372"><ele>49.400000000000006</ele><time>2026-05-04T06:34:10Z</time></trkpt><trkpt lat="44.8310642314642" lon="10.234504196683007"><ele>49.0</ele><time>2026-05-04T06:34:11Z</time></trkpt><trkpt lat="44.83108255877401" lon="10.234358638085846"><ele>49.0</ele><time>2026-05-04T06:34:12Z</time></trkpt><trkpt lat="44.831104127531006" lon="10.234211553438893"><ele>49.0</ele><time>2026-05-04T06:34:13Z</time></trkpt><trkpt lat="44.83112626183586" lon="10.234064486120431"><ele>49.0</ele><time>2026-05-04T06:34:14Z</time></trkpt><trkpt lat="44.83114964158316" lon="10.233918627779431"><ele>49.0</ele><time>2026-05-04T06:34:15Z</time></trkpt><trkpt lat="44.83117377083555" lon="10.233773986466472"><ele>49.0</ele><time>2026-05-04T06:34:16Z</time></trkpt><trkpt lat="44.831198717339966" lon="10.233632709301844"><ele>48.83333333333333</ele><time>2026-05-04T06:34:17Z</time></trkpt><trkpt lat="44.831222037102684" lon="10.23350743011686"><ele>48.666666666666664</ele><time>2026-05-04T06:34:18Z</time></trkpt><trkpt lat="44.831241018865605" lon="10.233400383220078"><ele>48.5</ele><time>2026-05-04T06:34:19Z</time></trkpt><trkpt lat="44.831258425027634" lon="10.233303759428942"><ele>48.33333333333333</ele><time>2026-05-04T06:34:20Z</time></trkpt><trkpt lat="44.83127773429863" lon="10.233207725469342"><ele>48.166666666666664</ele><time>2026-05-04T06:34:21Z</time></trkpt><trkpt lat="44.83129668644505" lon="10.233109565167851"><ele>48.0</ele><time>2026-05-04T06:34:22Z</time></trkpt><trkpt lat="44.831318016788515" lon="10.233009714911466"><ele>47.833333333333336</ele><time>2026-05-04T06:34:23Z</time></trkpt><trkpt lat="44.83133861087696" lon="10.23290582052271"><ele>47.666666666666664</ele><time>2026-05-04T06:34:24Z</time></trkpt><trkpt lat="44.831361573963804" lon="10.232797776055506"><ele>47.5</ele><time>2026-05-04T06:34:25Z</time></trkpt><trkpt lat="44.8313857506709" lon="10.232682065065696"><ele>47.33333333333333</ele><time>2026-05-04T06:34:26Z</time></trkpt><trkpt lat="44.831410075422774" lon="10.23256296283594"><ele>47.166666666666664</ele><time>2026-05-04T06:34:27Z</time></trkpt><trkpt lat="44.83143706285703" lon="10.232440081965112"><ele>47.0</ele><time>2026-05-04T06:34:28Z</time></trkpt><trkpt lat="44.83146150750195" lon="10.232311791621756"><ele>47.0</ele><time>2026-05-04T06:34:29Z</time></trkpt><trkpt lat="44.8314910723971" lon="10.232178897694032"><ele>47.0</ele><time>2026-05-04T06:34:30Z</time></trkpt><trkpt lat="44.83152125819325" lon="10.23203915131438"><ele>47.0</ele><time>2026-05-04T06:34:31Z</time></trkpt><trkpt lat="44.83155206652751" lon="10.231885450567013"><ele>47.0</ele><time>2026-05-04T06:34:32Z</time></trkpt><trkpt lat="44.83159104374325" lon="10.231718656572403"><ele>47.0</ele><time>2026-05-04T06:34:33Z</time></trkpt><trkpt lat="44.83163476000288" lon="10.231540313864103"><ele>47.0</ele><time>2026-05-04T06:34:34Z</time></trkpt><trkpt lat="44.83167846132989" lon="10.231351078158452"><ele>47.0</ele><time>2026-05-04T06:34:35Z</time></trkpt><trkpt lat="44.83172324290017" lon="10.231155115400446"><ele>47.0</ele><time>2026-05-04T06:34:36Z</time></trkpt><trkpt lat="44.831771418779695" lon="10.230953628312944"><ele>47.0</ele><time>2026-05-04T06:34:37Z</time></trkpt><trkpt lat="44.831817070919506" lon="10.230755484939944"><ele>47.75</ele><time>2026-05-04T06:34:38Z</time></trkpt><trkpt lat="44.831860762715614" lon="10.230559614930462"><ele>48.5</ele><time>2026-05-04T06:34:39Z</time></trkpt><trkpt lat="44.83190505428395" lon="10.230366636162803"><ele>49.25</ele><time>2026-05-04T06:34:40Z</time></trkpt><trkpt lat="44.83194935409327" lon="10.230177478053232"><ele>50.0</ele><time>2026-05-04T06:34:41Z</time></trkpt><trkpt lat="44.83199126899753" lon="10.22999017881119"><ele>50.5</ele><time>2026-05-04T06:34:42Z</time></trkpt><trkpt lat="44.83203314167095" lon="10.229806443414592"><ele>51.0</ele><time>2026-05-04T06:34:43Z</time></trkpt><trkpt lat="44.83207482361168" lon="10.229625915003774"><ele>51.5</ele><time>2026-05-04T06:34:44Z</time></trkpt><trkpt lat="44.83211667584586" lon="10.229446268831524"><ele>52.0</ele><time>2026-05-04T06:34:45Z</time></trkpt><trkpt lat="44.832157354385814" lon="10.229274902583963"><ele>52.0</ele><time>2026-05-04T06:34:46Z</time></trkpt><trkpt lat="44.832191389757895" lon="10.229120433250483"><ele>52.0</ele><time>2026-05-04T06:34:47Z</time></trkpt><trkpt lat="44.832223945241175" lon="10.228981805266029"><ele>52.0</ele><time>2026-05-04T06:34:48Z</time></trkpt><trkpt lat="44.83225417826973" lon="10.228846902243742"><ele>52.0</ele><time>2026-05-04T06:34:49Z</time></trkpt><trkpt lat="44.832285320980894" lon="10.22871723733329"><ele>52.0</ele><time>2026-05-04T06:34:50Z</time></trkpt><trkpt lat="44.83231738596505" lon="10.22858637509126"><ele>52.400000000000006</ele><time>2026-05-04T06:34:51Z</time></trkpt><trkpt lat="44.8323476259843" lon="10.228448712492087"><ele>52.800000000000004</ele><time>2026-05-04T06:34:52Z</time></trkpt><trkpt lat="44.83237952607268" lon="10.228307904948421"><ele>53.2</ele><time>2026-05-04T06:34:53Z</time></trkpt><trkpt lat="44.83241321690674" lon="10.22816086519162"><ele>53.6</ele><time>2026-05-04T06:34:54Z</time></trkpt><trkpt lat="44.83244617606034" lon="10.22800573479683"><ele>54.0</ele><time>2026-05-04T06:34:55Z</time></trkpt><trkpt lat="44.83248337340604" lon="10.227850018485437"><ele>54.25</ele><time>2026-05-04T06:34:56Z</time></trkpt><trkpt lat="44.832521582821926" lon="10.227686124244448"><ele>54.5</ele><time>2026-05-04T06:34:57Z</time></trkpt><trkpt lat="44.83256272204085" lon="10.227515477495494"><ele>54.75</ele><time>2026-05-04T06:34:58Z</time></trkpt><trkpt lat="44.83260618466993" lon="10.227338305458595"><ele>55.0</ele><time>2026-05-04T06:34:59Z</time></trkpt><trkpt lat="44.83264577935617" lon="10.227159989183804"><ele>55.0</ele><time>2026-05-04T06:35:00Z</time></trkpt><trkpt lat="44.832686529516806" lon="10.226982499455932"><ele>55.0</ele><time>2026-05-04T06:35:01Z</time></trkpt><trkpt lat="44.83272591555453" lon="10.226805635295154"><ele>55.0</ele><time>2026-05-04T06:35:02Z</time></trkpt><trkpt lat="44.83276563030109" lon="10.22662641124743"><ele>55.0</ele><time>2026-05-04T06:35:03Z</time></trkpt><trkpt lat="44.83280432363409" lon="10.22646588440698"><ele>54.8</ele><time>2026-05-04T06:35:04Z</time></trkpt><trkpt lat="44.83283656653558" lon="10.226326360830035"><ele>54.6</ele><time>2026-05-04T06:35:05Z</time></trkpt><trkpt lat="44.83286713324328" lon="10.226199987185185"><ele>54.400000000000006</ele><time>2026-05-04T06:35:06Z</time></trkpt><trkpt lat="44.83289315067479" lon="10.226084662169528"><ele>54.2</ele><time>2026-05-04T06:35:07Z</time></trkpt><trkpt lat="44.832919053688876" lon="10.225972093575612"><ele>54.0</ele><time>2026-05-04T06:35:08Z</time></trkpt><trkpt lat="44.8329447654213" lon="10.225859186298903"><ele>54.0</ele><time>2026-05-04T06:35:09Z</time></trkpt><trkpt lat="44.83297096699555" lon="10.225745482104253"><ele>54.0</ele><time>2026-05-04T06:35:10Z</time></trkpt><trkpt lat="44.8329975724405" lon="10.225632256815452"><ele>54.0</ele><time>2026-05-04T06:35:11Z</time></trkpt><trkpt lat="44.83302389746818" lon="10.225520059243507"><ele>54.0</ele><time>2026-05-04T06:35:12Z</time></trkpt><trkpt lat="44.83305158369737" lon="10.225397744168866"><ele>54.0</ele><time>2026-05-04T06:35:13Z</time></trkpt><trkpt lat="44.83307983710548" lon="10.225266671670674"><ele>54.0</ele><time>2026-05-04T06:35:14Z</time></trkpt><trkpt lat="44.833111335457836" lon="10.22512973118449"><ele>54.0</ele><time>2026-05-04T06:35:15Z</time></trkpt><trkpt lat="44.83314347361088" lon="10.224984294617721"><ele>54.00000000000001</ele><time>2026-05-04T06:35:16Z</time></trkpt><trkpt lat="44.83317917155679" lon="10.224835291944807"><ele>54.00000000000001</ele><time>2026-05-04T06:35:17Z</time></trkpt><trkpt lat="44.83321396095385" lon="10.22468450717972"><ele>54.0</ele><time>2026-05-04T06:35:18Z</time></trkpt><trkpt lat="44.83324809237137" lon="10.224534027218237"><ele>54.0</ele><time>2026-05-04T06:35:19Z</time></trkpt><trkpt lat="44.83328281980189" lon="10.224381506488191"><ele>54.0</ele><time>2026-05-04T06:35:20Z</time></trkpt><trkpt lat="44.83331709333553" lon="10.224222721267543"><ele>54.0</ele><time>2026-05-04T06:35:21Z</time></trkpt><trkpt lat="44.83335291632398" lon="10.224059046774565"><ele>54.0</ele><time>2026-05-04T06:35:22Z</time></trkpt><trkpt lat="44.83339049854501" lon="10.223891844745472"><ele>54.0</ele><time>2026-05-04T06:35:23Z</time></trkpt><trkpt lat="44.83343114519714" lon="10.223720546709602"><ele>54.0</ele><time>2026-05-04T06:35:24Z</time></trkpt><trkpt lat="44.83346926119851" lon="10.223546941181139"><ele>54.0</ele><time>2026-05-04T06:35:25Z</time></trkpt><trkpt lat="44.83351065029032" lon="10.22337190174656"><ele>54.0</ele><time>2026-05-04T06:35:26Z</time></trkpt><trkpt lat="44.833552159667825" lon="10.223194034128491"><ele>54.0</ele><time>2026-05-04T06:35:27Z</time></trkpt><trkpt lat="44.833596620839536" lon="10.223012778505767"><ele>54.5</ele><time>2026-05-04T06:35:28Z</time></trkpt><trkpt lat="44.833643480823696" lon="10.222829569011237"><ele>55.0</ele><time>2026-05-04T06:35:29Z</time></trkpt><trkpt lat="44.83368834500847" lon="10.222651114765377"><ele>55.5</ele><time>2026-05-04T06:35:30Z</time></trkpt><trkpt lat="44.833732086834345" lon="10.22247428087048"><ele>56.0</ele><time>2026-05-04T06:35:31Z</time></trkpt><trkpt lat="44.83377724429789" lon="10.222310432471117"><ele>56.0</ele><time>2026-05-04T06:35:32Z</time></trkpt><trkpt lat="44.833823080749816" lon="10.222148901510785"><ele>56.0</ele><time>2026-05-04T06:35:33Z</time></trkpt><trkpt lat="44.83387710002528" lon="10.221994339558023"><ele>56.0</ele><time>2026-05-04T06:35:34Z</time></trkpt><trkpt lat="44.833936490055784" lon="10.221844440401519"><ele>56.0</ele><time>2026-05-04T06:35:35Z</time></trkpt><trkpt lat="44.8339930760083" lon="10.2216954158455"><ele>56.0</ele><time>2026-05-04T06:35:36Z</time></trkpt><trkpt lat="44.834052528180564" lon="10.221552943188605"><ele>55.99999999999999</ele><time>2026-05-04T06:35:37Z</time></trkpt><trkpt lat="44.83412189544797" lon="10.221419868596179"><ele>55.99999999999999</ele><time>2026-05-04T06:35:38Z</time></trkpt><trkpt lat="44.834201117027504" lon="10.22131372788112"><ele>56.0</ele><time>2026-05-04T06:35:39Z</time></trkpt><trkpt lat="44.83428477977512" lon="10.221239551105176"><ele>56.0</ele><time>2026-05-04T06:35:40Z</time></trkpt><trkpt lat="44.8343676785216" lon="10.221196142325544"><ele>55.833333333333336</ele><time>2026-05-04T06:35:41Z</time></trkpt><trkpt lat="44.83444879697938" lon="10.221173425546214"><ele>55.66666666666667</ele><time>2026-05-04T06:35:42Z</time></trkpt><trkpt lat="44.83453263331696" lon="10.221171407737137"><ele>55.5</ele><time>2026-05-04T06:35:43Z</time></trkpt><trkpt lat="44.834616559571124" lon="10.221187793680613"><ele>55.33333333333333</ele><time>2026-05-04T06:35:44Z</time></trkpt><trkpt lat="44.83469662279125" lon="10.221223045783415"><ele>55.166666666666664</ele><time>2026-05-04T06:35:45Z</time></trkpt><trkpt lat="44.83476823757888" lon="10.221276913951428"><ele>55.0</ele><time>2026-05-04T06:35:46Z</time></trkpt><trkpt lat="44.83483299821573" lon="10.221344559871932"><ele>54.99999999999999</ele><time>2026-05-04T06:35:47Z</time></trkpt><trkpt lat="44.83488384982397" lon="10.221419480326455"><ele>55.0</ele><time>2026-05-04T06:35:48Z</time></trkpt><trkpt lat="44.83491547935295" lon="10.221523092455078"><ele>55.0</ele><time>2026-05-04T06:35:49Z</time></trkpt><trkpt lat="44.834959519665624" lon="10.221619470078215"><ele>55.0</ele><time>2026-05-04T06:35:50Z</time></trkpt><trkpt lat="44.83500488082506" lon="10.221718738146079"><ele>54.99999999999999</ele><time>2026-05-04T06:35:51Z</time></trkpt><trkpt lat="44.83506430422006" lon="10.22179813254986"><ele>55.0</ele><time>2026-05-04T06:35:52Z</time></trkpt><trkpt lat="44.835103553842174" lon="10.221891196619111"><ele>55.166666666666664</ele><time>2026-05-04T06:35:53Z</time></trkpt><trkpt lat="44.835139440969314" lon="10.221977058833264"><ele>55.33333333333333</ele><time>2026-05-04T06:35:54Z</time></trkpt><trkpt lat="44.83524272087005" lon="10.222018192202581"><ele>55.5</ele><time>2026-05-04T06:35:56Z</time></trkpt><trkpt lat="44.8353073320316" lon="10.222058964319189"><ele>55.66666666666667</ele><time>2026-05-04T06:35:59Z</time></trkpt><trkpt lat="44.835366525310356" lon="10.222091923739022"><ele>55.833333333333336</ele><time>2026-05-04T06:36:25Z</time></trkpt><trkpt lat="44.83543393136314" lon="10.22209553884229"><ele>56.0</ele><time>2026-05-04T06:36:29Z</time></trkpt><trkpt lat="44.835471488510336" lon="10.22195587954889"><ele>56.0</ele><time>2026-05-04T06:36:30Z</time></trkpt><trkpt lat="44.83549635496704" lon="10.221845987904365"><ele>55.99999999999999</ele><time>2026-05-04T06:36:31Z</time></trkpt><trkpt lat="44.83552374291363" lon="10.221721354327498"><ele>55.99999999999999</ele><time>2026-05-04T06:36:32Z</time></trkpt><trkpt lat="44.83555450025834" lon="10.221579093870957"><ele>56.0</ele><time>2026-05-04T06:36:33Z</time></trkpt><trkpt lat="44.83559041835126" lon="10.221418020473376"><ele>56.0</ele><time>2026-05-04T06:36:34Z</time></trkpt><trkpt lat="44.83562630632639" lon="10.221242666792545"><ele>56.0</ele><time>2026-05-04T06:36:35Z</time></trkpt><trkpt lat="44.83566726867289" lon="10.221052854748523"><ele>56.0</ele><time>2026-05-04T06:36:36Z</time></trkpt><trkpt lat="44.83571128221634" lon="10.220846074640004"><ele>56.0</ele><time>2026-05-04T06:36:37Z</time></trkpt><trkpt lat="44.835759536765416" lon="10.2206270001746"><ele>56.0</ele><time>2026-05-04T06:36:38Z</time></trkpt><trkpt lat="44.83580767643139" lon="10.22039774680511"><ele>56.0</ele><time>2026-05-04T06:36:39Z</time></trkpt><trkpt lat="44.83585954031602" lon="10.220160703956932"><ele>56.0</ele><time>2026-05-04T06:36:40Z</time></trkpt><trkpt lat="44.83591272516774" lon="10.219912848193866"><ele>56.0</ele><time>2026-05-04T06:36:41Z</time></trkpt><trkpt lat="44.8359686762078" lon="10.219655864103956"><ele>56.0</ele><time>2026-05-04T06:36:42Z</time></trkpt><trkpt lat="44.8360262656351" lon="10.21939086998467"><ele>56.0</ele><time>2026-05-04T06:36:43Z</time></trkpt><trkpt lat="44.83608758863032" lon="10.219117328917868"><ele>56.0</ele><time>2026-05-04T06:36:44Z</time></trkpt><trkpt lat="44.836145679048236" lon="10.21883229620319"><ele>56.0</ele><time>2026-05-04T06:36:45Z</time></trkpt><trkpt lat="44.8362081573856" lon="10.218538259734778"><ele>56.0</ele><time>2026-05-04T06:36:46Z</time></trkpt><trkpt lat="44.83626946775849" lon="10.218233653552353"><ele>56.0</ele><time>2026-05-04T06:36:47Z</time></trkpt><trkpt lat="44.83633570516051" lon="10.2179211993295"><ele>56.0</ele><time>2026-05-04T06:36:48Z</time></trkpt><trkpt lat="44.83640422920149" lon="10.217600970833509"><ele>55.5</ele><time>2026-05-04T06:36:49Z</time></trkpt><trkpt lat="44.836472549339824" lon="10.217276059735601"><ele>55.0</ele><time>2026-05-04T06:36:50Z</time></trkpt><trkpt lat="44.83654123622407" lon="10.21694733484047"><ele>55.0</ele><time>2026-05-04T06:36:51Z</time></trkpt><trkpt lat="44.83660677579187" lon="10.216614971120116"><ele>55.0</ele><time>2026-05-04T06:36:52Z</time></trkpt><trkpt lat="44.83667159004446" lon="10.216284632566973"><ele>55.0</ele><time>2026-05-04T06:36:53Z</time></trkpt><trkpt lat="44.83673468892638" lon="10.215958958985926"><ele>55.0</ele><time>2026-05-04T06:36:54Z</time></trkpt><trkpt lat="44.836798588732506" lon="10.215637990232432"><ele>54.0</ele><time>2026-05-04T06:36:55Z</time></trkpt><trkpt lat="44.83686438844046" lon="10.215322342947102"><ele>53.0</ele><time>2026-05-04T06:36:56Z</time></trkpt><trkpt lat="44.83692887666179" lon="10.21501911891605"><ele>53.66666666666667</ele><time>2026-05-04T06:36:57Z</time></trkpt><trkpt lat="44.83699144871197" lon="10.214731471218755"><ele>54.33333333333333</ele><time>2026-05-04T06:36:58Z</time></trkpt><trkpt lat="44.83705538913579" lon="10.214451155751618"><ele>55.0</ele><time>2026-05-04T06:36:59Z</time></trkpt><trkpt lat="44.83712173948537" lon="10.214175934642679"><ele>55.33333333333333</ele><time>2026-05-04T06:37:00Z</time></trkpt><trkpt lat="44.83718440080157" lon="10.213904188370762"><ele>55.66666666666667</ele><time>2026-05-04T06:37:01Z</time></trkpt><trkpt lat="44.83724701587739" lon="10.213634728604243"><ele>56.0</ele><time>2026-05-04T06:37:02Z</time></trkpt><trkpt lat="44.837305780986796" lon="10.213364553391889"><ele>56.66666666666667</ele><time>2026-05-04T06:37:03Z</time></trkpt><trkpt lat="44.83735871051539" lon="10.213088433809684"><ele>57.33333333333333</ele><time>2026-05-04T06:37:04Z</time></trkpt><trkpt lat="44.837411857081676" lon="10.212805628888274"><ele>58.0</ele><time>2026-05-04T06:37:05Z</time></trkpt><trkpt lat="44.837468017930995" lon="10.212517874482021"><ele>58.0</ele><time>2026-05-04T06:37:06Z</time></trkpt><trkpt lat="44.837528325789314" lon="10.212228721083116"><ele>58.0</ele><time>2026-05-04T06:37:07Z</time></trkpt><trkpt lat="44.83758445628544" lon="10.211938098754826"><ele>58.0</ele><time>2026-05-04T06:37:08Z</time></trkpt><trkpt lat="44.83764480865164" lon="10.21164755921388"><ele>58.33333333333333</ele><time>2026-05-04T06:37:09Z</time></trkpt><trkpt lat="44.83770866818283" lon="10.211361106873568"><ele>58.66666666666667</ele><time>2026-05-04T06:37:10Z</time></trkpt><trkpt lat="44.837767805156616" lon="10.21108798190773"><ele>59.0</ele><time>2026-05-04T06:37:11Z</time></trkpt><trkpt lat="44.837823545928664" lon="10.21082046746242"><ele>59.0</ele><time>2026-05-04T06:37:12Z</time></trkpt><trkpt lat="44.83787540906042" lon="10.21056894280578"><ele>59.0</ele><time>2026-05-04T06:37:13Z</time></trkpt><trkpt lat="44.83792475592502" lon="10.210339960367902"><ele>59.0</ele><time>2026-05-04T06:37:14Z</time></trkpt><trkpt lat="44.83796282170949" lon="10.210131127735785"><ele>59.0</ele><time>2026-05-04T06:37:15Z</time></trkpt><trkpt lat="44.8379868324003" lon="10.209945811127838"><ele>59.00000000000001</ele><time>2026-05-04T06:37:16Z</time></trkpt><trkpt lat="44.83800194295149" lon="10.20978230598299"><ele>59.00000000000001</ele><time>2026-05-04T06:37:17Z</time></trkpt><trkpt lat="44.838011752394436" lon="10.20965192419703"><ele>59.0</ele><time>2026-05-04T06:37:18Z</time></trkpt><trkpt lat="44.83802805544766" lon="10.209511837646154"><ele>59.0</ele><time>2026-05-04T06:37:20Z</time></trkpt><trkpt lat="44.83806274169417" lon="10.209374855627903"><ele>59.0</ele><time>2026-05-04T06:37:26Z</time></trkpt><trkpt lat="44.83811438314559" lon="10.209233846266027"><ele>59.00000000000001</ele><time>2026-05-04T06:37:28Z</time></trkpt><trkpt lat="44.838167437617926" lon="10.209071309540764"><ele>59.00000000000001</ele><time>2026-05-04T06:37:30Z</time></trkpt><trkpt lat="44.838198147001464" lon="10.208975585757374"><ele>59.0</ele><time>2026-05-04T06:37:31Z</time></trkpt><trkpt lat="44.83824294779887" lon="10.208874042306975"><ele>59.0</ele><time>2026-05-04T06:37:32Z</time></trkpt><trkpt lat="44.83830374657537" lon="10.208775450267186"><ele>58.833333333333336</ele><time>2026-05-04T06:37:33Z</time></trkpt><trkpt lat="44.8383727843036" lon="10.208685849522622"><ele>58.66666666666667</ele><time>2026-05-04T06:37:34Z</time></trkpt><trkpt lat="44.838444766080265" lon="10.208609309478836"><ele>58.5</ele><time>2026-05-04T06:37:35Z</time></trkpt><trkpt lat="44.83852359839052" lon="10.208551722022541"><ele>58.33333333333333</ele><time>2026-05-04T06:37:36Z</time></trkpt><trkpt lat="44.83860206445611" lon="10.208500944877631"><ele>58.166666666666664</ele><time>2026-05-04T06:37:37Z</time></trkpt><trkpt lat="44.83866882910401" lon="10.208426992329496"><ele>58.0</ele><time>2026-05-04T06:37:38Z</time></trkpt><trkpt lat="44.83871925655989" lon="10.20833228266674"><ele>58.0</ele><time>2026-05-04T06:37:39Z</time></trkpt><trkpt lat="44.83876406069859" lon="10.208226610035156"><ele>58.0</ele><time>2026-05-04T06:37:40Z</time></trkpt><trkpt lat="44.838821642144254" lon="10.20812405874036"><ele>58.0</ele><time>2026-05-04T06:37:41Z</time></trkpt><trkpt lat="44.838887406797795" lon="10.20802092547222"><ele>58.0</ele><time>2026-05-04T06:37:42Z</time></trkpt><trkpt lat="44.838999270423585" lon="10.207965687935545"><ele>58.0</ele><time>2026-05-04T06:37:43Z</time></trkpt><trkpt lat="44.83910199549115" lon="10.207900842305682"><ele>58.0</ele><time>2026-05-04T06:37:44Z</time></trkpt><trkpt lat="44.83920448798112" lon="10.207839548741907"><ele>58.0</ele><time>2026-05-04T06:37:45Z</time></trkpt><trkpt lat="44.83930789612265" lon="10.207788035331484"><ele>58.0</ele><time>2026-05-04T06:37:46Z</time></trkpt><trkpt lat="44.83941308911114" lon="10.207748241438367"><ele>58.0</ele><time>2026-05-04T06:37:47Z</time></trkpt><trkpt lat="44.839520052812695" lon="10.207717373670015"><ele>58.0</ele><time>2026-05-04T06:37:48Z</time></trkpt><trkpt lat="44.83962755342737" lon="10.207695509547202"><ele>58.0</ele><time>2026-05-04T06:37:49Z</time></trkpt><trkpt lat="44.83973193117705" lon="10.207683566719444"><ele>58.0</ele><time>2026-05-04T06:37:50Z</time></trkpt><trkpt lat="44.839836393453055" lon="10.207677466985933"><ele>58.0</ele><time>2026-05-04T06:37:51Z</time></trkpt><trkpt lat="44.839936842908614" lon="10.207682688286521"><ele>58.0</ele><time>2026-05-04T06:37:52Z</time></trkpt><trkpt lat="44.840036570735485" lon="10.207695701987962"><ele>58.0</ele><time>2026-05-04T06:37:53Z</time></trkpt><trkpt lat="44.840141712179815" lon="10.207714839442145"><ele>58.0</ele><time>2026-05-04T06:37:54Z</time></trkpt><trkpt lat="44.84024751356647" lon="10.207734079199808"><ele>58.0</ele><time>2026-05-04T06:37:55Z</time></trkpt><trkpt lat="44.84035352756744" lon="10.207751962578884"><ele>58.0</ele><time>2026-05-04T06:37:56Z</time></trkpt><trkpt lat="44.84045903143068" lon="10.207771330922242"><ele>58.0</ele><time>2026-05-04T06:37:57Z</time></trkpt><trkpt lat="44.84056286139089" lon="10.207791489669102"><ele>58.0</ele><time>2026-05-04T06:37:58Z</time></trkpt><trkpt lat="44.84066450741628" lon="10.207810858919762"><ele>58.0</ele><time>2026-05-04T06:37:59Z</time></trkpt><trkpt lat="44.840765786747134" lon="10.207828299740363"><ele>58.0</ele><time>2026-05-04T06:38:00Z</time></trkpt><trkpt lat="44.840866621410825" lon="10.207846495351513"><ele>58.0</ele><time>2026-05-04T06:38:01Z</time></trkpt><trkpt lat="44.84097156898173" lon="10.207867121259738"><ele>58.0</ele><time>2026-05-04T06:38:02Z</time></trkpt><trkpt lat="44.84107390404692" lon="10.207883766507225"><ele>58.0</ele><time>2026-05-04T06:38:03Z</time></trkpt><trkpt lat="44.84117900082338" lon="10.207906029742976"><ele>58.0</ele><time>2026-05-04T06:38:04Z</time></trkpt><trkpt lat="44.84128363205414" lon="10.207925739068665"><ele>58.0</ele><time>2026-05-04T06:38:05Z</time></trkpt><trkpt lat="44.84138743692398" lon="10.207945144630195"><ele>58.0</ele><time>2026-05-04T06:38:06Z</time></trkpt><trkpt lat="44.841491959616086" lon="10.207964526990738"><ele>58.0</ele><time>2026-05-04T06:38:07Z</time></trkpt><trkpt lat="44.84159618117214" lon="10.207984687738803"><ele>58.0</ele><time>2026-05-04T06:38:08Z</time></trkpt><trkpt lat="44.84170011776174" lon="10.20800332246525"><ele>57.8</ele><time>2026-05-04T06:38:09Z</time></trkpt><trkpt lat="44.8418032380731" lon="10.208023588342236"><ele>57.599999999999994</ele><time>2026-05-04T06:38:10Z</time></trkpt><trkpt lat="44.84190850554253" lon="10.208041591418713"><ele>57.400000000000006</ele><time>2026-05-04T06:38:11Z</time></trkpt><trkpt lat="44.84201320477277" lon="10.208060065449516"><ele>57.2</ele><time>2026-05-04T06:38:12Z</time></trkpt><trkpt lat="44.84212119520109" lon="10.208080605033828"><ele>57.0</ele><time>2026-05-04T06:38:13Z</time></trkpt><trkpt lat="44.84222748652464" lon="10.208100496263825"><ele>57.0</ele><time>2026-05-04T06:38:14Z</time></trkpt><trkpt lat="44.842334692139566" lon="10.208121924287086"><ele>57.0</ele><time>2026-05-04T06:38:15Z</time></trkpt><trkpt lat="44.84244174743472" lon="10.208141020034887"><ele>57.0</ele><time>2026-05-04T06:38:16Z</time></trkpt><trkpt lat="44.84254675157715" lon="10.208160969374465"><ele>57.0</ele><time>2026-05-04T06:38:17Z</time></trkpt><trkpt lat="44.8426482040119" lon="10.208180900826797"><ele>57.0</ele><time>2026-05-04T06:38:18Z</time></trkpt><trkpt lat="44.842751875838466" lon="10.208200569064354"><ele>57.0</ele><time>2026-05-04T06:38:19Z</time></trkpt><trkpt lat="44.84285302563468" lon="10.208217819656028"><ele>57.0</ele><time>2026-05-04T06:38:20Z</time></trkpt><trkpt lat="44.84295370953859" lon="10.208236715555584"><ele>57.0</ele><time>2026-05-04T06:38:21Z</time></trkpt><trkpt lat="44.84305474639039" lon="10.208253949774921"><ele>57.0</ele><time>2026-05-04T06:38:22Z</time></trkpt><trkpt lat="44.8431546749965" lon="10.208271318882131"><ele>57.0</ele><time>2026-05-04T06:38:23Z</time></trkpt><trkpt lat="44.84325033551052" lon="10.20828367665543"><ele>57.0</ele><time>2026-05-04T06:38:24Z</time></trkpt><trkpt lat="44.84333837041982" lon="10.208297565177503"><ele>57.0</ele><time>2026-05-04T06:38:25Z</time></trkpt><trkpt lat="44.843418650303455" lon="10.208310041219873"><ele>57.0</ele><time>2026-05-04T06:38:26Z</time></trkpt><trkpt lat="44.843499520758414" lon="10.208323920730292"><ele>57.0</ele><time>2026-05-04T06:38:27Z</time></trkpt><trkpt lat="44.843580232420074" lon="10.208335555439024"><ele>57.0</ele><time>2026-05-04T06:38:28Z</time></trkpt><trkpt lat="44.84365205578433" lon="10.208344986042764"><ele>57.0</ele><time>2026-05-04T06:38:29Z</time></trkpt><trkpt lat="44.84371646069966" lon="10.20836541776655"><ele>56.71428571428571</ele><time>2026-05-04T06:38:30Z</time></trkpt><trkpt lat="44.84377391821703" lon="10.208416896395983"><ele>56.42857142857142</ele><time>2026-05-04T06:38:31Z</time></trkpt><trkpt lat="44.84383226903946" lon="10.208468904615533"><ele>56.14285714285714</ele><time>2026-05-04T06:38:32Z</time></trkpt><trkpt lat="44.843904117948526" lon="10.20849334355406"><ele>55.857142857142854</ele><time>2026-05-04T06:38:33Z</time></trkpt><trkpt lat="44.843979033347175" lon="10.208482596459595"><ele>55.57142857142857</ele><time>2026-05-04T06:38:34Z</time></trkpt><trkpt lat="44.8440454051685" lon="10.208440249126879"><ele>55.28571428571428</ele><time>2026-05-04T06:38:35Z</time></trkpt><trkpt lat="44.844102506124585" lon="10.208376710164801"><ele>55.0</ele><time>2026-05-04T06:38:36Z</time></trkpt><trkpt lat="44.84416536340899" lon="10.208321584776858"><ele>55.0</ele><time>2026-05-04T06:38:37Z</time></trkpt><trkpt lat="44.844242950444716" lon="10.20827829529132"><ele>55.0</ele><time>2026-05-04T06:38:38Z</time></trkpt><trkpt lat="44.844338778017615" lon="10.208243637474178"><ele>55.0</ele><time>2026-05-04T06:38:39Z</time></trkpt><trkpt lat="44.84444835869762" lon="10.20821900486688"><ele>55.0</ele><time>2026-05-04T06:38:40Z</time></trkpt><trkpt lat="44.844563619414075" lon="10.208198368644766"><ele>55.0</ele><time>2026-05-04T06:38:41Z</time></trkpt><trkpt lat="44.84467557968833" lon="10.20817651163741"><ele>55.166666666666664</ele><time>2026-05-04T06:38:42Z</time></trkpt><trkpt lat="44.84477831187729" lon="10.208155310241805"><ele>55.33333333333333</ele><time>2026-05-04T06:38:43Z</time></trkpt><trkpt lat="44.84487802937049" lon="10.20813631811455"><ele>55.5</ele><time>2026-05-04T06:38:44Z</time></trkpt><trkpt lat="44.84496114639006" lon="10.208121126020623"><ele>55.66666666666667</ele><time>2026-05-04T06:38:45Z</time></trkpt><trkpt lat="44.8450292203223" lon="10.20810642945086"><ele>55.833333333333336</ele><time>2026-05-04T06:38:46Z</time></trkpt><trkpt lat="44.845116096439426" lon="10.208088166767487"><ele>56.0</ele><time>2026-05-04T06:38:49Z</time></trkpt><trkpt lat="44.84519196247054" lon="10.20807320289337"><ele>55.199999999999996</ele><time>2026-05-04T06:38:55Z</time></trkpt><trkpt lat="44.84528545339041" lon="10.208054816493863"><ele>54.39999999999999</ele><time>2026-05-04T06:38:57Z</time></trkpt><trkpt lat="44.84539177682974" lon="10.208030207411293"><ele>53.6</ele><time>2026-05-04T06:38:59Z</time></trkpt><trkpt lat="44.845518201618084" lon="10.207996607783823"><ele>52.8</ele><time>2026-05-04T06:39:01Z</time></trkpt><trkpt lat="44.84559341687169" lon="10.207978099738346"><ele>52.0</ele><time>2026-05-04T06:39:02Z</time></trkpt><trkpt lat="44.84567449194938" lon="10.207962222849918"><ele>51.99999999999999</ele><time>2026-05-04T06:39:03Z</time></trkpt><trkpt lat="44.84575659153269" lon="10.207940638475336"><ele>52.0</ele><time>2026-05-04T06:39:04Z</time></trkpt><trkpt lat="44.845832510378884" lon="10.207915788893269"><ele>52.0</ele><time>2026-05-04T06:39:05Z</time></trkpt><trkpt lat="44.845898258264725" lon="10.207897615840738"><ele>52.0</ele><time>2026-05-04T06:39:06Z</time></trkpt><trkpt lat="44.846022235761446" lon="10.207879548151185"><ele>51.99999999999999</ele><time>2026-05-04T06:39:08Z</time></trkpt><trkpt lat="44.846088785118106" lon="10.207891877922881"><ele>52.0</ele><time>2026-05-04T06:39:09Z</time></trkpt><trkpt lat="44.84615454193814" lon="10.207917660514806"><ele>52.166666666666664</ele><time>2026-05-04T06:39:10Z</time></trkpt><trkpt lat="44.846218065551206" lon="10.207923507221404"><ele>52.33333333333333</ele><time>2026-05-04T06:39:11Z</time></trkpt><trkpt lat="44.84628388545722" lon="10.207885918942088"><ele>52.5</ele><time>2026-05-04T06:39:12Z</time></trkpt><trkpt lat="44.84634977680343" lon="10.207823477591639"><ele>52.66666666666667</ele><time>2026-05-04T06:39:13Z</time></trkpt><trkpt lat="44.8464352499652" lon="10.207750265733724"><ele>52.833333333333336</ele><time>2026-05-04T06:39:14Z</time></trkpt><trkpt lat="44.846544813053114" lon="10.207692866147529"><ele>53.0</ele><time>2026-05-04T06:39:15Z</time></trkpt><trkpt lat="44.84667745122021" lon="10.207652543160574"><ele>52.333333333333336</ele><time>2026-05-04T06:39:16Z</time></trkpt><trkpt lat="44.846823443173605" lon="10.2076114387459"><ele>51.66666666666667</ele><time>2026-05-04T06:39:17Z</time></trkpt><trkpt lat="44.84698735938348" lon="10.207558243655859"><ele>51.0</ele><time>2026-05-04T06:39:18Z</time></trkpt><trkpt lat="44.84716487045407" lon="10.207504847443793"><ele>51.0</ele><time>2026-05-04T06:39:19Z</time></trkpt><trkpt lat="44.84735261333804" lon="10.207442510375051"><ele>51.0</ele><time>2026-05-04T06:39:20Z</time></trkpt><trkpt lat="44.84755030473879" lon="10.207379726089941"><ele>51.0</ele><time>2026-05-04T06:39:21Z</time></trkpt><trkpt lat="44.847755947610544" lon="10.207316820923774"><ele>51.0</ele><time>2026-05-04T06:39:22Z</time></trkpt><trkpt lat="44.84797160672515" lon="10.207249176750835"><ele>51.0</ele><time>2026-05-04T06:39:23Z</time></trkpt><trkpt lat="44.84819740395097" lon="10.207176953949183"><ele>51.0</ele><time>2026-05-04T06:39:24Z</time></trkpt><trkpt lat="44.84843091313831" lon="10.207100801577921"><ele>51.0</ele><time>2026-05-04T06:39:25Z</time></trkpt><trkpt lat="44.84867382466177" lon="10.207022802566113"><ele>51.5</ele><time>2026-05-04T06:39:26Z</time></trkpt><trkpt lat="44.84892550853226" lon="10.206945854830256"><ele>52.0</ele><time>2026-05-04T06:39:27Z</time></trkpt><trkpt lat="44.849189246412884" lon="10.206871006203178"><ele>52.0</ele><time>2026-05-04T06:39:28Z</time></trkpt><trkpt lat="44.849449638886995" lon="10.206792480603927"><ele>52.0</ele><time>2026-05-04T06:39:29Z</time></trkpt><trkpt lat="44.84970875009759" lon="10.206718666829723"><ele>52.0</ele><time>2026-05-04T06:39:30Z</time></trkpt><trkpt lat="44.84996258784493" lon="10.206644403347129"><ele>52.0</ele><time>2026-05-04T06:39:31Z</time></trkpt><trkpt lat="44.85021210788346" lon="10.206572004801808"><ele>51.5</ele><time>2026-05-04T06:39:32Z</time></trkpt><trkpt lat="44.85045971002442" lon="10.206507728859163"><ele>51.0</ele><time>2026-05-04T06:39:33Z</time></trkpt><trkpt lat="44.85070374990637" lon="10.206442269237392"><ele>50.5</ele><time>2026-05-04T06:39:34Z</time></trkpt><trkpt lat="44.850945176659415" lon="10.206376390818875"><ele>50.0</ele><time>2026-05-04T06:39:35Z</time></trkpt><trkpt lat="44.85118014354029" lon="10.206311062379891"><ele>50.333333333333336</ele><time>2026-05-04T06:39:36Z</time></trkpt><trkpt lat="44.85140873965698" lon="10.206248926317306"><ele>50.66666666666667</ele><time>2026-05-04T06:39:37Z</time></trkpt><trkpt lat="44.851617773970744" lon="10.206191554816941"><ele>51.0</ele><time>2026-05-04T06:39:38Z</time></trkpt><trkpt lat="44.85180820970148" lon="10.206139836640324"><ele>51.0</ele><time>2026-05-04T06:39:39Z</time></trkpt><trkpt lat="44.85200205212456" lon="10.206087079436545"><ele>51.0</ele><time>2026-05-04T06:39:40Z</time></trkpt><trkpt lat="44.852194792229724" lon="10.206033052374137"><ele>51.0</ele><time>2026-05-04T06:39:41Z</time></trkpt><trkpt lat="44.85238859313125" lon="10.205979979403965"><ele>51.0</ele><time>2026-05-04T06:39:42Z</time></trkpt><trkpt lat="44.852584267431936" lon="10.205926196121073"><ele>51.0</ele><time>2026-05-04T06:39:43Z</time></trkpt><trkpt lat="44.85278171122205" lon="10.205873226109835"><ele>51.0</ele><time>2026-05-04T06:39:44Z</time></trkpt><trkpt lat="44.852985890956006" lon="10.20584097880167"><ele>51.0</ele><time>2026-05-04T06:39:45Z</time></trkpt><trkpt lat="44.85319541912371" lon="10.205832923901193"><ele>51.0</ele><time>2026-05-04T06:39:46Z</time></trkpt><trkpt lat="44.85341583185216" lon="10.20583483202355"><ele>51.0</ele><time>2026-05-04T06:39:47Z</time></trkpt><trkpt lat="44.8536435813901" lon="10.205833927247753"><ele>51.0</ele><time>2026-05-04T06:39:48Z</time></trkpt><trkpt lat="44.853870800848405" lon="10.205832527444864"><ele>51.0</ele><time>2026-05-04T06:39:49Z</time></trkpt><trkpt lat="44.85409766413314" lon="10.205825146042413"><ele>51.0</ele><time>2026-05-04T06:39:50Z</time></trkpt><trkpt lat="44.8543160855773" lon="10.205815989039246"><ele>51.0</ele><time>2026-05-04T06:39:51Z</time></trkpt><trkpt lat="44.85452324793277" lon="10.20580613397188"><ele>51.0</ele><time>2026-05-04T06:39:52Z</time></trkpt><trkpt lat="44.8547225699811" lon="10.20579573022389"><ele>51.0</ele><time>2026-05-04T06:39:53Z</time></trkpt><trkpt lat="44.85491862222661" lon="10.205774044998561"><ele>51.0</ele><time>2026-05-04T06:39:54Z</time></trkpt><trkpt lat="44.85511434930226" lon="10.205739065309315"><ele>51.0</ele><time>2026-05-04T06:39:55Z</time></trkpt><trkpt lat="44.8553068177236" lon="10.205698618204652"><ele>51.0</ele><time>2026-05-04T06:39:56Z</time></trkpt><trkpt lat="44.85548835626491" lon="10.20566162895752"><ele>51.0</ele><time>2026-05-04T06:39:57Z</time></trkpt><trkpt lat="44.855647922628705" lon="10.20562603059177"><ele>51.0</ele><time>2026-05-04T06:39:58Z</time></trkpt><trkpt lat="44.85578039865914" lon="10.205589762934085"><ele>51.0</ele><time>2026-05-04T06:39:59Z</time></trkpt><trkpt lat="44.855896344142884" lon="10.205538584650116"><ele>51.0</ele><time>2026-05-04T06:40:00Z</time></trkpt><trkpt lat="44.8559957226404" lon="10.205448456813677"><ele>51.0</ele><time>2026-05-04T06:40:01Z</time></trkpt><trkpt lat="44.856090577753186" lon="10.205410113857198"><ele>51.0</ele><time>2026-05-04T06:40:02Z</time></trkpt><trkpt lat="44.85609859724248" lon="10.205136914492924"><ele>50.5</ele><time>2026-05-04T06:40:03Z</time></trkpt><trkpt lat="44.856102170294946" lon="10.204964386952346"><ele>50.0</ele><time>2026-05-04T06:40:04Z</time></trkpt><trkpt lat="44.856124125659235" lon="10.204787607125011"><ele>49.5</ele><time>2026-05-04T06:40:05Z</time></trkpt><trkpt lat="44.856148957098064" lon="10.204590925262783"><ele>49.0</ele><time>2026-05-04T06:40:06Z</time></trkpt><trkpt lat="44.856173979076594" lon="10.204380435427653"><ele>49.0</ele><time>2026-05-04T06:40:07Z</time></trkpt><trkpt lat="44.8562008795629" lon="10.204155681467894"><ele>49.0</ele><time>2026-05-04T06:40:08Z</time></trkpt><trkpt lat="44.8562278764206" lon="10.203930194590779"><ele>49.0</ele><time>2026-05-04T06:40:09Z</time></trkpt><trkpt lat="44.85625133486247" lon="10.2037126627318"><ele>49.400000000000006</ele><time>2026-05-04T06:40:10Z</time></trkpt><trkpt lat="44.85627133171361" lon="10.203523632112683"><ele>49.8</ele><time>2026-05-04T06:40:11Z</time></trkpt><trkpt lat="44.8562902245658" lon="10.203359973360206"><ele>50.2</ele><time>2026-05-04T06:40:12Z</time></trkpt><trkpt lat="44.856309176223526" lon="10.203240649422213"><ele>50.599999999999994</ele><time>2026-05-04T06:40:13Z</time></trkpt><trkpt lat="44.856322156088" lon="10.20314114569925"><ele>51.0</ele><time>2026-05-04T06:40:14Z</time></trkpt><trkpt lat="44.8563365949512" lon="10.203028392287713"><ele>51.0</ele><time>2026-05-04T06:40:15Z</time></trkpt><trkpt lat="44.85635133486286" lon="10.202906428901343"><ele>51.0</ele><time>2026-05-04T06:40:16Z</time></trkpt><trkpt lat="44.85636689101181" lon="10.20276062399722"><ele>51.0</ele><time>2026-05-04T06:40:17Z</time></trkpt><trkpt lat="44.85638325673205" lon="10.202601375433652"><ele>51.0</ele><time>2026-05-04T06:40:18Z</time></trkpt><trkpt lat="44.85640154415227" lon="10.202433561954948"><ele>51.0</ele><time>2026-05-04T06:40:19Z</time></trkpt><trkpt lat="44.85642232820584" lon="10.202269568660686"><ele>51.0</ele><time>2026-05-04T06:40:20Z</time></trkpt><trkpt lat="44.856447145207945" lon="10.202112886728894"><ele>51.0</ele><time>2026-05-04T06:40:21Z</time></trkpt><trkpt lat="44.85649013576282" lon="10.201967364869855"><ele>51.0</ele><time>2026-05-04T06:40:22Z</time></trkpt><trkpt lat="44.85656223729156" lon="10.201851070616126"><ele>51.0</ele><time>2026-05-04T06:40:23Z</time></trkpt><trkpt lat="44.856657770142505" lon="10.201783654833735"><ele>51.0</ele><time>2026-05-04T06:40:24Z</time></trkpt><trkpt lat="44.85676390687727" lon="10.20177234803155"><ele>51.0</ele><time>2026-05-04T06:40:25Z</time></trkpt><trkpt lat="44.85687431438687" lon="10.201796180962527"><ele>51.0</ele><time>2026-05-04T06:40:26Z</time></trkpt><trkpt lat="44.85697613326853" lon="10.201833912198367"><ele>51.0</ele><time>2026-05-04T06:40:27Z</time></trkpt><trkpt lat="44.85705261526565" lon="10.201854427111597"><ele>51.0</ele><time>2026-05-04T06:40:28Z</time></trkpt><trkpt lat="44.85712849320299" lon="10.201880643127398"><ele>51.0</ele><time>2026-05-04T06:40:29Z</time></trkpt><trkpt lat="44.85720704057032" lon="10.201910956350126"><ele>51.0</ele><time>2026-05-04T06:40:30Z</time></trkpt><trkpt lat="44.857300068417246" lon="10.201948422214969"><ele>51.0</ele><time>2026-05-04T06:40:31Z</time></trkpt><trkpt lat="44.857405742720616" lon="10.201993381150421"><ele>51.0</ele><time>2026-05-04T06:40:32Z</time></trkpt><trkpt lat="44.857521122228476" lon="10.202049565486451"><ele>51.0</ele><time>2026-05-04T06:40:33Z</time></trkpt><trkpt lat="44.857644104655904" lon="10.202104873370724"><ele>50.33333333333333</ele><time>2026-05-04T06:40:34Z</time></trkpt><trkpt lat="44.857779799046774" lon="10.202164151049026"><ele>49.666666666666664</ele><time>2026-05-04T06:40:35Z</time></trkpt><trkpt lat="44.857928002908025" lon="10.202224726946485"><ele>49.0</ele><time>2026-05-04T06:40:36Z</time></trkpt><trkpt lat="44.85808423850545" lon="10.202287588680685"><ele>49.0</ele><time>2026-05-04T06:40:37Z</time></trkpt><trkpt lat="44.858251946254754" lon="10.202349914293373"><ele>49.0</ele><time>2026-05-04T06:40:38Z</time></trkpt><trkpt lat="44.858430829714166" lon="10.202385727631883"><ele>49.0</ele><time>2026-05-04T06:40:39Z</time></trkpt><trkpt lat="44.85861992679246" lon="10.2024056222282"><ele>48.0</ele><time>2026-05-04T06:40:40Z</time></trkpt><trkpt lat="44.858812906526445" lon="10.202410492498997"><ele>47.0</ele><time>2026-05-04T06:40:41Z</time></trkpt><trkpt lat="44.85901427071081" lon="10.202402516677049"><ele>46.0</ele><time>2026-05-04T06:40:42Z</time></trkpt><trkpt lat="44.85922666955892" lon="10.202394063531502"><ele>46.66666666666667</ele><time>2026-05-04T06:40:43Z</time></trkpt><trkpt lat="44.85944402033939" lon="10.202376886474783"><ele>47.333333333333336</ele><time>2026-05-04T06:40:44Z</time></trkpt><trkpt lat="44.85966817653598" lon="10.202348388789677"><ele>48.0</ele><time>2026-05-04T06:40:45Z</time></trkpt><trkpt lat="44.85989674048756" lon="10.202308020152456"><ele>47.5</ele><time>2026-05-04T06:40:46Z</time></trkpt><trkpt lat="44.860129851805446" lon="10.202258072009124"><ele>47.0</ele><time>2026-05-04T06:40:47Z</time></trkpt><trkpt lat="44.86036440099191" lon="10.202195555468565"><ele>47.0</ele><time>2026-05-04T06:40:48Z</time></trkpt><trkpt lat="44.86059820341492" lon="10.202119362019037"><ele>47.0</ele><time>2026-05-04T06:40:49Z</time></trkpt><trkpt lat="44.8608276644585" lon="10.202039998302963"><ele>47.5</ele><time>2026-05-04T06:40:50Z</time></trkpt><trkpt lat="44.861054462020626" lon="10.201959615814367"><ele>48.0</ele><time>2026-05-04T06:40:51Z</time></trkpt><trkpt lat="44.86127806933111" lon="10.201869182953917"><ele>48.0</ele><time>2026-05-04T06:40:52Z</time></trkpt><trkpt lat="44.86149725949887" lon="10.201764592575223"><ele>48.0</ele><time>2026-05-04T06:40:53Z</time></trkpt><trkpt lat="44.8617094004832" lon="10.201638207298172"><ele>47.0</ele><time>2026-05-04T06:40:54Z</time></trkpt><trkpt lat="44.86191265856288" lon="10.20149089970292"><ele>46.0</ele><time>2026-05-04T06:40:55Z</time></trkpt><trkpt lat="44.86210433534528" lon="10.20133008280368"><ele>46.0</ele><time>2026-05-04T06:40:56Z</time></trkpt><trkpt lat="44.86229537434144" lon="10.201169728521421"><ele>46.0</ele><time>2026-05-04T06:40:57Z</time></trkpt><trkpt lat="44.86248830306462" lon="10.201009017109891"><ele>46.0</ele><time>2026-05-04T06:40:58Z</time></trkpt><trkpt lat="44.86268261697509" lon="10.200847722097123"><ele>45.5</ele><time>2026-05-04T06:40:59Z</time></trkpt><trkpt lat="44.86288177333926" lon="10.200686498829707"><ele>45.0</ele><time>2026-05-04T06:41:00Z</time></trkpt><trkpt lat="44.863081654184434" lon="10.200528380113804"><ele>45.0</ele><time>2026-05-04T06:41:01Z</time></trkpt><trkpt lat="44.86328644703796" lon="10.200369879863198"><ele>45.0</ele><time>2026-05-04T06:41:02Z</time></trkpt><trkpt lat="44.863489115679585" lon="10.200214177465229"><ele>45.333333333333336</ele><time>2026-05-04T06:41:03Z</time></trkpt><trkpt lat="44.863687820498086" lon="10.20006262285159"><ele>45.66666666666667</ele><time>2026-05-04T06:41:04Z</time></trkpt><trkpt lat="44.863868505945305" lon="10.199923535653678"><ele>46.0</ele><time>2026-05-04T06:41:05Z</time></trkpt><trkpt lat="44.864036440152645" lon="10.199796855111446"><ele>46.0</ele><time>2026-05-04T06:41:06Z</time></trkpt><trkpt lat="44.86419984971015" lon="10.199672549997462"><ele>46.0</ele><time>2026-05-04T06:41:07Z</time></trkpt><trkpt lat="44.86434923495122" lon="10.19955726851605"><ele>46.0</ele><time>2026-05-04T06:41:08Z</time></trkpt><trkpt lat="44.86448091047201" lon="10.199459369441486"><ele>46.199999999999996</ele><time>2026-05-04T06:41:09Z</time></trkpt><trkpt lat="44.86458675883591" lon="10.19937980856566"><ele>46.4</ele><time>2026-05-04T06:41:10Z</time></trkpt><trkpt lat="44.86468314503575" lon="10.199311455539604"><ele>46.6</ele><time>2026-05-04T06:41:11Z</time></trkpt><trkpt lat="44.86476599025493" lon="10.199249346280839"><ele>46.8</ele><time>2026-05-04T06:41:12Z</time></trkpt><trkpt lat="44.864834133201164" lon="10.199198676757845"><ele>47.0</ele><time>2026-05-04T06:41:13Z</time></trkpt><trkpt lat="44.864927292016844" lon="10.19912722345436"><ele>47.0</ele><time>2026-05-04T06:41:15Z</time></trkpt><trkpt lat="44.865002395205906" lon="10.199071507690846"><ele>47.0</ele><time>2026-05-04T06:41:19Z</time></trkpt><trkpt lat="44.86511341881739" lon="10.198980761445112"><ele>47.0</ele><time>2026-05-04T06:41:21Z</time></trkpt><trkpt lat="44.865201398847866" lon="10.198912498475746"><ele>47.0</ele><time>2026-05-04T06:41:22Z</time></trkpt><trkpt lat="44.86530326283678" lon="10.198831481358217"><ele>47.0</ele><time>2026-05-04T06:41:23Z</time></trkpt><trkpt lat="44.86541990205968" lon="10.198740696481408"><ele>47.33333333333333</ele><time>2026-05-04T06:41:24Z</time></trkpt><trkpt lat="44.86554882394818" lon="10.198637815263675"><ele>47.666666666666664</ele><time>2026-05-04T06:41:25Z</time></trkpt><trkpt lat="44.8656895616725" lon="10.198521853351544"><ele>48.0</ele><time>2026-05-04T06:41:26Z</time></trkpt><trkpt lat="44.86584131410131" lon="10.198390347435291"><ele>47.333333333333336</ele><time>2026-05-04T06:41:27Z</time></trkpt><trkpt lat="44.866005178155355" lon="10.198243749704607"><ele>46.66666666666667</ele><time>2026-05-04T06:41:28Z</time></trkpt><trkpt lat="44.866174897553556" lon="10.198091147966823"><ele>46.0</ele><time>2026-05-04T06:41:29Z</time></trkpt><trkpt lat="44.86635316681639" lon="10.197930087321843"><ele>46.0</ele><time>2026-05-04T06:41:30Z</time></trkpt><trkpt lat="44.86654083413196" lon="10.197760284622714"><ele>46.0</ele><time>2026-05-04T06:41:31Z</time></trkpt><trkpt lat="44.86673300464157" lon="10.197590926396378"><ele>46.0</ele><time>2026-05-04T06:41:32Z</time></trkpt><trkpt lat="44.86692136388942" lon="10.197423929239271"><ele>46.66666666666667</ele><time>2026-05-04T06:41:33Z</time></trkpt><trkpt lat="44.86711077684117" lon="10.197256010070333"><ele>47.333333333333336</ele><time>2026-05-04T06:41:34Z</time></trkpt><trkpt lat="44.86729930217608" lon="10.19708831863406"><ele>48.0</ele><time>2026-05-04T06:41:35Z</time></trkpt><trkpt lat="44.867488178362215" lon="10.19692512223307"><ele>47.666666666666664</ele><time>2026-05-04T06:41:36Z</time></trkpt><trkpt lat="44.86768108035769" lon="10.196782070037216"><ele>47.33333333333333</ele><time>2026-05-04T06:41:37Z</time></trkpt><trkpt lat="44.86787881700562" lon="10.196646676734913"><ele>47.0</ele><time>2026-05-04T06:41:38Z</time></trkpt><trkpt lat="44.868079529861795" lon="10.196511818680447"><ele>47.0</ele><time>2026-05-04T06:41:39Z</time></trkpt><trkpt lat="44.868279088915486" lon="10.196375756598824"><ele>47.0</ele><time>2026-05-04T06:41:40Z</time></trkpt><trkpt lat="44.86846630882589" lon="10.196244256663213"><ele>47.0</ele><time>2026-05-04T06:41:41Z</time></trkpt><trkpt lat="44.86863305659463" lon="10.196128821539594"><ele>47.0</ele><time>2026-05-04T06:41:42Z</time></trkpt><trkpt lat="44.86877453721598" lon="10.196031328423347"><ele>47.0</ele><time>2026-05-04T06:41:43Z</time></trkpt><trkpt lat="44.86889127623894" lon="10.19594057180958"><ele>47.0</ele><time>2026-05-04T06:41:44Z</time></trkpt><trkpt lat="44.869004982062435" lon="10.195862248114391"><ele>47.0</ele><time>2026-05-04T06:41:45Z</time></trkpt><trkpt lat="44.86909048265983" lon="10.195797493930916"><ele>47.0</ele><time>2026-05-04T06:41:46Z</time></trkpt><trkpt lat="44.869167124685866" lon="10.195747790296371"><ele>47.0</ele><time>2026-05-04T06:41:47Z</time></trkpt><trkpt lat="44.869250947151876" lon="10.195734018198037"><ele>47.0</ele><time>2026-05-04T06:41:48Z</time></trkpt><trkpt lat="44.869337655342015" lon="10.195741942414353"><ele>47.0</ele><time>2026-05-04T06:41:49Z</time></trkpt><trkpt lat="44.86940991901194" lon="10.195822493047547"><ele>47.0</ele><time>2026-05-04T06:41:50Z</time></trkpt><trkpt lat="44.86950302739696" lon="10.195855991002448"><ele>47.0</ele><time>2026-05-04T06:41:51Z</time></trkpt><trkpt lat="44.869604074406716" lon="10.195852967296506"><ele>46.8</ele><time>2026-05-04T06:41:52Z</time></trkpt><trkpt lat="44.869700604585006" lon="10.19581472455811"><ele>46.6</ele><time>2026-05-04T06:41:53Z</time></trkpt><trkpt lat="44.86978438473583" lon="10.195737850053359"><ele>46.4</ele><time>2026-05-04T06:41:54Z</time></trkpt><trkpt lat="44.86983081267996" lon="10.195601813841957"><ele>46.199999999999996</ele><time>2026-05-04T06:41:55Z</time></trkpt><trkpt lat="44.869835744737976" lon="10.195440691187857"><ele>46.0</ele><time>2026-05-04T06:41:56Z</time></trkpt><trkpt lat="44.86980256845356" lon="10.195285907497897"><ele>46.0</ele><time>2026-05-04T06:41:57Z</time></trkpt><trkpt lat="44.86977153463398" lon="10.195129665049484"><ele>46.0</ele><time>2026-05-04T06:41:58Z</time></trkpt><trkpt lat="44.86978168005305" lon="10.194965129486436"><ele>46.0</ele><time>2026-05-04T06:41:59Z</time></trkpt><trkpt lat="44.86982904712648" lon="10.194795383327326"><ele>46.0</ele><time>2026-05-04T06:41:59.999Z</time></trkpt><trkpt lat="44.86989405392881" lon="10.194615058160567"><ele>46.0</ele><time>2026-05-04T06:42:00.999Z</time></trkpt><trkpt lat="44.86997122927382" lon="10.194411619939329"><ele>46.0</ele><time>2026-05-04T06:42:01.999Z</time></trkpt><trkpt lat="44.870053153441724" lon="10.19418338690006"><ele>46.0</ele><time>2026-05-04T06:42:03Z</time></trkpt><trkpt lat="44.870143511656316" lon="10.193932346361592"><ele>45.66666666666667</ele><time>2026-05-04T06:42:04Z</time></trkpt><trkpt lat="44.87023228985488" lon="10.193666685681023"><ele>45.333333333333336</ele><time>2026-05-04T06:42:05Z</time></trkpt><trkpt lat="44.87032567579203" lon="10.193380063152754"><ele>45.0</ele><time>2026-05-04T06:42:06Z</time></trkpt><trkpt lat="44.870420526566775" lon="10.193085448828956"><ele>45.0</ele><time>2026-05-04T06:42:07Z</time></trkpt><trkpt lat="44.87051736504079" lon="10.192785314487155"><ele>45.0</ele><time>2026-05-04T06:42:08Z</time></trkpt><trkpt lat="44.87061065831375" lon="10.192489130755215"><ele>46.5</ele><time>2026-05-04T06:42:09Z</time></trkpt><trkpt lat="44.87068625298498" lon="10.19219153638456"><ele>48.0</ele><time>2026-05-04T06:42:10Z</time></trkpt><trkpt lat="44.87072916151723" lon="10.191878411285106"><ele>48.0</ele><time>2026-05-04T06:42:11Z</time></trkpt><trkpt lat="44.87074530374156" lon="10.191553734115027"><ele>48.0</ele><time>2026-05-04T06:42:12Z</time></trkpt><trkpt lat="44.87075526865134" lon="10.191220356061242"><ele>47.5</ele><time>2026-05-04T06:42:13Z</time></trkpt><trkpt lat="44.870770213629235" lon="10.1908847815728"><ele>47.0</ele><time>2026-05-04T06:42:14Z</time></trkpt><trkpt lat="44.87078004983999" lon="10.190536745253924"><ele>45.0</ele><time>2026-05-04T06:42:15Z</time></trkpt><trkpt lat="44.87079215855451" lon="10.190179447415874"><ele>43.0</ele><time>2026-05-04T06:42:16Z</time></trkpt><trkpt lat="44.87080784406787" lon="10.18981414652308"><ele>43.0</ele><time>2026-05-04T06:42:17Z</time></trkpt><trkpt lat="44.87082492721873" lon="10.189447333475478"><ele>43.0</ele><time>2026-05-04T06:42:18Z</time></trkpt><trkpt lat="44.87083948369232" lon="10.189080855256764"><ele>44.0</ele><time>2026-05-04T06:42:19Z</time></trkpt><trkpt lat="44.87085007873341" lon="10.188714066610455"><ele>45.0</ele><time>2026-05-04T06:42:20Z</time></trkpt><trkpt lat="44.870862140756266" lon="10.188346356959862"><ele>45.0</ele><time>2026-05-04T06:42:21Z</time></trkpt><trkpt lat="44.870876532269186" lon="10.18797192859605"><ele>45.0</ele><time>2026-05-04T06:42:22Z</time></trkpt><trkpt lat="44.8708924144951" lon="10.187597150746438"><ele>44.0</ele><time>2026-05-04T06:42:23Z</time></trkpt><trkpt lat="44.870908013775164" lon="10.187220726462739"><ele>43.0</ele><time>2026-05-04T06:42:24Z</time></trkpt><trkpt lat="44.87092233240503" lon="10.18684378641031"><ele>43.0</ele><time>2026-05-04T06:42:25Z</time></trkpt><trkpt lat="44.870939983341444" lon="10.186470565905362"><ele>43.0</ele><time>2026-05-04T06:42:26Z</time></trkpt><trkpt lat="44.87095912613777" lon="10.18610229379153"><ele>43.0</ele><time>2026-05-04T06:42:27Z</time></trkpt><trkpt lat="44.870972019328875" lon="10.18573501968419"><ele>43.0</ele><time>2026-05-04T06:42:28Z</time></trkpt><trkpt lat="44.870983495034956" lon="10.18537872307735"><ele>43.0</ele><time>2026-05-04T06:42:29Z</time></trkpt><trkpt lat="44.870991134066" lon="10.185046173244336"><ele>43.0</ele><time>2026-05-04T06:42:30Z</time></trkpt><trkpt lat="44.8709922074381" lon="10.184727466741894"><ele>43.0</ele><time>2026-05-04T06:42:31Z</time></trkpt><trkpt lat="44.87099938799704" lon="10.184422717722255"><ele>43.0</ele><time>2026-05-04T06:42:32Z</time></trkpt><trkpt lat="44.87103093529718" lon="10.184131817919868"><ele>43.0</ele><time>2026-05-04T06:42:33Z</time></trkpt><trkpt lat="44.87108488238183" lon="10.183864483575393"><ele>42.66666666666667</ele><time>2026-05-04T06:42:34Z</time></trkpt><trkpt lat="44.87116500485859" lon="10.183608908070875"><ele>42.333333333333336</ele><time>2026-05-04T06:42:35Z</time></trkpt><trkpt lat="44.8712607914908" lon="10.183363742746902"><ele>42.0</ele><time>2026-05-04T06:42:36Z</time></trkpt><trkpt lat="44.87136836950781" lon="10.183126250692759"><ele>43.0</ele><time>2026-05-04T06:42:37Z</time></trkpt><trkpt lat="44.87148105203928" lon="10.182888623014547"><ele>44.0</ele><time>2026-05-04T06:42:38Z</time></trkpt><trkpt lat="44.871597697301624" lon="10.182650907039813"><ele>45.0</ele><time>2026-05-04T06:42:39Z</time></trkpt><trkpt lat="44.87171488825122" lon="10.182406949255055"><ele>45.333333333333336</ele><time>2026-05-04T06:42:40Z</time></trkpt><trkpt lat="44.871826637138426" lon="10.182163398720535"><ele>45.66666666666667</ele><time>2026-05-04T06:42:41Z</time></trkpt><trkpt lat="44.871928412782516" lon="10.181941702660295"><ele>46.0</ele><time>2026-05-04T06:42:42Z</time></trkpt><trkpt lat="44.87201424166897" lon="10.181751711479556"><ele>46.0</ele><time>2026-05-04T06:42:43Z</time></trkpt><trkpt lat="44.872085827423405" lon="10.181602361922542"><ele>46.0</ele><time>2026-05-04T06:42:44Z</time></trkpt><trkpt lat="44.87214487546855" lon="10.181495971296984"><ele>46.0</ele><time>2026-05-04T06:42:45Z</time></trkpt><trkpt lat="44.87219682366959" lon="10.18143995813513"><ele>46.0</ele><time>2026-05-04T06:42:47Z</time></trkpt><trkpt lat="44.87231016833455" lon="10.18136524895389"><ele>46.0</ele><time>2026-05-04T06:42:52Z</time></trkpt><trkpt lat="44.87239995578751" lon="10.181343925957234"><ele>45.599999999999994</ele><time>2026-05-04T06:42:53Z</time></trkpt><trkpt lat="44.8724755885016" lon="10.181279787307831"><ele>45.2</ele><time>2026-05-04T06:42:54Z</time></trkpt><trkpt lat="44.87253174144317" lon="10.181166237419362"><ele>44.8</ele><time>2026-05-04T06:42:55Z</time></trkpt><trkpt lat="44.87256012265247" lon="10.18100995473108"><ele>44.400000000000006</ele><time>2026-05-04T06:42:56Z</time></trkpt><trkpt lat="44.87255367043278" lon="10.180843408158635"><ele>44.0</ele><time>2026-05-04T06:42:57Z</time></trkpt><trkpt lat="44.8725221518241" lon="10.180701468356567"><ele>44.25</ele><time>2026-05-04T06:42:58Z</time></trkpt><trkpt lat="44.87257829182279" lon="10.180535499101161"><ele>44.5</ele><time>2026-05-04T06:42:59Z</time></trkpt><trkpt lat="44.87264548673074" lon="10.18037498768177"><ele>44.75</ele><time>2026-05-04T06:43:00Z</time></trkpt><trkpt lat="44.87273469536999" lon="10.180213485790688"><ele>45.0</ele><time>2026-05-04T06:43:01Z</time></trkpt><trkpt lat="44.87281316452275" lon="10.180048464929564"><ele>44.333333333333336</ele><time>2026-05-04T06:43:02Z</time></trkpt><trkpt lat="44.87288795992508" lon="10.179892036294497"><ele>43.66666666666667</ele><time>2026-05-04T06:43:03Z</time></trkpt><trkpt lat="44.87296143829154" lon="10.17971305317763"><ele>43.0</ele><time>2026-05-04T06:43:04Z</time></trkpt><trkpt lat="44.87306340412157" lon="10.179495984654086"><ele>43.0</ele><time>2026-05-04T06:43:05Z</time></trkpt><trkpt lat="44.873176042272846" lon="10.179259088597"><ele>43.0</ele><time>2026-05-04T06:43:06Z</time></trkpt><trkpt lat="44.87328914192685" lon="10.178995081580672"><ele>43.0</ele><time>2026-05-04T06:43:07Z</time></trkpt><trkpt lat="44.87342471872056" lon="10.178745281294862"><ele>42.0</ele><time>2026-05-04T06:43:08Z</time></trkpt><trkpt lat="44.87355187689837" lon="10.178482792028925"><ele>41.0</ele><time>2026-05-04T06:43:09Z</time></trkpt><trkpt lat="44.8736768481372" lon="10.178217474819915"><ele>41.5</ele><time>2026-05-04T06:43:10Z</time></trkpt><trkpt lat="44.87380603435908" lon="10.177953884612819"><ele>42.0</ele><time>2026-05-04T06:43:11Z</time></trkpt><trkpt lat="44.8739350026889" lon="10.17769478681484"><ele>42.0</ele><time>2026-05-04T06:43:12Z</time></trkpt><trkpt lat="44.874055747641975" lon="10.177430763145907"><ele>42.0</ele><time>2026-05-04T06:43:13Z</time></trkpt><trkpt lat="44.87415974043786" lon="10.177150631412244"><ele>42.0</ele><time>2026-05-04T06:43:14Z</time></trkpt><trkpt lat="44.87423860940552" lon="10.176851192357137"><ele>41.5</ele><time>2026-05-04T06:43:15Z</time></trkpt><trkpt lat="44.87429613782333" lon="10.176537751229503"><ele>41.0</ele><time>2026-05-04T06:43:16Z</time></trkpt><trkpt lat="44.87432495838813" lon="10.176211214062857"><ele>42.5</ele><time>2026-05-04T06:43:17Z</time></trkpt><trkpt lat="44.87433001758248" lon="10.175878616173184"><ele>44.0</ele><time>2026-05-04T06:43:18Z</time></trkpt><trkpt lat="44.874331639422266" lon="10.175546868201033"><ele>45.5</ele><time>2026-05-04T06:43:19Z</time></trkpt><trkpt lat="44.874333982875605" lon="10.175218538262461"><ele>47.0</ele><time>2026-05-04T06:43:20Z</time></trkpt><trkpt lat="44.87433238716085" lon="10.174893262093816"><ele>45.5</ele><time>2026-05-04T06:43:21Z</time></trkpt><trkpt lat="44.87433177094695" lon="10.17456800489301"><ele>44.0</ele><time>2026-05-04T06:43:22Z</time></trkpt><trkpt lat="44.87433366769694" lon="10.174243957322812"><ele>43.5</ele><time>2026-05-04T06:43:23Z</time></trkpt><trkpt lat="44.874337559988604" lon="10.173918060835"><ele>43.0</ele><time>2026-05-04T06:43:24Z</time></trkpt><trkpt lat="44.87434186733576" lon="10.173575891260022"><ele>43.0</ele><time>2026-05-04T06:43:25Z</time></trkpt><trkpt lat="44.87434596401551" lon="10.173229812646124"><ele>43.0</ele><time>2026-05-04T06:43:26Z</time></trkpt><trkpt lat="44.87435078075369" lon="10.172880490017876"><ele>43.0</ele><time>2026-05-04T06:43:27Z</time></trkpt><trkpt lat="44.87435394685107" lon="10.172527573792383"><ele>43.0</ele><time>2026-05-04T06:43:28Z</time></trkpt><trkpt lat="44.87435397990573" lon="10.172182636541045"><ele>43.5</ele><time>2026-05-04T06:43:29Z</time></trkpt><trkpt lat="44.87435351061484" lon="10.171834085420578"><ele>44.0</ele><time>2026-05-04T06:43:30Z</time></trkpt><trkpt lat="44.874353637209666" lon="10.171482086537278"><ele>45.0</ele><time>2026-05-04T06:43:31Z</time></trkpt><trkpt lat="44.87435451434977" lon="10.171127611858362"><ele>46.0</ele><time>2026-05-04T06:43:32Z</time></trkpt><trkpt lat="44.87435745229546" lon="10.170772203397117"><ele>46.5</ele><time>2026-05-04T06:43:33Z</time></trkpt><trkpt lat="44.87436096224046" lon="10.17041507094122"><ele>47.0</ele><time>2026-05-04T06:43:34Z</time></trkpt><trkpt lat="44.874361603937935" lon="10.170060069899233"><ele>47.5</ele><time>2026-05-04T06:43:35Z</time></trkpt><trkpt lat="44.87436307279984" lon="10.169706705959934"><ele>48.0</ele><time>2026-05-04T06:43:36Z</time></trkpt><trkpt lat="44.874368580869124" lon="10.169376897053978"><ele>48.0</ele><time>2026-05-04T06:43:37Z</time></trkpt><trkpt lat="44.87437661780678" lon="10.169061531595817"><ele>48.0</ele><time>2026-05-04T06:43:38Z</time></trkpt><trkpt lat="44.87439927422463" lon="10.16876592816058"><ele>48.0</ele><time>2026-05-04T06:43:39Z</time></trkpt><trkpt lat="44.874445360974526" lon="10.168484617426845"><ele>48.0</ele><time>2026-05-04T06:43:40Z</time></trkpt><trkpt lat="44.874505803144686" lon="10.168222222254526"><ele>48.0</ele><time>2026-05-04T06:43:41Z</time></trkpt><trkpt lat="44.87456988848615" lon="10.16799758033968"><ele>48.0</ele><time>2026-05-04T06:43:42Z</time></trkpt><trkpt lat="44.87462747268187" lon="10.167812672221974"><ele>48.0</ele><time>2026-05-04T06:43:43Z</time></trkpt><trkpt lat="44.87468428566756" lon="10.167678054656612"><ele>48.0</ele><time>2026-05-04T06:43:44Z</time></trkpt><trkpt lat="44.87473691224802" lon="10.167571488583514"><ele>48.0</ele><time>2026-05-04T06:43:45Z</time></trkpt><trkpt lat="44.87484660049354" lon="10.167500259821937"><ele>48.0</ele><time>2026-05-04T06:43:46Z</time></trkpt><trkpt lat="44.874942109603836" lon="10.167413155754309"><ele>48.0</ele><time>2026-05-04T06:43:46.999Z</time></trkpt><trkpt lat="44.87501249981254" lon="10.167279632960177"><ele>48.0</ele><time>2026-05-04T06:43:47.999Z</time></trkpt><trkpt lat="44.875045663519344" lon="10.167118376145496"><ele>48.0</ele><time>2026-05-04T06:43:48.999Z</time></trkpt><trkpt lat="44.87503742717286" lon="10.166952537166628"><ele>48.0</ele><time>2026-05-04T06:43:49.999Z</time></trkpt><trkpt lat="44.87513741665997" lon="10.16679519101601"><ele>48.0</ele><time>2026-05-04T06:43:50.999Z</time></trkpt><trkpt lat="44.87523204584048" lon="10.166664506900858"><ele>48.0</ele><time>2026-05-04T06:43:51.999Z</time></trkpt><trkpt lat="44.87534839862075" lon="10.166543405522491"><ele>48.0</ele><time>2026-05-04T06:43:52.999Z</time></trkpt><trkpt lat="44.875461906814955" lon="10.166396872030504"><ele>48.0</ele><time>2026-05-04T06:43:53.999Z</time></trkpt><trkpt lat="44.87558070395186" lon="10.166225815288305"><ele>48.0</ele><time>2026-05-04T06:43:54.999Z</time></trkpt><trkpt lat="44.87569723529007" lon="10.166029755680729"><ele>48.0</ele><time>2026-05-04T06:43:55.999Z</time></trkpt><trkpt lat="44.875804914178545" lon="10.1658104681641"><ele>48.0</ele><time>2026-05-04T06:43:56.999Z</time></trkpt><trkpt lat="44.87589856338605" lon="10.165570450964292"><ele>47.333333333333336</ele><time>2026-05-04T06:43:57.999Z</time></trkpt><trkpt lat="44.875974328895445" lon="10.165310941553315"><ele>46.66666666666667</ele><time>2026-05-04T06:43:58.999Z</time></trkpt><trkpt lat="44.876029909430876" lon="10.165035022571637"><ele>46.0</ele><time>2026-05-04T06:43:59.999Z</time></trkpt><trkpt lat="44.87606049871967" lon="10.16474491975151"><ele>46.0</ele><time>2026-05-04T06:44:00.999Z</time></trkpt><trkpt lat="44.87606806731626" lon="10.16444311372311"><ele>46.0</ele><time>2026-05-04T06:44:01.999Z</time></trkpt><trkpt lat="44.8760582965465" lon="10.164133228881752"><ele>46.0</ele><time>2026-05-04T06:44:02.999Z</time></trkpt><trkpt lat="44.87604598170867" lon="10.163823467237302"><ele>46.0</ele><time>2026-05-04T06:44:03.999Z</time></trkpt><trkpt lat="44.87603050557988" lon="10.163509377363985"><ele>46.0</ele><time>2026-05-04T06:44:04.999Z</time></trkpt><trkpt lat="44.87600131171969" lon="10.163204268284995"><ele>46.0</ele><time>2026-05-04T06:44:05.999Z</time></trkpt><trkpt lat="44.87595558903448" lon="10.16290697493913"><ele>46.333333333333336</ele><time>2026-05-04T06:44:06.999Z</time></trkpt><trkpt lat="44.87589793092621" lon="10.16262164736453"><ele>46.666666666666664</ele><time>2026-05-04T06:44:07.999Z</time></trkpt><trkpt lat="44.87583807793635" lon="10.162362040605661"><ele>47.0</ele><time>2026-05-04T06:44:09Z</time></trkpt><trkpt lat="44.875788129804" lon="10.162139930601064"><ele>47.25</ele><time>2026-05-04T06:44:10Z</time></trkpt><trkpt lat="44.875744158514884" lon="10.161944621656124"><ele>47.5</ele><time>2026-05-04T06:44:11.022Z</time></trkpt><trkpt lat="44.875704100681936" lon="10.16178518189066"><ele>47.75</ele><time>2026-05-04T06:44:12.024Z</time></trkpt><trkpt lat="44.8756866208242" lon="10.161638662045936"><ele>48.0</ele><time>2026-05-04T06:44:13.019Z</time></trkpt><trkpt lat="44.875694300090885" lon="10.161521690195253"><ele>48.0</ele><time>2026-05-04T06:44:14Z</time></trkpt><trkpt lat="44.8757704893941" lon="10.161394894440528"><ele>48.0</ele><time>2026-05-04T06:44:15Z</time></trkpt><trkpt lat="44.87584248524966" lon="10.161295732490457"><ele>48.0</ele><time>2026-05-04T06:44:16Z</time></trkpt><trkpt lat="44.87600813139349" lon="10.161368734989864"><ele>48.0</ele><time>2026-05-04T06:44:17Z</time></trkpt><trkpt lat="44.876131740465894" lon="10.161426822636725"><ele>47.0</ele><time>2026-05-04T06:44:18Z</time></trkpt><trkpt lat="44.876265969766436" lon="10.161494273992572"><ele>46.0</ele><time>2026-05-04T06:44:19Z</time></trkpt><trkpt lat="44.87641633871484" lon="10.161556310045242"><ele>45.0</ele><time>2026-05-04T06:44:20Z</time></trkpt><trkpt lat="44.87657851337032" lon="10.16162403746009"><ele>45.0</ele><time>2026-05-04T06:44:21Z</time></trkpt><trkpt lat="44.87675176871948" lon="10.161697309788263"><ele>45.0</ele><time>2026-05-04T06:44:22Z</time></trkpt><trkpt lat="44.87693591326679" lon="10.16177221599913"><ele>45.0</ele><time>2026-05-04T06:44:23Z</time></trkpt><trkpt lat="44.87712246808655" lon="10.161838355224589"><ele>44.666666666666664</ele><time>2026-05-04T06:44:24Z</time></trkpt><trkpt lat="44.87729740003575" lon="10.161899925212728"><ele>44.33333333333333</ele><time>2026-05-04T06:44:25Z</time></trkpt><trkpt lat="44.877468932900776" lon="10.161956165221772"><ele>44.0</ele><time>2026-05-04T06:44:26Z</time></trkpt><trkpt lat="44.87762957709361" lon="10.162005881823154"><ele>44.666666666666664</ele><time>2026-05-04T06:44:27Z</time></trkpt><trkpt lat="44.87778322593032" lon="10.162055152319377"><ele>45.333333333333336</ele><time>2026-05-04T06:44:28Z</time></trkpt><trkpt lat="44.87793264661681" lon="10.162103927577572"><ele>46.0</ele><time>2026-05-04T06:44:29Z</time></trkpt><trkpt lat="44.87807601066467" lon="10.162148077309135"><ele>46.0</ele><time>2026-05-04T06:44:30Z</time></trkpt><trkpt lat="44.878215605504806" lon="10.162191817819252"><ele>46.0</ele><time>2026-05-04T06:44:31Z</time></trkpt><trkpt lat="44.87834976203813" lon="10.162237468528161"><ele>46.0</ele><time>2026-05-04T06:44:32Z</time></trkpt><trkpt lat="44.8784842724593" lon="10.162281487018811"><ele>46.0</ele><time>2026-05-04T06:44:33Z</time></trkpt><trkpt lat="44.878617145390635" lon="10.162329494905093"><ele>46.25</ele><time>2026-05-04T06:44:34Z</time></trkpt><trkpt lat="44.87874981969489" lon="10.162375673382218"><ele>46.5</ele><time>2026-05-04T06:44:35Z</time></trkpt><trkpt lat="44.878882659569335" lon="10.162420816040635"><ele>46.75</ele><time>2026-05-04T06:44:36Z</time></trkpt><trkpt lat="44.87902147282195" lon="10.162462819017431"><ele>47.0</ele><time>2026-05-04T06:44:37Z</time></trkpt><trkpt lat="44.87917281947684" lon="10.162495512330016"><ele>47.0</ele><time>2026-05-04T06:44:38Z</time></trkpt><trkpt lat="44.879338438813306" lon="10.162504098392228"><ele>47.0</ele><time>2026-05-04T06:44:39Z</time></trkpt><trkpt lat="44.87952408585863" lon="10.162491130456347"><ele>47.0</ele><time>2026-05-04T06:44:40Z</time></trkpt><trkpt lat="44.8797357669252" lon="10.162519155542295"><ele>47.0</ele><time>2026-05-04T06:44:41Z</time></trkpt><trkpt lat="44.87995717901397" lon="10.162524214609885"><ele>47.0</ele><time>2026-05-04T06:44:42Z</time></trkpt><trkpt lat="44.88018412313633" lon="10.16251675950465"><ele>47.0</ele><time>2026-05-04T06:44:43Z</time></trkpt><trkpt lat="44.880418167112964" lon="10.162543669356554"><ele>46.5</ele><time>2026-05-04T06:44:44Z</time></trkpt><trkpt lat="44.880649461467456" lon="10.162552879840025"><ele>46.0</ele><time>2026-05-04T06:44:45Z</time></trkpt><trkpt lat="44.88087593218595" lon="10.162558360536822"><ele>45.66666666666667</ele><time>2026-05-04T06:44:46Z</time></trkpt><trkpt lat="44.88110136450034" lon="10.162563852983746"><ele>45.333333333333336</ele><time>2026-05-04T06:44:47Z</time></trkpt><trkpt lat="44.88132328260523" lon="10.162549188553406"><ele>45.0</ele><time>2026-05-04T06:44:48Z</time></trkpt><trkpt lat="44.881540803682505" lon="10.162506574800187"><ele>45.0</ele><time>2026-05-04T06:44:49Z</time></trkpt><trkpt lat="44.881751100466374" lon="10.16243134537015"><ele>45.0</ele><time>2026-05-04T06:44:50Z</time></trkpt><trkpt lat="44.88195295554009" lon="10.16233653530913"><ele>45.0</ele><time>2026-05-04T06:44:51Z</time></trkpt><trkpt lat="44.882153689497876" lon="10.162246292566518"><ele>44.666666666666664</ele><time>2026-05-04T06:44:52Z</time></trkpt><trkpt lat="44.88235968225229" lon="10.16219764789585"><ele>44.33333333333333</ele><time>2026-05-04T06:44:53Z</time></trkpt><trkpt lat="44.88255912118612" lon="10.162192829736837"><ele>44.0</ele><time>2026-05-04T06:44:54Z</time></trkpt><trkpt lat="44.882751972219644" lon="10.162243107011593"><ele>44.0</ele><time>2026-05-04T06:44:55Z</time></trkpt><trkpt lat="44.88290445339866" lon="10.16230329903463"><ele>44.0</ele><time>2026-05-04T06:44:56Z</time></trkpt><trkpt lat="44.8830173211261" lon="10.162387586005398"><ele>44.0</ele><time>2026-05-04T06:44:57Z</time></trkpt><trkpt lat="44.883107249252475" lon="10.16251390062027"><ele>44.0</ele><time>2026-05-04T06:44:58Z</time></trkpt><trkpt lat="44.88319631838659" lon="10.16264357828881"><ele>44.0</ele><time>2026-05-04T06:44:59Z</time></trkpt><trkpt lat="44.883314206984366" lon="10.16270620732275"><ele>44.0</ele><time>2026-05-04T06:45:00Z</time></trkpt><trkpt lat="44.88344665970746" lon="10.162734716698715"><ele>44.0</ele><time>2026-05-04T06:45:01Z</time></trkpt><trkpt lat="44.88357407234498" lon="10.162778459636682"><ele>44.0</ele><time>2026-05-04T06:45:02Z</time></trkpt><trkpt lat="44.883700664537415" lon="10.162856223977249"><ele>44.0</ele><time>2026-05-04T06:45:03Z</time></trkpt><trkpt lat="44.88382868973366" lon="10.162949889072962"><ele>44.0</ele><time>2026-05-04T06:45:04Z</time></trkpt><trkpt lat="44.88397475898348" lon="10.163051411285492"><ele>44.0</ele><time>2026-05-04T06:45:05Z</time></trkpt><trkpt lat="44.88413422538963" lon="10.16315668426828"><ele>43.666666666666664</ele><time>2026-05-04T06:45:06Z</time></trkpt><trkpt lat="44.88429670716912" lon="10.16326352624279"><ele>43.333333333333336</ele><time>2026-05-04T06:45:07Z</time></trkpt><trkpt lat="44.884464119791545" lon="10.163375319698435"><ele>43.0</ele><time>2026-05-04T06:45:08Z</time></trkpt><trkpt lat="44.884636534064434" lon="10.163492208268616"><ele>43.0</ele><time>2026-05-04T06:45:09Z</time></trkpt><trkpt lat="44.884815111253396" lon="10.163612274588925"><ele>43.0</ele><time>2026-05-04T06:45:10Z</time></trkpt><trkpt lat="44.88499998462159" lon="10.163734421724072"><ele>43.0</ele><time>2026-05-04T06:45:11Z</time></trkpt><trkpt lat="44.885189209267814" lon="10.163861046677882"><ele>42.333333333333336</ele><time>2026-05-04T06:45:12Z</time></trkpt><trkpt lat="44.885378756209434" lon="10.163986137521619"><ele>41.666666666666664</ele><time>2026-05-04T06:45:13Z</time></trkpt><trkpt lat="44.885565695296535" lon="10.164115133491348"><ele>41.0</ele><time>2026-05-04T06:45:14Z</time></trkpt><trkpt lat="44.88575413640014" lon="10.164240217728166"><ele>40.33333333333333</ele><time>2026-05-04T06:45:15Z</time></trkpt><trkpt lat="44.88594776893252" lon="10.164365789202606"><ele>39.666666666666664</ele><time>2026-05-04T06:45:16Z</time></trkpt><trkpt lat="44.8861428521916" lon="10.164489200521443"><ele>39.0</ele><time>2026-05-04T06:45:17Z</time></trkpt><trkpt lat="44.886331947891634" lon="10.16461138195066"><ele>39.0</ele><time>2026-05-04T06:45:18Z</time></trkpt><trkpt lat="44.886518509967495" lon="10.164731167772377"><ele>39.0</ele><time>2026-05-04T06:45:19Z</time></trkpt><trkpt lat="44.88670147038208" lon="10.164851975470624"><ele>39.0</ele><time>2026-05-04T06:45:20Z</time></trkpt><trkpt lat="44.88687977163059" lon="10.164974258882593"><ele>39.333333333333336</ele><time>2026-05-04T06:45:21Z</time></trkpt><trkpt lat="44.887052708891716" lon="10.165092120881493"><ele>39.66666666666667</ele><time>2026-05-04T06:45:22Z</time></trkpt><trkpt lat="44.88722749055479" lon="10.165213002502313"><ele>40.0</ele><time>2026-05-04T06:45:23Z</time></trkpt><trkpt lat="44.887400182754504" lon="10.165335883163594"><ele>40.0</ele><time>2026-05-04T06:45:24Z</time></trkpt><trkpt lat="44.88756606688705" lon="10.165465753152239"><ele>40.0</ele><time>2026-05-04T06:45:25Z</time></trkpt><trkpt lat="44.88772351770437" lon="10.165604128363205"><ele>40.0</ele><time>2026-05-04T06:45:26Z</time></trkpt><trkpt lat="44.88787704374467" lon="10.165748981136561"><ele>40.66666666666667</ele><time>2026-05-04T06:45:27Z</time></trkpt><trkpt lat="44.88802856448101" lon="10.16589501311491"><ele>41.333333333333336</ele><time>2026-05-04T06:45:28Z</time></trkpt><trkpt lat="44.88817480399319" lon="10.166040061876721"><ele>42.0</ele><time>2026-05-04T06:45:29Z</time></trkpt><trkpt lat="44.888320763894754" lon="10.166182072135518"><ele>42.0</ele><time>2026-05-04T06:45:30Z</time></trkpt><trkpt lat="44.88846375662151" lon="10.166322711747917"><ele>42.0</ele><time>2026-05-04T06:45:31Z</time></trkpt><trkpt lat="44.88859862252936" lon="10.166452990689036"><ele>42.0</ele><time>2026-05-04T06:45:32Z</time></trkpt><trkpt lat="44.88870668520751" lon="10.166574052800314"><ele>42.0</ele><time>2026-05-04T06:45:33Z</time></trkpt><trkpt lat="44.88877695131807" lon="10.16670958116882"><ele>42.0</ele><time>2026-05-04T06:45:34Z</time></trkpt><trkpt lat="44.888799589114015" lon="10.166884950128656"><ele>42.0</ele><time>2026-05-04T06:45:35Z</time></trkpt><trkpt lat="44.88881924645945" lon="10.167047235558247"><ele>42.0</ele><time>2026-05-04T06:45:36Z</time></trkpt><trkpt lat="44.88889174688664" lon="10.16718000813543"><ele>42.0</ele><time>2026-05-04T06:45:37Z</time></trkpt><trkpt lat="44.88900604616343" lon="10.167248040339292"><ele>42.0</ele><time>2026-05-04T06:45:38Z</time></trkpt><trkpt lat="44.889135726877676" lon="10.167252564854573"><ele>42.0</ele><time>2026-05-04T06:45:39Z</time></trkpt><trkpt lat="44.889262077111674" lon="10.167194557534756"><ele>42.0</ele><time>2026-05-04T06:45:40Z</time></trkpt><trkpt lat="44.889376244233574" lon="10.167132849554683"><ele>41.75</ele><time>2026-05-04T06:45:41Z</time></trkpt><trkpt lat="44.88949639885276" lon="10.167122558359193"><ele>41.5</ele><time>2026-05-04T06:45:42Z</time></trkpt><trkpt lat="44.88962063244672" lon="10.16716232944826"><ele>41.25</ele><time>2026-05-04T06:45:43Z</time></trkpt><trkpt lat="44.889747846953014" lon="10.167225465083577"><ele>41.0</ele><time>2026-05-04T06:45:44Z</time></trkpt><trkpt lat="44.88988396809296" lon="10.167290844978956"><ele>41.0</ele><time>2026-05-04T06:45:45Z</time></trkpt><trkpt lat="44.89003739792878" lon="10.167353791073444"><ele>41.0</ele><time>2026-05-04T06:45:46Z</time></trkpt><trkpt lat="44.890202940620384" lon="10.16742093273079"><ele>41.0</ele><time>2026-05-04T06:45:47Z</time></trkpt><trkpt lat="44.890375982962134" lon="10.167494808971602"><ele>41.33333333333333</ele><time>2026-05-04T06:45:48Z</time></trkpt><trkpt lat="44.890557787005" lon="10.16757078397291"><ele>41.666666666666664</ele><time>2026-05-04T06:45:49Z</time></trkpt><trkpt lat="44.890747338471265" lon="10.167651291134893"><ele>42.0</ele><time>2026-05-04T06:45:50Z</time></trkpt><trkpt lat="44.89094381390324" lon="10.167734864617673"><ele>42.0</ele><time>2026-05-04T06:45:51Z</time></trkpt><trkpt lat="44.8911470429362" lon="10.167818108940853"><ele>42.0</ele><time>2026-05-04T06:45:52Z</time></trkpt><trkpt lat="44.89135838032185" lon="10.16789432376562"><ele>42.0</ele><time>2026-05-04T06:45:53Z</time></trkpt><trkpt lat="44.89157848884906" lon="10.167925980027269"><ele>42.0</ele><time>2026-05-04T06:45:54Z</time></trkpt><trkpt lat="44.89180366951007" lon="10.167919786921109"><ele>42.0</ele><time>2026-05-04T06:45:55Z</time></trkpt><trkpt lat="44.8920284230592" lon="10.167883868028229"><ele>42.0</ele><time>2026-05-04T06:45:56Z</time></trkpt><trkpt lat="44.8922536042636" lon="10.16784427804853"><ele>42.0</ele><time>2026-05-04T06:45:57Z</time></trkpt><trkpt lat="44.89248089017055" lon="10.167806788645898"><ele>42.0</ele><time>2026-05-04T06:45:58Z</time></trkpt><trkpt lat="44.89271103143641" lon="10.167766723806123"><ele>42.0</ele><time>2026-05-04T06:45:59Z</time></trkpt><trkpt lat="44.89294519103405" lon="10.167731047367678"><ele>42.0</ele><time>2026-05-04T06:46:00Z</time></trkpt><trkpt lat="44.89318094688316" lon="10.167697267923831"><ele>42.0</ele><time>2026-05-04T06:46:01Z</time></trkpt><trkpt lat="44.89341467662697" lon="10.167662177649326"><ele>42.0</ele><time>2026-05-04T06:46:02Z</time></trkpt><trkpt lat="44.893646097417495" lon="10.167622825962725"><ele>42.0</ele><time>2026-05-04T06:46:03Z</time></trkpt><trkpt lat="44.89387170539448" lon="10.167585889733378"><ele>42.0</ele><time>2026-05-04T06:46:03.999Z</time></trkpt><trkpt lat="44.894091651084274" lon="10.167547634868283"><ele>42.0</ele><time>2026-05-04T06:46:04.999Z</time></trkpt><trkpt lat="44.89430166423721" lon="10.16750988604125"><ele>42.0</ele><time>2026-05-04T06:46:05.999Z</time></trkpt><trkpt lat="44.89449512615401" lon="10.167485676814557"><ele>42.333333333333336</ele><time>2026-05-04T06:46:06.999Z</time></trkpt><trkpt lat="44.894666246164725" lon="10.167464256581852"><ele>42.66666666666667</ele><time>2026-05-04T06:46:07.999Z</time></trkpt><trkpt lat="44.89481823615152" lon="10.167415783424318"><ele>43.0</ele><time>2026-05-04T06:46:08.999Z</time></trkpt><trkpt lat="44.89496098246268" lon="10.167311970652422"><ele>42.0</ele><time>2026-05-04T06:46:09.999Z</time></trkpt><trkpt lat="44.895099898044705" lon="10.167193854225966"><ele>41.0</ele><time>2026-05-04T06:46:10.999Z</time></trkpt><trkpt lat="44.895240301039976" lon="10.167062498368967"><ele>40.0</ele><time>2026-05-04T06:46:11.999Z</time></trkpt><trkpt lat="44.89537816943984" lon="10.166902406049534"><ele>40.0</ele><time>2026-05-04T06:46:12.999Z</time></trkpt><trkpt lat="44.895505252679904" lon="10.16671032179251"><ele>40.0</ele><time>2026-05-04T06:46:13.999Z</time></trkpt><trkpt lat="44.895626427499465" lon="10.166496708827447"><ele>40.0</ele><time>2026-05-04T06:46:15Z</time></trkpt><trkpt lat="44.89575069788067" lon="10.166272751638235"><ele>40.0</ele><time>2026-05-04T06:46:16Z</time></trkpt><trkpt lat="44.8958810383567" lon="10.166040949989247"><ele>40.0</ele><time>2026-05-04T06:46:17Z</time></trkpt><trkpt lat="44.896013732501814" lon="10.1658024202424"><ele>40.0</ele><time>2026-05-04T06:46:18Z</time></trkpt><trkpt lat="44.89614682986517" lon="10.165554391875117"><ele>40.0</ele><time>2026-05-04T06:46:19Z</time></trkpt><trkpt lat="44.896288105395925" lon="10.165303619343646"><ele>40.0</ele><time>2026-05-04T06:46:20Z</time></trkpt><trkpt lat="44.896425825366315" lon="10.165049036231869"><ele>40.0</ele><time>2026-05-04T06:46:21Z</time></trkpt><trkpt lat="44.896565298245825" lon="10.164798240151388"><ele>40.0</ele><time>2026-05-04T06:46:22Z</time></trkpt><trkpt lat="44.89670254501263" lon="10.164553151563187"><ele>40.0</ele><time>2026-05-04T06:46:23Z</time></trkpt><trkpt lat="44.89683993183311" lon="10.164315251803163"><ele>40.66666666666667</ele><time>2026-05-04T06:46:24Z</time></trkpt><trkpt lat="44.8969734230599" lon="10.164078302096414"><ele>41.333333333333336</ele><time>2026-05-04T06:46:25Z</time></trkpt><trkpt lat="44.89710192523332" lon="10.163840405713676"><ele>42.0</ele><time>2026-05-04T06:46:26Z</time></trkpt><trkpt lat="44.897227781275674" lon="10.16360726453452"><ele>42.333333333333336</ele><time>2026-05-04T06:46:27Z</time></trkpt><trkpt lat="44.89734639141038" lon="10.163372412744517"><ele>42.66666666666667</ele><time>2026-05-04T06:46:28Z</time></trkpt><trkpt lat="44.897443983306694" lon="10.163126753768628"><ele>43.0</ele><time>2026-05-04T06:46:29Z</time></trkpt><trkpt lat="44.89753020240273" lon="10.16287690026122"><ele>43.0</ele><time>2026-05-04T06:46:30Z</time></trkpt><trkpt lat="44.897621079568836" lon="10.162627195385339"><ele>43.0</ele><time>2026-05-04T06:46:31Z</time></trkpt><trkpt lat="44.89770937272422" lon="10.162372043075928"><ele>43.0</ele><time>2026-05-04T06:46:32Z</time></trkpt><trkpt lat="44.897800690085425" lon="10.162118689994239"><ele>43.0</ele><time>2026-05-04T06:46:33Z</time></trkpt><trkpt lat="44.89789182804637" lon="10.161862399784955"><ele>43.0</ele><time>2026-05-04T06:46:34Z</time></trkpt><trkpt lat="44.89797940518372" lon="10.161611501268272"><ele>43.0</ele><time>2026-05-04T06:46:35Z</time></trkpt><trkpt lat="44.898064527317764" lon="10.161361741844928"><ele>43.0</ele><time>2026-05-04T06:46:36Z</time></trkpt><trkpt lat="44.89814248271912" lon="10.161122241143495"><ele>43.0</ele><time>2026-05-04T06:46:37Z</time></trkpt><trkpt lat="44.89820959484585" lon="10.160909766241867"><ele>43.0</ele><time>2026-05-04T06:46:38Z</time></trkpt><trkpt lat="44.898287600736886" lon="10.16072732044338"><ele>43.66666666666667</ele><time>2026-05-04T06:46:39Z</time></trkpt><trkpt lat="44.89839734173651" lon="10.160575126147442"><ele>44.333333333333336</ele><time>2026-05-04T06:46:40Z</time></trkpt><trkpt lat="44.898534028269104" lon="10.160482983998612"><ele>45.0</ele><time>2026-05-04T06:46:41Z</time></trkpt><trkpt lat="44.89868453141749" lon="10.160430504511378"><ele>43.666666666666664</ele><time>2026-05-04T06:46:42Z</time></trkpt><trkpt lat="44.89884211803683" lon="10.160391913134596"><ele>42.33333333333333</ele><time>2026-05-04T06:46:43Z</time></trkpt><trkpt lat="44.89900733897738" lon="10.1603480673186"><ele>41.0</ele><time>2026-05-04T06:46:44Z</time></trkpt><trkpt lat="44.89917819828881" lon="10.160302291825182"><ele>41.666666666666664</ele><time>2026-05-04T06:46:45Z</time></trkpt><trkpt lat="44.899357664637655" lon="10.160256144676925"><ele>42.333333333333336</ele><time>2026-05-04T06:46:46Z</time></trkpt><trkpt lat="44.89954508846252" lon="10.16020560895233"><ele>43.0</ele><time>2026-05-04T06:46:47Z</time></trkpt><trkpt lat="44.89973597149019" lon="10.160152196457267"><ele>43.0</ele><time>2026-05-04T06:46:48Z</time></trkpt><trkpt lat="44.89993532837216" lon="10.160095638042877"><ele>43.0</ele><time>2026-05-04T06:46:49Z</time></trkpt><trkpt lat="44.90014219116844" lon="10.160042638213922"><ele>43.0</ele><time>2026-05-04T06:46:50Z</time></trkpt><trkpt lat="44.900355127875386" lon="10.159984142825564"><ele>43.0</ele><time>2026-05-04T06:46:51Z</time></trkpt><trkpt lat="44.90056925803943" lon="10.159921653423128"><ele>43.0</ele><time>2026-05-04T06:46:52Z</time></trkpt><trkpt lat="44.900783581125324" lon="10.159853823342214"><ele>43.0</ele><time>2026-05-04T06:46:53Z</time></trkpt><trkpt lat="44.90100191000658" lon="10.159773130523122"><ele>42.5</ele><time>2026-05-04T06:46:54Z</time></trkpt><trkpt lat="44.90121589971916" lon="10.159680328711675"><ele>42.0</ele><time>2026-05-04T06:46:55Z</time></trkpt><trkpt lat="44.90143218849877" lon="10.159576204042988"><ele>42.0</ele><time>2026-05-04T06:46:56Z</time></trkpt><trkpt lat="44.90164817384993" lon="10.15946440795768"><ele>42.0</ele><time>2026-05-04T06:46:57Z</time></trkpt><trkpt lat="44.90185999660583" lon="10.159362073023827"><ele>42.0</ele><time>2026-05-04T06:46:58Z</time></trkpt><trkpt lat="44.90207084589997" lon="10.159261708580038"><ele>42.0</ele><time>2026-05-04T06:46:59Z</time></trkpt><trkpt lat="44.90227821342329" lon="10.159158909481274"><ele>42.0</ele><time>2026-05-04T06:47:00Z</time></trkpt><trkpt lat="44.90248423715423" lon="10.15905587480823"><ele>42.333333333333336</ele><time>2026-05-04T06:47:01Z</time></trkpt><trkpt lat="44.90268826609598" lon="10.158945435976015"><ele>42.66666666666667</ele><time>2026-05-04T06:47:02Z</time></trkpt><trkpt lat="44.90289305334927" lon="10.158833206986124"><ele>43.0</ele><time>2026-05-04T06:47:03Z</time></trkpt><trkpt lat="44.903098163243655" lon="10.158705131561538"><ele>43.0</ele><time>2026-05-04T06:47:04Z</time></trkpt><trkpt lat="44.90330146840334" lon="10.158565189558171"><ele>43.0</ele><time>2026-05-04T06:47:05Z</time></trkpt><trkpt lat="44.90349996006126" lon="10.158414590380644"><ele>43.0</ele><time>2026-05-04T06:47:06Z</time></trkpt><trkpt lat="44.90369676710727" lon="10.158260471266406"><ele>43.0</ele><time>2026-05-04T06:47:07Z</time></trkpt><trkpt lat="44.90389102333369" lon="10.158102032998793"><ele>43.0</ele><time>2026-05-04T06:47:08Z</time></trkpt><trkpt lat="44.90407782686126" lon="10.15793417799575"><ele>43.0</ele><time>2026-05-04T06:47:09Z</time></trkpt><trkpt lat="44.90426030766994" lon="10.157760241691212"><ele>43.0</ele><time>2026-05-04T06:47:10Z</time></trkpt><trkpt lat="44.90443639879457" lon="10.157584154016108"><ele>43.0</ele><time>2026-05-04T06:47:11Z</time></trkpt><trkpt lat="44.90460977718778" lon="10.157407821010437"><ele>42.66666666666667</ele><time>2026-05-04T06:47:12Z</time></trkpt><trkpt lat="44.90478943447468" lon="10.157235140103168"><ele>42.333333333333336</ele><time>2026-05-04T06:47:13Z</time></trkpt><trkpt lat="44.90496662017135" lon="10.15706320159415"><ele>42.0</ele><time>2026-05-04T06:47:14Z</time></trkpt><trkpt lat="44.90514610048822" lon="10.15688506186319"><ele>42.0</ele><time>2026-05-04T06:47:15Z</time></trkpt><trkpt lat="44.90532397439267" lon="10.156709809423557"><ele>42.0</ele><time>2026-05-04T06:47:16Z</time></trkpt><trkpt lat="44.90550077466876" lon="10.156537565997631"><ele>42.0</ele><time>2026-05-04T06:47:17Z</time></trkpt><trkpt lat="44.905682269089" lon="10.156381340687487"><ele>42.0</ele><time>2026-05-04T06:47:18Z</time></trkpt><trkpt lat="44.90586910230999" lon="10.156242252850484"><ele>42.0</ele><time>2026-05-04T06:47:19Z</time></trkpt><trkpt lat="44.9060577117822" lon="10.15610724532079"><ele>42.0</ele><time>2026-05-04T06:47:20Z</time></trkpt><trkpt lat="44.90624688163904" lon="10.15597625207336"><ele>42.0</ele><time>2026-05-04T06:47:21Z</time></trkpt><trkpt lat="44.906439933624625" lon="10.155846651035564"><ele>42.0</ele><time>2026-05-04T06:47:22Z</time></trkpt><trkpt lat="44.906624212476395" lon="10.155718979636733"><ele>42.0</ele><time>2026-05-04T06:47:23Z</time></trkpt><trkpt lat="44.90680839625142" lon="10.155594707366525"><ele>42.333333333333336</ele><time>2026-05-04T06:47:24Z</time></trkpt><trkpt lat="44.90698315920653" lon="10.155459961829685"><ele>42.66666666666667</ele><time>2026-05-04T06:47:25Z</time></trkpt><trkpt lat="44.90714389517451" lon="10.155287791229851"><ele>43.0</ele><time>2026-05-04T06:47:26Z</time></trkpt><trkpt lat="44.907280139706025" lon="10.15508467031001"><ele>43.0</ele><time>2026-05-04T06:47:27Z</time></trkpt><trkpt lat="44.90742759843359" lon="10.154888366622453"><ele>43.0</ele><time>2026-05-04T06:47:28Z</time></trkpt><trkpt lat="44.90757614424471" lon="10.15468643186452"><ele>43.0</ele><time>2026-05-04T06:47:29Z</time></trkpt><trkpt lat="44.907672472473536" lon="10.154403568205561"><ele>42.66666666666667</ele><time>2026-05-04T06:47:30Z</time></trkpt><trkpt lat="44.90780847387512" lon="10.154168966834439"><ele>42.333333333333336</ele><time>2026-05-04T06:47:31Z</time></trkpt><trkpt lat="44.90794717015163" lon="10.15393094469011"><ele>42.0</ele><time>2026-05-04T06:47:32Z</time></trkpt><trkpt lat="44.90809134987073" lon="10.153689515843478"><ele>42.0</ele><time>2026-05-04T06:47:33Z</time></trkpt><trkpt lat="44.908234501471206" lon="10.153444402683723"><ele>42.0</ele><time>2026-05-04T06:47:34Z</time></trkpt><trkpt lat="44.90837697187376" lon="10.1532041070762"><ele>42.0</ele><time>2026-05-04T06:47:35Z</time></trkpt><trkpt lat="44.908515585292974" lon="10.152969378299085"><ele>43.0</ele><time>2026-05-04T06:47:36Z</time></trkpt><trkpt lat="44.90864415510287" lon="10.152758813467983"><ele>44.0</ele><time>2026-05-04T06:47:37Z</time></trkpt><trkpt lat="44.90879096520066" lon="10.152588322254084"><ele>45.0</ele><time>2026-05-04T06:47:38Z</time></trkpt><trkpt lat="44.90896097631703" lon="10.152472086552216"><ele>45.0</ele><time>2026-05-04T06:47:39Z</time></trkpt><trkpt lat="44.90914947018163" lon="10.152408638422447"><ele>45.0</ele><time>2026-05-04T06:47:40Z</time></trkpt><trkpt lat="44.90933900474971" lon="10.15234466925199"><ele>45.0</ele><time>2026-05-04T06:47:41Z</time></trkpt><trkpt lat="44.90952909842837" lon="10.152265912149794"><ele>44.666666666666664</ele><time>2026-05-04T06:47:42Z</time></trkpt><trkpt lat="44.90972417397669" lon="10.15218395637429"><ele>44.33333333333333</ele><time>2026-05-04T06:47:43Z</time></trkpt><trkpt lat="44.90992291857634" lon="10.152100492443271"><ele>44.0</ele><time>2026-05-04T06:47:44Z</time></trkpt><trkpt lat="44.91012450167678" lon="10.152017202705583"><ele>43.33333333333333</ele><time>2026-05-04T06:47:45Z</time></trkpt><trkpt lat="44.91032974015689" lon="10.151927956260645"><ele>42.666666666666664</ele><time>2026-05-04T06:47:46Z</time></trkpt><trkpt lat="44.91053776374434" lon="10.151837374249205"><ele>42.0</ele><time>2026-05-04T06:47:47Z</time></trkpt><trkpt lat="44.91075026141782" lon="10.151746939847945"><ele>43.0</ele><time>2026-05-04T06:47:48Z</time></trkpt><trkpt lat="44.910968352190935" lon="10.151655730051987"><ele>44.0</ele><time>2026-05-04T06:47:49Z</time></trkpt><trkpt lat="44.91118675865435" lon="10.151554483376641"><ele>43.5</ele><time>2026-05-04T06:47:50Z</time></trkpt><trkpt lat="44.911401714182986" lon="10.151435683119356"><ele>43.0</ele><time>2026-05-04T06:47:51Z</time></trkpt><trkpt lat="44.911615060821" lon="10.15130587663892"><ele>44.0</ele><time>2026-05-04T06:47:52Z</time></trkpt><trkpt lat="44.911826110383956" lon="10.151163412780859"><ele>45.0</ele><time>2026-05-04T06:47:53Z</time></trkpt><trkpt lat="44.912040261947865" lon="10.15101696840405"><ele>45.0</ele><time>2026-05-04T06:47:54Z</time></trkpt><trkpt lat="44.912255308317775" lon="10.150871673098813"><ele>45.0</ele><time>2026-05-04T06:47:55Z</time></trkpt><trkpt lat="44.912466283781654" lon="10.150725712015957"><ele>45.0</ele><time>2026-05-04T06:47:56Z</time></trkpt><trkpt lat="44.91267774553347" lon="10.150585986071285"><ele>45.0</ele><time>2026-05-04T06:47:57Z</time></trkpt><trkpt lat="44.91289291025729" lon="10.15044730267234"><ele>45.0</ele><time>2026-05-04T06:47:58Z</time></trkpt><trkpt lat="44.91310233180503" lon="10.150304181293565"><ele>45.0</ele><time>2026-05-04T06:47:59Z</time></trkpt><trkpt lat="44.91330652875122" lon="10.150166165395275"><ele>44.666666666666664</ele><time>2026-05-04T06:48:00Z</time></trkpt><trkpt lat="44.91350222185604" lon="10.150037130621534"><ele>44.33333333333333</ele><time>2026-05-04T06:48:01Z</time></trkpt><trkpt lat="44.91368235044922" lon="10.149915470914408"><ele>44.0</ele><time>2026-05-04T06:48:02Z</time></trkpt><trkpt lat="44.91383830098098" lon="10.14977603572053"><ele>43.666666666666664</ele><time>2026-05-04T06:48:02.999Z</time></trkpt><trkpt lat="44.91395934647573" lon="10.149598389124582"><ele>43.333333333333336</ele><time>2026-05-04T06:48:03.999Z</time></trkpt><trkpt lat="44.91405309082525" lon="10.14938293180367"><ele>43.0</ele><time>2026-05-04T06:48:04.999Z</time></trkpt><trkpt lat="44.91411360191988" lon="10.14914882113567"><ele>44.0</ele><time>2026-05-04T06:48:05.999Z</time></trkpt><trkpt lat="44.914143286677835" lon="10.148904568290662"><ele>45.0</ele><time>2026-05-04T06:48:06.999Z</time></trkpt><trkpt lat="44.91414376295053" lon="10.14865685422599"><ele>46.0</ele><time>2026-05-04T06:48:07.999Z</time></trkpt><trkpt lat="44.91413955517234" lon="10.1484091819475"><ele>45.66666666666667</ele><time>2026-05-04T06:48:08.999Z</time></trkpt><trkpt lat="44.91413190922436" lon="10.148150017037711"><ele>45.333333333333336</ele><time>2026-05-04T06:48:09.999Z</time></trkpt><trkpt lat="44.91413135957607" lon="10.147877838973965"><ele>45.0</ele><time>2026-05-04T06:48:10.999Z</time></trkpt><trkpt lat="44.91414058769619" lon="10.147591313420135"><ele>45.0</ele><time>2026-05-04T06:48:11.999Z</time></trkpt><trkpt lat="44.914144776903555" lon="10.147289898847133"><ele>45.0</ele><time>2026-05-04T06:48:12.999Z</time></trkpt><trkpt lat="44.914148000480935" lon="10.146977933768994"><ele>45.0</ele><time>2026-05-04T06:48:13.999Z</time></trkpt><trkpt lat="44.9141516404116" lon="10.146653577708477"><ele>44.0</ele><time>2026-05-04T06:48:14.999Z</time></trkpt><trkpt lat="44.91415660832179" lon="10.146331840489434"><ele>43.0</ele><time>2026-05-04T06:48:15.999Z</time></trkpt><trkpt lat="44.91415680768586" lon="10.146006793046219"><ele>43.5</ele><time>2026-05-04T06:48:16.999Z</time></trkpt><trkpt lat="44.91415759205594" lon="10.145676443720857"><ele>44.0</ele><time>2026-05-04T06:48:17.999Z</time></trkpt><trkpt lat="44.91416335935627" lon="10.145348018818707"><ele>44.0</ele><time>2026-05-04T06:48:18.999Z</time></trkpt><trkpt lat="44.914184508697" lon="10.145017468212615"><ele>44.0</ele><time>2026-05-04T06:48:19.999Z</time></trkpt><trkpt lat="44.91422476573769" lon="10.144686199717333"><ele>43.5</ele><time>2026-05-04T06:48:21Z</time></trkpt><trkpt lat="44.91429114837658" lon="10.144363740430057"><ele>43.0</ele><time>2026-05-04T06:48:22Z</time></trkpt><trkpt lat="44.91436977850161" lon="10.144041005624498"><ele>42.0</ele><time>2026-05-04T06:48:23Z</time></trkpt><trkpt lat="44.914451192126975" lon="10.143714041622097"><ele>41.0</ele><time>2026-05-04T06:48:24Z</time></trkpt><trkpt lat="44.91452862511965" lon="10.143382867879165"><ele>41.0</ele><time>2026-05-04T06:48:25Z</time></trkpt><trkpt lat="44.91460776015553" lon="10.143048520254197"><ele>41.0</ele><time>2026-05-04T06:48:26Z</time></trkpt><trkpt lat="44.91468653823431" lon="10.142709180999656"><ele>42.0</ele><time>2026-05-04T06:48:27Z</time></trkpt><trkpt lat="44.91476819920886" lon="10.14236543151411"><ele>43.0</ele><time>2026-05-04T06:48:28Z</time></trkpt><trkpt lat="44.914850272940896" lon="10.142017354513097"><ele>43.0</ele><time>2026-05-04T06:48:29Z</time></trkpt><trkpt lat="44.91493130005304" lon="10.14166609746247"><ele>43.0</ele><time>2026-05-04T06:48:30Z</time></trkpt><trkpt lat="44.91501244510386" lon="10.141309751538499"><ele>43.0</ele><time>2026-05-04T06:48:31Z</time></trkpt><trkpt lat="44.91509499693737" lon="10.140951765770646"><ele>43.0</ele><time>2026-05-04T06:48:32Z</time></trkpt><trkpt lat="44.915177678340804" lon="10.140589741185426"><ele>42.5</ele><time>2026-05-04T06:48:33Z</time></trkpt><trkpt lat="44.91526163990562" lon="10.140226315643526"><ele>42.0</ele><time>2026-05-04T06:48:34Z</time></trkpt><trkpt lat="44.91534641151145" lon="10.139858650295784"><ele>41.5</ele><time>2026-05-04T06:48:35Z</time></trkpt><trkpt lat="44.91543295621259" lon="10.139484452330885"><ele>41.0</ele><time>2026-05-04T06:48:36Z</time></trkpt><trkpt lat="44.91551940298215" lon="10.139109439250536"><ele>41.5</ele><time>2026-05-04T06:48:37Z</time></trkpt><trkpt lat="44.915603103255336" lon="10.13872631642494"><ele>42.0</ele><time>2026-05-04T06:48:38Z</time></trkpt><trkpt lat="44.91568508702744" lon="10.138342730891846"><ele>42.5</ele><time>2026-05-04T06:48:39Z</time></trkpt><trkpt lat="44.915768646446224" lon="10.137959560495684"><ele>43.0</ele><time>2026-05-04T06:48:40Z</time></trkpt><trkpt lat="44.915851350792835" lon="10.137579800660436"><ele>42.5</ele><time>2026-05-04T06:48:41Z</time></trkpt><trkpt lat="44.915930197603316" lon="10.137206639546076"><ele>42.0</ele><time>2026-05-04T06:48:42Z</time></trkpt><trkpt lat="44.91600653704591" lon="10.136836946552993"><ele>42.0</ele><time>2026-05-04T06:48:43Z</time></trkpt><trkpt lat="44.91608329483221" lon="10.1364716449478"><ele>42.0</ele><time>2026-05-04T06:48:44Z</time></trkpt><trkpt lat="44.916159087806484" lon="10.136112850647605"><ele>42.0</ele><time>2026-05-04T06:48:45Z</time></trkpt><trkpt lat="44.91623351474345" lon="10.13575883467309"><ele>42.0</ele><time>2026-05-04T06:48:46Z</time></trkpt><trkpt lat="44.91630802565648" lon="10.135411218436063"><ele>42.5</ele><time>2026-05-04T06:48:47Z</time></trkpt><trkpt lat="44.9163816438866" lon="10.135066983738955"><ele>43.0</ele><time>2026-05-04T06:48:48Z</time></trkpt><trkpt lat="44.91645045688652" lon="10.134728633996344"><ele>42.0</ele><time>2026-05-04T06:48:49Z</time></trkpt><trkpt lat="44.91651970858359" lon="10.134394531073857"><ele>41.0</ele><time>2026-05-04T06:48:50Z</time></trkpt><trkpt lat="44.91658892296381" lon="10.134065586353428"><ele>40.5</ele><time>2026-05-04T06:48:51Z</time></trkpt><trkpt lat="44.91665717131669" lon="10.133740864951264"><ele>40.0</ele><time>2026-05-04T06:48:52Z</time></trkpt><trkpt lat="44.916724477786296" lon="10.133420962220804"><ele>41.5</ele><time>2026-05-04T06:48:53Z</time></trkpt><trkpt lat="44.916790731722855" lon="10.133108466672933"><ele>43.0</ele><time>2026-05-04T06:48:54Z</time></trkpt><trkpt lat="44.9168560863524" lon="10.132799346941507"><ele>43.0</ele><time>2026-05-04T06:48:55Z</time></trkpt><trkpt lat="44.91691880353072" lon="10.132494646896593"><ele>43.0</ele><time>2026-05-04T06:48:56Z</time></trkpt><trkpt lat="44.91697940294109" lon="10.132195773914283"><ele>43.0</ele><time>2026-05-04T06:48:57Z</time></trkpt><trkpt lat="44.91703174623875" lon="10.13192980014542"><ele>43.333333333333336</ele><time>2026-05-04T06:48:58Z</time></trkpt><trkpt lat="44.91708801563355" lon="10.131708708719277"><ele>43.666666666666664</ele><time>2026-05-04T06:48:59Z</time></trkpt><trkpt lat="44.91718271112664" lon="10.13153230495208"><ele>44.0</ele><time>2026-05-04T06:49:00Z</time></trkpt><trkpt lat="44.91733598089946" lon="10.131449498467733"><ele>43.33333333333333</ele><time>2026-05-04T06:49:01Z</time></trkpt><trkpt lat="44.917503801810525" lon="10.131455464164517"><ele>42.666666666666664</ele><time>2026-05-04T06:49:02Z</time></trkpt><trkpt lat="44.91766766097946" lon="10.131543756869265"><ele>42.0</ele><time>2026-05-04T06:49:03Z</time></trkpt><trkpt lat="44.91783778776724" lon="10.1316549957452"><ele>42.0</ele><time>2026-05-04T06:49:04Z</time></trkpt><trkpt lat="44.91802768332013" lon="10.131758206888748"><ele>42.0</ele><time>2026-05-04T06:49:05Z</time></trkpt><trkpt lat="44.918226479732674" lon="10.131862160923516"><ele>42.0</ele><time>2026-05-04T06:49:06Z</time></trkpt><trkpt lat="44.91843320505339" lon="10.131970785170568"><ele>42.5</ele><time>2026-05-04T06:49:07Z</time></trkpt><trkpt lat="44.91864597109253" lon="10.132090177953927"><ele>43.0</ele><time>2026-05-04T06:49:08Z</time></trkpt><trkpt lat="44.91887154018988" lon="10.132194697960987"><ele>43.0</ele><time>2026-05-04T06:49:09Z</time></trkpt><trkpt lat="44.91910493909174" lon="10.132303468318465"><ele>43.0</ele><time>2026-05-04T06:49:10Z</time></trkpt><trkpt lat="44.91933576801909" lon="10.132415124732724"><ele>44.0</ele><time>2026-05-04T06:49:11Z</time></trkpt><trkpt lat="44.919567026517036" lon="10.132526775209838"><ele>45.0</ele><time>2026-05-04T06:49:12Z</time></trkpt><trkpt lat="44.91979741772785" lon="10.132645268598548"><ele>45.0</ele><time>2026-05-04T06:49:13Z</time></trkpt><trkpt lat="44.92002827979936" lon="10.13276033205461"><ele>45.0</ele><time>2026-05-04T06:49:14Z</time></trkpt><trkpt lat="44.920263496790305" lon="10.132871493896758"><ele>45.0</ele><time>2026-05-04T06:49:15Z</time></trkpt><trkpt lat="44.92050039458646" lon="10.132984120382195"><ele>45.0</ele><time>2026-05-04T06:49:16Z</time></trkpt><trkpt lat="44.920739458486786" lon="10.133102330530873"><ele>44.5</ele><time>2026-05-04T06:49:17Z</time></trkpt><trkpt lat="44.92098123768517" lon="10.133221711085659"><ele>44.0</ele><time>2026-05-04T06:49:18Z</time></trkpt><trkpt lat="44.92122591608014" lon="10.133334279226041"><ele>43.0</ele><time>2026-05-04T06:49:19Z</time></trkpt><trkpt lat="44.92147216770697" lon="10.133445050647362"><ele>42.0</ele><time>2026-05-04T06:49:20Z</time></trkpt><trkpt lat="44.92171756869753" lon="10.133555577252952"><ele>43.5</ele><time>2026-05-04T06:49:21Z</time></trkpt><trkpt lat="44.921957729978025" lon="10.133665729339997"><ele>45.0</ele><time>2026-05-04T06:49:22Z</time></trkpt><trkpt lat="44.92219385057788" lon="10.133775453401638"><ele>45.0</ele><time>2026-05-04T06:49:23Z</time></trkpt><trkpt lat="44.92242791140583" lon="10.133879842394666"><ele>45.0</ele><time>2026-05-04T06:49:24Z</time></trkpt><trkpt lat="44.92265135985041" lon="10.133980503908203"><ele>45.0</ele><time>2026-05-04T06:49:25Z</time></trkpt><trkpt lat="44.92285064289906" lon="10.134076607331648"><ele>45.0</ele><time>2026-05-04T06:49:26Z</time></trkpt><trkpt lat="44.92302912634771" lon="10.134164858210731"><ele>45.0</ele><time>2026-05-04T06:49:27Z</time></trkpt><trkpt lat="44.923183834423945" lon="10.134234093252912"><ele>45.0</ele><time>2026-05-04T06:49:28Z</time></trkpt><trkpt lat="44.92331860902058" lon="10.134258312038611"><ele>45.0</ele><time>2026-05-04T06:49:29Z</time></trkpt><trkpt lat="44.9234491322207" lon="10.134221452467624"><ele>45.0</ele><time>2026-05-04T06:49:30Z</time></trkpt><trkpt lat="44.92356980400209" lon="10.134110361711363"><ele>45.0</ele><time>2026-05-04T06:49:31Z</time></trkpt><trkpt lat="44.9236719635098" lon="10.133956288677414"><ele>45.333333333333336</ele><time>2026-05-04T06:49:32Z</time></trkpt><trkpt lat="44.92377876927313" lon="10.133800451216883"><ele>45.66666666666667</ele><time>2026-05-04T06:49:33Z</time></trkpt><trkpt lat="44.923887439182515" lon="10.133655661942388"><ele>46.0</ele><time>2026-05-04T06:49:34Z</time></trkpt><trkpt lat="44.92399082037778" lon="10.133507643632703"><ele>46.0</ele><time>2026-05-04T06:49:35Z</time></trkpt><trkpt lat="44.92409146927314" lon="10.133361035736845"><ele>46.0</ele><time>2026-05-04T06:49:36Z</time></trkpt><trkpt lat="44.92419297222525" lon="10.133223908539204"><ele>46.0</ele><time>2026-05-04T06:49:37Z</time></trkpt><trkpt lat="44.92428389147183" lon="10.133100855572334"><ele>46.0</ele><time>2026-05-04T06:49:38Z</time></trkpt><trkpt lat="44.924357798060484" lon="10.132995461284162"><ele>45.833333333333336</ele><time>2026-05-04T06:49:39Z</time></trkpt><trkpt lat="44.924418973456106" lon="10.13290678059189"><ele>45.66666666666667</ele><time>2026-05-04T06:49:40Z</time></trkpt><trkpt lat="44.924473036858835" lon="10.132825813745626"><ele>45.5</ele><time>2026-05-04T06:49:41Z</time></trkpt><trkpt lat="44.92451442886617" lon="10.132755578151697"><ele>45.333333333333336</ele><time>2026-05-04T06:49:42Z</time></trkpt><trkpt lat="44.92457408171274" lon="10.132650060912557"><ele>45.166666666666664</ele><time>2026-05-04T06:49:44Z</time></trkpt><trkpt lat="44.92461498936404" lon="10.13256946553995"><ele>45.0</ele><time>2026-05-04T06:49:47Z</time></trkpt><trkpt lat="44.92467625416532" lon="10.132480073084979"><ele>45.0</ele><time>2026-05-04T06:50:23.999Z</time></trkpt><trkpt lat="44.92473768185198" lon="10.132345095634514"><ele>45.0</ele><time>2026-05-04T06:50:25.999Z</time></trkpt><trkpt lat="44.92477211180072" lon="10.13226797334471"><ele>45.0</ele><time>2026-05-04T06:50:27Z</time></trkpt><trkpt lat="44.924808607975194" lon="10.132185861925489"><ele>45.0</ele><time>2026-05-04T06:50:28Z</time></trkpt><trkpt lat="44.92484797205691" lon="10.13209831830893"><ele>45.0</ele><time>2026-05-04T06:50:29Z</time></trkpt><trkpt lat="44.92489188476097" lon="10.132002151057305"><ele>45.0</ele><time>2026-05-04T06:50:30Z</time></trkpt><trkpt lat="44.924935342539" lon="10.131906941599876"><ele>45.0</ele><time>2026-05-04T06:50:31Z</time></trkpt><trkpt lat="44.92497648793157" lon="10.131817451508384"><ele>45.0</ele><time>2026-05-04T06:50:32Z</time></trkpt><trkpt lat="44.92501440474999" lon="10.131737257198681"><ele>45.0</ele><time>2026-05-04T06:50:33Z</time></trkpt><trkpt lat="44.92507243426512" lon="10.131607612162083"><ele>45.0</ele><time>2026-05-04T06:50:35Z</time></trkpt><trkpt lat="44.92511017435011" lon="10.131507134658364"><ele>45.0</ele><time>2026-05-04T06:51:41Z</time></trkpt><trkpt lat="44.92515981698886" lon="10.131394321302025"><ele>45.0</ele><time>2026-05-04T06:51:44Z</time></trkpt><trkpt lat="44.925215720443425" lon="10.131269923030555"><ele>45.0</ele><time>2026-05-04T06:51:46Z</time></trkpt><trkpt lat="44.92525022731952" lon="10.13119263442394"><ele>45.0</ele><time>2026-05-04T06:51:47Z</time></trkpt><trkpt lat="44.9252864351082" lon="10.131109357049318"><ele>45.0</ele><time>2026-05-04T06:51:48Z</time></trkpt><trkpt lat="44.92532339934321" lon="10.131019991630648"><ele>45.0</ele><time>2026-05-04T06:51:49Z</time></trkpt><trkpt lat="44.92536510353599" lon="10.130921607956632"><ele>45.0</ele><time>2026-05-04T06:51:50Z</time></trkpt><trkpt lat="44.92541273344719" lon="10.130813539235662"><ele>45.0</ele><time>2026-05-04T06:51:51Z</time></trkpt><trkpt lat="44.925465576860034" lon="10.130698850257554"><ele>45.0</ele><time>2026-05-04T06:51:52Z</time></trkpt><trkpt lat="44.9255216964962" lon="10.13058139514641"><ele>45.0</ele><time>2026-05-04T06:51:53Z</time></trkpt><trkpt lat="44.92557486560175" lon="10.130469121713617"><ele>45.0</ele><time>2026-05-04T06:51:54Z</time></trkpt><trkpt lat="44.92562439138727" lon="10.130359771176892"><ele>45.0</ele><time>2026-05-04T06:51:55Z</time></trkpt><trkpt lat="44.92567455944824" lon="10.130252061698977"><ele>45.0</ele><time>2026-05-04T06:51:56Z</time></trkpt><trkpt lat="44.925726499458555" lon="10.1301439604129"><ele>45.0</ele><time>2026-05-04T06:51:57Z</time></trkpt><trkpt lat="44.925780966659055" lon="10.13003161518004"><ele>45.0</ele><time>2026-05-04T06:51:58Z</time></trkpt><trkpt lat="44.925836026474485" lon="10.12991416515322"><ele>45.0</ele><time>2026-05-04T06:51:59Z</time></trkpt><trkpt lat="44.925892049677444" lon="10.129787656748768"><ele>45.0</ele><time>2026-05-04T06:52:00Z</time></trkpt><trkpt lat="44.92595109947133" lon="10.129662377111298"><ele>45.0</ele><time>2026-05-04T06:52:01Z</time></trkpt><trkpt lat="44.926006228133055" lon="10.129540368087715"><ele>45.2</ele><time>2026-05-04T06:52:02Z</time></trkpt><trkpt lat="44.92605911259932" lon="10.12943190857811"><ele>45.4</ele><time>2026-05-04T06:52:03Z</time></trkpt><trkpt lat="44.92611029070621" lon="10.12932127783291"><ele>45.599999999999994</ele><time>2026-05-04T06:52:04Z</time></trkpt><trkpt lat="44.92615887720991" lon="10.129210174992231"><ele>45.8</ele><time>2026-05-04T06:52:05Z</time></trkpt><trkpt lat="44.92620957218867" lon="10.129102732273942"><ele>46.0</ele><time>2026-05-04T06:52:06Z</time></trkpt><trkpt lat="44.92625621018965" lon="10.128998092528194"><ele>46.16666666666667</ele><time>2026-05-04T06:52:07Z</time></trkpt><trkpt lat="44.92630988276077" lon="10.128881126371512"><ele>46.333333333333336</ele><time>2026-05-04T06:52:08Z</time></trkpt><trkpt lat="44.926356985184555" lon="10.128777770995898"><ele>46.5</ele><time>2026-05-04T06:52:09Z</time></trkpt><trkpt lat="44.92640492655826" lon="10.12867580147865"><ele>46.666666666666664</ele><time>2026-05-04T06:52:10Z</time></trkpt><trkpt lat="44.92645033379813" lon="10.128576423269047"><ele>46.83333333333333</ele><time>2026-05-04T06:52:11Z</time></trkpt><trkpt lat="44.92649315197908" lon="10.128485156230157"><ele>47.0</ele><time>2026-05-04T06:52:12Z</time></trkpt><trkpt lat="44.926544315400996" lon="10.128370600225244"><ele>47.0</ele><time>2026-05-04T06:52:14Z</time></trkpt><trkpt lat="44.926578333094696" lon="10.128276015963827"><ele>47.0</ele><time>2026-05-04T06:52:18.999Z</time></trkpt><trkpt lat="44.926633726081874" lon="10.128146587039879"><ele>47.0</ele><time>2026-05-04T06:52:21.999Z</time></trkpt><trkpt lat="44.926706023753404" lon="10.12798904566248"><ele>47.0</ele><time>2026-05-04T06:52:23.999Z</time></trkpt><trkpt lat="44.92675566889212" lon="10.127885204449345"><ele>47.0</ele><time>2026-05-04T06:52:24.999Z</time></trkpt><trkpt lat="44.92681118255031" lon="10.12777012358701"><ele>47.2</ele><time>2026-05-04T06:52:25.999Z</time></trkpt><trkpt lat="44.926867725611125" lon="10.12764757904299"><ele>47.400000000000006</ele><time>2026-05-04T06:52:26.999Z</time></trkpt><trkpt lat="44.926930275509136" lon="10.127510694468642"><ele>47.599999999999994</ele><time>2026-05-04T06:52:27.999Z</time></trkpt><trkpt lat="44.92699351265677" lon="10.12737054487692"><ele>47.8</ele><time>2026-05-04T06:52:28.999Z</time></trkpt><trkpt lat="44.92705237262501" lon="10.127237397818472"><ele>48.0</ele><time>2026-05-04T06:52:29.999Z</time></trkpt><trkpt lat="44.92710605952752" lon="10.127130770872144"><ele>48.0</ele><time>2026-05-04T06:52:30.999Z</time></trkpt><trkpt lat="44.92714411648528" lon="10.127051920996905"><ele>48.0</ele><time>2026-05-04T06:52:31.999Z</time></trkpt><trkpt lat="44.92720878525836" lon="10.12691862574678"><ele>48.0</ele><time>2026-05-04T06:52:34Z</time></trkpt><trkpt lat="44.927264514367494" lon="10.1268200382785"><ele>48.0</ele><time>2026-05-04T06:52:36Z</time></trkpt><trkpt lat="44.92733876789391" lon="10.126745533595553"><ele>48.0</ele><time>2026-05-04T06:52:38Z</time></trkpt><trkpt lat="44.92746568438306" lon="10.126780580826232"><ele>48.0</ele><time>2026-05-04T06:52:40Z</time></trkpt><trkpt lat="44.92753517794092" lon="10.126830823391476"><ele>48.0</ele><time>2026-05-04T06:52:41Z</time></trkpt><trkpt lat="44.92761571537086" lon="10.126897770639196"><ele>48.0</ele><time>2026-05-04T06:52:42Z</time></trkpt><trkpt lat="44.92770335504089" lon="10.126969037434325"><ele>48.0</ele><time>2026-05-04T06:52:43Z</time></trkpt><trkpt lat="44.92779512193037" lon="10.127036905044752"><ele>48.0</ele><time>2026-05-04T06:52:44Z</time></trkpt><trkpt lat="44.92788959513582" lon="10.127105864968058"><ele>47.8</ele><time>2026-05-04T06:52:45Z</time></trkpt><trkpt lat="44.92797957944823" lon="10.12717189962637"><ele>47.599999999999994</ele><time>2026-05-04T06:52:46Z</time></trkpt><trkpt lat="44.928053704136644" lon="10.127226991912947"><ele>47.400000000000006</ele><time>2026-05-04T06:52:47Z</time></trkpt><trkpt lat="44.92811267338313" lon="10.12727216912881"><ele>47.2</ele><time>2026-05-04T06:52:48Z</time></trkpt><trkpt lat="44.928185226446956" lon="10.127303997015739"><ele>47.0</ele><time>2026-05-04T06:52:50Z</time></trkpt><trkpt lat="44.92832074075406" lon="10.127111477064515"><ele>47.0</ele><time>2026-05-04T06:52:53Z</time></trkpt><trkpt lat="44.92837931225467" lon="10.127001433944583"><ele>47.0</ele><time>2026-05-04T06:52:54Z</time></trkpt><trkpt lat="44.92843469557918" lon="10.126868474616272"><ele>47.0</ele><time>2026-05-04T06:52:55Z</time></trkpt><trkpt lat="44.928497681214004" lon="10.126720370057066"><ele>47.0</ele><time>2026-05-04T06:52:56Z</time></trkpt><trkpt lat="44.928563282744044" lon="10.12655997749035"><ele>46.75</ele><time>2026-05-04T06:52:57Z</time></trkpt><trkpt lat="44.928632842956894" lon="10.126394096920896"><ele>46.5</ele><time>2026-05-04T06:52:58Z</time></trkpt><trkpt lat="44.92870133311871" lon="10.126230126215752"><ele>46.25</ele><time>2026-05-04T06:52:59Z</time></trkpt><trkpt lat="44.928770531887736" lon="10.126069950409251"><ele>46.0</ele><time>2026-05-04T06:53:00Z</time></trkpt><trkpt lat="44.928836367098164" lon="10.125910886883226"><ele>46.0</ele><time>2026-05-04T06:53:01Z</time></trkpt><trkpt lat="44.92889821381113" lon="10.125755239154902"><ele>46.0</ele><time>2026-05-04T06:53:02Z</time></trkpt><trkpt lat="44.92896329776442" lon="10.125604546588777"><ele>46.0</ele><time>2026-05-04T06:53:03Z</time></trkpt><trkpt lat="44.929022110614575" lon="10.12546030825457"><ele>46.0</ele><time>2026-05-04T06:53:04Z</time></trkpt><trkpt lat="44.92907709377294" lon="10.12532990011027"><ele>46.199999999999996</ele><time>2026-05-04T06:53:05Z</time></trkpt><trkpt lat="44.92912650569918" lon="10.125203312155785"><ele>46.4</ele><time>2026-05-04T06:53:06Z</time></trkpt><trkpt lat="44.92917243995204" lon="10.125079729921293"><ele>46.6</ele><time>2026-05-04T06:53:07Z</time></trkpt><trkpt lat="44.92921660337528" lon="10.124957183817955"><ele>46.8</ele><time>2026-05-04T06:53:08Z</time></trkpt><trkpt lat="44.92925886968732" lon="10.124837155498113"><ele>47.0</ele><time>2026-05-04T06:53:09Z</time></trkpt><trkpt lat="44.9293069287419" lon="10.124721179916904"><ele>46.666666666666664</ele><time>2026-05-04T06:53:10Z</time></trkpt><trkpt lat="44.92934375141395" lon="10.124602725461477"><ele>46.33333333333333</ele><time>2026-05-04T06:53:11Z</time></trkpt><trkpt lat="44.929368251275186" lon="10.124483558807864"><ele>46.0</ele><time>2026-05-04T06:53:12Z</time></trkpt><trkpt lat="44.92937491718133" lon="10.12435941522587"><ele>45.666666666666664</ele><time>2026-05-04T06:53:13Z</time></trkpt><trkpt lat="44.92937786013662" lon="10.124236006373584"><ele>45.333333333333336</ele><time>2026-05-04T06:53:14Z</time></trkpt><trkpt lat="44.92937836330601" lon="10.124125356631941"><ele>45.0</ele><time>2026-05-04T06:53:15Z</time></trkpt><trkpt lat="44.929371897393864" lon="10.124004525146852"><ele>45.0</ele><time>2026-05-04T06:53:17Z</time></trkpt><trkpt lat="44.92937903782409" lon="10.12390406132687"><ele>45.0</ele><time>2026-05-04T06:53:21Z</time></trkpt><trkpt lat="44.929382168205194" lon="10.123783047648667"><ele>45.0</ele><time>2026-05-04T06:53:23Z</time></trkpt><trkpt lat="44.929380573124746" lon="10.123591971195827"><ele>45.0</ele><time>2026-05-04T06:53:25Z</time></trkpt><trkpt lat="44.92939335408559" lon="10.123466524052123"><ele>45.0</ele><time>2026-05-04T06:53:26Z</time></trkpt><trkpt lat="44.92940191711454" lon="10.123319153857826"><ele>44.6</ele><time>2026-05-04T06:53:27Z</time></trkpt><trkpt lat="44.92940659733803" lon="10.123162723232348"><ele>44.2</ele><time>2026-05-04T06:53:28Z</time></trkpt><trkpt lat="44.92940826321319" lon="10.123004231429784"><ele>43.8</ele><time>2026-05-04T06:53:29Z</time></trkpt><trkpt lat="44.929408676137385" lon="10.12284956261777"><ele>43.4</ele><time>2026-05-04T06:53:30Z</time></trkpt><trkpt lat="44.929408193072106" lon="10.12272212639831"><ele>43.0</ele><time>2026-05-04T06:53:31Z</time></trkpt><trkpt lat="44.9294079118331" lon="10.122628146796213"><ele>43.0</ele><time>2026-05-04T06:53:32Z</time></trkpt><trkpt lat="44.929434768298336" lon="10.122535345710041"><ele>43.0</ele><time>2026-05-04T06:53:34Z</time></trkpt><trkpt lat="44.929534196412774" lon="10.122538930607341"><ele>43.0</ele><time>2026-05-04T06:53:37Z</time></trkpt><trkpt lat="44.92962637059314" lon="10.122653030115545"><ele>43.0</ele><time>2026-05-04T06:53:39Z</time></trkpt><trkpt lat="44.92969137338905" lon="10.122708872909126"><ele>43.0</ele><time>2026-05-04T06:53:40Z</time></trkpt><trkpt lat="44.92976411548027" lon="10.12277136395714"><ele>43.0</ele><time>2026-05-04T06:53:41Z</time></trkpt><trkpt lat="44.92983849197888" lon="10.122838662752523"><ele>43.0</ele><time>2026-05-04T06:53:42Z</time></trkpt><trkpt lat="44.929917668023684" lon="10.122913222406964"><ele>43.0</ele><time>2026-05-04T06:53:43Z</time></trkpt><trkpt lat="44.93000142944765" lon="10.12299386018314"><ele>43.0</ele><time>2026-05-04T06:53:44Z</time></trkpt><trkpt lat="44.93008973504697" lon="10.12308189075343"><ele>43.0</ele><time>2026-05-04T06:53:45Z</time></trkpt><trkpt lat="44.93018213704592" lon="10.123171382087806"><ele>43.2</ele><time>2026-05-04T06:53:46Z</time></trkpt><trkpt lat="44.9302861402202" lon="10.123232772082687"><ele>43.4</ele><time>2026-05-04T06:53:47Z</time></trkpt><trkpt lat="44.93036958326157" lon="10.123316348597246"><ele>43.6</ele><time>2026-05-04T06:53:48Z</time></trkpt><trkpt lat="44.930426036234735" lon="10.12337558683207"><ele>43.800000000000004</ele><time>2026-05-04T06:53:49Z</time></trkpt><trkpt lat="44.93052112631033" lon="10.123468324230767"><ele>44.0</ele><time>2026-05-04T06:53:51Z</time></trkpt><trkpt lat="44.93057467212282" lon="10.1235214675149"><ele>44.0</ele><time>2026-05-04T06:53:52Z</time></trkpt><trkpt lat="44.93063406746405" lon="10.123581157173108"><ele>44.0</ele><time>2026-05-04T06:53:53Z</time></trkpt><trkpt lat="44.93068913148331" lon="10.123641090067332"><ele>44.0</ele><time>2026-05-04T06:53:54Z</time></trkpt><trkpt lat="44.93075283818476" lon="10.123705669889898"><ele>44.0</ele><time>2026-05-04T06:53:56Z</time></trkpt><trkpt lat="44.93081783060205" lon="10.123717415821805"><ele>44.0</ele><time>2026-05-04T06:53:59Z</time></trkpt><trkpt lat="44.93086860296982" lon="10.123661281099384"><ele>44.0</ele><time>2026-05-04T06:54:01Z</time></trkpt><trkpt lat="44.93091516395149" lon="10.12352834213844"><ele>43.85714285714286</ele><time>2026-05-04T06:54:03Z</time></trkpt><trkpt lat="44.93094624210825" lon="10.12344338518716"><ele>43.714285714285715</ele><time>2026-05-04T06:54:04Z</time></trkpt><trkpt lat="44.930965457346595" lon="10.123343682070207"><ele>43.57142857142857</ele><time>2026-05-04T06:54:05Z</time></trkpt><trkpt lat="44.93100207746703" lon="10.123252508625699"><ele>43.42857142857143</ele><time>2026-05-04T06:54:06Z</time></trkpt><trkpt lat="44.93103828897537" lon="10.12316099303331"><ele>43.285714285714285</ele><time>2026-05-04T06:54:07Z</time></trkpt><trkpt lat="44.93107156976183" lon="10.123072427800256"><ele>43.142857142857146</ele><time>2026-05-04T06:54:08Z</time></trkpt><trkpt lat="44.931106258787146" lon="10.122991192119375"><ele>43.0</ele><time>2026-05-04T06:54:09Z</time></trkpt><trkpt lat="44.93113879353082" lon="10.122905077699668"><ele>43.0</ele><time>2026-05-04T06:54:10Z</time></trkpt><trkpt lat="44.93117095379352" lon="10.122825387955798"><ele>43.0</ele><time>2026-05-04T06:54:11Z</time></trkpt><trkpt lat="44.93121628583667" lon="10.122715280237625"><ele>43.0</ele><time>2026-05-04T06:54:13Z</time></trkpt><trkpt lat="44.93126470544158" lon="10.12258879320177"><ele>43.0</ele><time>2026-05-04T06:54:15Z</time></trkpt><trkpt lat="44.931290908449924" lon="10.122503467767332"><ele>43.0</ele><time>2026-05-04T06:54:16Z</time></trkpt><trkpt lat="44.931322932735846" lon="10.122422627501274"><ele>43.0</ele><time>2026-05-04T06:54:17Z</time></trkpt><trkpt lat="44.931386596099394" lon="10.122275194259464"><ele>43.16666666666667</ele><time>2026-05-04T06:54:19Z</time></trkpt><trkpt lat="44.93142308184519" lon="10.12217550753761"><ele>43.333333333333336</ele><time>2026-05-04T06:54:21Z</time></trkpt><trkpt lat="44.931452447387564" lon="10.122094430307545"><ele>43.5</ele><time>2026-05-04T06:54:23Z</time></trkpt><trkpt lat="44.93149788970927" lon="10.121970330739206"><ele>43.666666666666664</ele><time>2026-05-04T06:54:24.999Z</time></trkpt><trkpt lat="44.931559563552206" lon="10.12180701388934"><ele>43.83333333333333</ele><time>2026-05-04T06:54:26.999Z</time></trkpt><trkpt lat="44.931593178384" lon="10.121724261839478"><ele>44.0</ele><time>2026-05-04T06:54:27.999Z</time></trkpt><trkpt lat="44.93162754454054" lon="10.121648687847971"><ele>44.0</ele><time>2026-05-04T06:54:28.999Z</time></trkpt><trkpt lat="44.93166510769729" lon="10.121570465241629"><ele>44.0</ele><time>2026-05-04T06:54:30.999Z</time></trkpt><trkpt lat="44.931706432204514" lon="10.121458844994528"><ele>44.0</ele><time>2026-05-04T06:54:33.999Z</time></trkpt><trkpt lat="44.93172337895494" lon="10.121369864118183"><ele>44.0</ele><time>2026-05-04T06:54:37.999Z</time></trkpt><trkpt lat="44.93166962498391" lon="10.121274717578675"><ele>44.0</ele><time>2026-05-04T06:54:40Z</time></trkpt><trkpt lat="44.93160861138272" lon="10.121215136637069"><ele>44.0</ele><time>2026-05-04T06:54:41Z</time></trkpt><trkpt lat="44.93153361936675" lon="10.121158799455824"><ele>43.5</ele><time>2026-05-04T06:54:42Z</time></trkpt><trkpt lat="44.931463609664696" lon="10.121100511053049"><ele>43.0</ele><time>2026-05-04T06:54:43Z</time></trkpt><trkpt lat="44.93139230021457" lon="10.121042245122968"><ele>42.5</ele><time>2026-05-04T06:54:44Z</time></trkpt><trkpt lat="44.93131554798251" lon="10.120981603260432"><ele>42.0</ele><time>2026-05-04T06:54:45Z</time></trkpt><trkpt lat="44.93123565945088" lon="10.12091894721458"><ele>41.5</ele><time>2026-05-04T06:54:46Z</time></trkpt><trkpt lat="44.93115898946456" lon="10.120858482615109"><ele>41.0</ele><time>2026-05-04T06:54:47Z</time></trkpt><trkpt lat="44.93108284202013" lon="10.120798473541184"><ele>41.0</ele><time>2026-05-04T06:54:48Z</time></trkpt><trkpt lat="44.93100831754048" lon="10.120740458831484"><ele>41.0</ele><time>2026-05-04T06:54:49Z</time></trkpt><trkpt lat="44.930935034667606" lon="10.120690378571826"><ele>41.0</ele><time>2026-05-04T06:54:50Z</time></trkpt><trkpt lat="44.93085825301447" lon="10.120655044903094"><ele>41.0</ele><time>2026-05-04T06:54:51Z</time></trkpt><trkpt lat="44.93077383786616" lon="10.12064437276933"><ele>41.0</ele><time>2026-05-04T06:54:52Z</time></trkpt><trkpt lat="44.930691717157494" lon="10.120655361238459"><ele>41.0</ele><time>2026-05-04T06:54:53Z</time></trkpt><trkpt lat="44.9306213184076" lon="10.120675737690656"><ele>40.8</ele><time>2026-05-04T06:54:54Z</time></trkpt><trkpt lat="44.93049746765168" lon="10.120712280498106"><ele>40.599999999999994</ele><time>2026-05-04T06:54:56Z</time></trkpt><trkpt lat="44.93037625558325" lon="10.120678022627626"><ele>40.4</ele><time>2026-05-04T06:54:58Z</time></trkpt><trkpt lat="44.93031131260105" lon="10.120627217573627"><ele>40.2</ele><time>2026-05-04T06:54:59Z</time></trkpt><trkpt lat="44.9302472310087" lon="10.120579652716492"><ele>40.0</ele><time>2026-05-04T06:55:00Z</time></trkpt><trkpt lat="44.93017846018839" lon="10.120535469848495"><ele>40.0</ele><time>2026-05-04T06:55:01Z</time></trkpt><trkpt lat="44.93009971842652" lon="10.120482845364728"><ele>40.0</ele><time>2026-05-04T06:55:02Z</time></trkpt><trkpt lat="44.93001283615569" lon="10.120425185266097"><ele>40.0</ele><time>2026-05-04T06:55:03Z</time></trkpt><trkpt lat="44.92991874890988" lon="10.120363222850425"><ele>40.0</ele><time>2026-05-04T06:55:04Z</time></trkpt><trkpt lat="44.92981562386078" lon="10.12029334857833"><ele>40.0</ele><time>2026-05-04T06:55:05Z</time></trkpt><trkpt lat="44.92970510525221" lon="10.120221823584126"><ele>41.0</ele><time>2026-05-04T06:55:06Z</time></trkpt><trkpt lat="44.929585264133244" lon="10.1201442415937"><ele>42.0</ele><time>2026-05-04T06:55:07Z</time></trkpt><trkpt lat="44.92946442261361" lon="10.12006645583237"><ele>43.0</ele><time>2026-05-04T06:55:08Z</time></trkpt><trkpt lat="44.929349195726275" lon="10.119989768601771"><ele>44.0</ele><time>2026-05-04T06:55:09Z</time></trkpt><trkpt lat="44.92925855053949" lon="10.11992286764234"><ele>44.0</ele><time>2026-05-04T06:55:10Z</time></trkpt><trkpt lat="44.92919177766302" lon="10.119881109219987"><ele>44.0</ele><time>2026-05-04T06:55:11Z</time></trkpt><trkpt lat="44.92913191545673" lon="10.1198415956972"><ele>44.0</ele><time>2026-05-04T06:55:13Z</time></trkpt><trkpt lat="44.92908126926912" lon="10.119785738456102"><ele>44.0</ele><time>2026-05-04T06:55:16Z</time></trkpt><trkpt lat="44.929095947359684" lon="10.11964992831152"><ele>44.0</ele><time>2026-05-04T06:55:18Z</time></trkpt><trkpt lat="44.929115885146345" lon="10.119549630973161"><ele>44.0</ele><time>2026-05-04T06:55:19Z</time></trkpt><trkpt lat="44.929139682541354" lon="10.119428642915093"><ele>44.0</ele><time>2026-05-04T06:55:20Z</time></trkpt><trkpt lat="44.929166659695746" lon="10.119289582701432"><ele>44.0</ele><time>2026-05-04T06:55:21Z</time></trkpt><trkpt lat="44.92919617556178" lon="10.119133311565607"><ele>44.0</ele><time>2026-05-04T06:55:22Z</time></trkpt><trkpt lat="44.92922922181866" lon="10.118959759534922"><ele>44.0</ele><time>2026-05-04T06:55:23Z</time></trkpt><trkpt lat="44.929265117412335" lon="10.118770305286468"><ele>44.0</ele><time>2026-05-04T06:55:24Z</time></trkpt><trkpt lat="44.92930595140988" lon="10.118563906069626"><ele>44.0</ele><time>2026-05-04T06:55:25Z</time></trkpt><trkpt lat="44.929350310487806" lon="10.118342194089305"><ele>44.0</ele><time>2026-05-04T06:55:26Z</time></trkpt><trkpt lat="44.92939836080766" lon="10.118107787546762"><ele>44.0</ele><time>2026-05-04T06:55:27Z</time></trkpt><trkpt lat="44.92944880727574" lon="10.117863027044331"><ele>44.0</ele><time>2026-05-04T06:55:28Z</time></trkpt><trkpt lat="44.92949989910145" lon="10.11760754508093"><ele>44.0</ele><time>2026-05-04T06:55:29Z</time></trkpt><trkpt lat="44.92955194698781" lon="10.11734843605027"><ele>44.33333333333333</ele><time>2026-05-04T06:55:30Z</time></trkpt><trkpt lat="44.92960445687296" lon="10.117086301844072"><ele>44.666666666666664</ele><time>2026-05-04T06:55:31Z</time></trkpt><trkpt lat="44.929657215424044" lon="10.116818640760982"><ele>45.0</ele><time>2026-05-04T06:55:32Z</time></trkpt><trkpt lat="44.929711574890895" lon="10.116546508217795"><ele>45.0</ele><time>2026-05-04T06:55:33Z</time></trkpt><trkpt lat="44.92976814723133" lon="10.116274967430805"><ele>45.0</ele><time>2026-05-04T06:55:34Z</time></trkpt><trkpt lat="44.92982389477589" lon="10.116000802203386"><ele>45.0</ele><time>2026-05-04T06:55:35Z</time></trkpt><trkpt lat="44.929879365733214" lon="10.115722364615388"><ele>44.333333333333336</ele><time>2026-05-04T06:55:36Z</time></trkpt><trkpt lat="44.92993197905782" lon="10.115448290637495"><ele>43.66666666666667</ele><time>2026-05-04T06:55:37Z</time></trkpt><trkpt lat="44.929984572657695" lon="10.115179366662312"><ele>43.0</ele><time>2026-05-04T06:55:38Z</time></trkpt><trkpt lat="44.93003861321463" lon="10.114914459106316"><ele>41.66666666666667</ele><time>2026-05-04T06:55:39Z</time></trkpt><trkpt lat="44.93010481956593" lon="10.114655430391494"><ele>40.333333333333336</ele><time>2026-05-04T06:55:40Z</time></trkpt><trkpt lat="44.93019021582825" lon="10.114404288481579"><ele>39.0</ele><time>2026-05-04T06:55:41Z</time></trkpt><trkpt lat="44.93029235151916" lon="10.114156052300343"><ele>39.0</ele><time>2026-05-04T06:55:42Z</time></trkpt><trkpt lat="44.93040130939071" lon="10.113910764168017"><ele>39.0</ele><time>2026-05-04T06:55:43Z</time></trkpt><trkpt lat="44.93050908220156" lon="10.113668458152206"><ele>39.0</ele><time>2026-05-04T06:55:44Z</time></trkpt><trkpt lat="44.930614579777135" lon="10.113432437688255"><ele>39.0</ele><time>2026-05-04T06:55:45Z</time></trkpt><trkpt lat="44.930718797550036" lon="10.113200392691411"><ele>39.0</ele><time>2026-05-04T06:55:46Z</time></trkpt><trkpt lat="44.93081613658439" lon="10.112988102383747"><ele>39.0</ele><time>2026-05-04T06:55:47Z</time></trkpt><trkpt lat="44.93090523416258" lon="10.112811843299879"><ele>39.0</ele><time>2026-05-04T06:55:48Z</time></trkpt><trkpt lat="44.93097996055452" lon="10.112677087447828"><ele>39.0</ele><time>2026-05-04T06:55:49Z</time></trkpt><trkpt lat="44.931034544154464" lon="10.112592431672912"><ele>39.0</ele><time>2026-05-04T06:55:50Z</time></trkpt><trkpt lat="44.93110365141852" lon="10.11253455099641"><ele>39.0</ele><time>2026-05-04T06:55:51Z</time></trkpt><trkpt lat="44.93118043515589" lon="10.1125013859322"><ele>39.0</ele><time>2026-05-04T06:55:52Z</time></trkpt><trkpt lat="44.93124865942306" lon="10.112448754626238"><ele>39.0</ele><time>2026-05-04T06:55:53Z</time></trkpt><trkpt lat="44.93131646902847" lon="10.112349119244891"><ele>39.2</ele><time>2026-05-04T06:55:54Z</time></trkpt><trkpt lat="44.931333802793795" lon="10.112213517102708"><ele>39.4</ele><time>2026-05-04T06:55:55Z</time></trkpt><trkpt lat="44.931310288648575" lon="10.11208354769245"><ele>39.6</ele><time>2026-05-04T06:55:56Z</time></trkpt><trkpt lat="44.931307787662526" lon="10.111945577473143"><ele>39.8</ele><time>2026-05-04T06:55:57Z</time></trkpt><trkpt lat="44.93134610341736" lon="10.11180521032323"><ele>40.0</ele><time>2026-05-04T06:55:58Z</time></trkpt><trkpt lat="44.93140689929997" lon="10.111671120082574"><ele>40.25</ele><time>2026-05-04T06:55:59Z</time></trkpt><trkpt lat="44.9314704361611" lon="10.111521596548611"><ele>40.5</ele><time>2026-05-04T06:56:00Z</time></trkpt><trkpt lat="44.931543061799125" lon="10.111357045814891"><ele>40.75</ele><time>2026-05-04T06:56:01Z</time></trkpt><trkpt lat="44.93162571073873" lon="10.111179397069574"><ele>41.0</ele><time>2026-05-04T06:56:02Z</time></trkpt><trkpt lat="44.93172688115688" lon="10.110997782636423"><ele>41.666666666666664</ele><time>2026-05-04T06:56:03Z</time></trkpt><trkpt lat="44.93185960206282" lon="10.11083047447517"><ele>42.333333333333336</ele><time>2026-05-04T06:56:04Z</time></trkpt><trkpt lat="44.93200284839709" lon="10.110665925931103"><ele>43.0</ele><time>2026-05-04T06:56:05Z</time></trkpt><trkpt lat="44.932149456973534" lon="10.110489888432493"><ele>43.0</ele><time>2026-05-04T06:56:06Z</time></trkpt><trkpt lat="44.93229280188278" lon="10.110293167959094"><ele>43.0</ele><time>2026-05-04T06:56:07Z</time></trkpt><trkpt lat="44.932432357396955" lon="10.110075034906222"><ele>43.0</ele><time>2026-05-04T06:56:08Z</time></trkpt><trkpt lat="44.93257139093442" lon="10.109843988993067"><ele>41.0</ele><time>2026-05-04T06:56:09Z</time></trkpt><trkpt lat="44.932713340650906" lon="10.109606601338792"><ele>39.0</ele><time>2026-05-04T06:56:10Z</time></trkpt><trkpt lat="44.93286016676813" lon="10.109359834102507"><ele>37.0</ele><time>2026-05-04T06:56:11Z</time></trkpt><trkpt lat="44.93301153988216" lon="10.109109758197894"><ele>38.5</ele><time>2026-05-04T06:56:12Z</time></trkpt><trkpt lat="44.933164761476654" lon="10.108856037445328"><ele>40.0</ele><time>2026-05-04T06:56:13Z</time></trkpt><trkpt lat="44.933317963773234" lon="10.108594753385775"><ele>40.5</ele><time>2026-05-04T06:56:14Z</time></trkpt><trkpt lat="44.93347437839373" lon="10.108329787758022"><ele>41.0</ele><time>2026-05-04T06:56:15Z</time></trkpt><trkpt lat="44.93363452868158" lon="10.108063184544617"><ele>41.5</ele><time>2026-05-04T06:56:16Z</time></trkpt><trkpt lat="44.93379522012179" lon="10.107791950988833"><ele>42.0</ele><time>2026-05-04T06:56:17Z</time></trkpt><trkpt lat="44.93395746136567" lon="10.107515675202247"><ele>40.5</ele><time>2026-05-04T06:56:18Z</time></trkpt><trkpt lat="44.934119251379826" lon="10.107232952651051"><ele>39.0</ele><time>2026-05-04T06:56:19Z</time></trkpt><trkpt lat="44.93427311454221" lon="10.106934471179061"><ele>39.0</ele><time>2026-05-04T06:56:20Z</time></trkpt><trkpt lat="44.93441994199349" lon="10.106623333176698"><ele>39.0</ele><time>2026-05-04T06:56:21Z</time></trkpt><trkpt lat="44.934565117022125" lon="10.106304246053348"><ele>39.0</ele><time>2026-05-04T06:56:22Z</time></trkpt><trkpt lat="44.93470943862617" lon="10.105980691749744"><ele>39.0</ele><time>2026-05-04T06:56:23Z</time></trkpt><trkpt lat="44.93485806098435" lon="10.1056558748321"><ele>39.0</ele><time>2026-05-04T06:56:24Z</time></trkpt><trkpt lat="44.935008302533625" lon="10.105325547227963"><ele>39.0</ele><time>2026-05-04T06:56:25Z</time></trkpt><trkpt lat="44.93516184008481" lon="10.10499029921814"><ele>40.0</ele><time>2026-05-04T06:56:26Z</time></trkpt><trkpt lat="44.93531752468477" lon="10.104650472871343"><ele>41.0</ele><time>2026-05-04T06:56:27Z</time></trkpt><trkpt lat="44.935473964421384" lon="10.104304499104122"><ele>40.5</ele><time>2026-05-04T06:56:28Z</time></trkpt><trkpt lat="44.93563323016714" lon="10.103954824259535"><ele>40.0</ele><time>2026-05-04T06:56:29Z</time></trkpt><trkpt lat="44.935794408427796" lon="10.103600120384591"><ele>40.0</ele><time>2026-05-04T06:56:30Z</time></trkpt><trkpt lat="44.935957645830705" lon="10.10324100174548"><ele>40.0</ele><time>2026-05-04T06:56:31Z</time></trkpt><trkpt lat="44.93612412412911" lon="10.102877568716227"><ele>40.0</ele><time>2026-05-04T06:56:32Z</time></trkpt><trkpt lat="44.93629044184177" lon="10.10250964050073"><ele>40.0</ele><time>2026-05-04T06:56:33Z</time></trkpt><trkpt lat="44.93645877309712" lon="10.102134830248401"><ele>39.5</ele><time>2026-05-04T06:56:34Z</time></trkpt><trkpt lat="44.936630411159335" lon="10.101756296716314"><ele>39.0</ele><time>2026-05-04T06:56:35Z</time></trkpt><trkpt lat="44.93680324261927" lon="10.101373636416854"><ele>38.5</ele><time>2026-05-04T06:56:36Z</time></trkpt><trkpt lat="44.93697743358013" lon="10.100987321033212"><ele>38.0</ele><time>2026-05-04T06:56:37Z</time></trkpt><trkpt lat="44.93715592312772" lon="10.10059907214784"><ele>37.5</ele><time>2026-05-04T06:56:38Z</time></trkpt><trkpt lat="44.937336390619436" lon="10.100210408257078"><ele>37.0</ele><time>2026-05-04T06:56:39Z</time></trkpt><trkpt lat="44.93751166138532" lon="10.099825570172758"><ele>39.0</ele><time>2026-05-04T06:56:40Z</time></trkpt><trkpt lat="44.93768381456733" lon="10.099445017299958"><ele>41.0</ele><time>2026-05-04T06:56:41Z</time></trkpt><trkpt lat="44.93785266701756" lon="10.099071045913051"><ele>41.5</ele><time>2026-05-04T06:56:42Z</time></trkpt><trkpt lat="44.938017867747085" lon="10.09870207658103"><ele>42.0</ele><time>2026-05-04T06:56:42.999Z</time></trkpt><trkpt lat="44.93818118353853" lon="10.098338311640001"><ele>41.0</ele><time>2026-05-04T06:56:43.999Z</time></trkpt><trkpt lat="44.93834072615801" lon="10.097978467249389"><ele>40.0</ele><time>2026-05-04T06:56:45Z</time></trkpt><trkpt lat="44.9385001923245" lon="10.097623688054558"><ele>39.5</ele><time>2026-05-04T06:56:46Z</time></trkpt><trkpt lat="44.938659430690414" lon="10.097267118390018"><ele>39.0</ele><time>2026-05-04T06:56:47Z</time></trkpt><trkpt lat="44.938820680452814" lon="10.096909852431828"><ele>40.0</ele><time>2026-05-04T06:56:48Z</time></trkpt><trkpt lat="44.93898289918699" lon="10.096552483251703"><ele>41.0</ele><time>2026-05-04T06:56:49Z</time></trkpt><trkpt lat="44.93915460646825" lon="10.096200237911432"><ele>40.0</ele><time>2026-05-04T06:56:50Z</time></trkpt><trkpt lat="44.93933177271972" lon="10.095852973903282"><ele>39.0</ele><time>2026-05-04T06:56:51Z</time></trkpt><trkpt lat="44.939515764636155" lon="10.095509482181738"><ele>39.0</ele><time>2026-05-04T06:56:52Z</time></trkpt><trkpt lat="44.939699932609514" lon="10.09516424326575"><ele>39.0</ele><time>2026-05-04T06:56:53Z</time></trkpt><trkpt lat="44.93988695398142" lon="10.094819226868"><ele>39.0</ele><time>2026-05-04T06:56:54Z</time></trkpt><trkpt lat="44.94007245882706" lon="10.094472766116237"><ele>39.0</ele><time>2026-05-04T06:56:55Z</time></trkpt><trkpt lat="44.94026075309617" lon="10.094133361671055"><ele>38.5</ele><time>2026-05-04T06:56:56Z</time></trkpt><trkpt lat="44.940441625810564" lon="10.093790042846855"><ele>38.0</ele><time>2026-05-04T06:56:57Z</time></trkpt><trkpt lat="44.9406192771225" lon="10.093442522586693"><ele>38.0</ele><time>2026-05-04T06:56:58Z</time></trkpt><trkpt lat="44.940797317896184" lon="10.093094243749084"><ele>38.0</ele><time>2026-05-04T06:56:59Z</time></trkpt><trkpt lat="44.94097368236078" lon="10.092743389247417"><ele>39.0</ele><time>2026-05-04T06:57:00Z</time></trkpt><trkpt lat="44.94114744116593" lon="10.092387846214894"><ele>40.0</ele><time>2026-05-04T06:57:01Z</time></trkpt><trkpt lat="44.94131532825745" lon="10.09203372455807"><ele>40.0</ele><time>2026-05-04T06:57:02Z</time></trkpt><trkpt lat="44.94148707949877" lon="10.091689076674271"><ele>40.0</ele><time>2026-05-04T06:57:03Z</time></trkpt><trkpt lat="44.941657236746906" lon="10.091349535855862"><ele>40.0</ele><time>2026-05-04T06:57:04Z</time></trkpt><trkpt lat="44.94182649423079" lon="10.091014973493023"><ele>40.0</ele><time>2026-05-04T06:57:05Z</time></trkpt><trkpt lat="44.94199337943826" lon="10.090682150518594"><ele>40.0</ele><time>2026-05-04T06:57:06Z</time></trkpt><trkpt lat="44.94215470622673" lon="10.090353842740365"><ele>40.0</ele><time>2026-05-04T06:57:07Z</time></trkpt><trkpt lat="44.942313189817845" lon="10.090035397714217"><ele>40.0</ele><time>2026-05-04T06:57:08Z</time></trkpt><trkpt lat="44.94246428636153" lon="10.08971815448583"><ele>40.0</ele><time>2026-05-04T06:57:09Z</time></trkpt><trkpt lat="44.94258897135738" lon="10.089383086276724"><ele>39.5</ele><time>2026-05-04T06:57:10Z</time></trkpt><trkpt lat="44.94268036386943" lon="10.089026962517751"><ele>39.0</ele><time>2026-05-04T06:57:11Z</time></trkpt><trkpt lat="44.94275341963836" lon="10.088662304127963"><ele>39.0</ele><time>2026-05-04T06:57:12Z</time></trkpt><trkpt lat="44.94283241839994" lon="10.088299538786918"><ele>39.0</ele><time>2026-05-04T06:57:13Z</time></trkpt><trkpt lat="44.94291512381404" lon="10.087937225487908"><ele>38.5</ele><time>2026-05-04T06:57:14Z</time></trkpt><trkpt lat="44.94299795136276" lon="10.08757424277804"><ele>38.0</ele><time>2026-05-04T06:57:15Z</time></trkpt><trkpt lat="44.94308194370346" lon="10.08720964899655"><ele>38.0</ele><time>2026-05-04T06:57:16Z</time></trkpt><trkpt lat="44.943162151117136" lon="10.08685022815445"><ele>38.0</ele><time>2026-05-04T06:57:17Z</time></trkpt><trkpt lat="44.94324273682898" lon="10.08649305830336"><ele>38.5</ele><time>2026-05-04T06:57:18Z</time></trkpt><trkpt lat="44.943319709839315" lon="10.08614115125598"><ele>39.0</ele><time>2026-05-04T06:57:19Z</time></trkpt><trkpt lat="44.943402990709494" lon="10.085795197407517"><ele>39.0</ele><time>2026-05-04T06:57:20Z</time></trkpt><trkpt lat="44.94351883873798" lon="10.08547204008203"><ele>39.0</ele><time>2026-05-04T06:57:21Z</time></trkpt><trkpt lat="44.94366742517726" lon="10.085178055196252"><ele>38.5</ele><time>2026-05-04T06:57:22Z</time></trkpt><trkpt lat="44.94383540677043" lon="10.084897781757515"><ele>38.0</ele><time>2026-05-04T06:57:23Z</time></trkpt><trkpt lat="44.944001273631635" lon="10.084608604152493"><ele>38.0</ele><time>2026-05-04T06:57:24Z</time></trkpt><trkpt lat="44.94417132589374" lon="10.08431538022962"><ele>38.0</ele><time>2026-05-04T06:57:25Z</time></trkpt><trkpt lat="44.94434258646982" lon="10.084016419113052"><ele>39.5</ele><time>2026-05-04T06:57:26Z</time></trkpt><trkpt lat="44.94451701930798" lon="10.083713375105624"><ele>41.0</ele><time>2026-05-04T06:57:27Z</time></trkpt><trkpt lat="44.94469280124912" lon="10.083414681128726"><ele>40.5</ele><time>2026-05-04T06:57:28Z</time></trkpt><trkpt lat="44.94486616198063" lon="10.083116520903824"><ele>40.0</ele><time>2026-05-04T06:57:29Z</time></trkpt><trkpt lat="44.94503638259086" lon="10.082819112484882"><ele>40.5</ele><time>2026-05-04T06:57:30Z</time></trkpt><trkpt lat="44.94521194768879" lon="10.082519588701388"><ele>41.0</ele><time>2026-05-04T06:57:31Z</time></trkpt><trkpt lat="44.94538854083841" lon="10.082218419907496"><ele>41.0</ele><time>2026-05-04T06:57:32Z</time></trkpt><trkpt lat="44.94556979071666" lon="10.081914781801794"><ele>41.0</ele><time>2026-05-04T06:57:33Z</time></trkpt><trkpt lat="44.94575494068257" lon="10.081607217690458"><ele>40.0</ele><time>2026-05-04T06:57:34Z</time></trkpt><trkpt lat="44.94593740146429" lon="10.08129509575863"><ele>39.0</ele><time>2026-05-04T06:57:35Z</time></trkpt><trkpt lat="44.9461197734207" lon="10.080983410709042"><ele>39.0</ele><time>2026-05-04T06:57:36Z</time></trkpt><trkpt lat="44.946300488202674" lon="10.080666531202503"><ele>39.0</ele><time>2026-05-04T06:57:37Z</time></trkpt><trkpt lat="44.946483255817576" lon="10.080351353161012"><ele>39.0</ele><time>2026-05-04T06:57:38Z</time></trkpt><trkpt lat="44.94666068418872" lon="10.080035685024196"><ele>39.0</ele><time>2026-05-04T06:57:39Z</time></trkpt><trkpt lat="44.94684195331135" lon="10.07973028014507"><ele>38.5</ele><time>2026-05-04T06:57:40Z</time></trkpt><trkpt lat="44.94702295272761" lon="10.079430449849433"><ele>38.0</ele><time>2026-05-04T06:57:41Z</time></trkpt><trkpt lat="44.94719759767761" lon="10.079128006759175"><ele>39.5</ele><time>2026-05-04T06:57:42Z</time></trkpt><trkpt lat="44.94736686826118" lon="10.078825090251977"><ele>41.0</ele><time>2026-05-04T06:57:43Z</time></trkpt><trkpt lat="44.947521039042165" lon="10.07851188826481"><ele>40.5</ele><time>2026-05-04T06:57:44Z</time></trkpt><trkpt lat="44.94764867902855" lon="10.078172667625623"><ele>40.0</ele><time>2026-05-04T06:57:45Z</time></trkpt><trkpt lat="44.947765467913136" lon="10.077820055651134"><ele>40.0</ele><time>2026-05-04T06:57:46Z</time></trkpt><trkpt lat="44.94788846113451" lon="10.077463878008617"><ele>40.0</ele><time>2026-05-04T06:57:47Z</time></trkpt><trkpt lat="44.94801414381616" lon="10.077104524293398"><ele>41.0</ele><time>2026-05-04T06:57:48Z</time></trkpt><trkpt lat="44.94813677461076" lon="10.076740103331641"><ele>42.0</ele><time>2026-05-04T06:57:49Z</time></trkpt><trkpt lat="44.948252907509314" lon="10.076379413150521"><ele>42.0</ele><time>2026-05-04T06:57:50Z</time></trkpt><trkpt lat="44.94836882427883" lon="10.076025872452924"><ele>42.0</ele><time>2026-05-04T06:57:51Z</time></trkpt><trkpt lat="44.94847879733634" lon="10.075686988052261"><ele>42.0</ele><time>2026-05-04T06:57:52Z</time></trkpt><trkpt lat="44.94858420843294" lon="10.07537395194315"><ele>42.0</ele><time>2026-05-04T06:57:53Z</time></trkpt><trkpt lat="44.948681874487455" lon="10.07508229110428"><ele>41.666666666666664</ele><time>2026-05-04T06:57:54Z</time></trkpt><trkpt lat="44.9487669146382" lon="10.074818504489826"><ele>41.33333333333333</ele><time>2026-05-04T06:57:55Z</time></trkpt><trkpt lat="44.94883816996849" lon="10.074579582646201"><ele>41.0</ele><time>2026-05-04T06:57:56Z</time></trkpt><trkpt lat="44.948912969173506" lon="10.074373156834223"><ele>41.0</ele><time>2026-05-04T06:57:57Z</time></trkpt><trkpt lat="44.949018275182084" lon="10.074210525735529"><ele>41.0</ele><time>2026-05-04T06:57:58Z</time></trkpt><trkpt lat="44.949163738608924" lon="10.07410098451766"><ele>41.0</ele><time>2026-05-04T06:57:59Z</time></trkpt><trkpt lat="44.94932532603866" lon="10.074067612435345"><ele>41.0</ele><time>2026-05-04T06:58:00Z</time></trkpt><trkpt lat="44.9494952216309" lon="10.074103099726655"><ele>41.0</ele><time>2026-05-04T06:58:01Z</time></trkpt><trkpt lat="44.94966128139988" lon="10.074191166956878"><ele>41.0</ele><time>2026-05-04T06:58:02Z</time></trkpt><trkpt lat="44.949834506655826" lon="10.074278625404204"><ele>40.666666666666664</ele><time>2026-05-04T06:58:03Z</time></trkpt><trkpt lat="44.95001887108459" lon="10.074368141838855"><ele>40.333333333333336</ele><time>2026-05-04T06:58:04Z</time></trkpt><trkpt lat="44.95020348094942" lon="10.074455672717255"><ele>40.0</ele><time>2026-05-04T06:58:05Z</time></trkpt><trkpt lat="44.95039083115238" lon="10.074543266963005"><ele>40.0</ele><time>2026-05-04T06:58:06Z</time></trkpt><trkpt lat="44.95057800220112" lon="10.074625990718545"><ele>40.0</ele><time>2026-05-04T06:58:07Z</time></trkpt><trkpt lat="44.950762503935074" lon="10.074707278758295"><ele>40.0</ele><time>2026-05-04T06:58:08Z</time></trkpt><trkpt lat="44.950927482744206" lon="10.074787439378468"><ele>40.25</ele><time>2026-05-04T06:58:09Z</time></trkpt><trkpt lat="44.95107437218961" lon="10.074849842102635"><ele>40.5</ele><time>2026-05-04T06:58:10Z</time></trkpt><trkpt lat="44.951212969617565" lon="10.074861658693479"><ele>40.75</ele><time>2026-05-04T06:58:11Z</time></trkpt><trkpt lat="44.9513491950738" lon="10.07480365535686"><ele>41.0</ele><time>2026-05-04T06:58:12Z</time></trkpt><trkpt lat="44.95145826828114" lon="10.074679447389146"><ele>41.0</ele><time>2026-05-04T06:58:13Z</time></trkpt><trkpt lat="44.951539420309786" lon="10.074511843207144"><ele>41.0</ele><time>2026-05-04T06:58:14Z</time></trkpt><trkpt lat="44.95159691792521" lon="10.074328527069301"><ele>41.0</ele><time>2026-05-04T06:58:15Z</time></trkpt><trkpt lat="44.95165866337213" lon="10.074141672015184"><ele>41.0</ele><time>2026-05-04T06:58:16Z</time></trkpt><trkpt lat="44.95172361215913" lon="10.073947225720731"><ele>40.666666666666664</ele><time>2026-05-04T06:58:17Z</time></trkpt><trkpt lat="44.9517919817083" lon="10.073742402852414"><ele>40.333333333333336</ele><time>2026-05-04T06:58:18Z</time></trkpt><trkpt lat="44.95186506330778" lon="10.07353170699457"><ele>40.0</ele><time>2026-05-04T06:58:19Z</time></trkpt><trkpt lat="44.951938784887574" lon="10.07331718670797"><ele>40.66666666666667</ele><time>2026-05-04T06:58:20Z</time></trkpt><trkpt lat="44.95200878179083" lon="10.073108540258767"><ele>41.333333333333336</ele><time>2026-05-04T06:58:21Z</time></trkpt><trkpt lat="44.952080021429076" lon="10.072901392751518"><ele>42.0</ele><time>2026-05-04T06:58:22Z</time></trkpt><trkpt lat="44.95215576020984" lon="10.07270003868953"><ele>42.0</ele><time>2026-05-04T06:58:23Z</time></trkpt><trkpt lat="44.95223501425019" lon="10.072503958849554"><ele>42.0</ele><time>2026-05-04T06:58:24Z</time></trkpt><trkpt lat="44.952315596566216" lon="10.072309876700723"><ele>42.0</ele><time>2026-05-04T06:58:25Z</time></trkpt><trkpt lat="44.95239512910263" lon="10.07211843147879"><ele>41.666666666666664</ele><time>2026-05-04T06:58:26Z</time></trkpt><trkpt lat="44.95247522067398" lon="10.071927464682847"><ele>41.33333333333333</ele><time>2026-05-04T06:58:27Z</time></trkpt><trkpt lat="44.952554592151635" lon="10.071738037171958"><ele>41.0</ele><time>2026-05-04T06:58:28Z</time></trkpt><trkpt lat="44.95262859351934" lon="10.071552264499667"><ele>41.0</ele><time>2026-05-04T06:58:29Z</time></trkpt><trkpt lat="44.95269785626195" lon="10.071369281538807"><ele>41.0</ele><time>2026-05-04T06:58:30Z</time></trkpt><trkpt lat="44.952757344965164" lon="10.071181311094415"><ele>41.0</ele><time>2026-05-04T06:58:31Z</time></trkpt><trkpt lat="44.95280349376024" lon="10.070983515628052"><ele>41.0</ele><time>2026-05-04T06:58:32Z</time></trkpt><trkpt lat="44.952842059499076" lon="10.070782473295603"><ele>41.0</ele><time>2026-05-04T06:58:33Z</time></trkpt><trkpt lat="44.95288270922473" lon="10.070585970968452"><ele>41.0</ele><time>2026-05-04T06:58:34Z</time></trkpt><trkpt lat="44.95292607429807" lon="10.070393301051265"><ele>41.0</ele><time>2026-05-04T06:58:35Z</time></trkpt><trkpt lat="44.95296536053746" lon="10.070197835636238"><ele>41.0</ele><time>2026-05-04T06:58:36Z</time></trkpt><trkpt lat="44.95300007296431" lon="10.070005325847372"><ele>41.0</ele><time>2026-05-04T06:58:37Z</time></trkpt><trkpt lat="44.953038062709865" lon="10.069818709668198"><ele>41.0</ele><time>2026-05-04T06:58:38Z</time></trkpt><trkpt lat="44.95307821719215" lon="10.069634197879761"><ele>41.0</ele><time>2026-05-04T06:58:39Z</time></trkpt><trkpt lat="44.95311795678383" lon="10.069453063799713"><ele>41.0</ele><time>2026-05-04T06:58:40Z</time></trkpt><trkpt lat="44.953152997720146" lon="10.069295226854116"><ele>41.0</ele><time>2026-05-04T06:58:40.999Z</time></trkpt><trkpt lat="44.95318233863683" lon="10.06915476137416"><ele>41.0</ele><time>2026-05-04T06:58:41.999Z</time></trkpt><trkpt lat="44.95320634138808" lon="10.069032404331901"><ele>41.0</ele><time>2026-05-04T06:58:42.999Z</time></trkpt><trkpt lat="44.95323293254832" lon="10.068943833999189"><ele>41.0</ele><time>2026-05-04T06:58:43.999Z</time></trkpt><trkpt lat="44.95334262543211" lon="10.06886862937289"><ele>41.0</ele><time>2026-05-04T06:58:45.999Z</time></trkpt><trkpt lat="44.95341157686339" lon="10.068888088358362"><ele>41.0</ele><time>2026-05-04T06:58:46.999Z</time></trkpt><trkpt lat="44.95348963603984" lon="10.068932235174943"><ele>41.0</ele><time>2026-05-04T06:58:47.999Z</time></trkpt><trkpt lat="44.95358470986114" lon="10.068988457145474"><ele>41.0</ele><time>2026-05-04T06:58:48.999Z</time></trkpt><trkpt lat="44.9536967933497" lon="10.069046985902165"><ele>41.0</ele><time>2026-05-04T06:58:49.999Z</time></trkpt><trkpt lat="44.95381922746626" lon="10.06911375155172"><ele>41.0</ele><time>2026-05-04T06:58:51Z</time></trkpt><trkpt lat="44.953954059862866" lon="10.069186980166595"><ele>40.33333333333333</ele><time>2026-05-04T06:58:52Z</time></trkpt><trkpt lat="44.9540937643794" lon="10.06926128388485"><ele>39.666666666666664</ele><time>2026-05-04T06:58:53Z</time></trkpt><trkpt lat="44.954232424995844" lon="10.069338558600235"><ele>39.0</ele><time>2026-05-04T06:58:54Z</time></trkpt><trkpt lat="44.95437886784603" lon="10.06940893583512"><ele>39.0</ele><time>2026-05-04T06:58:55Z</time></trkpt><trkpt lat="44.95453082001126" lon="10.069481779845656"><ele>39.0</ele><time>2026-05-04T06:58:56Z</time></trkpt><trkpt lat="44.95468399260482" lon="10.069552350598446"><ele>39.0</ele><time>2026-05-04T06:58:57Z</time></trkpt><trkpt lat="44.95484092916448" lon="10.069619649794369"><ele>39.0</ele><time>2026-05-04T06:58:58Z</time></trkpt><trkpt lat="44.954998121563115" lon="10.069689072472395"><ele>39.0</ele><time>2026-05-04T06:58:59Z</time></trkpt><trkpt lat="44.95515540495668" lon="10.06976190523874"><ele>39.0</ele><time>2026-05-04T06:59:00Z</time></trkpt><trkpt lat="44.95531153855322" lon="10.069835479356147"><ele>39.0</ele><time>2026-05-04T06:59:01Z</time></trkpt><trkpt lat="44.955468530559635" lon="10.069915606519077"><ele>39.0</ele><time>2026-05-04T06:59:02Z</time></trkpt><trkpt lat="44.95562839341227" lon="10.069989794205908"><ele>39.0</ele><time>2026-05-04T06:59:03Z</time></trkpt><trkpt lat="44.95578616472565" lon="10.070059338216295"><ele>39.25</ele><time>2026-05-04T06:59:04Z</time></trkpt><trkpt lat="44.95593406943944" lon="10.070128084271825"><ele>39.5</ele><time>2026-05-04T06:59:05Z</time></trkpt><trkpt lat="44.95606501842354" lon="10.070182119122878"><ele>39.75</ele><time>2026-05-04T06:59:06Z</time></trkpt><trkpt lat="44.95618452899892" lon="10.070195080079674"><ele>40.0</ele><time>2026-05-04T06:59:07Z</time></trkpt><trkpt lat="44.95630193996079" lon="10.07014689206917"><ele>40.0</ele><time>2026-05-04T06:59:08Z</time></trkpt><trkpt lat="44.95641072014444" lon="10.070047205364794"><ele>40.0</ele><time>2026-05-04T06:59:09Z</time></trkpt><trkpt lat="44.95650397537485" lon="10.069908374911344"><ele>40.0</ele><time>2026-05-04T06:59:10Z</time></trkpt><trkpt lat="44.956583974978564" lon="10.069746269838431"><ele>40.0</ele><time>2026-05-04T06:59:11Z</time></trkpt><trkpt lat="44.95666245124746" lon="10.069571220574947"><ele>39.66666666666667</ele><time>2026-05-04T06:59:12Z</time></trkpt><trkpt lat="44.956751040292474" lon="10.069387286713184"><ele>39.333333333333336</ele><time>2026-05-04T06:59:13Z</time></trkpt><trkpt lat="44.95684473634883" lon="10.069189597972038"><ele>39.0</ele><time>2026-05-04T06:59:14Z</time></trkpt><trkpt lat="44.95694753020674" lon="10.068984972791117"><ele>39.0</ele><time>2026-05-04T06:59:15Z</time></trkpt><trkpt lat="44.9570500106916" lon="10.068773906245864"><ele>39.0</ele><time>2026-05-04T06:59:16Z</time></trkpt><trkpt lat="44.95715235679464" lon="10.068568855427857"><ele>39.0</ele><time>2026-05-04T06:59:17Z</time></trkpt><trkpt lat="44.95726597101353" lon="10.06836089852243"><ele>38.666666666666664</ele><time>2026-05-04T06:59:18Z</time></trkpt><trkpt lat="44.95739646175608" lon="10.068162819491876"><ele>38.33333333333333</ele><time>2026-05-04T06:59:19Z</time></trkpt><trkpt lat="44.95754405322834" lon="10.067969786305673"><ele>38.0</ele><time>2026-05-04T06:59:20Z</time></trkpt><trkpt lat="44.9576926637463" lon="10.067764309841559"><ele>37.666666666666664</ele><time>2026-05-04T06:59:21Z</time></trkpt><trkpt lat="44.95784222076618" lon="10.067557992009716"><ele>37.333333333333336</ele><time>2026-05-04T06:59:22Z</time></trkpt><trkpt lat="44.95798982204467" lon="10.067360160206944"><ele>37.0</ele><time>2026-05-04T06:59:23Z</time></trkpt><trkpt lat="44.958134220962144" lon="10.067159892264918"><ele>37.0</ele><time>2026-05-04T06:59:24Z</time></trkpt><trkpt lat="44.95827862780734" lon="10.066961594199887"><ele>37.0</ele><time>2026-05-04T06:59:25Z</time></trkpt><trkpt lat="44.958425237602576" lon="10.066763712404086"><ele>37.0</ele><time>2026-05-04T06:59:26Z</time></trkpt><trkpt lat="44.958570278392" lon="10.06656472014036"><ele>37.0</ele><time>2026-05-04T06:59:27Z</time></trkpt><trkpt lat="44.95871667675814" lon="10.066359602745155"><ele>37.0</ele><time>2026-05-04T06:59:28Z</time></trkpt><trkpt lat="44.958863576966294" lon="10.066153032719487"><ele>37.0</ele><time>2026-05-04T06:59:29Z</time></trkpt><trkpt lat="44.95900942898346" lon="10.065935979203099"><ele>37.0</ele><time>2026-05-04T06:59:30Z</time></trkpt><trkpt lat="44.9591507468335" lon="10.065706098170562"><ele>37.0</ele><time>2026-05-04T06:59:31Z</time></trkpt><trkpt lat="44.95929325798288" lon="10.06546797652346"><ele>37.0</ele><time>2026-05-04T06:59:32Z</time></trkpt><trkpt lat="44.95943791825157" lon="10.065222584930611"><ele>36.0</ele><time>2026-05-04T06:59:33Z</time></trkpt><trkpt lat="44.95958562092635" lon="10.064964795662076"><ele>35.0</ele><time>2026-05-04T06:59:34Z</time></trkpt><trkpt lat="44.959735198129216" lon="10.064706256455114"><ele>35.0</ele><time>2026-05-04T06:59:35Z</time></trkpt><trkpt lat="44.95988595110407" lon="10.06444493312513"><ele>35.0</ele><time>2026-05-04T06:59:36Z</time></trkpt><trkpt lat="44.960038753021756" lon="10.06418245234875"><ele>35.5</ele><time>2026-05-04T06:59:37Z</time></trkpt><trkpt lat="44.96019327923481" lon="10.063914620289086"><ele>36.0</ele><time>2026-05-04T06:59:38Z</time></trkpt><trkpt lat="44.96034807416254" lon="10.063641281923294"><ele>36.0</ele><time>2026-05-04T06:59:39Z</time></trkpt><trkpt lat="44.96050496626419" lon="10.063369406210784"><ele>36.0</ele><time>2026-05-04T06:59:40Z</time></trkpt><trkpt lat="44.96066468376783" lon="10.06309426844309"><ele>36.5</ele><time>2026-05-04T06:59:41Z</time></trkpt><trkpt lat="44.96082599242186" lon="10.06281488380507"><ele>37.0</ele><time>2026-05-04T06:59:42Z</time></trkpt><trkpt lat="44.960988383340045" lon="10.062531026940887"><ele>37.0</ele><time>2026-05-04T06:59:43Z</time></trkpt><trkpt lat="44.961156457635205" lon="10.062244350221931"><ele>37.0</ele><time>2026-05-04T06:59:44Z</time></trkpt><trkpt lat="44.96132293334791" lon="10.061960681530143"><ele>37.0</ele><time>2026-05-04T06:59:45Z</time></trkpt><trkpt lat="44.9614905782509" lon="10.061676403736392"><ele>37.0</ele><time>2026-05-04T06:59:46Z</time></trkpt><trkpt lat="44.96165392507798" lon="10.061393191075435"><ele>37.5</ele><time>2026-05-04T06:59:47Z</time></trkpt><trkpt lat="44.96181356722551" lon="10.061111588211553"><ele>38.0</ele><time>2026-05-04T06:59:48Z</time></trkpt><trkpt lat="44.961972924423456" lon="10.060833213860839"><ele>38.0</ele><time>2026-05-04T06:59:49Z</time></trkpt><trkpt lat="44.96212788762712" lon="10.060561217927537"><ele>38.0</ele><time>2026-05-04T06:59:50Z</time></trkpt><trkpt lat="44.96227495201189" lon="10.060302603271055"><ele>38.0</ele><time>2026-05-04T06:59:51Z</time></trkpt><trkpt lat="44.96241213796299" lon="10.060065518779659"><ele>38.0</ele><time>2026-05-04T06:59:52Z</time></trkpt><trkpt lat="44.96253982289985" lon="10.059844704442373"><ele>38.0</ele><time>2026-05-04T06:59:53Z</time></trkpt><trkpt lat="44.962656632675525" lon="10.059630826852848"><ele>37.666666666666664</ele><time>2026-05-04T06:59:54Z</time></trkpt><trkpt lat="44.96275541308416" lon="10.059401946972635"><ele>37.333333333333336</ele><time>2026-05-04T06:59:55Z</time></trkpt><trkpt lat="44.96285778520845" lon="10.059170025950003"><ele>37.0</ele><time>2026-05-04T06:59:56Z</time></trkpt><trkpt lat="44.96295641006591" lon="10.058933275670892"><ele>36.0</ele><time>2026-05-04T06:59:57Z</time></trkpt><trkpt lat="44.96305941747949" lon="10.058686005006523"><ele>35.0</ele><time>2026-05-04T06:59:58Z</time></trkpt><trkpt lat="44.96309002816068" lon="10.058360557596052"><ele>34.0</ele><time>2026-05-04T06:59:59Z</time></trkpt><trkpt lat="44.96318137063974" lon="10.058071088037924"><ele>35.5</ele><time>2026-05-04T07:00:00Z</time></trkpt><trkpt lat="44.96327787839235" lon="10.057770387558397"><ele>37.0</ele><time>2026-05-04T07:00:01Z</time></trkpt><trkpt lat="44.9633766220947" lon="10.057455269618549"><ele>37.5</ele><time>2026-05-04T07:00:02Z</time></trkpt><trkpt lat="44.96347867701979" lon="10.05713228364371"><ele>38.0</ele><time>2026-05-04T07:00:03Z</time></trkpt><trkpt lat="44.96357710758883" lon="10.056815191687987"><ele>38.0</ele><time>2026-05-04T07:00:04Z</time></trkpt><trkpt lat="44.96366883931" lon="10.05651850608112"><ele>38.0</ele><time>2026-05-04T07:00:05Z</time></trkpt><trkpt lat="44.96374849013113" lon="10.056260350596052"><ele>38.0</ele><time>2026-05-04T07:00:06Z</time></trkpt><trkpt lat="44.96382412754505" lon="10.056036940949287"><ele>38.0</ele><time>2026-05-04T07:00:07Z</time></trkpt><trkpt lat="44.96392253106207" lon="10.055841199139703"><ele>38.0</ele><time>2026-05-04T07:00:08Z</time></trkpt><trkpt lat="44.96407069447005" lon="10.055706075263146"><ele>38.0</ele><time>2026-05-04T07:00:09Z</time></trkpt><trkpt lat="44.964248696554456" lon="10.055657673152751"><ele>38.33333333333333</ele><time>2026-05-04T07:00:10Z</time></trkpt><trkpt lat="44.9644373004214" lon="10.055611228913541"><ele>38.666666666666664</ele><time>2026-05-04T07:00:11Z</time></trkpt><trkpt lat="44.96463677357082" lon="10.05555777705476"><ele>39.0</ele><time>2026-05-04T07:00:12Z</time></trkpt><trkpt lat="44.96484389365946" lon="10.055492255716393"><ele>38.666666666666664</ele><time>2026-05-04T07:00:13Z</time></trkpt><trkpt lat="44.965059287643854" lon="10.055421209646463"><ele>38.33333333333333</ele><time>2026-05-04T07:00:14Z</time></trkpt><trkpt lat="44.96527841689225" lon="10.055345968359985"><ele>38.0</ele><time>2026-05-04T07:00:15Z</time></trkpt><trkpt lat="44.96549687055916" lon="10.055269685694773"><ele>38.0</ele><time>2026-05-04T07:00:16Z</time></trkpt><trkpt lat="44.96571886205135" lon="10.055196855119165"><ele>38.0</ele><time>2026-05-04T07:00:17Z</time></trkpt><trkpt lat="44.96594527693477" lon="10.055144642498787"><ele>38.0</ele><time>2026-05-04T07:00:18Z</time></trkpt><trkpt lat="44.9661768480611" lon="10.05512213580866"><ele>38.0</ele><time>2026-05-04T07:00:19Z</time></trkpt><trkpt lat="44.96641259605113" lon="10.055138014274656"><ele>38.0</ele><time>2026-05-04T07:00:20Z</time></trkpt><trkpt lat="44.96663753600794" lon="10.0551892444102"><ele>38.0</ele><time>2026-05-04T07:00:21Z</time></trkpt><trkpt lat="44.966857292951815" lon="10.055286886181985"><ele>37.5</ele><time>2026-05-04T07:00:22Z</time></trkpt><trkpt lat="44.967065575668244" lon="10.055427563285946"><ele>37.0</ele><time>2026-05-04T07:00:23Z</time></trkpt><trkpt lat="44.967265722977714" lon="10.055595202607403"><ele>37.0</ele><time>2026-05-04T07:00:24Z</time></trkpt><trkpt lat="44.96747184638756" lon="10.055767866553396"><ele>37.0</ele><time>2026-05-04T07:00:25Z</time></trkpt><trkpt lat="44.96767497582363" lon="10.055936803676747"><ele>37.5</ele><time>2026-05-04T07:00:26Z</time></trkpt><trkpt lat="44.96787524278423" lon="10.056103613266934"><ele>38.0</ele><time>2026-05-04T07:00:27Z</time></trkpt><trkpt lat="44.96807227972834" lon="10.05626839709205"><ele>38.0</ele><time>2026-05-04T07:00:28Z</time></trkpt><trkpt lat="44.96826974013529" lon="10.056424007736963"><ele>38.0</ele><time>2026-05-04T07:00:29Z</time></trkpt><trkpt lat="44.968459851796254" lon="10.056579850155495"><ele>38.0</ele><time>2026-05-04T07:00:30Z</time></trkpt><trkpt lat="44.96864163578615" lon="10.056729158747366"><ele>38.33333333333333</ele><time>2026-05-04T07:00:31Z</time></trkpt><trkpt lat="44.96881728990132" lon="10.056867751189166"><ele>38.666666666666664</ele><time>2026-05-04T07:00:32Z</time></trkpt><trkpt lat="44.96898822711184" lon="10.056998611330464"><ele>39.0</ele><time>2026-05-04T07:00:33Z</time></trkpt><trkpt lat="44.969155813398444" lon="10.057106914734772"><ele>38.666666666666664</ele><time>2026-05-04T07:00:33.999Z</time></trkpt><trkpt lat="44.969317188829066" lon="10.057190335880337"><ele>38.33333333333333</ele><time>2026-05-04T07:00:34.999Z</time></trkpt><trkpt lat="44.96947132977413" lon="10.057239355858382"><ele>38.0</ele><time>2026-05-04T07:00:35.999Z</time></trkpt><trkpt lat="44.96962819597581" lon="10.057236531520106"><ele>38.0</ele><time>2026-05-04T07:00:36.999Z</time></trkpt><trkpt lat="44.96977781576632" lon="10.05716945572128"><ele>38.0</ele><time>2026-05-04T07:00:37.999Z</time></trkpt><trkpt lat="44.96991109893163" lon="10.057050222113128"><ele>38.0</ele><time>2026-05-04T07:00:38.999Z</time></trkpt><trkpt lat="44.97001220432536" lon="10.056881311887707"><ele>38.0</ele><time>2026-05-04T07:00:39.999Z</time></trkpt><trkpt lat="44.97007465618715" lon="10.056678410435609"><ele>38.0</ele><time>2026-05-04T07:00:40.999Z</time></trkpt><trkpt lat="44.970117608412934" lon="10.05646718387762"><ele>38.0</ele><time>2026-05-04T07:00:41.999Z</time></trkpt><trkpt lat="44.97016198005034" lon="10.056256496826734"><ele>38.0</ele><time>2026-05-04T07:00:42.999Z</time></trkpt><trkpt lat="44.970210563591095" lon="10.05604632516987"><ele>38.0</ele><time>2026-05-04T07:00:43.999Z</time></trkpt><trkpt lat="44.970264297039506" lon="10.055830687104631"><ele>38.0</ele><time>2026-05-04T07:00:44.999Z</time></trkpt><trkpt lat="44.970313713104325" lon="10.055612790685164"><ele>38.0</ele><time>2026-05-04T07:00:45.999Z</time></trkpt><trkpt lat="44.97036126548036" lon="10.05538976830865"><ele>38.0</ele><time>2026-05-04T07:00:46.999Z</time></trkpt><trkpt lat="44.97041270290784" lon="10.05515557943137"><ele>38.0</ele><time>2026-05-04T07:00:47.999Z</time></trkpt><trkpt lat="44.97046785877691" lon="10.054911904368035"><ele>38.0</ele><time>2026-05-04T07:00:48.999Z</time></trkpt><trkpt lat="44.970526332806" lon="10.054665035604893"><ele>38.0</ele><time>2026-05-04T07:00:49.999Z</time></trkpt><trkpt lat="44.97058742046631" lon="10.054416502416956"><ele>38.0</ele><time>2026-05-04T07:00:50.999Z</time></trkpt><trkpt lat="44.9706490010362" lon="10.054165134021092"><ele>38.33333333333333</ele><time>2026-05-04T07:00:51.999Z</time></trkpt><trkpt lat="44.970706263959485" lon="10.053915379020356"><ele>38.666666666666664</ele><time>2026-05-04T07:00:52.999Z</time></trkpt><trkpt lat="44.970761385129414" lon="10.053664213661484"><ele>39.0</ele><time>2026-05-04T07:00:53.999Z</time></trkpt><trkpt lat="44.97081621982703" lon="10.053414852353088"><ele>38.666666666666664</ele><time>2026-05-04T07:00:54.999Z</time></trkpt><trkpt lat="44.97087462962471" lon="10.053165023454984"><ele>38.33333333333333</ele><time>2026-05-04T07:00:55.999Z</time></trkpt><trkpt lat="44.9709325945252" lon="10.052917893963372"><ele>38.0</ele><time>2026-05-04T07:00:57Z</time></trkpt><trkpt lat="44.9709876647063" lon="10.052681959475926"><ele>38.0</ele><time>2026-05-04T07:00:58Z</time></trkpt><trkpt lat="44.971038782302365" lon="10.052463438586122"><ele>38.0</ele><time>2026-05-04T07:00:59Z</time></trkpt><trkpt lat="44.97108861849882" lon="10.05225063222274"><ele>38.0</ele><time>2026-05-04T07:01:00Z</time></trkpt><trkpt lat="44.971137285211206" lon="10.052037885123568"><ele>38.666666666666664</ele><time>2026-05-04T07:01:01Z</time></trkpt><trkpt lat="44.97118441044291" lon="10.051822614816396"><ele>39.333333333333336</ele><time>2026-05-04T07:01:02Z</time></trkpt><trkpt lat="44.97123123553558" lon="10.051607347871588"><ele>40.0</ele><time>2026-05-04T07:01:03Z</time></trkpt><trkpt lat="44.971277106936846" lon="10.051398702601013"><ele>40.0</ele><time>2026-05-04T07:01:04Z</time></trkpt><trkpt lat="44.97132420725353" lon="10.051190549097754"><ele>40.0</ele><time>2026-05-04T07:01:05Z</time></trkpt><trkpt lat="44.971372086571655" lon="10.050978381938233"><ele>40.0</ele><time>2026-05-04T07:01:06Z</time></trkpt><trkpt lat="44.97142078605966" lon="10.050761040922032"><ele>40.0</ele><time>2026-05-04T07:01:07Z</time></trkpt><trkpt lat="44.9714722210635" lon="10.050539373303998"><ele>40.0</ele><time>2026-05-04T07:01:08Z</time></trkpt><trkpt lat="44.97152464466849" lon="10.050311085957672"><ele>40.0</ele><time>2026-05-04T07:01:09Z</time></trkpt><trkpt lat="44.97157931453518" lon="10.050076589906212"><ele>40.333333333333336</ele><time>2026-05-04T07:01:10Z</time></trkpt><trkpt lat="44.971633247106524" lon="10.049841777224183"><ele>40.666666666666664</ele><time>2026-05-04T07:01:11Z</time></trkpt><trkpt lat="44.97168955893537" lon="10.049603799773136"><ele>41.0</ele><time>2026-05-04T07:01:12Z</time></trkpt><trkpt lat="44.97174979549232" lon="10.049363843526876"><ele>40.666666666666664</ele><time>2026-05-04T07:01:13Z</time></trkpt><trkpt lat="44.971807417175654" lon="10.049126926189679"><ele>40.333333333333336</ele><time>2026-05-04T07:01:14Z</time></trkpt><trkpt lat="44.97186159625056" lon="10.048890906647372"><ele>40.0</ele><time>2026-05-04T07:01:15Z</time></trkpt><trkpt lat="44.97191156264082" lon="10.048658165784902"><ele>40.0</ele><time>2026-05-04T07:01:16Z</time></trkpt><trkpt lat="44.97196064231275" lon="10.048430250407675"><ele>40.0</ele><time>2026-05-04T07:01:17Z</time></trkpt><trkpt lat="44.972008113039905" lon="10.048212162568428"><ele>40.0</ele><time>2026-05-04T07:01:18Z</time></trkpt><trkpt lat="44.97205144249176" lon="10.048019562224706"><ele>40.2</ele><time>2026-05-04T07:01:19Z</time></trkpt><trkpt lat="44.972089242181674" lon="10.04785587077148"><ele>40.4</ele><time>2026-05-04T07:01:20Z</time></trkpt><trkpt lat="44.97212423351696" lon="10.047735767124168"><ele>40.599999999999994</ele><time>2026-05-04T07:01:21Z</time></trkpt><trkpt lat="44.9721554560077" lon="10.047653284800914"><ele>40.8</ele><time>2026-05-04T07:01:22Z</time></trkpt><trkpt lat="44.97222475263641" lon="10.047576985074551"><ele>41.0</ele><time>2026-05-04T07:01:24Z</time></trkpt><trkpt lat="44.97232646942843" lon="10.04757915646475"><ele>41.0</ele><time>2026-05-04T07:01:25Z</time></trkpt><trkpt lat="44.97238569237315" lon="10.047613488992209"><ele>41.0</ele><time>2026-05-04T07:01:26Z</time></trkpt><trkpt lat="44.972491789440035" lon="10.047685859109656"><ele>41.0</ele><time>2026-05-04T07:01:28Z</time></trkpt><trkpt lat="44.97256997737599" lon="10.047719738839573"><ele>41.0</ele><time>2026-05-04T07:01:30Z</time></trkpt><trkpt lat="44.972598866091566" lon="10.047623064074442"><ele>41.0</ele><time>2026-05-04T07:01:32Z</time></trkpt><trkpt lat="44.97262659548716" lon="10.0475230506516"><ele>41.0</ele><time>2026-05-04T07:01:35Z</time></trkpt><trkpt lat="44.97274663133683" lon="10.047510131821264"><ele>40.83333333333333</ele><time>2026-05-04T07:01:40Z</time></trkpt><trkpt lat="44.97282515242263" lon="10.047564527141034"><ele>40.666666666666664</ele><time>2026-05-04T07:01:42Z</time></trkpt><trkpt lat="44.97290738456028" lon="10.047616352660912"><ele>40.5</ele><time>2026-05-04T07:01:44Z</time></trkpt><trkpt lat="44.97298120732204" lon="10.04763729322964"><ele>40.333333333333336</ele><time>2026-05-04T07:01:46Z</time></trkpt><trkpt lat="44.97304984787807" lon="10.047674280181486"><ele>40.16666666666667</ele><time>2026-05-04T07:01:50Z</time></trkpt><trkpt lat="44.97311278829992" lon="10.047712314895163"><ele>40.0</ele><time>2026-05-04T07:01:54Z</time></trkpt><trkpt lat="44.9730485371204" lon="10.047694566498711"><ele>40.0</ele><time>2026-05-04T07:03:37Z</time></trkpt><trkpt lat="44.97298301988019" lon="10.047657084421758"><ele>40.0</ele><time>2026-05-04T07:03:45Z</time></trkpt><trkpt lat="44.9728950160422" lon="10.047930636311268"><ele>40.0</ele><time>2026-05-04T07:03:46Z</time></trkpt><trkpt lat="44.97282644455902" lon="10.047948256335525"><ele>40.0</ele><time>2026-05-04T07:03:52Z</time></trkpt><trkpt lat="44.972753014173136" lon="10.04794048291454"><ele>40.0</ele><time>2026-05-04T07:03:58Z</time></trkpt><trkpt lat="44.97261819957964" lon="10.048088753541185"><ele>40.0</ele><time>2026-05-04T07:04:42.018Z</time></trkpt><trkpt lat="44.97265487543492" lon="10.047907793650593"><ele>40.0</ele><time>2026-05-04T07:04:50.121Z</time></trkpt><trkpt lat="44.972625958889296" lon="10.048028963727665"><ele>40.0</ele><time>2026-05-04T07:05:51.018Z</time></trkpt><trkpt lat="44.972596184118544" lon="10.048147181116281"><ele>40.0</ele><time>2026-05-04T07:05:54.058Z</time></trkpt><trkpt lat="44.97254120638162" lon="10.048308240853046"><ele>40.0</ele><time>2026-05-04T07:06:05.946Z</time></trkpt><trkpt lat="44.97253339164515" lon="10.048403233586622"><ele>40.0</ele><time>2026-05-04T07:06:06.806Z</time></trkpt><trkpt lat="44.972562165842554" lon="10.048266965979556"><ele>40.0</ele><time>2026-05-04T07:06:12.021Z</time></trkpt><trkpt lat="44.972549496336654" lon="10.048459130304463"><ele>40.0</ele><time>2026-05-04T07:06:47.511Z</time></trkpt><trkpt lat="44.97249518392701" lon="10.048506646418414"><ele>40.0</ele><time>2026-05-04T07:09:59Z</time></trkpt><trkpt lat="44.97242936240859" lon="10.048542658455421"><ele>40.0</ele><time>2026-05-04T07:15:34Z</time></trkpt><trkpt lat="44.97249855211125" lon="10.04838544348281"><ele>40.0</ele><time>2026-05-04T07:16:25.02Z</time></trkpt><trkpt lat="44.972459803104684" lon="10.048508269643015"><ele>40.0</ele><time>2026-05-04T07:34:04.123Z</time></trkpt><trkpt lat="44.972362336042906" lon="10.048395077212263"><ele>40.0</ele><time>2026-05-04T08:02:20Z</time></trkpt><trkpt lat="44.972409868438845" lon="10.048466413247432"><ele>40.0</ele><time>2026-05-04T08:04:26Z</time></trkpt><trkpt lat="44.97248188351889" lon="10.048479532997447"><ele>40.0</ele><time>2026-05-04T09:48:29.001Z</time></trkpt><trkpt lat="44.97245419230478" lon="10.04835362324343"><ele>40.25</ele><time>2026-05-04T12:08:36Z</time></trkpt><trkpt lat="44.972409069687885" lon="10.0482672555348"><ele>40.5</ele><time>2026-05-04T12:08:47Z</time></trkpt><trkpt lat="44.972309518917434" lon="10.048117593525697"><ele>40.75</ele><time>2026-05-04T12:08:52Z</time></trkpt><trkpt lat="44.97238297349034" lon="10.048217131701135"><ele>41.0</ele><time>2026-05-04T12:08:57.999Z</time></trkpt><trkpt lat="44.972313481617654" lon="10.048057441859733"><ele>41.0</ele><time>2026-05-04T12:09:19Z</time></trkpt><trkpt lat="44.972297347936724" lon="10.0481479585511"><ele>41.0</ele><time>2026-05-04T12:09:29Z</time></trkpt><trkpt lat="44.97235177234314" lon="10.048230498721061"><ele>41.0</ele><time>2026-05-04T12:09:38Z</time></trkpt><trkpt lat="44.97238966308489" lon="10.048316411668425"><ele>41.0</ele><time>2026-05-04T12:09:41Z</time></trkpt><trkpt lat="44.9724742379735" lon="10.048368898938428"><ele>41.0</ele><time>2026-05-04T12:09:50Z</time></trkpt><trkpt lat="44.972558669138365" lon="10.04851388678137"><ele>41.0</ele><time>2026-05-04T12:09:56Z</time></trkpt><trkpt lat="44.97250491240211" lon="10.048444875656315"><ele>40.83333333333333</ele><time>2026-05-04T12:09:59Z</time></trkpt><trkpt lat="44.97246196562751" lon="10.048354643248704"><ele>40.666666666666664</ele><time>2026-05-04T12:10:06Z</time></trkpt><trkpt lat="44.972480465697224" lon="10.048458185942323"><ele>40.5</ele><time>2026-05-04T12:10:43Z</time></trkpt><trkpt lat="44.972448464900765" lon="10.048547284756332"><ele>40.333333333333336</ele><time>2026-05-04T12:10:47Z</time></trkpt><trkpt lat="44.972491755632454" lon="10.048479388922443"><ele>40.16666666666667</ele><time>2026-05-04T12:11:34Z</time></trkpt><trkpt lat="44.972511747532366" lon="10.048341738443925"><ele>40.0</ele><time>2026-05-04T12:11:55Z</time></trkpt><trkpt lat="44.97243712364174" lon="10.048352066034948"><ele>40.0</ele><time>2026-05-04T12:12:37Z</time></trkpt><trkpt lat="44.9724359690241" lon="10.048201760535585"><ele>40.0</ele><time>2026-05-04T12:12:43Z</time></trkpt><trkpt lat="44.972400136851206" lon="10.048279896537368"><ele>40.0</ele><time>2026-05-04T12:12:51Z</time></trkpt><trkpt lat="44.972477638880804" lon="10.048296063870396"><ele>40.0</ele><time>2026-05-04T12:13:36Z</time></trkpt><trkpt lat="44.972451291602205" lon="10.04846565978977"><ele>40.0</ele><time>2026-05-04T12:13:48Z</time></trkpt><trkpt lat="44.97252106876764" lon="10.048328139545319"><ele>40.0</ele><time>2026-05-04T12:14:05Z</time></trkpt><trkpt lat="44.972507007713205" lon="10.04850191927616"><ele>40.0</ele><time>2026-05-04T12:14:27Z</time></trkpt><trkpt lat="44.972565194730194" lon="10.04841982788243"><ele>40.0</ele><time>2026-05-04T12:15:42Z</time></trkpt><trkpt lat="44.97254453411503" lon="10.048328346201439"><ele>40.0</ele><time>2026-05-04T12:17:59Z</time></trkpt><trkpt lat="44.97252764666181" lon="10.048419427913363"><ele>40.0</ele><time>2026-05-04T12:19:13Z</time></trkpt><trkpt lat="44.97246745531808" lon="10.048471811744133"><ele>40.0</ele><time>2026-05-04T12:19:26Z</time></trkpt><trkpt lat="44.97255584987213" lon="10.04842208304762"><ele>40.0</ele><time>2026-05-04T12:19:53Z</time></trkpt><trkpt lat="44.9724586353107" lon="10.048511717068099"><ele>40.0</ele><time>2026-05-04T12:25:07.378Z</time></trkpt><trkpt lat="44.97236306646559" lon="10.048464582186652"><ele>40.0</ele><time>2026-05-04T12:54:38Z</time></trkpt><trkpt lat="44.97242814959408" lon="10.048500950300738"><ele>40.0</ele><time>2026-05-04T12:56:49.015Z</time></trkpt><trkpt lat="44.97253367354933" lon="10.048255805300355"><ele>40.0</ele><time>2026-05-04T13:18:03.017Z</time></trkpt><trkpt lat="44.972591299691516" lon="10.048168673450652"><ele>40.0</ele><time>2026-05-04T13:18:21.021Z</time></trkpt><trkpt lat="44.97268547102487" lon="10.047985628555315"><ele>40.0</ele><time>2026-05-04T13:18:25.241Z</time></trkpt><trkpt lat="44.97260957898836" lon="10.04791902705532"><ele>40.0</ele><time>2026-05-04T13:18:30Z</time></trkpt><trkpt lat="44.97257341651793" lon="10.047828917553614"><ele>40.0</ele><time>2026-05-04T13:18:35Z</time></trkpt><trkpt lat="44.97251250654977" lon="10.047787200177273"><ele>40.0</ele><time>2026-05-04T13:18:47Z</time></trkpt><trkpt lat="44.97249943804876" lon="10.047686088276626"><ele>40.0</ele><time>2026-05-04T13:18:52Z</time></trkpt><trkpt lat="44.9725180669417" lon="10.0475968327319"><ele>40.0</ele><time>2026-05-04T13:18:54Z</time></trkpt><trkpt lat="44.97254433367053" lon="10.047503011205198"><ele>40.0</ele><time>2026-05-04T13:18:57Z</time></trkpt><trkpt lat="44.972575678120755" lon="10.047398762257444"><ele>40.0</ele><time>2026-05-04T13:19:01Z</time></trkpt><trkpt lat="44.97260882066799" lon="10.047312540263157"><ele>40.0</ele><time>2026-05-04T13:19:05Z</time></trkpt><trkpt lat="44.97264028252227" lon="10.047211731027609"><ele>40.0</ele><time>2026-05-04T13:19:10Z</time></trkpt><trkpt lat="44.97267490766967" lon="10.04711373250425"><ele>40.0</ele><time>2026-05-04T13:19:15Z</time></trkpt><trkpt lat="44.97270764999975" lon="10.047021395919657"><ele>40.0</ele><time>2026-05-04T13:19:21Z</time></trkpt><trkpt lat="44.972720700671594" lon="10.046930255628736"><ele>40.0</ele><time>2026-05-04T13:19:32Z</time></trkpt><trkpt lat="44.9726961439155" lon="10.046791248017623"><ele>40.0</ele><time>2026-05-04T13:19:36Z</time></trkpt><trkpt lat="44.97266782094485" lon="10.046705970004846"><ele>40.0</ele><time>2026-05-04T13:19:40Z</time></trkpt><trkpt lat="44.97264722924569" lon="10.046619404114805"><ele>40.0</ele><time>2026-05-04T13:19:45Z</time></trkpt><trkpt lat="44.97278035622578" lon="10.046664895499168"><ele>40.0</ele><time>2026-05-04T13:19:51Z</time></trkpt><trkpt lat="44.97270090387872" lon="10.046483773697593"><ele>40.0</ele><time>2026-05-04T13:20:01.469Z</time></trkpt><trkpt lat="44.972780038014214" lon="10.046416074322684"><ele>40.0</ele><time>2026-05-04T13:27:36Z</time></trkpt><trkpt lat="44.97279378708737" lon="10.046305904431058"><ele>40.0</ele><time>2026-05-04T13:33:17Z</time></trkpt><trkpt lat="44.972763912100866" lon="10.046169911865357"><ele>40.0</ele><time>2026-05-04T14:20:14Z</time></trkpt><trkpt lat="44.97272900288219" lon="10.046039026621893"><ele>40.0</ele><time>2026-05-04T14:22:50Z</time></trkpt><trkpt lat="44.972733663911896" lon="10.046162642797038"><ele>40.0</ele><time>2026-05-04T14:24:22Z</time></trkpt><trkpt lat="44.972785344424885" lon="10.046241099454159"><ele>40.0</ele><time>2026-05-04T14:28:08.999Z</time></trkpt><trkpt lat="44.972784622993345" lon="10.04614859923241"><ele>40.0</ele><time>2026-05-04T14:29:17Z</time></trkpt><trkpt lat="44.97281595717734" lon="10.04626224972076"><ele>40.0</ele><time>2026-05-04T14:33:57Z</time></trkpt><trkpt lat="44.97282615079155" lon="10.046371202961621"><ele>40.0</ele><time>2026-05-04T14:34:08Z</time></trkpt><trkpt lat="44.97277084603045" lon="10.04624261982628"><ele>40.0</ele><time>2026-05-04T14:34:20Z</time></trkpt><trkpt lat="44.97279211902066" lon="10.04634285263908"><ele>40.0</ele><time>2026-05-04T14:35:50.022Z</time></trkpt><trkpt lat="44.97276991076747" lon="10.04644864560825"><ele>40.0</ele><time>2026-05-04T14:35:54.651Z</time></trkpt><trkpt lat="44.972971172440985" lon="10.046802398525443"><ele>40.0</ele><time>2026-05-04T14:39:16.201Z</time></trkpt><trkpt lat="44.97285916892977" lon="10.046929846856722"><ele>40.0</ele><time>2026-05-04T14:39:36Z</time></trkpt><trkpt lat="44.9727963144905" lon="10.046901579016819"><ele>40.0</ele><time>2026-05-04T14:39:40Z</time></trkpt><trkpt lat="44.972630320159006" lon="10.04698650912386"><ele>40.0</ele><time>2026-05-04T14:39:58Z</time></trkpt><trkpt lat="44.97275302045627" lon="10.046930241122896"><ele>40.0</ele><time>2026-05-04T14:40:15Z</time></trkpt><trkpt lat="44.97262617111694" lon="10.046995729217347"><ele>40.0</ele><time>2026-05-04T14:40:22Z</time></trkpt><trkpt lat="44.9727341642922" lon="10.046963205095329"><ele>40.0</ele><time>2026-05-04T14:40:29Z</time></trkpt><trkpt lat="44.97271558359024" lon="10.047049199207981"><ele>40.0</ele><time>2026-05-04T14:40:35Z</time></trkpt><trkpt lat="44.97273993175168" lon="10.047132706216205"><ele>40.0</ele><time>2026-05-04T15:01:20Z</time></trkpt><trkpt lat="44.97278760217543" lon="10.047065989945715"><ele>40.0</ele><time>2026-05-04T15:04:15Z</time></trkpt><trkpt lat="44.97276753532689" lon="10.047173376164778"><ele>40.0</ele><time>2026-05-04T15:05:35Z</time></trkpt><trkpt lat="44.97279481571211" lon="10.047262256340392"><ele>40.0</ele><time>2026-05-04T15:06:06Z</time></trkpt><trkpt lat="44.97279030505969" lon="10.047385549555047"><ele>40.0</ele><time>2026-05-04T15:06:15Z</time></trkpt><trkpt lat="44.97277272038823" lon="10.047486642043697"><ele>40.0</ele><time>2026-05-04T15:06:18Z</time></trkpt><trkpt lat="44.97274774535272" lon="10.047580189125611"><ele>40.0</ele><time>2026-05-04T15:06:26Z</time></trkpt><trkpt lat="44.97279366920239" lon="10.047651786360584"><ele>40.0</ele><time>2026-05-04T15:06:33Z</time></trkpt><trkpt lat="44.97278220414245" lon="10.047743277863189"><ele>40.0</ele><time>2026-05-04T15:06:41Z</time></trkpt><trkpt lat="44.97276067542564" lon="10.047829775496583"><ele>40.0</ele><time>2026-05-04T15:06:47Z</time></trkpt><trkpt lat="44.97270943758761" lon="10.04790262794831"><ele>40.0</ele><time>2026-05-04T15:06:54Z</time></trkpt><trkpt lat="44.97257659132727" lon="10.048098471739632"><ele>40.0</ele><time>2026-05-04T15:07:37.254Z</time></trkpt><trkpt lat="44.972505530719936" lon="10.048364485945026"><ele>40.0</ele><time>2026-05-04T15:07:39.046Z</time></trkpt><trkpt lat="44.97238005331501" lon="10.048454427066886"><ele>40.0</ele><time>2026-05-04T15:07:57.752Z</time></trkpt><trkpt lat="44.97233290464585" lon="10.048547081973698"><ele>40.0</ele><time>2026-05-04T15:12:18.724Z</time></trkpt><trkpt lat="44.97184588160514" lon="10.04802659070997"><ele>40.0</ele><time>2026-05-04T15:12:21Z</time></trkpt><trkpt lat="44.97233675356025" lon="10.048546517010049"><ele>40.0</ele><time>2026-05-04T15:12:48Z</time></trkpt><trkpt lat="44.972411144548026" lon="10.048478231379779"><ele>40.0</ele><time>2026-05-04T15:19:01Z</time></trkpt><trkpt lat="44.97246369989982" lon="10.048262664366826"><ele>40.0</ele><time>2026-05-04T15:28:26Z</time></trkpt><trkpt lat="44.97240264710017" lon="10.048318192943816"><ele>40.0</ele><time>2026-05-04T15:28:29Z</time></trkpt><trkpt lat="44.97245679727033" lon="10.04850359271193"><ele>40.0</ele><time>2026-05-04T15:28:31.012Z</time></trkpt><trkpt lat="44.972495743859554" lon="10.048400338518528"><ele>40.0</ele><time>2026-05-04T15:35:58.023Z</time></trkpt><trkpt lat="44.97246318682082" lon="10.048497030643016"><ele>40.0</ele><time>2026-05-04T16:00:11.757Z</time></trkpt><trkpt lat="44.9725306760865" lon="10.048427342415602"><ele>40.0</ele><time>2026-05-04T16:14:34.943Z</time></trkpt><trkpt lat="44.972582705114306" lon="10.048220765789974"><ele>40.0</ele><time>2026-05-04T16:14:35.83Z</time></trkpt><trkpt lat="44.97266994853329" lon="10.047929640866126"><ele>40.0</ele><time>2026-05-04T16:14:50.026Z</time></trkpt><trkpt lat="44.97274221472655" lon="10.047880682263754"><ele>40.0</ele><time>2026-05-04T16:15:04.002Z</time></trkpt><trkpt lat="44.972810436387874" lon="10.047845498695445"><ele>40.0</ele><time>2026-05-04T16:15:13.001Z</time></trkpt><trkpt lat="44.97287692606476" lon="10.04780504042562"><ele>40.0</ele><time>2026-05-04T16:15:20.001Z</time></trkpt><trkpt lat="44.97294164055313" lon="10.047813301636577"><ele>40.0</ele><time>2026-05-04T16:15:26Z</time></trkpt><trkpt lat="44.97303631370527" lon="10.047815471613228"><ele>40.0</ele><time>2026-05-04T16:15:40Z</time></trkpt><trkpt lat="44.97309446460103" lon="10.04785367788021"><ele>40.0</ele><time>2026-05-04T16:16:46.999Z</time></trkpt><trkpt lat="44.97304960601193" lon="10.047920894933059"><ele>40.0</ele><time>2026-05-04T16:17:09Z</time></trkpt><trkpt lat="44.973027459179164" lon="10.048009720483705"><ele>40.0</ele><time>2026-05-04T16:17:18Z</time></trkpt><trkpt lat="44.97297374031519" lon="10.048066495328838"><ele>40.0</ele><time>2026-05-04T16:17:30Z</time></trkpt><trkpt lat="44.97304788178917" lon="10.047924042849935"><ele>40.0</ele><time>2026-05-04T16:18:03Z</time></trkpt><trkpt lat="44.97308870793652" lon="10.047852472274363"><ele>40.0</ele><time>2026-05-04T16:18:09Z</time></trkpt><trkpt lat="44.973140650793006" lon="10.047775513229196"><ele>40.0</ele><time>2026-05-04T16:18:34.999Z</time></trkpt><trkpt lat="44.973134055250675" lon="10.047672809558975"><ele>40.0</ele><time>2026-05-04T16:18:39.999Z</time></trkpt><trkpt lat="44.97312663604419" lon="10.047557776040799"><ele>40.0</ele><time>2026-05-04T16:18:44.999Z</time></trkpt><trkpt lat="44.97306611997538" lon="10.047445358572144"><ele>40.0</ele><time>2026-05-04T16:18:49.999Z</time></trkpt><trkpt lat="44.97295807588909" lon="10.047387515359887"><ele>40.0</ele><time>2026-05-04T16:18:51.999Z</time></trkpt><trkpt lat="44.97288945375432" lon="10.04735862202585"><ele>40.0</ele><time>2026-05-04T16:18:52.999Z</time></trkpt><trkpt lat="44.972825555635545" lon="10.047320801632956"><ele>40.0</ele><time>2026-05-04T16:18:53.999Z</time></trkpt><trkpt lat="44.97276120047241" lon="10.04728699424854"><ele>40.0</ele><time>2026-05-04T16:18:54.999Z</time></trkpt><trkpt lat="44.97267948610467" lon="10.047271969570513"><ele>40.0</ele><time>2026-05-04T16:18:56.999Z</time></trkpt><trkpt lat="44.972634836170926" lon="10.047339144870547"><ele>40.0</ele><time>2026-05-04T16:18:58.999Z</time></trkpt><trkpt lat="44.97262785462183" lon="10.04743339054261"><ele>40.0</ele><time>2026-05-04T16:19:13Z</time></trkpt><trkpt lat="44.972597110439004" lon="10.047532426954481"><ele>40.0</ele><time>2026-05-04T16:19:16Z</time></trkpt><trkpt lat="44.972529175272214" lon="10.047580927994916"><ele>40.0</ele><time>2026-05-04T16:19:19Z</time></trkpt><trkpt lat="44.97244036346133" lon="10.047543500522004"><ele>40.2</ele><time>2026-05-04T16:19:21Z</time></trkpt><trkpt lat="44.97235789959126" lon="10.04751683385081"><ele>40.4</ele><time>2026-05-04T16:19:23Z</time></trkpt><trkpt lat="44.972276505491024" lon="10.047484487716527"><ele>40.599999999999994</ele><time>2026-05-04T16:19:26Z</time></trkpt><trkpt lat="44.97218222994393" lon="10.047500187265848"><ele>40.8</ele><time>2026-05-04T16:19:52Z</time></trkpt><trkpt lat="44.9721270820651" lon="10.047695342145785"><ele>41.0</ele><time>2026-05-04T16:19:54Z</time></trkpt><trkpt lat="44.97206937214978" lon="10.047821554121672"><ele>41.0</ele><time>2026-05-04T16:19:55Z</time></trkpt><trkpt lat="44.972033875334894" lon="10.047979022770432"><ele>41.0</ele><time>2026-05-04T16:19:56Z</time></trkpt><trkpt lat="44.97199484381417" lon="10.048152171823919"><ele>41.0</ele><time>2026-05-04T16:19:57Z</time></trkpt><trkpt lat="44.97195235494404" lon="10.04834065814574"><ele>41.0</ele><time>2026-05-04T16:19:58Z</time></trkpt><trkpt lat="44.97190834212115" lon="10.048534761327419"><ele>40.75</ele><time>2026-05-04T16:19:59Z</time></trkpt><trkpt lat="44.97186426863671" lon="10.048728853282004"><ele>40.5</ele><time>2026-05-04T16:20:00Z</time></trkpt><trkpt lat="44.97181933353845" lon="10.048926739644385"><ele>40.25</ele><time>2026-05-04T16:20:01Z</time></trkpt><trkpt lat="44.97177285059357" lon="10.049131442435382"><ele>40.0</ele><time>2026-05-04T16:20:02Z</time></trkpt><trkpt lat="44.9717254693773" lon="10.049340101080098"><ele>40.0</ele><time>2026-05-04T16:20:03Z</time></trkpt><trkpt lat="44.971688533797" lon="10.04956083024211"><ele>40.0</ele><time>2026-05-04T16:20:04Z</time></trkpt><trkpt lat="44.97163760656612" lon="10.049780665887699"><ele>40.0</ele><time>2026-05-04T16:20:05Z</time></trkpt><trkpt lat="44.9715891485758" lon="10.05000691392838"><ele>40.0</ele><time>2026-05-04T16:20:06Z</time></trkpt><trkpt lat="44.97153711642939" lon="10.050236609855085"><ele>40.0</ele><time>2026-05-04T16:20:07Z</time></trkpt><trkpt lat="44.971483795864756" lon="10.050471970092051"><ele>40.0</ele><time>2026-05-04T16:20:08Z</time></trkpt><trkpt lat="44.97141366491728" lon="10.050706978640058"><ele>40.0</ele><time>2026-05-04T16:20:09Z</time></trkpt><trkpt lat="44.97135619680218" lon="10.050956668591954"><ele>40.0</ele><time>2026-05-04T16:20:10Z</time></trkpt><trkpt lat="44.97129798147028" lon="10.051209957088727"><ele>40.0</ele><time>2026-05-04T16:20:11Z</time></trkpt><trkpt lat="44.97123983876938" lon="10.0514631516037"><ele>40.0</ele><time>2026-05-04T16:20:12Z</time></trkpt><trkpt lat="44.97118112486651" lon="10.051718833534977"><ele>40.0</ele><time>2026-05-04T16:20:13Z</time></trkpt><trkpt lat="44.971121414283346" lon="10.051978855718398"><ele>40.0</ele><time>2026-05-04T16:20:14Z</time></trkpt><trkpt lat="44.97106167811715" lon="10.052238407440063"><ele>39.333333333333336</ele><time>2026-05-04T16:20:15Z</time></trkpt><trkpt lat="44.97100150598438" lon="10.052499569361695"><ele>38.666666666666664</ele><time>2026-05-04T16:20:16Z</time></trkpt><trkpt lat="44.97094010913682" lon="10.05276377615305"><ele>38.0</ele><time>2026-05-04T16:20:17Z</time></trkpt><trkpt lat="44.97087824370885" lon="10.053030497147658"><ele>38.33333333333333</ele><time>2026-05-04T16:20:18Z</time></trkpt><trkpt lat="44.970816270493245" lon="10.053297682848456"><ele>38.666666666666664</ele><time>2026-05-04T16:20:19Z</time></trkpt><trkpt lat="44.970754594381155" lon="10.053563587642877"><ele>39.0</ele><time>2026-05-04T16:20:20Z</time></trkpt><trkpt lat="44.97069170629512" lon="10.05383454361552"><ele>39.0</ele><time>2026-05-04T16:20:21Z</time></trkpt><trkpt lat="44.97062841186898" lon="10.054105641826624"><ele>39.0</ele><time>2026-05-04T16:20:22Z</time></trkpt><trkpt lat="44.970564359569416" lon="10.054379986107596"><ele>39.0</ele><time>2026-05-04T16:20:23Z</time></trkpt><trkpt lat="44.97050001197303" lon="10.05465611675735"><ele>38.666666666666664</ele><time>2026-05-04T16:20:24Z</time></trkpt><trkpt lat="44.97043621349156" lon="10.054932713085298"><ele>38.33333333333333</ele><time>2026-05-04T16:20:25Z</time></trkpt><trkpt lat="44.97037392863615" lon="10.055202747135771"><ele>38.0</ele><time>2026-05-04T16:20:26Z</time></trkpt><trkpt lat="44.9703149757938" lon="10.055456563903915"><ele>38.0</ele><time>2026-05-04T16:20:27Z</time></trkpt><trkpt lat="44.970261447739624" lon="10.055684861842447"><ele>38.0</ele><time>2026-05-04T16:20:28Z</time></trkpt><trkpt lat="44.970214741999186" lon="10.055888713201357"><ele>38.0</ele><time>2026-05-04T16:20:29Z</time></trkpt><trkpt lat="44.97017346996363" lon="10.056068848676244"><ele>38.0</ele><time>2026-05-04T16:20:30Z</time></trkpt><trkpt lat="44.97013925203717" lon="10.056218195866565"><ele>38.0</ele><time>2026-05-04T16:20:31Z</time></trkpt><trkpt lat="44.9701152130001" lon="10.056323116383936"><ele>38.0</ele><time>2026-05-04T16:20:32Z</time></trkpt><trkpt lat="44.97009012755234" lon="10.056432604062282"><ele>38.0</ele><time>2026-05-04T16:20:34Z</time></trkpt><trkpt lat="44.97022571219285" lon="10.056569025345976"><ele>38.0</ele><time>2026-05-04T16:20:36Z</time></trkpt><trkpt lat="44.970338150111374" lon="10.056652235192766"><ele>38.0</ele><time>2026-05-04T16:20:38Z</time></trkpt><trkpt lat="44.97040571711232" lon="10.056704553147247"><ele>38.0</ele><time>2026-05-04T16:20:39Z</time></trkpt><trkpt lat="44.970480405749264" lon="10.056762385480544"><ele>38.0</ele><time>2026-05-04T16:20:40Z</time></trkpt><trkpt lat="44.970560827515946" lon="10.056824657041082"><ele>38.0</ele><time>2026-05-04T16:20:41Z</time></trkpt><trkpt lat="44.97064740859606" lon="10.056884934795734"><ele>38.0</ele><time>2026-05-04T16:20:42Z</time></trkpt><trkpt lat="44.97073864836027" lon="10.056951336802804"><ele>38.0</ele><time>2026-05-04T16:20:43Z</time></trkpt><trkpt lat="44.970836552203146" lon="10.057018416028232"><ele>38.0</ele><time>2026-05-04T16:20:44Z</time></trkpt><trkpt lat="44.97093965722924" lon="10.05709047887972"><ele>38.0</ele><time>2026-05-04T16:20:45Z</time></trkpt><trkpt lat="44.97104160632623" lon="10.057176335855285"><ele>38.0</ele><time>2026-05-04T16:20:46Z</time></trkpt><trkpt lat="44.97114728196591" lon="10.057252503104099"><ele>38.0</ele><time>2026-05-04T16:20:46.999Z</time></trkpt><trkpt lat="44.97125478974553" lon="10.057329144459437"><ele>38.0</ele><time>2026-05-04T16:20:47.999Z</time></trkpt><trkpt lat="44.97135895823288" lon="10.057420382427761"><ele>38.0</ele><time>2026-05-04T16:20:48.999Z</time></trkpt><trkpt lat="44.97146859285894" lon="10.057504565722947"><ele>38.0</ele><time>2026-05-04T16:20:49.999Z</time></trkpt><trkpt lat="44.971580450543435" lon="10.057592045217636"><ele>38.0</ele><time>2026-05-04T16:20:50.999Z</time></trkpt><trkpt lat="44.971686607442095" lon="10.057698155999335"><ele>38.0</ele><time>2026-05-04T16:20:51.999Z</time></trkpt><trkpt lat="44.97178620155335" lon="10.0578080618453"><ele>38.0</ele><time>2026-05-04T16:20:52.999Z</time></trkpt><trkpt lat="44.971879337447035" lon="10.057927743360743"><ele>38.0</ele><time>2026-05-04T16:20:53.999Z</time></trkpt><trkpt lat="44.97196822499993" lon="10.058049705351056"><ele>38.0</ele><time>2026-05-04T16:20:54.999Z</time></trkpt><trkpt lat="44.97205735761997" lon="10.05817200351595"><ele>38.0</ele><time>2026-05-04T16:20:55.999Z</time></trkpt><trkpt lat="44.972142490253" lon="10.05828557384546"><ele>38.0</ele><time>2026-05-04T16:20:56.999Z</time></trkpt><trkpt lat="44.972218063297" lon="10.058386139501222"><ele>38.0</ele><time>2026-05-04T16:20:57.999Z</time></trkpt><trkpt lat="44.972292914113" lon="10.058445749617574"><ele>38.0</ele><time>2026-05-04T16:20:58.999Z</time></trkpt><trkpt lat="44.97235724204822" lon="10.058526122225278"><ele>38.33333333333333</ele><time>2026-05-04T16:21:00.999Z</time></trkpt><trkpt lat="44.97238045277398" lon="10.058636638637957"><ele>38.666666666666664</ele><time>2026-05-04T16:21:05.999Z</time></trkpt><trkpt lat="44.972303234766166" lon="10.058720288034834"><ele>39.0</ele><time>2026-05-04T16:21:07.999Z</time></trkpt><trkpt lat="44.97226511158926" lon="10.058791121418144"><ele>39.333333333333336</ele><time>2026-05-04T16:21:08.999Z</time></trkpt><trkpt lat="44.972221432971395" lon="10.058872276896823"><ele>39.66666666666667</ele><time>2026-05-04T16:21:09.999Z</time></trkpt><trkpt lat="44.97216822727997" lon="10.05897113377003"><ele>40.0</ele><time>2026-05-04T16:21:10.999Z</time></trkpt><trkpt lat="44.97211069310129" lon="10.059077966356273"><ele>40.0</ele><time>2026-05-04T16:21:12Z</time></trkpt><trkpt lat="44.972053089006266" lon="10.05918494538962"><ele>40.0</ele><time>2026-05-04T16:21:13Z</time></trkpt><trkpt lat="44.971992943097945" lon="10.059296644932862"><ele>40.0</ele><time>2026-05-04T16:21:14Z</time></trkpt><trkpt lat="44.97193011260398" lon="10.059413330130035"><ele>40.0</ele><time>2026-05-04T16:21:15Z</time></trkpt><trkpt lat="44.971861682084516" lon="10.05954041538533"><ele>40.0</ele><time>2026-05-04T16:21:16Z</time></trkpt><trkpt lat="44.97178921921626" lon="10.059677857471597"><ele>40.0</ele><time>2026-05-04T16:21:17Z</time></trkpt><trkpt lat="44.971714076939065" lon="10.059821493050457"><ele>40.0</ele><time>2026-05-04T16:21:18Z</time></trkpt><trkpt lat="44.97164485492996" lon="10.059983989792363"><ele>40.0</ele><time>2026-05-04T16:21:19Z</time></trkpt><trkpt lat="44.97155577711422" lon="10.060136786884255"><ele>40.0</ele><time>2026-05-04T16:21:20Z</time></trkpt><trkpt lat="44.97147333982623" lon="10.060302288624312"><ele>39.0</ele><time>2026-05-04T16:21:21Z</time></trkpt><trkpt lat="44.97138413233433" lon="10.060474023308364"><ele>38.0</ele><time>2026-05-04T16:21:22Z</time></trkpt><trkpt lat="44.97129130304295" lon="10.060648490900133"><ele>37.0</ele><time>2026-05-04T16:21:23Z</time></trkpt><trkpt lat="44.971194230158495" lon="10.0608328511085"><ele>37.0</ele><time>2026-05-04T16:21:24Z</time></trkpt><trkpt lat="44.97109341833893" lon="10.061025004688947"><ele>37.0</ele><time>2026-05-04T16:21:25Z</time></trkpt><trkpt lat="44.970988979451626" lon="10.061220619674875"><ele>37.0</ele><time>2026-05-04T16:21:26Z</time></trkpt><trkpt lat="44.97088367846853" lon="10.061419792080006"><ele>37.333333333333336</ele><time>2026-05-04T16:21:27Z</time></trkpt><trkpt lat="44.97077499908427" lon="10.061628617912017"><ele>37.666666666666664</ele><time>2026-05-04T16:21:28Z</time></trkpt><trkpt lat="44.970664426134846" lon="10.061841226631454"><ele>38.0</ele><time>2026-05-04T16:21:29Z</time></trkpt><trkpt lat="44.97055164375692" lon="10.06205067412268"><ele>38.0</ele><time>2026-05-04T16:21:30Z</time></trkpt><trkpt lat="44.9704420734675" lon="10.062261191122834"><ele>38.0</ele><time>2026-05-04T16:21:31Z</time></trkpt><trkpt lat="44.970332838768854" lon="10.062473175217054"><ele>38.0</ele><time>2026-05-04T16:21:32Z</time></trkpt><trkpt lat="44.97022479630963" lon="10.06268333708228"><ele>38.0</ele><time>2026-05-04T16:21:33Z</time></trkpt><trkpt lat="44.970116446643964" lon="10.062891151568964"><ele>38.0</ele><time>2026-05-04T16:21:34Z</time></trkpt><trkpt lat="44.97000795226736" lon="10.063103882142734"><ele>38.0</ele><time>2026-05-04T16:21:35Z</time></trkpt><trkpt lat="44.969899876736626" lon="10.06331946421394"><ele>38.0</ele><time>2026-05-04T16:21:36Z</time></trkpt><trkpt lat="44.96979047412011" lon="10.063532981320618"><ele>38.0</ele><time>2026-05-04T16:21:37Z</time></trkpt><trkpt lat="44.96968379975546" lon="10.063740087392105"><ele>38.0</ele><time>2026-05-04T16:21:38Z</time></trkpt><trkpt lat="44.969581238774154" lon="10.063940367080006"><ele>37.666666666666664</ele><time>2026-05-04T16:21:39Z</time></trkpt><trkpt lat="44.96948066055493" lon="10.064138713771063"><ele>37.333333333333336</ele><time>2026-05-04T16:21:40Z</time></trkpt><trkpt lat="44.969381922457615" lon="10.064332466901424"><ele>37.0</ele><time>2026-05-04T16:21:41Z</time></trkpt><trkpt lat="44.96928728892603" lon="10.064516071343057"><ele>37.0</ele><time>2026-05-04T16:21:42Z</time></trkpt><trkpt lat="44.96919887209717" lon="10.064699136309057"><ele>37.0</ele><time>2026-05-04T16:21:43Z</time></trkpt><trkpt lat="44.969124903016045" lon="10.06489001487834"><ele>37.0</ele><time>2026-05-04T16:21:44Z</time></trkpt><trkpt lat="44.96905909402659" lon="10.065081304963583"><ele>37.0</ele><time>2026-05-04T16:21:45Z</time></trkpt><trkpt lat="44.96900375210193" lon="10.065275859600684"><ele>37.0</ele><time>2026-05-04T16:21:46Z</time></trkpt><trkpt lat="44.968945607766706" lon="10.065467786153306"><ele>37.0</ele><time>2026-05-04T16:21:47Z</time></trkpt><trkpt lat="44.96889039211071" lon="10.0656551668046"><ele>37.0</ele><time>2026-05-04T16:21:48Z</time></trkpt><trkpt lat="44.96884011007476" lon="10.06583807598151"><ele>37.0</ele><time>2026-05-04T16:21:49Z</time></trkpt><trkpt lat="44.96879393182869" lon="10.06601524626444"><ele>37.0</ele><time>2026-05-04T16:21:50Z</time></trkpt><trkpt lat="44.96874470680733" lon="10.066190581713448"><ele>37.0</ele><time>2026-05-04T16:21:51Z</time></trkpt><trkpt lat="44.96869296353519" lon="10.066374817682826"><ele>37.0</ele><time>2026-05-04T16:21:52Z</time></trkpt><trkpt lat="44.96863855377965" lon="10.066564858094909"><ele>36.66666666666667</ele><time>2026-05-04T16:21:53Z</time></trkpt><trkpt lat="44.968580526142475" lon="10.066760138714589"><ele>36.333333333333336</ele><time>2026-05-04T16:21:54Z</time></trkpt><trkpt lat="44.96852118281547" lon="10.06696173199738"><ele>36.0</ele><time>2026-05-04T16:21:55Z</time></trkpt><trkpt lat="44.96846075584682" lon="10.067166687051621"><ele>36.0</ele><time>2026-05-04T16:21:56Z</time></trkpt><trkpt lat="44.96840013211907" lon="10.067380011185385"><ele>36.0</ele><time>2026-05-04T16:21:57Z</time></trkpt><trkpt lat="44.96833911577152" lon="10.067593916595056"><ele>36.0</ele><time>2026-05-04T16:21:58Z</time></trkpt><trkpt lat="44.96826728639803" lon="10.067805433024972"><ele>36.333333333333336</ele><time>2026-05-04T16:21:59Z</time></trkpt><trkpt lat="44.968215134517955" lon="10.06803412974869"><ele>36.66666666666667</ele><time>2026-05-04T16:22:00Z</time></trkpt><trkpt lat="44.9681642131205" lon="10.068267010271285"><ele>37.0</ele><time>2026-05-04T16:22:01Z</time></trkpt><trkpt lat="44.968112408961076" lon="10.06850392795949"><ele>37.333333333333336</ele><time>2026-05-04T16:22:02Z</time></trkpt><trkpt lat="44.96805998208598" lon="10.068743693438925"><ele>37.666666666666664</ele><time>2026-05-04T16:22:03Z</time></trkpt><trkpt lat="44.968004771849216" lon="10.068986065461477"><ele>38.0</ele><time>2026-05-04T16:22:04Z</time></trkpt><trkpt lat="44.96794918726336" lon="10.069233043579628"><ele>37.0</ele><time>2026-05-04T16:22:05Z</time></trkpt><trkpt lat="44.96789381462163" lon="10.069479079968417"><ele>36.0</ele><time>2026-05-04T16:22:06Z</time></trkpt><trkpt lat="44.96783760291167" lon="10.069731212627788"><ele>35.0</ele><time>2026-05-04T16:22:07Z</time></trkpt><trkpt lat="44.9677818766614" lon="10.069982665539968"><ele>35.0</ele><time>2026-05-04T16:22:08Z</time></trkpt><trkpt lat="44.96772638147683" lon="10.070233075814185"><ele>35.0</ele><time>2026-05-04T16:22:09Z</time></trkpt><trkpt lat="44.9676715260615" lon="10.07047966827197"><ele>35.0</ele><time>2026-05-04T16:22:10Z</time></trkpt><trkpt lat="44.96762029405662" lon="10.070708083537328"><ele>35.0</ele><time>2026-05-04T16:22:11Z</time></trkpt><trkpt lat="44.967576456337895" lon="10.07093283301312"><ele>35.0</ele><time>2026-05-04T16:22:12Z</time></trkpt><trkpt lat="44.96754860447441" lon="10.071161015540163"><ele>35.0</ele><time>2026-05-04T16:22:13Z</time></trkpt><trkpt lat="44.96757591876417" lon="10.071408055026263"><ele>35.0</ele><time>2026-05-04T16:22:14Z</time></trkpt><trkpt lat="44.96762026138265" lon="10.07163022155225"><ele>35.0</ele><time>2026-05-04T16:22:15Z</time></trkpt><trkpt lat="44.96766381293543" lon="10.071849194335691"><ele>35.0</ele><time>2026-05-04T16:22:16Z</time></trkpt><trkpt lat="44.96770691654579" lon="10.07207201753586"><ele>35.0</ele><time>2026-05-04T16:22:17Z</time></trkpt><trkpt lat="44.967743898842315" lon="10.072296074631502"><ele>35.0</ele><time>2026-05-04T16:22:18Z</time></trkpt><trkpt lat="44.96776605932182" lon="10.072524011903976"><ele>35.0</ele><time>2026-05-04T16:22:19Z</time></trkpt><trkpt lat="44.96776456489374" lon="10.072759206206118"><ele>35.0</ele><time>2026-05-04T16:22:20Z</time></trkpt><trkpt lat="44.967749987211185" lon="10.072999814925076"><ele>35.0</ele><time>2026-05-04T16:22:21Z</time></trkpt><trkpt lat="44.967733988086145" lon="10.073248721395249"><ele>35.0</ele><time>2026-05-04T16:22:22Z</time></trkpt><trkpt lat="44.96771780010562" lon="10.073500565972973"><ele>35.666666666666664</ele><time>2026-05-04T16:22:23Z</time></trkpt><trkpt lat="44.96770328031985" lon="10.073758962109034"><ele>36.333333333333336</ele><time>2026-05-04T16:22:24Z</time></trkpt><trkpt lat="44.967690753433914" lon="10.074011491014186"><ele>37.0</ele><time>2026-05-04T16:22:25Z</time></trkpt><trkpt lat="44.96768125112876" lon="10.074259651160467"><ele>37.0</ele><time>2026-05-04T16:22:26Z</time></trkpt><trkpt lat="44.967678753745524" lon="10.074514940034668"><ele>37.0</ele><time>2026-05-04T16:22:27Z</time></trkpt><trkpt lat="44.967679728864304" lon="10.074767547051488"><ele>37.0</ele><time>2026-05-04T16:22:28Z</time></trkpt><trkpt lat="44.96768067101425" lon="10.075011613680193"><ele>37.0</ele><time>2026-05-04T16:22:29Z</time></trkpt><trkpt lat="44.967704772881646" lon="10.075259091466645"><ele>37.0</ele><time>2026-05-04T16:22:30Z</time></trkpt><trkpt lat="44.96774340155087" lon="10.075499399056808"><ele>37.0</ele><time>2026-05-04T16:22:31Z</time></trkpt><trkpt lat="44.96778620424508" lon="10.075741050149558"><ele>36.333333333333336</ele><time>2026-05-04T16:22:32Z</time></trkpt><trkpt lat="44.96783160644358" lon="10.075985497668748"><ele>35.666666666666664</ele><time>2026-05-04T16:22:33Z</time></trkpt><trkpt lat="44.96788041412753" lon="10.076233822471266"><ele>35.0</ele><time>2026-05-04T16:22:34Z</time></trkpt><trkpt lat="44.967943310303795" lon="10.076482335300476"><ele>34.33333333333333</ele><time>2026-05-04T16:22:35Z</time></trkpt><trkpt lat="44.96797302620546" lon="10.076743853431738"><ele>33.666666666666664</ele><time>2026-05-04T16:22:36Z</time></trkpt><trkpt lat="44.96801933519015" lon="10.07700662126668"><ele>33.0</ele><time>2026-05-04T16:22:37Z</time></trkpt><trkpt lat="44.96806684504616" lon="10.07726950422306"><ele>33.666666666666664</ele><time>2026-05-04T16:22:38Z</time></trkpt><trkpt lat="44.9681148283839" lon="10.077533010895818"><ele>34.33333333333333</ele><time>2026-05-04T16:22:39Z</time></trkpt><trkpt lat="44.96816315891031" lon="10.077798424193949"><ele>35.0</ele><time>2026-05-04T16:22:40Z</time></trkpt><trkpt lat="44.96821083100114" lon="10.078060221615058"><ele>35.0</ele><time>2026-05-04T16:22:41Z</time></trkpt><trkpt lat="44.968258573019455" lon="10.078322403049699"><ele>35.0</ele><time>2026-05-04T16:22:42Z</time></trkpt><trkpt lat="44.968306813083046" lon="10.078583631487126"><ele>35.0</ele><time>2026-05-04T16:22:43Z</time></trkpt><trkpt lat="44.96835624941665" lon="10.078841917509282"><ele>35.0</ele><time>2026-05-04T16:22:44Z</time></trkpt><trkpt lat="44.968409025481805" lon="10.079105881803818"><ele>35.0</ele><time>2026-05-04T16:22:45Z</time></trkpt><trkpt lat="44.96847539557138" lon="10.079367943649684"><ele>35.0</ele><time>2026-05-04T16:22:46Z</time></trkpt><trkpt lat="44.96854880114181" lon="10.079634679699847"><ele>35.0</ele><time>2026-05-04T16:22:47Z</time></trkpt><trkpt lat="44.96862308927758" lon="10.079895523720326"><ele>35.0</ele><time>2026-05-04T16:22:48Z</time></trkpt><trkpt lat="44.96869195378209" lon="10.080130803926384"><ele>35.0</ele><time>2026-05-04T16:22:49Z</time></trkpt><trkpt lat="44.968743345939295" lon="10.080318001812687"><ele>35.0</ele><time>2026-05-04T16:22:50Z</time></trkpt><trkpt lat="44.968774968632886" lon="10.08047876420516"><ele>35.0</ele><time>2026-05-04T16:22:51Z</time></trkpt><trkpt lat="44.96876931060762" lon="10.080634847252343"><ele>35.0</ele><time>2026-05-04T16:22:52Z</time></trkpt><trkpt lat="44.968733327780654" lon="10.080769137596734"><ele>35.0</ele><time>2026-05-04T16:22:53Z</time></trkpt><trkpt lat="44.96865998781623" lon="10.080894566720062"><ele>35.0</ele><time>2026-05-04T16:22:54Z</time></trkpt><trkpt lat="44.968579796241706" lon="10.081018099318138"><ele>34.75</ele><time>2026-05-04T16:22:55Z</time></trkpt><trkpt lat="44.96849464092008" lon="10.081148044865337"><ele>34.5</ele><time>2026-05-04T16:22:56Z</time></trkpt><trkpt lat="44.96839225312704" lon="10.081285085994892"><ele>34.25</ele><time>2026-05-04T16:22:57Z</time></trkpt><trkpt lat="44.96828529478554" lon="10.081432782695844"><ele>34.0</ele><time>2026-05-04T16:22:58Z</time></trkpt><trkpt lat="44.96818242203822" lon="10.08157305415394"><ele>33.75</ele><time>2026-05-04T16:22:59Z</time></trkpt><trkpt lat="44.96808128258666" lon="10.081712413957964"><ele>33.5</ele><time>2026-05-04T16:23:00Z</time></trkpt><trkpt lat="44.96797922049027" lon="10.081857897101065"><ele>33.25</ele><time>2026-05-04T16:23:01Z</time></trkpt><trkpt lat="44.96788172526085" lon="10.081997022693184"><ele>33.0</ele><time>2026-05-04T16:23:02Z</time></trkpt><trkpt lat="44.96779803211799" lon="10.082107340075732"><ele>33.0</ele><time>2026-05-04T16:23:03Z</time></trkpt><trkpt lat="44.96774049833941" lon="10.082184898593072"><ele>33.0</ele><time>2026-05-04T16:23:04Z</time></trkpt><trkpt lat="44.96768872886256" lon="10.082272417053137"><ele>33.0</ele><time>2026-05-04T16:23:06Z</time></trkpt><trkpt lat="44.967659843739405" lon="10.082370850884136"><ele>33.0</ele><time>2026-05-04T16:23:08Z</time></trkpt><trkpt lat="44.96767636210936" lon="10.08246456456594"><ele>33.0</ele><time>2026-05-04T16:23:09Z</time></trkpt><trkpt lat="44.96772383825877" lon="10.082556897426636"><ele>33.0</ele><time>2026-05-04T16:23:10Z</time></trkpt><trkpt lat="44.967775156083924" lon="10.082663240729184"><ele>33.25</ele><time>2026-05-04T16:23:11Z</time></trkpt><trkpt lat="44.967829491610814" lon="10.082788453308707"><ele>33.5</ele><time>2026-05-04T16:23:12Z</time></trkpt><trkpt lat="44.96789189376046" lon="10.082922967004407"><ele>33.75</ele><time>2026-05-04T16:23:13Z</time></trkpt><trkpt lat="44.96795846931801" lon="10.08307448467619"><ele>34.0</ele><time>2026-05-04T16:23:14Z</time></trkpt><trkpt lat="44.96802469625395" lon="10.083247828271423"><ele>33.75</ele><time>2026-05-04T16:23:15Z</time></trkpt><trkpt lat="44.96810023537019" lon="10.083422160048602"><ele>33.5</ele><time>2026-05-04T16:23:16Z</time></trkpt><trkpt lat="44.968172357927585" lon="10.083597560132631"><ele>33.25</ele><time>2026-05-04T16:23:17Z</time></trkpt><trkpt lat="44.96822624171885" lon="10.083770082609927"><ele>33.0</ele><time>2026-05-04T16:23:18Z</time></trkpt><trkpt lat="44.96824879447536" lon="10.08391627549093"><ele>33.0</ele><time>2026-05-04T16:23:19Z</time></trkpt><trkpt lat="44.968252443957994" lon="10.084067520350326"><ele>33.0</ele><time>2026-05-04T16:23:20Z</time></trkpt><trkpt lat="44.96823363181781" lon="10.084216842190143"><ele>33.0</ele><time>2026-05-04T16:23:21Z</time></trkpt><trkpt lat="44.968202779123764" lon="10.08436590211807"><ele>33.0</ele><time>2026-05-04T16:23:22Z</time></trkpt><trkpt lat="44.96816842989854" lon="10.084524193122023"><ele>33.0</ele><time>2026-05-04T16:23:23Z</time></trkpt><trkpt lat="44.96811963538885" lon="10.084682731908263"><ele>33.75</ele><time>2026-05-04T16:23:24Z</time></trkpt><trkpt lat="44.96807233650892" lon="10.084861681650414"><ele>34.5</ele><time>2026-05-04T16:23:25Z</time></trkpt><trkpt lat="44.968023540807394" lon="10.085055810627011"><ele>35.25</ele><time>2026-05-04T16:23:26Z</time></trkpt><trkpt lat="44.967971243423726" lon="10.085266094556594"><ele>36.0</ele><time>2026-05-04T16:23:27Z</time></trkpt><trkpt lat="44.967920149844176" lon="10.08548843423184"><ele>36.0</ele><time>2026-05-04T16:23:28Z</time></trkpt><trkpt lat="44.96786741504124" lon="10.085720141995749"><ele>36.0</ele><time>2026-05-04T16:23:29Z</time></trkpt><trkpt lat="44.96780946841766" lon="10.085961422219299"><ele>36.0</ele><time>2026-05-04T16:23:30Z</time></trkpt><trkpt lat="44.967750946915075" lon="10.086212747887371"><ele>36.333333333333336</ele><time>2026-05-04T16:23:31Z</time></trkpt><trkpt lat="44.96769120261438" lon="10.086474341719189"><ele>36.66666666666667</ele><time>2026-05-04T16:23:32Z</time></trkpt><trkpt lat="44.967631193300896" lon="10.086745169010985"><ele>37.0</ele><time>2026-05-04T16:23:33Z</time></trkpt><trkpt lat="44.967567516791505" lon="10.087014296667629"><ele>37.0</ele><time>2026-05-04T16:23:34Z</time></trkpt><trkpt lat="44.967498115511546" lon="10.087279698258255"><ele>37.0</ele><time>2026-05-04T16:23:35Z</time></trkpt><trkpt lat="44.96742953423589" lon="10.087550596962343"><ele>37.0</ele><time>2026-05-04T16:23:36Z</time></trkpt><trkpt lat="44.9673686705835" lon="10.087824542809042"><ele>36.66666666666667</ele><time>2026-05-04T16:23:37Z</time></trkpt><trkpt lat="44.96730527591967" lon="10.088100366794412"><ele>36.333333333333336</ele><time>2026-05-04T16:23:38Z</time></trkpt><trkpt lat="44.967240493971126" lon="10.088375120006994"><ele>36.0</ele><time>2026-05-04T16:23:39Z</time></trkpt><trkpt lat="44.96718030577819" lon="10.08864507182209"><ele>35.333333333333336</ele><time>2026-05-04T16:23:40Z</time></trkpt><trkpt lat="44.96712194789382" lon="10.088913717852936"><ele>34.66666666666667</ele><time>2026-05-04T16:23:41Z</time></trkpt><trkpt lat="44.967047986189826" lon="10.089154285414805"><ele>34.0</ele><time>2026-05-04T16:23:42Z</time></trkpt><trkpt lat="44.96699266194567" lon="10.089388711848704"><ele>34.0</ele><time>2026-05-04T16:23:43Z</time></trkpt><trkpt lat="44.966938156402094" lon="10.089619668665067"><ele>34.0</ele><time>2026-05-04T16:23:44Z</time></trkpt><trkpt lat="44.96689917761815" lon="10.089848515212797"><ele>34.0</ele><time>2026-05-04T16:23:45Z</time></trkpt><trkpt lat="44.96684713155067" lon="10.090061556862091"><ele>34.333333333333336</ele><time>2026-05-04T16:23:46Z</time></trkpt><trkpt lat="44.96679458927825" lon="10.090273076192567"><ele>34.666666666666664</ele><time>2026-05-04T16:23:47Z</time></trkpt><trkpt lat="44.96674383705254" lon="10.090485411869869"><ele>35.0</ele><time>2026-05-04T16:23:48Z</time></trkpt><trkpt lat="44.966691478863126" lon="10.090699134238452"><ele>34.666666666666664</ele><time>2026-05-04T16:23:49Z</time></trkpt><trkpt lat="44.96664064502092" lon="10.090918261645086"><ele>34.333333333333336</ele><time>2026-05-04T16:23:50Z</time></trkpt><trkpt lat="44.96659333001551" lon="10.091138706429213"><ele>34.0</ele><time>2026-05-04T16:23:51Z</time></trkpt><trkpt lat="44.966540369658865" lon="10.091364484419698"><ele>34.333333333333336</ele><time>2026-05-04T16:23:52Z</time></trkpt><trkpt lat="44.966487301646346" lon="10.091594735455407"><ele>34.666666666666664</ele><time>2026-05-04T16:23:53Z</time></trkpt><trkpt lat="44.96643118377775" lon="10.091829311393163"><ele>35.0</ele><time>2026-05-04T16:23:54Z</time></trkpt><trkpt lat="44.96637477149264" lon="10.09207727216768"><ele>35.0</ele><time>2026-05-04T16:23:55Z</time></trkpt><trkpt lat="44.96631349208394" lon="10.092336587446333"><ele>35.0</ele><time>2026-05-04T16:23:56Z</time></trkpt><trkpt lat="44.96625092897719" lon="10.092604376926852"><ele>35.0</ele><time>2026-05-04T16:23:57Z</time></trkpt><trkpt lat="44.96618700575304" lon="10.092883124885534"><ele>35.0</ele><time>2026-05-04T16:23:58Z</time></trkpt><trkpt lat="44.96611937822707" lon="10.093166341239547"><ele>35.0</ele><time>2026-05-04T16:23:59Z</time></trkpt><trkpt lat="44.96605002461406" lon="10.093451750822878"><ele>35.0</ele><time>2026-05-04T16:24:00Z</time></trkpt><trkpt lat="44.965982680338406" lon="10.093737477643876"><ele>35.0</ele><time>2026-05-04T16:24:01Z</time></trkpt><trkpt lat="44.96591895414002" lon="10.094020269033631"><ele>35.0</ele><time>2026-05-04T16:24:02Z</time></trkpt><trkpt lat="44.96585537147963" lon="10.094274771908367"><ele>35.0</ele><time>2026-05-04T16:24:03Z</time></trkpt><trkpt lat="44.96575452571804" lon="10.094486886954574"><ele>35.0</ele><time>2026-05-04T16:24:04Z</time></trkpt><trkpt lat="44.96565904139504" lon="10.094716365442416"><ele>35.0</ele><time>2026-05-04T16:24:05Z</time></trkpt><trkpt lat="44.96555178759504" lon="10.094939529958268"><ele>35.0</ele><time>2026-05-04T16:24:06Z</time></trkpt><trkpt lat="44.96544189055327" lon="10.095169378441954"><ele>35.0</ele><time>2026-05-04T16:24:07Z</time></trkpt><trkpt lat="44.965331030169764" lon="10.095406219115217"><ele>35.0</ele><time>2026-05-04T16:24:08Z</time></trkpt><trkpt lat="44.96521939103217" lon="10.095649178053291"><ele>35.0</ele><time>2026-05-04T16:24:09Z</time></trkpt><trkpt lat="44.96510288035884" lon="10.095896801944985"><ele>34.33333333333333</ele><time>2026-05-04T16:24:10Z</time></trkpt><trkpt lat="44.96498315598061" lon="10.096149803971056"><ele>33.666666666666664</ele><time>2026-05-04T16:24:11Z</time></trkpt><trkpt lat="44.96486524676016" lon="10.096406857132964"><ele>33.0</ele><time>2026-05-04T16:24:12Z</time></trkpt><trkpt lat="44.9647425537998" lon="10.096669691638358"><ele>33.0</ele><time>2026-05-04T16:24:13Z</time></trkpt><trkpt lat="44.96461677097681" lon="10.096938374366786"><ele>33.0</ele><time>2026-05-04T16:24:14Z</time></trkpt><trkpt lat="44.96449486903459" lon="10.097207309428512"><ele>34.0</ele><time>2026-05-04T16:24:15Z</time></trkpt><trkpt lat="44.96435682991418" lon="10.097464305981662"><ele>35.0</ele><time>2026-05-04T16:24:16Z</time></trkpt><trkpt lat="44.96422625479602" lon="10.097740103554829"><ele>34.0</ele><time>2026-05-04T16:24:17Z</time></trkpt><trkpt lat="44.964092140354424" lon="10.098023376954139"><ele>33.0</ele><time>2026-05-04T16:24:18Z</time></trkpt><trkpt lat="44.963954803342176" lon="10.098313457051153"><ele>33.0</ele><time>2026-05-04T16:24:19Z</time></trkpt><trkpt lat="44.963815883536114" lon="10.098606880341125"><ele>33.0</ele><time>2026-05-04T16:24:20Z</time></trkpt><trkpt lat="44.96367317320748" lon="10.098908328656595"><ele>33.0</ele><time>2026-05-04T16:24:21Z</time></trkpt><trkpt lat="44.96352895181658" lon="10.099214825605209"><ele>33.0</ele><time>2026-05-04T16:24:22Z</time></trkpt><trkpt lat="44.96338299139914" lon="10.099525018292196"><ele>34.0</ele><time>2026-05-04T16:24:23Z</time></trkpt><trkpt lat="44.963240198027954" lon="10.0998284813171"><ele>35.0</ele><time>2026-05-04T16:24:24Z</time></trkpt><trkpt lat="44.9631000381601" lon="10.100127587567371"><ele>36.5</ele><time>2026-05-04T16:24:25Z</time></trkpt><trkpt lat="44.962960753589655" lon="10.100418573747966"><ele>38.0</ele><time>2026-05-04T16:24:26Z</time></trkpt><trkpt lat="44.96282585700012" lon="10.100698079109307"><ele>37.0</ele><time>2026-05-04T16:24:27Z</time></trkpt><trkpt lat="44.96269861348001" lon="10.100961727295635"><ele>36.0</ele><time>2026-05-04T16:24:28Z</time></trkpt><trkpt lat="44.962574481052094" lon="10.101218929229969"><ele>35.0</ele><time>2026-05-04T16:24:29Z</time></trkpt><trkpt lat="44.962456340402134" lon="10.101467990691399"><ele>35.666666666666664</ele><time>2026-05-04T16:24:30Z</time></trkpt><trkpt lat="44.96234464402017" lon="10.101721533952322"><ele>36.333333333333336</ele><time>2026-05-04T16:24:31Z</time></trkpt><trkpt lat="44.96224000529939" lon="10.101986685503967"><ele>37.0</ele><time>2026-05-04T16:24:32Z</time></trkpt><trkpt lat="44.96214695688849" lon="10.102260847864606"><ele>36.0</ele><time>2026-05-04T16:24:33Z</time></trkpt><trkpt lat="44.962055841016095" lon="10.102551647517272"><ele>35.0</ele><time>2026-05-04T16:24:34Z</time></trkpt><trkpt lat="44.961965026616056" lon="10.10284961188933"><ele>35.0</ele><time>2026-05-04T16:24:35Z</time></trkpt><trkpt lat="44.961877136916094" lon="10.103152432991804"><ele>35.0</ele><time>2026-05-04T16:24:36Z</time></trkpt><trkpt lat="44.96178782187941" lon="10.103463015498047"><ele>34.5</ele><time>2026-05-04T16:24:37Z</time></trkpt><trkpt lat="44.961696252274116" lon="10.103780819455007"><ele>34.0</ele><time>2026-05-04T16:24:38Z</time></trkpt><trkpt lat="44.961603621278584" lon="10.104098591476221"><ele>34.0</ele><time>2026-05-04T16:24:39Z</time></trkpt><trkpt lat="44.96151152876386" lon="10.104410743883669"><ele>34.0</ele><time>2026-05-04T16:24:40Z</time></trkpt><trkpt lat="44.96142028201217" lon="10.104716502158977"><ele>34.5</ele><time>2026-05-04T16:24:41Z</time></trkpt><trkpt lat="44.9613296484724" lon="10.105020205494137"><ele>35.0</ele><time>2026-05-04T16:24:42Z</time></trkpt><trkpt lat="44.96124096092706" lon="10.105317388122755"><ele>35.0</ele><time>2026-05-04T16:24:43Z</time></trkpt><trkpt lat="44.96115555165265" lon="10.10560813172123"><ele>35.0</ele><time>2026-05-04T16:24:44Z</time></trkpt><trkpt lat="44.96107533853945" lon="10.10588161163175"><ele>35.0</ele><time>2026-05-04T16:24:45Z</time></trkpt><trkpt lat="44.96099414031178" lon="10.106158450336764"><ele>35.0</ele><time>2026-05-04T16:24:46Z</time></trkpt><trkpt lat="44.96091474973239" lon="10.106429110343917"><ele>35.0</ele><time>2026-05-04T16:24:47Z</time></trkpt><trkpt lat="44.9608336390832" lon="10.106705631698794"><ele>35.0</ele><time>2026-05-04T16:24:48Z</time></trkpt><trkpt lat="44.960752550834314" lon="10.106982076689697"><ele>35.33333333333333</ele><time>2026-05-04T16:24:49Z</time></trkpt><trkpt lat="44.9606867788847" lon="10.107268366197719"><ele>35.666666666666664</ele><time>2026-05-04T16:24:50.001Z</time></trkpt><trkpt lat="44.96059728724455" lon="10.10753965199605"><ele>36.0</ele><time>2026-05-04T16:24:51Z</time></trkpt><trkpt lat="44.96050521757784" lon="10.107806777303304"><ele>36.0</ele><time>2026-05-04T16:24:52Z</time></trkpt><trkpt lat="44.96041181528823" lon="10.1080673322239"><ele>36.0</ele><time>2026-05-04T16:24:53Z</time></trkpt><trkpt lat="44.96033361495212" lon="10.108317089934939"><ele>36.0</ele><time>2026-05-04T16:24:54Z</time></trkpt><trkpt lat="44.96023930887064" lon="10.108580391982835"><ele>36.0</ele><time>2026-05-04T16:24:55Z</time></trkpt><trkpt lat="44.960159509439926" lon="10.108825892390213"><ele>36.0</ele><time>2026-05-04T16:24:56Z</time></trkpt><trkpt lat="44.96008612600362" lon="10.109056700417671"><ele>36.0</ele><time>2026-05-04T16:24:57Z</time></trkpt><trkpt lat="44.960013462330906" lon="10.109291956579531"><ele>35.0</ele><time>2026-05-04T16:24:58Z</time></trkpt><trkpt lat="44.95994556746038" lon="10.109536974879349"><ele>34.0</ele><time>2026-05-04T16:24:59Z</time></trkpt><trkpt lat="44.95987938399841" lon="10.109782848204821"><ele>33.0</ele><time>2026-05-04T16:25:00Z</time></trkpt><trkpt lat="44.95981279498075" lon="10.110022491058036"><ele>33.0</ele><time>2026-05-04T16:25:01Z</time></trkpt><trkpt lat="44.959739990515075" lon="10.110262304138859"><ele>33.0</ele><time>2026-05-04T16:25:02Z</time></trkpt><trkpt lat="44.959666630105296" lon="10.110503058338015"><ele>33.0</ele><time>2026-05-04T16:25:03Z</time></trkpt><trkpt lat="44.95959739628745" lon="10.110740992442034"><ele>33.0</ele><time>2026-05-04T16:25:04Z</time></trkpt><trkpt lat="44.95953133540003" lon="10.110972704972522"><ele>33.0</ele><time>2026-05-04T16:25:05Z</time></trkpt><trkpt lat="44.95946923239907" lon="10.111193616520373"><ele>33.0</ele><time>2026-05-04T16:25:06Z</time></trkpt><trkpt lat="44.959415525156125" lon="10.111379635587435"><ele>33.0</ele><time>2026-05-04T16:25:07Z</time></trkpt><trkpt lat="44.95937009569713" lon="10.11155503022168"><ele>33.0</ele><time>2026-05-04T16:25:08Z</time></trkpt><trkpt lat="44.959315729200405" lon="10.111734526925432"><ele>33.0</ele><time>2026-05-04T16:25:09Z</time></trkpt><trkpt lat="44.95926021569231" lon="10.111922571432952"><ele>33.0</ele><time>2026-05-04T16:25:10Z</time></trkpt><trkpt lat="44.959198885782264" lon="10.112122562433523"><ele>33.0</ele><time>2026-05-04T16:25:11Z</time></trkpt><trkpt lat="44.9591354234711" lon="10.112332449616002"><ele>33.0</ele><time>2026-05-04T16:25:12Z</time></trkpt><trkpt lat="44.95906732115084" lon="10.112549389927562"><ele>33.0</ele><time>2026-05-04T16:25:13Z</time></trkpt><trkpt lat="44.95899619609682" lon="10.11277502043443"><ele>33.333333333333336</ele><time>2026-05-04T16:25:14Z</time></trkpt><trkpt lat="44.958920210396954" lon="10.113002445743726"><ele>33.66666666666667</ele><time>2026-05-04T16:25:15Z</time></trkpt><trkpt lat="44.95884350798194" lon="10.113223830440631"><ele>34.0</ele><time>2026-05-04T16:25:16Z</time></trkpt><trkpt lat="44.95876130972501" lon="10.113440244866958"><ele>34.0</ele><time>2026-05-04T16:25:17Z</time></trkpt><trkpt lat="44.95867046912379" lon="10.113664296367538"><ele>34.0</ele><time>2026-05-04T16:25:18Z</time></trkpt><trkpt lat="44.95856642756042" lon="10.113875544488701"><ele>34.0</ele><time>2026-05-04T16:25:19Z</time></trkpt><trkpt lat="44.95845442119422" lon="10.114081170004114"><ele>35.0</ele><time>2026-05-04T16:25:20Z</time></trkpt><trkpt lat="44.95833607561782" lon="10.114306890295248"><ele>36.0</ele><time>2026-05-04T16:25:21Z</time></trkpt><trkpt lat="44.958207493426016" lon="10.114541004337772"><ele>37.0</ele><time>2026-05-04T16:25:22Z</time></trkpt><trkpt lat="44.95807612696724" lon="10.114781639630365"><ele>36.66666666666667</ele><time>2026-05-04T16:25:23Z</time></trkpt><trkpt lat="44.9579417644265" lon="10.115011117615952"><ele>36.333333333333336</ele><time>2026-05-04T16:25:24Z</time></trkpt><trkpt lat="44.95779492739292" lon="10.115226716582224"><ele>36.0</ele><time>2026-05-04T16:25:25Z</time></trkpt><trkpt lat="44.95765070129475" lon="10.115442622890134"><ele>35.333333333333336</ele><time>2026-05-04T16:25:26Z</time></trkpt><trkpt lat="44.95750663282281" lon="10.115656935507905"><ele>34.66666666666667</ele><time>2026-05-04T16:25:27Z</time></trkpt><trkpt lat="44.957367998034385" lon="10.115879342308087"><ele>34.0</ele><time>2026-05-04T16:25:28Z</time></trkpt><trkpt lat="44.95723716583941" lon="10.11611122009026"><ele>33.66666666666667</ele><time>2026-05-04T16:25:29Z</time></trkpt><trkpt lat="44.95711755450479" lon="10.11635523417902"><ele>33.333333333333336</ele><time>2026-05-04T16:25:30Z</time></trkpt><trkpt lat="44.95699989851598" lon="10.116598627107821"><ele>33.0</ele><time>2026-05-04T16:25:31Z</time></trkpt><trkpt lat="44.95689440427381" lon="10.116841906900236"><ele>32.666666666666664</ele><time>2026-05-04T16:25:32Z</time></trkpt><trkpt lat="44.95681350256025" lon="10.117093991175542"><ele>32.33333333333333</ele><time>2026-05-04T16:25:33Z</time></trkpt><trkpt lat="44.956741659239" lon="10.117351885550958"><ele>32.0</ele><time>2026-05-04T16:25:34Z</time></trkpt><trkpt lat="44.95666472883839" lon="10.117610165217165"><ele>32.0</ele><time>2026-05-04T16:25:35Z</time></trkpt><trkpt lat="44.95657917013556" lon="10.117867462387604"><ele>32.0</ele><time>2026-05-04T16:25:36Z</time></trkpt><trkpt lat="44.95648730796425" lon="10.118122992116055"><ele>32.0</ele><time>2026-05-04T16:25:37Z</time></trkpt><trkpt lat="44.956388132232085" lon="10.118372932154143"><ele>32.33333333333333</ele><time>2026-05-04T16:25:38Z</time></trkpt><trkpt lat="44.95628859084794" lon="10.118611006127253"><ele>32.666666666666664</ele><time>2026-05-04T16:25:39Z</time></trkpt><trkpt lat="44.95619440842302" lon="10.118839591973856"><ele>33.0</ele><time>2026-05-04T16:25:40Z</time></trkpt><trkpt lat="44.95610291087104" lon="10.119065162610616"><ele>33.333333333333336</ele><time>2026-05-04T16:25:41Z</time></trkpt><trkpt lat="44.95600786026918" lon="10.119291475177263"><ele>33.66666666666667</ele><time>2026-05-04T16:25:42Z</time></trkpt><trkpt lat="44.95590620099674" lon="10.119514489085407"><ele>34.0</ele><time>2026-05-04T16:25:43Z</time></trkpt><trkpt lat="44.9558009871562" lon="10.119740802023188"><ele>34.333333333333336</ele><time>2026-05-04T16:25:44Z</time></trkpt><trkpt lat="44.95569804786489" lon="10.119968907359992"><ele>34.666666666666664</ele><time>2026-05-04T16:25:45Z</time></trkpt><trkpt lat="44.955600443034776" lon="10.120192895920175"><ele>35.0</ele><time>2026-05-04T16:25:46Z</time></trkpt><trkpt lat="44.95551312181238" lon="10.120405271763957"><ele>35.0</ele><time>2026-05-04T16:25:47Z</time></trkpt><trkpt lat="44.95543004592069" lon="10.120616930641473"><ele>35.0</ele><time>2026-05-04T16:25:48Z</time></trkpt><trkpt lat="44.955344668393565" lon="10.120828015445255"><ele>35.0</ele><time>2026-05-04T16:25:49Z</time></trkpt><trkpt lat="44.955265038465186" lon="10.121048728432449"><ele>35.0</ele><time>2026-05-04T16:25:50Z</time></trkpt><trkpt lat="44.95518520283419" lon="10.121275205332259"><ele>35.0</ele><time>2026-05-04T16:25:51Z</time></trkpt><trkpt lat="44.95510291734579" lon="10.121512423281812"><ele>35.0</ele><time>2026-05-04T16:25:52Z</time></trkpt><trkpt lat="44.95502265588414" lon="10.121752854692069"><ele>35.0</ele><time>2026-05-04T16:25:53Z</time></trkpt><trkpt lat="44.954917984656156" lon="10.12197063736676"><ele>35.0</ele><time>2026-05-04T16:25:54Z</time></trkpt><trkpt lat="44.95484066323943" lon="10.122198686113567"><ele>35.0</ele><time>2026-05-04T16:25:55Z</time></trkpt><trkpt lat="44.954762528274216" lon="10.122419907527789"><ele>35.33333333333333</ele><time>2026-05-04T16:25:56Z</time></trkpt><trkpt lat="44.95468912786084" lon="10.122623797700799"><ele>35.666666666666664</ele><time>2026-05-04T16:25:57Z</time></trkpt><trkpt lat="44.954622733781484" lon="10.122813628538802"><ele>36.0</ele><time>2026-05-04T16:25:58Z</time></trkpt><trkpt lat="44.95456536045615" lon="10.122992653085124"><ele>36.0</ele><time>2026-05-04T16:25:59Z</time></trkpt><trkpt lat="44.95451954308608" lon="10.12316068679903"><ele>36.0</ele><time>2026-05-04T16:26:00Z</time></trkpt><trkpt lat="44.954489572149804" lon="10.123311342983333"><ele>36.0</ele><time>2026-05-04T16:26:01Z</time></trkpt><trkpt lat="44.95448023993438" lon="10.123462068491387"><ele>36.0</ele><time>2026-05-04T16:26:02Z</time></trkpt><trkpt lat="44.95448365306486" lon="10.123605807463019"><ele>36.0</ele><time>2026-05-04T16:26:03Z</time></trkpt><trkpt lat="44.95448904839563" lon="10.123745090374104"><ele>36.0</ele><time>2026-05-04T16:26:04Z</time></trkpt><trkpt lat="44.95447757625665" lon="10.12389033146498"><ele>36.0</ele><time>2026-05-04T16:26:05Z</time></trkpt><trkpt lat="44.95444495717283" lon="10.124031755672773"><ele>36.0</ele><time>2026-05-04T16:26:06Z</time></trkpt><trkpt lat="44.9544064176877" lon="10.124181017288297"><ele>36.0</ele><time>2026-05-04T16:26:07Z</time></trkpt><trkpt lat="44.95436527388338" lon="10.124339316336867"><ele>36.0</ele><time>2026-05-04T16:26:08Z</time></trkpt><trkpt lat="44.95432812788986" lon="10.124494654131068"><ele>36.2</ele><time>2026-05-04T16:26:09Z</time></trkpt><trkpt lat="44.95429832020924" lon="10.12464101206703"><ele>36.400000000000006</ele><time>2026-05-04T16:26:10Z</time></trkpt><trkpt lat="44.95429009223974" lon="10.124797907365833"><ele>36.6</ele><time>2026-05-04T16:26:11Z</time></trkpt><trkpt lat="44.954317368871415" lon="10.124954131979393"><ele>36.800000000000004</ele><time>2026-05-04T16:26:12Z</time></trkpt><trkpt lat="44.954371850445966" lon="10.125094209940576"><ele>37.0</ele><time>2026-05-04T16:26:13Z</time></trkpt><trkpt lat="44.95444157981328" lon="10.125227757256459"><ele>37.0</ele><time>2026-05-04T16:26:14Z</time></trkpt><trkpt lat="44.95451867445153" lon="10.125358988187584"><ele>37.0</ele><time>2026-05-04T16:26:15Z</time></trkpt><trkpt lat="44.95460376295235" lon="10.125493545234235"><ele>37.0</ele><time>2026-05-04T16:26:16Z</time></trkpt><trkpt lat="44.95469292352275" lon="10.125632676433119"><ele>37.0</ele><time>2026-05-04T16:26:17Z</time></trkpt><trkpt lat="44.95479510499794" lon="10.12576441195485"><ele>37.25</ele><time>2026-05-04T16:26:18Z</time></trkpt><trkpt lat="44.95488171233849" lon="10.125927999697428"><ele>37.5</ele><time>2026-05-04T16:26:19Z</time></trkpt><trkpt lat="44.95496880839434" lon="10.126094451718561"><ele>37.75</ele><time>2026-05-04T16:26:20Z</time></trkpt><trkpt lat="44.95504873787461" lon="10.126267098350697"><ele>38.0</ele><time>2026-05-04T16:26:21Z</time></trkpt><trkpt lat="44.95512172845214" lon="10.126444406479392"><ele>37.25</ele><time>2026-05-04T16:26:22Z</time></trkpt><trkpt lat="44.955177823902126" lon="10.12662696888359"><ele>36.5</ele><time>2026-05-04T16:26:23Z</time></trkpt><trkpt lat="44.95522395952965" lon="10.12680526280617"><ele>35.75</ele><time>2026-05-04T16:26:24Z</time></trkpt><trkpt lat="44.955263682083626" lon="10.126972965084043"><ele>35.0</ele><time>2026-05-04T16:26:25Z</time></trkpt><trkpt lat="44.95529798462396" lon="10.12712919075961"><ele>35.0</ele><time>2026-05-04T16:26:26Z</time></trkpt><trkpt lat="44.955334285224836" lon="10.127281643083766"><ele>35.0</ele><time>2026-05-04T16:26:27Z</time></trkpt><trkpt lat="44.95537038678068" lon="10.1274126497509"><ele>35.0</ele><time>2026-05-04T16:26:28Z</time></trkpt><trkpt lat="44.95539633270037" lon="10.12750672940813"><ele>35.0</ele><time>2026-05-04T16:26:29Z</time></trkpt><trkpt lat="44.955455471892336" lon="10.127674032178026"><ele>35.0</ele><time>2026-05-04T16:26:31Z</time></trkpt><trkpt lat="44.95550500502675" lon="10.127763482996635"><ele>35.166666666666664</ele><time>2026-05-04T16:26:32Z</time></trkpt><trkpt lat="44.95554329977575" lon="10.127853654976056"><ele>35.33333333333333</ele><time>2026-05-04T16:26:33Z</time></trkpt><trkpt lat="44.95557626639504" lon="10.127945531223961"><ele>35.5</ele><time>2026-05-04T16:26:34Z</time></trkpt><trkpt lat="44.95558890342148" lon="10.128033853380346"><ele>35.666666666666664</ele><time>2026-05-04T16:26:35Z</time></trkpt><trkpt lat="44.95555761827692" lon="10.128181846567154"><ele>35.833333333333336</ele><time>2026-05-04T16:26:37Z</time></trkpt><trkpt lat="44.955504833969165" lon="10.128252397565761"><ele>36.0</ele><time>2026-05-04T16:26:38Z</time></trkpt><trkpt lat="44.95544251313562" lon="10.128328949365496"><ele>36.0</ele><time>2026-05-04T16:26:39Z</time></trkpt><trkpt lat="44.95536666027724" lon="10.128413712131959"><ele>36.0</ele><time>2026-05-04T16:26:40Z</time></trkpt><trkpt lat="44.95527979499646" lon="10.128504886656804"><ele>36.0</ele><time>2026-05-04T16:26:41Z</time></trkpt><trkpt lat="44.95518643560882" lon="10.128604017302646"><ele>36.0</ele><time>2026-05-04T16:26:42Z</time></trkpt><trkpt lat="44.9550823035763" lon="10.128700981272203"><ele>36.0</ele><time>2026-05-04T16:26:43Z</time></trkpt><trkpt lat="44.95496934288741" lon="10.128795513144036"><ele>35.75</ele><time>2026-05-04T16:26:44Z</time></trkpt><trkpt lat="44.954847176666355" lon="10.128885853415177"><ele>35.5</ele><time>2026-05-04T16:26:45Z</time></trkpt><trkpt lat="44.95471851825357" lon="10.128973543778152"><ele>35.25</ele><time>2026-05-04T16:26:46Z</time></trkpt><trkpt lat="44.954585244261175" lon="10.129055849704475"><ele>35.0</ele><time>2026-05-04T16:26:47Z</time></trkpt><trkpt lat="44.95444888349538" lon="10.129132275152417"><ele>35.0</ele><time>2026-05-04T16:26:48Z</time></trkpt><trkpt lat="44.95430973230978" lon="10.129194065432333"><ele>35.0</ele><time>2026-05-04T16:26:49Z</time></trkpt><trkpt lat="44.9541729568371" lon="10.129240103639283"><ele>35.0</ele><time>2026-05-04T16:26:50Z</time></trkpt><trkpt lat="44.95403920237422" lon="10.129296325519327"><ele>35.0</ele><time>2026-05-04T16:26:51Z</time></trkpt><trkpt lat="44.9539093979504" lon="10.129377848487097"><ele>35.5</ele><time>2026-05-04T16:26:52Z</time></trkpt><trkpt lat="44.953783115125006" lon="10.12947626336997"><ele>36.0</ele><time>2026-05-04T16:26:53Z</time></trkpt><trkpt lat="44.95366015526285" lon="10.129584764519526"><ele>36.5</ele><time>2026-05-04T16:26:54Z</time></trkpt><trkpt lat="44.95353477368671" lon="10.129696957388248"><ele>37.0</ele><time>2026-05-04T16:26:55Z</time></trkpt><trkpt lat="44.95340572695462" lon="10.129808725070706"><ele>37.333333333333336</ele><time>2026-05-04T16:26:56Z</time></trkpt><trkpt lat="44.95327262350563" lon="10.129927148185791"><ele>37.666666666666664</ele><time>2026-05-04T16:26:57Z</time></trkpt><trkpt lat="44.95313737119187" lon="10.13005028890879"><ele>38.0</ele><time>2026-05-04T16:26:58Z</time></trkpt><trkpt lat="44.95299874956752" lon="10.130172868918397"><ele>38.0</ele><time>2026-05-04T16:26:59Z</time></trkpt><trkpt lat="44.9528619096863" lon="10.130292414090977"><ele>38.0</ele><time>2026-05-04T16:27:00Z</time></trkpt><trkpt lat="44.95272993553376" lon="10.130413510199467"><ele>38.0</ele><time>2026-05-04T16:27:01Z</time></trkpt><trkpt lat="44.952599934292806" lon="10.130529725547337"><ele>38.0</ele><time>2026-05-04T16:27:02Z</time></trkpt><trkpt lat="44.952478956538265" lon="10.13064016665433"><ele>38.0</ele><time>2026-05-04T16:27:03Z</time></trkpt><trkpt lat="44.95236901615375" lon="10.130737330446483"><ele>38.0</ele><time>2026-05-04T16:27:04Z</time></trkpt><trkpt lat="44.95227504499498" lon="10.13084670974545"><ele>38.0</ele><time>2026-05-04T16:27:05Z</time></trkpt><trkpt lat="44.95219977474694" lon="10.130974314499323"><ele>38.0</ele><time>2026-05-04T16:27:06Z</time></trkpt><trkpt lat="44.95215406568855" lon="10.13110003094215"><ele>38.0</ele><time>2026-05-04T16:27:07Z</time></trkpt><trkpt lat="44.95211989454717" lon="10.131209242288053"><ele>38.0</ele><time>2026-05-04T16:27:08Z</time></trkpt><trkpt lat="44.952084701715464" lon="10.13132891042104"><ele>38.0</ele><time>2026-05-04T16:27:09Z</time></trkpt><trkpt lat="44.95204987318593" lon="10.131457881421655"><ele>38.0</ele><time>2026-05-04T16:27:10Z</time></trkpt><trkpt lat="44.952004819143085" lon="10.131594747788396"><ele>37.75</ele><time>2026-05-04T16:27:11Z</time></trkpt><trkpt lat="44.95193769958254" lon="10.131728104225726"><ele>37.5</ele><time>2026-05-04T16:27:12Z</time></trkpt><trkpt lat="44.951855641490894" lon="10.1318586212186"><ele>37.25</ele><time>2026-05-04T16:27:13Z</time></trkpt><trkpt lat="44.951760737598356" lon="10.13198353361202"><ele>37.0</ele><time>2026-05-04T16:27:14Z</time></trkpt><trkpt lat="44.95165866038893" lon="10.132120142972362"><ele>37.0</ele><time>2026-05-04T16:27:15Z</time></trkpt><trkpt lat="44.95154661714891" lon="10.132269097501965"><ele>37.0</ele><time>2026-05-04T16:27:16Z</time></trkpt><trkpt lat="44.95142365496795" lon="10.132430437476058"><ele>37.0</ele><time>2026-05-04T16:27:17Z</time></trkpt><trkpt lat="44.951293271622" lon="10.132594888343684"><ele>36.66666666666667</ele><time>2026-05-04T16:27:18Z</time></trkpt><trkpt lat="44.951160400958" lon="10.132759096886609"><ele>36.333333333333336</ele><time>2026-05-04T16:27:19Z</time></trkpt><trkpt lat="44.95102105692322" lon="10.132918969355275"><ele>36.0</ele><time>2026-05-04T16:27:20Z</time></trkpt><trkpt lat="44.95087185552349" lon="10.13306956602645"><ele>35.666666666666664</ele><time>2026-05-04T16:27:21Z</time></trkpt><trkpt lat="44.95073752506056" lon="10.13321184944342"><ele>35.33333333333333</ele><time>2026-05-04T16:27:22Z</time></trkpt><trkpt lat="44.95056986546519" lon="10.133373331724396"><ele>35.0</ele><time>2026-05-04T16:27:23Z</time></trkpt><trkpt lat="44.95041345975837" lon="10.133520709364479"><ele>35.0</ele><time>2026-05-04T16:27:24Z</time></trkpt><trkpt lat="44.95025649574601" lon="10.133667598302509"><ele>35.0</ele><time>2026-05-04T16:27:25Z</time></trkpt><trkpt lat="44.9501053317517" lon="10.133812443055525"><ele>35.0</ele><time>2026-05-04T16:27:26Z</time></trkpt><trkpt lat="44.94996422388248" lon="10.133967481170966"><ele>36.0</ele><time>2026-05-04T16:27:27Z</time></trkpt><trkpt lat="44.94983611383097" lon="10.134132822656362"><ele>37.0</ele><time>2026-05-04T16:27:28Z</time></trkpt><trkpt lat="44.94970492675892" lon="10.134289469420917"><ele>38.0</ele><time>2026-05-04T16:27:29Z</time></trkpt><trkpt lat="44.94956494801174" lon="10.134437979159602"><ele>38.0</ele><time>2026-05-04T16:27:29.999Z</time></trkpt><trkpt lat="44.94942377434191" lon="10.1345882946612"><ele>38.0</ele><time>2026-05-04T16:27:30.999Z</time></trkpt><trkpt lat="44.94927917246574" lon="10.134739360080953"><ele>38.0</ele><time>2026-05-04T16:27:31.999Z</time></trkpt><trkpt lat="44.94912748012028" lon="10.134898748906167"><ele>37.666666666666664</ele><time>2026-05-04T16:27:32.999Z</time></trkpt><trkpt lat="44.94896971431712" lon="10.135058379437455"><ele>37.333333333333336</ele><time>2026-05-04T16:27:33.999Z</time></trkpt><trkpt lat="44.94881616734263" lon="10.135215205414072"><ele>37.0</ele><time>2026-05-04T16:27:34.999Z</time></trkpt><trkpt lat="44.948668258667546" lon="10.13537693556018"><ele>37.0</ele><time>2026-05-04T16:27:35.999Z</time></trkpt><trkpt lat="44.94850960844399" lon="10.135513224036288"><ele>37.0</ele><time>2026-05-04T16:27:36.999Z</time></trkpt><trkpt lat="44.948359261768644" lon="10.135667381867353"><ele>37.0</ele><time>2026-05-04T16:27:37.999Z</time></trkpt><trkpt lat="44.94820663476008" lon="10.135818963484624"><ele>38.333333333333336</ele><time>2026-05-04T16:27:38.999Z</time></trkpt><trkpt lat="44.948060622940716" lon="10.135989382071314"><ele>39.666666666666664</ele><time>2026-05-04T16:27:39.999Z</time></trkpt><trkpt lat="44.94790571124521" lon="10.136145640581107"><ele>41.0</ele><time>2026-05-04T16:27:40.999Z</time></trkpt><trkpt lat="44.94775121206081" lon="10.136302860540297"><ele>41.0</ele><time>2026-05-04T16:27:41.999Z</time></trkpt><trkpt lat="44.94759806568724" lon="10.136461246904078"><ele>41.0</ele><time>2026-05-04T16:27:42.999Z</time></trkpt><trkpt lat="44.94744237521177" lon="10.13662069286889"><ele>41.0</ele><time>2026-05-04T16:27:43.999Z</time></trkpt><trkpt lat="44.9472911172681" lon="10.136773111989097"><ele>39.666666666666664</ele><time>2026-05-04T16:27:44.999Z</time></trkpt><trkpt lat="44.94714008142757" lon="10.13692284247916"><ele>38.333333333333336</ele><time>2026-05-04T16:27:46Z</time></trkpt><trkpt lat="44.9469966135798" lon="10.137063081827574"><ele>37.0</ele><time>2026-05-04T16:27:47Z</time></trkpt><trkpt lat="44.94687863232841" lon="10.137184563222025"><ele>37.0</ele><time>2026-05-04T16:27:48Z</time></trkpt><trkpt lat="44.94677259022611" lon="10.137297050756235"><ele>37.0</ele><time>2026-05-04T16:27:49Z</time></trkpt><trkpt lat="44.94666907742309" lon="10.137399501621248"><ele>37.0</ele><time>2026-05-04T16:27:50Z</time></trkpt><trkpt lat="44.94657692463803" lon="10.137489323166529"><ele>37.0</ele><time>2026-05-04T16:27:51Z</time></trkpt><trkpt lat="44.94649474660446" lon="10.137576473674667"><ele>37.0</ele><time>2026-05-04T16:27:52Z</time></trkpt><trkpt lat="44.946418006405445" lon="10.137671156289732"><ele>37.0</ele><time>2026-05-04T16:27:53Z</time></trkpt><trkpt lat="44.94634384642687" lon="10.137762482411363"><ele>37.0</ele><time>2026-05-04T16:27:54Z</time></trkpt><trkpt lat="44.94626944483294" lon="10.137836515164027"><ele>37.0</ele><time>2026-05-04T16:27:55Z</time></trkpt><trkpt lat="44.946183390963334" lon="10.137878328901229"><ele>37.0</ele><time>2026-05-04T16:27:56Z</time></trkpt><trkpt lat="44.946095303600856" lon="10.13790698593508"><ele>37.0</ele><time>2026-05-04T16:27:57Z</time></trkpt><trkpt lat="44.94600982124749" lon="10.137931336806341"><ele>37.0</ele><time>2026-05-04T16:27:58Z</time></trkpt><trkpt lat="44.94594149864182" lon="10.137941208757395"><ele>37.0</ele><time>2026-05-04T16:27:59Z</time></trkpt><trkpt lat="44.945871714855805" lon="10.13793918431412"><ele>37.0</ele><time>2026-05-04T16:28:00Z</time></trkpt><trkpt lat="44.945799914743745" lon="10.13792196184924"><ele>37.0</ele><time>2026-05-04T16:28:01Z</time></trkpt><trkpt lat="44.945726332494075" lon="10.137912458806989"><ele>37.0</ele><time>2026-05-04T16:28:02Z</time></trkpt><trkpt lat="44.94565747807939" lon="10.137947956474278"><ele>37.0</ele><time>2026-05-04T16:28:03Z</time></trkpt><trkpt lat="44.945605230404304" lon="10.13800405943731"><ele>37.16666666666667</ele><time>2026-05-04T16:28:04Z</time></trkpt><trkpt lat="44.94558062807425" lon="10.138087630185808"><ele>37.333333333333336</ele><time>2026-05-04T16:28:05Z</time></trkpt><trkpt lat="44.94552803947495" lon="10.138194668382173"><ele>37.5</ele><time>2026-05-04T16:28:07Z</time></trkpt><trkpt lat="44.94561076629558" lon="10.138313541860247"><ele>37.666666666666664</ele><time>2026-05-04T16:28:08Z</time></trkpt><trkpt lat="44.945649971254134" lon="10.138389587257434"><ele>37.83333333333333</ele><time>2026-05-04T16:28:09Z</time></trkpt><trkpt lat="44.9456874952497" lon="10.13846935959158"><ele>38.0</ele><time>2026-05-04T16:28:10Z</time></trkpt><trkpt lat="44.945715332722834" lon="10.138567005788111"><ele>38.0</ele><time>2026-05-04T16:28:11Z</time></trkpt><trkpt lat="44.945721921041695" lon="10.13868583737341"><ele>38.0</ele><time>2026-05-04T16:28:12Z</time></trkpt><trkpt lat="44.94571026059531" lon="10.13881585491737"><ele>38.0</ele><time>2026-05-04T16:28:13Z</time></trkpt><trkpt lat="44.94568728845771" lon="10.138951833926962"><ele>38.0</ele><time>2026-05-04T16:28:14Z</time></trkpt><trkpt lat="44.9456468795263" lon="10.139098208595318"><ele>38.0</ele><time>2026-05-04T16:28:15Z</time></trkpt><trkpt lat="44.94561127248429" lon="10.13925302019793"><ele>38.25</ele><time>2026-05-04T16:28:16Z</time></trkpt><trkpt lat="44.945571435669365" lon="10.139420911434625"><ele>38.5</ele><time>2026-05-04T16:28:17Z</time></trkpt><trkpt lat="44.94552693831006" lon="10.13960302015443"><ele>38.75</ele><time>2026-05-04T16:28:18Z</time></trkpt><trkpt lat="44.94547875300126" lon="10.13979579857508"><ele>39.0</ele><time>2026-05-04T16:28:19Z</time></trkpt><trkpt lat="44.945428126230325" lon="10.139996644037954"><ele>39.0</ele><time>2026-05-04T16:28:20Z</time></trkpt><trkpt lat="44.94537589675195" lon="10.140206174277578"><ele>39.0</ele><time>2026-05-04T16:28:21Z</time></trkpt><trkpt lat="44.94532141862633" lon="10.140423991169278"><ele>39.0</ele><time>2026-05-04T16:28:22Z</time></trkpt><trkpt lat="44.94525922403408" lon="10.140640862403616"><ele>38.666666666666664</ele><time>2026-05-04T16:28:23Z</time></trkpt><trkpt lat="44.94520991672124" lon="10.140859822672649"><ele>38.33333333333333</ele><time>2026-05-04T16:28:24Z</time></trkpt><trkpt lat="44.94516150983761" lon="10.14107431729155"><ele>38.0</ele><time>2026-05-04T16:28:25Z</time></trkpt><trkpt lat="44.945114313511326" lon="10.141286791721576"><ele>38.0</ele><time>2026-05-04T16:28:26Z</time></trkpt><trkpt lat="44.94506912806033" lon="10.141496684700329"><ele>38.0</ele><time>2026-05-04T16:28:27Z</time></trkpt><trkpt lat="44.945026202731015" lon="10.14170237451283"><ele>38.0</ele><time>2026-05-04T16:28:28Z</time></trkpt><trkpt lat="44.944985647696676" lon="10.141892343903994"><ele>38.0</ele><time>2026-05-04T16:28:29Z</time></trkpt><trkpt lat="44.9449489475343" lon="10.142059933546916"><ele>37.75</ele><time>2026-05-04T16:28:30Z</time></trkpt><trkpt lat="44.944916650988255" lon="10.142207129849304"><ele>37.5</ele><time>2026-05-04T16:28:31Z</time></trkpt><trkpt lat="44.94488414829873" lon="10.142361025771399"><ele>37.25</ele><time>2026-05-04T16:28:32Z</time></trkpt><trkpt lat="44.94485226831632" lon="10.142521107569811"><ele>37.0</ele><time>2026-05-04T16:28:33Z</time></trkpt><trkpt lat="44.94481896864866" lon="10.142688650270946"><ele>37.0</ele><time>2026-05-04T16:28:34Z</time></trkpt><trkpt lat="44.9447840206517" lon="10.142863132240969"><ele>37.0</ele><time>2026-05-04T16:28:35Z</time></trkpt><trkpt lat="44.9447470032511" lon="10.143049040210455"><ele>37.0</ele><time>2026-05-04T16:28:36Z</time></trkpt><trkpt lat="44.94470937730471" lon="10.143237347697099"><ele>37.0</ele><time>2026-05-04T16:28:37Z</time></trkpt><trkpt lat="44.94466949897884" lon="10.143421938298935"><ele>37.0</ele><time>2026-05-04T16:28:38Z</time></trkpt><trkpt lat="44.9446305450057" lon="10.143605937425974"><ele>37.0</ele><time>2026-05-04T16:28:39Z</time></trkpt><trkpt lat="44.94459148428672" lon="10.143792199611454"><ele>37.0</ele><time>2026-05-04T16:28:40Z</time></trkpt><trkpt lat="44.9445546577814" lon="10.143982726945357"><ele>37.0</ele><time>2026-05-04T16:28:41Z</time></trkpt><trkpt lat="44.944515364851995" lon="10.144175588074868"><ele>37.0</ele><time>2026-05-04T16:28:42Z</time></trkpt><trkpt lat="44.9444742259209" lon="10.144374035951783"><ele>37.0</ele><time>2026-05-04T16:28:43Z</time></trkpt><trkpt lat="44.94442900005726" lon="10.144574889300998"><ele>37.0</ele><time>2026-05-04T16:28:44Z</time></trkpt><trkpt lat="44.9443802845732" lon="10.144768691931219"><ele>37.0</ele><time>2026-05-04T16:28:45Z</time></trkpt><trkpt lat="44.9443262481434" lon="10.144935861952078"><ele>37.0</ele><time>2026-05-04T16:28:46Z</time></trkpt><trkpt lat="44.9442659092184" lon="10.145072183126185"><ele>37.0</ele><time>2026-05-04T16:28:47Z</time></trkpt><trkpt lat="44.94420228118624" lon="10.14519469877537"><ele>37.0</ele><time>2026-05-04T16:28:48Z</time></trkpt><trkpt lat="44.94413685938516" lon="10.145311234507572"><ele>37.0</ele><time>2026-05-04T16:28:49Z</time></trkpt><trkpt lat="44.94407261662071" lon="10.14542273615685"><ele>37.0</ele><time>2026-05-04T16:28:50Z</time></trkpt><trkpt lat="44.94401207910558" lon="10.145532462484947"><ele>37.6</ele><time>2026-05-04T16:28:51Z</time></trkpt><trkpt lat="44.94395175315438" lon="10.145644680264454"><ele>38.2</ele><time>2026-05-04T16:28:52Z</time></trkpt><trkpt lat="44.94389433832712" lon="10.14576639143112"><ele>38.8</ele><time>2026-05-04T16:28:53Z</time></trkpt><trkpt lat="44.943834463335406" lon="10.145891502236319"><ele>39.4</ele><time>2026-05-04T16:28:54Z</time></trkpt><trkpt lat="44.94377561229902" lon="10.146016456646068"><ele>40.0</ele><time>2026-05-04T16:28:55Z</time></trkpt><trkpt lat="44.94370588863715" lon="10.146121454190602"><ele>40.16666666666667</ele><time>2026-05-04T16:28:56Z</time></trkpt><trkpt lat="44.94365641769888" lon="10.146230128128567"><ele>40.333333333333336</ele><time>2026-05-04T16:28:57Z</time></trkpt><trkpt lat="44.94363190038002" lon="10.146332046294097"><ele>40.5</ele><time>2026-05-04T16:28:58Z</time></trkpt><trkpt lat="44.94358905543604" lon="10.146407465561884"><ele>40.666666666666664</ele><time>2026-05-04T16:28:59Z</time></trkpt><trkpt lat="44.94353933650015" lon="10.146528633423083"><ele>40.83333333333333</ele><time>2026-05-04T16:29:01Z</time></trkpt><trkpt lat="44.94350428121233" lon="10.146613763751425"><ele>41.0</ele><time>2026-05-04T16:29:04Z</time></trkpt><trkpt lat="44.943454880450794" lon="10.146725271881246"><ele>40.83333333333333</ele><time>2026-05-04T16:29:10Z</time></trkpt><trkpt lat="44.94339241048349" lon="10.146857629735097"><ele>40.666666666666664</ele><time>2026-05-04T16:29:12Z</time></trkpt><trkpt lat="44.94335443513351" lon="10.146941452969497"><ele>40.5</ele><time>2026-05-04T16:29:13Z</time></trkpt><trkpt lat="44.94331327179806" lon="10.147030783679314"><ele>40.333333333333336</ele><time>2026-05-04T16:29:14Z</time></trkpt><trkpt lat="44.943271717487406" lon="10.1471197025019"><ele>40.16666666666667</ele><time>2026-05-04T16:29:15Z</time></trkpt><trkpt lat="44.94323366736241" lon="10.147205054599524"><ele>40.0</ele><time>2026-05-04T16:29:16Z</time></trkpt><trkpt lat="44.94317982093883" lon="10.147321220514355"><ele>39.833333333333336</ele><time>2026-05-04T16:29:18Z</time></trkpt><trkpt lat="44.94314419515143" lon="10.14740019747333"><ele>39.66666666666667</ele><time>2026-05-04T16:29:23Z</time></trkpt><trkpt lat="44.94309561431387" lon="10.147496675330139"><ele>39.5</ele><time>2026-05-04T16:29:25Z</time></trkpt><trkpt lat="44.94303289952842" lon="10.147644811031245"><ele>39.333333333333336</ele><time>2026-05-04T16:29:27Z</time></trkpt><trkpt lat="44.942998198944835" lon="10.147732087359204"><ele>39.166666666666664</ele><time>2026-05-04T16:29:28Z</time></trkpt><trkpt lat="44.942959717072085" lon="10.14782447568251"><ele>39.0</ele><time>2026-05-04T16:29:29Z</time></trkpt><trkpt lat="44.94291885501475" lon="10.147922466155082"><ele>39.0</ele><time>2026-05-04T16:29:30Z</time></trkpt><trkpt lat="44.94287271952402" lon="10.148026895700255"><ele>39.0</ele><time>2026-05-04T16:29:31Z</time></trkpt><trkpt lat="44.94282391842288" lon="10.148134292106834"><ele>39.0</ele><time>2026-05-04T16:29:32Z</time></trkpt><trkpt lat="44.942773703228724" lon="10.148254181305404"><ele>39.0</ele><time>2026-05-04T16:29:33Z</time></trkpt><trkpt lat="44.9427237456312" lon="10.148381781460117"><ele>39.0</ele><time>2026-05-04T16:29:34Z</time></trkpt><trkpt lat="44.94266870620205" lon="10.148518756264773"><ele>39.25</ele><time>2026-05-04T16:29:35Z</time></trkpt><trkpt lat="44.9426121526268" lon="10.148668762683972"><ele>39.5</ele><time>2026-05-04T16:29:36Z</time></trkpt><trkpt lat="44.94255252042537" lon="10.148831043837347"><ele>39.75</ele><time>2026-05-04T16:29:37Z</time></trkpt><trkpt lat="44.94248947822592" lon="10.14900546380607"><ele>40.0</ele><time>2026-05-04T16:29:38Z</time></trkpt><trkpt lat="44.94242325598656" lon="10.149187624533909"><ele>40.0</ele><time>2026-05-04T16:29:39Z</time></trkpt><trkpt lat="44.94235529495538" lon="10.149375809072414"><ele>40.0</ele><time>2026-05-04T16:29:40Z</time></trkpt><trkpt lat="44.9422858860635" lon="10.149570727002923"><ele>40.0</ele><time>2026-05-04T16:29:41Z</time></trkpt><trkpt lat="44.94221476952544" lon="10.149767597041542"><ele>39.66666666666667</ele><time>2026-05-04T16:29:42Z</time></trkpt><trkpt lat="44.942142826575626" lon="10.149968937806555"><ele>39.333333333333336</ele><time>2026-05-04T16:29:43Z</time></trkpt><trkpt lat="44.942066330012224" lon="10.150168438572097"><ele>39.0</ele><time>2026-05-04T16:29:44Z</time></trkpt><trkpt lat="44.94198737170001" lon="10.150366706349558"><ele>39.0</ele><time>2026-05-04T16:29:45Z</time></trkpt><trkpt lat="44.94190489066051" lon="10.150564998841208"><ele>39.0</ele><time>2026-05-04T16:29:46Z</time></trkpt><trkpt lat="44.94182078512711" lon="10.150765803647495"><ele>39.0</ele><time>2026-05-04T16:29:47Z</time></trkpt><trkpt lat="44.94174355298742" lon="10.15097328843406"><ele>38.75</ele><time>2026-05-04T16:29:48Z</time></trkpt><trkpt lat="44.941680176059606" lon="10.151141642337153"><ele>38.5</ele><time>2026-05-04T16:29:49Z</time></trkpt><trkpt lat="44.941619785764274" lon="10.151320347123407"><ele>38.25</ele><time>2026-05-04T16:29:50Z</time></trkpt><trkpt lat="44.94156235480217" lon="10.151509346935985"><ele>38.0</ele><time>2026-05-04T16:29:51Z</time></trkpt><trkpt lat="44.941503260190395" lon="10.151703720646553"><ele>37.666666666666664</ele><time>2026-05-04T16:29:52Z</time></trkpt><trkpt lat="44.941440567800946" lon="10.151901359811388"><ele>37.333333333333336</ele><time>2026-05-04T16:29:53Z</time></trkpt><trkpt lat="44.941377619817544" lon="10.152107897156588"><ele>37.0</ele><time>2026-05-04T16:29:54Z</time></trkpt><trkpt lat="44.941310292192576" lon="10.152319630464055"><ele>36.66666666666667</ele><time>2026-05-04T16:29:55Z</time></trkpt><trkpt lat="44.94123901559753" lon="10.152534571705734"><ele>36.333333333333336</ele><time>2026-05-04T16:29:56Z</time></trkpt><trkpt lat="44.94116663959111" lon="10.152756893837108"><ele>36.0</ele><time>2026-05-04T16:29:57Z</time></trkpt><trkpt lat="44.94109334648689" lon="10.15298717004964"><ele>37.0</ele><time>2026-05-04T16:29:58Z</time></trkpt><trkpt lat="44.94102174750205" lon="10.153225977703732"><ele>38.0</ele><time>2026-05-04T16:29:59Z</time></trkpt><trkpt lat="44.940948080777254" lon="10.153460787858956"><ele>39.0</ele><time>2026-05-04T16:30:00Z</time></trkpt><trkpt lat="44.94087106943403" lon="10.15369384415169"><ele>39.0</ele><time>2026-05-04T16:30:01Z</time></trkpt><trkpt lat="44.94079157745047" lon="10.153923575753767"><ele>39.0</ele><time>2026-05-04T16:30:02Z</time></trkpt><trkpt lat="44.94071306952326" lon="10.154151175639148"><ele>39.0</ele><time>2026-05-04T16:30:03Z</time></trkpt><trkpt lat="44.94063240917047" lon="10.154383877313258"><ele>39.0</ele><time>2026-05-04T16:30:04Z</time></trkpt><trkpt lat="44.94055452120204" lon="10.1546178768779"><ele>39.0</ele><time>2026-05-04T16:30:05Z</time></trkpt><trkpt lat="44.94047769776733" lon="10.154848960605886"><ele>39.0</ele><time>2026-05-04T16:30:06Z</time></trkpt><trkpt lat="44.94040206268019" lon="10.155073283763636"><ele>39.0</ele><time>2026-05-04T16:30:07Z</time></trkpt><trkpt lat="44.94032798332115" lon="10.155295311397618"><ele>39.0</ele><time>2026-05-04T16:30:08Z</time></trkpt><trkpt lat="44.94025292580533" lon="10.155518908212859"><ele>39.0</ele><time>2026-05-04T16:30:09Z</time></trkpt><trkpt lat="44.94017716506709" lon="10.155746979530576"><ele>38.666666666666664</ele><time>2026-05-04T16:30:10Z</time></trkpt><trkpt lat="44.9401018934959" lon="10.155975616722907"><ele>38.33333333333333</ele><time>2026-05-04T16:30:11Z</time></trkpt><trkpt lat="44.94002803515492" lon="10.156202143428526"><ele>38.0</ele><time>2026-05-04T16:30:12Z</time></trkpt><trkpt lat="44.93995391762104" lon="10.156422723339459"><ele>36.666666666666664</ele><time>2026-05-04T16:30:13Z</time></trkpt><trkpt lat="44.939882790912925" lon="10.156637144865186"><ele>35.333333333333336</ele><time>2026-05-04T16:30:14Z</time></trkpt><trkpt lat="44.939814005402766" lon="10.156851890285566"><ele>34.0</ele><time>2026-05-04T16:30:15Z</time></trkpt><trkpt lat="44.93974675544337" lon="10.157067688828384"><ele>34.0</ele><time>2026-05-04T16:30:16Z</time></trkpt><trkpt lat="44.93967739509233" lon="10.15728907462366"><ele>34.0</ele><time>2026-05-04T16:30:17Z</time></trkpt><trkpt lat="44.93960402560443" lon="10.157514860333267"><ele>34.0</ele><time>2026-05-04T16:30:18Z</time></trkpt><trkpt lat="44.939529220646186" lon="10.157741582614484"><ele>34.0</ele><time>2026-05-04T16:30:19Z</time></trkpt><trkpt lat="44.9394553191629" lon="10.157970489014945"><ele>34.0</ele><time>2026-05-04T16:30:20Z</time></trkpt><trkpt lat="44.93937867056323" lon="10.158206277550075"><ele>34.0</ele><time>2026-05-04T16:30:21Z</time></trkpt><trkpt lat="44.93930208492632" lon="10.15844718676345"><ele>33.66666666666667</ele><time>2026-05-04T16:30:22Z</time></trkpt><trkpt lat="44.93922703212545" lon="10.158686797424933"><ele>33.333333333333336</ele><time>2026-05-04T16:30:23Z</time></trkpt><trkpt lat="44.939148420096906" lon="10.15892466333676"><ele>33.0</ele><time>2026-05-04T16:30:24Z</time></trkpt><trkpt lat="44.93906980107712" lon="10.159161350771866"><ele>34.0</ele><time>2026-05-04T16:30:25Z</time></trkpt><trkpt lat="44.93899344388819" lon="10.159395612749316"><ele>35.0</ele><time>2026-05-04T16:30:26Z</time></trkpt><trkpt lat="44.93891746766487" lon="10.159625435457517"><ele>36.0</ele><time>2026-05-04T16:30:27Z</time></trkpt><trkpt lat="44.93884076351284" lon="10.15985253663952"><ele>36.333333333333336</ele><time>2026-05-04T16:30:28Z</time></trkpt><trkpt lat="44.938758982330484" lon="10.160084217961364"><ele>36.66666666666667</ele><time>2026-05-04T16:30:29Z</time></trkpt><trkpt lat="44.93867795747461" lon="10.160318451516162"><ele>37.0</ele><time>2026-05-04T16:30:30Z</time></trkpt><trkpt lat="44.93859758117374" lon="10.160550734978463"><ele>37.0</ele><time>2026-05-04T16:30:31Z</time></trkpt><trkpt lat="44.93851397392586" lon="10.160780440868274"><ele>37.0</ele><time>2026-05-04T16:30:32Z</time></trkpt><trkpt lat="44.938437034098314" lon="10.161005849256242"><ele>37.0</ele><time>2026-05-04T16:30:33Z</time></trkpt><trkpt lat="44.938359961308386" lon="10.161225383983892"><ele>37.0</ele><time>2026-05-04T16:30:34Z</time></trkpt><trkpt lat="44.938281415664065" lon="10.161438026195022"><ele>37.0</ele><time>2026-05-04T16:30:35Z</time></trkpt><trkpt lat="44.93820578341975" lon="10.161636443343811"><ele>37.0</ele><time>2026-05-04T16:30:36Z</time></trkpt><trkpt lat="44.9381416618675" lon="10.161811063801492"><ele>37.0</ele><time>2026-05-04T16:30:37Z</time></trkpt><trkpt lat="44.93808582274192" lon="10.161953622320734"><ele>37.0</ele><time>2026-05-04T16:30:38Z</time></trkpt><trkpt lat="44.93804073078929" lon="10.16207287001625"><ele>37.0</ele><time>2026-05-04T16:30:39Z</time></trkpt><trkpt lat="44.938002473661804" lon="10.16216096426932"><ele>37.0</ele><time>2026-05-04T16:30:40Z</time></trkpt><trkpt lat="44.937954682613515" lon="10.162270607431013"><ele>37.0</ele><time>2026-05-04T16:30:42Z</time></trkpt><trkpt lat="44.93795323884334" lon="10.162365178747592"><ele>37.0</ele><time>2026-05-04T16:30:49Z</time></trkpt><trkpt lat="44.937999446706826" lon="10.162507410599412"><ele>37.142857142857146</ele><time>2026-05-04T16:30:51Z</time></trkpt><trkpt lat="44.93805495895715" lon="10.162580539497064"><ele>37.285714285714285</ele><time>2026-05-04T16:30:52Z</time></trkpt><trkpt lat="44.938109441264444" lon="10.162655480115875"><ele>37.42857142857143</ele><time>2026-05-04T16:30:53Z</time></trkpt><trkpt lat="44.93816789840628" lon="10.162731964715132"><ele>37.57142857142857</ele><time>2026-05-04T16:30:54Z</time></trkpt><trkpt lat="44.9381949344698" lon="10.162828659861944"><ele>37.714285714285715</ele><time>2026-05-04T16:30:55Z</time></trkpt><trkpt lat="44.938196506858006" lon="10.162923413123595"><ele>37.857142857142854</ele><time>2026-05-04T16:30:56Z</time></trkpt><trkpt lat="44.93816877527577" lon="10.163021221083943"><ele>38.0</ele><time>2026-05-04T16:30:57Z</time></trkpt><trkpt lat="44.93811752593507" lon="10.163104838371185"><ele>38.0</ele><time>2026-05-04T16:30:58Z</time></trkpt><trkpt lat="44.938057033867146" lon="10.163193216064794"><ele>38.0</ele><time>2026-05-04T16:30:59Z</time></trkpt><trkpt lat="44.93799433160187" lon="10.163290629331073"><ele>38.0</ele><time>2026-05-04T16:31:00Z</time></trkpt><trkpt lat="44.937927591190274" lon="10.163396963683505"><ele>38.0</ele><time>2026-05-04T16:31:01Z</time></trkpt><trkpt lat="44.93785886034207" lon="10.163512160936273"><ele>38.0</ele><time>2026-05-04T16:31:02Z</time></trkpt><trkpt lat="44.937784405214835" lon="10.163632528547867"><ele>38.25</ele><time>2026-05-04T16:31:03Z</time></trkpt><trkpt lat="44.937705678324974" lon="10.16376509022734"><ele>38.5</ele><time>2026-05-04T16:31:04Z</time></trkpt><trkpt lat="44.93761899598341" lon="10.163906970126176"><ele>38.75</ele><time>2026-05-04T16:31:05Z</time></trkpt><trkpt lat="44.93752585626501" lon="10.16405951432472"><ele>39.0</ele><time>2026-05-04T16:31:06Z</time></trkpt><trkpt lat="44.937431419157576" lon="10.164216534161225"><ele>38.333333333333336</ele><time>2026-05-04T16:31:07Z</time></trkpt><trkpt lat="44.93733563804467" lon="10.164383729238804"><ele>37.66666666666667</ele><time>2026-05-04T16:31:08Z</time></trkpt><trkpt lat="44.93724457216543" lon="10.164555024409514"><ele>37.0</ele><time>2026-05-04T16:31:09Z</time></trkpt><trkpt lat="44.93714051778166" lon="10.164713636014628"><ele>37.0</ele><time>2026-05-04T16:31:10Z</time></trkpt><trkpt lat="44.93705472373806" lon="10.164902676745246"><ele>37.0</ele><time>2026-05-04T16:31:11Z</time></trkpt><trkpt lat="44.93697679822431" lon="10.165103482429688"><ele>37.0</ele><time>2026-05-04T16:31:12Z</time></trkpt><trkpt lat="44.93691076420069" lon="10.16532075332938"><ele>37.0</ele><time>2026-05-04T16:31:13Z</time></trkpt><trkpt lat="44.936850666924464" lon="10.165544559610922"><ele>37.0</ele><time>2026-05-04T16:31:14Z</time></trkpt><trkpt lat="44.936800784772096" lon="10.165784017699655"><ele>37.0</ele><time>2026-05-04T16:31:15Z</time></trkpt><trkpt lat="44.93676841774511" lon="10.166032834371581"><ele>36.0</ele><time>2026-05-04T16:31:16Z</time></trkpt><trkpt lat="44.936752313835576" lon="10.166300179859382"><ele>35.0</ele><time>2026-05-04T16:31:17Z</time></trkpt><trkpt lat="44.9367460730023" lon="10.166571721166008"><ele>34.0</ele><time>2026-05-04T16:31:18Z</time></trkpt><trkpt lat="44.93674710765311" lon="10.166856279610545"><ele>34.0</ele><time>2026-05-04T16:31:19Z</time></trkpt><trkpt lat="44.93675056681053" lon="10.167140682605918"><ele>34.0</ele><time>2026-05-04T16:31:20Z</time></trkpt><trkpt lat="44.936752271933294" lon="10.167430083215564"><ele>34.0</ele><time>2026-05-04T16:31:21Z</time></trkpt><trkpt lat="44.9367546898968" lon="10.167729570649083"><ele>34.0</ele><time>2026-05-04T16:31:22Z</time></trkpt><trkpt lat="44.93675790124677" lon="10.16802657835995"><ele>34.0</ele><time>2026-05-04T16:31:23Z</time></trkpt><trkpt lat="44.936761182009896" lon="10.168330006350008"><ele>34.0</ele><time>2026-05-04T16:31:24Z</time></trkpt><trkpt lat="44.936764082208825" lon="10.168635875236244"><ele>34.333333333333336</ele><time>2026-05-04T16:31:25Z</time></trkpt><trkpt lat="44.936767223147726" lon="10.168950316100268"><ele>34.666666666666664</ele><time>2026-05-04T16:31:26Z</time></trkpt><trkpt lat="44.93677049906724" lon="10.169266594747702"><ele>35.0</ele><time>2026-05-04T16:31:27Z</time></trkpt><trkpt lat="44.936773828740336" lon="10.169588063123108"><ele>34.5</ele><time>2026-05-04T16:31:28Z</time></trkpt><trkpt lat="44.936776801146124" lon="10.16991586813732"><ele>34.0</ele><time>2026-05-04T16:31:29Z</time></trkpt><trkpt lat="44.93677978689686" lon="10.170250193748593"><ele>34.0</ele><time>2026-05-04T16:31:30Z</time></trkpt><trkpt lat="44.93678282841643" lon="10.170590763936527"><ele>34.0</ele><time>2026-05-04T16:31:31Z</time></trkpt><trkpt lat="44.93678588052897" lon="10.170932520220763"><ele>33.0</ele><time>2026-05-04T16:31:32Z</time></trkpt><trkpt lat="44.93678897263008" lon="10.171278754185758"><ele>32.0</ele><time>2026-05-04T16:31:33Z</time></trkpt><trkpt lat="44.93679248766268" lon="10.171628955346257"><ele>32.0</ele><time>2026-05-04T16:31:34Z</time></trkpt><trkpt lat="44.93679608780062" lon="10.171982218854403"><ele>32.0</ele><time>2026-05-04T16:31:35Z</time></trkpt><trkpt lat="44.93679973393915" lon="10.172339996224089"><ele>32.5</ele><time>2026-05-04T16:31:36Z</time></trkpt><trkpt lat="44.93680338268393" lon="10.172698029271288"><ele>33.0</ele><time>2026-05-04T16:31:37Z</time></trkpt><trkpt lat="44.93680762238333" lon="10.173058037394272"><ele>33.0</ele><time>2026-05-04T16:31:38Z</time></trkpt><trkpt lat="44.93685916094556" lon="10.173417999084958"><ele>33.0</ele><time>2026-05-04T16:31:39Z</time></trkpt><trkpt lat="44.936861005353485" lon="10.17378366711925"><ele>33.0</ele><time>2026-05-04T16:31:40Z</time></trkpt><trkpt lat="44.93686481270498" lon="10.17415364683081"><ele>33.0</ele><time>2026-05-04T16:31:41Z</time></trkpt><trkpt lat="44.93686581617747" lon="10.174525595553233"><ele>33.0</ele><time>2026-05-04T16:31:42Z</time></trkpt><trkpt lat="44.93682868231359" lon="10.17490248942684"><ele>33.0</ele><time>2026-05-04T16:31:43Z</time></trkpt><trkpt lat="44.93683291711826" lon="10.175283191421853"><ele>33.0</ele><time>2026-05-04T16:31:44Z</time></trkpt><trkpt lat="44.93683767556158" lon="10.175658106605944"><ele>33.0</ele><time>2026-05-04T16:31:45Z</time></trkpt><trkpt lat="44.93684244504977" lon="10.176020034668591"><ele>33.0</ele><time>2026-05-04T16:31:46Z</time></trkpt><trkpt lat="44.93684773648823" lon="10.17635443753661"><ele>33.0</ele><time>2026-05-04T16:31:47Z</time></trkpt><trkpt lat="44.936848941572705" lon="10.176665471972985"><ele>33.666666666666664</ele><time>2026-05-04T16:31:48Z</time></trkpt><trkpt lat="44.936839691590436" lon="10.176964944744162"><ele>34.33333333333333</ele><time>2026-05-04T16:31:49Z</time></trkpt><trkpt lat="44.93680478494745" lon="10.17724742142412"><ele>35.0</ele><time>2026-05-04T16:31:50Z</time></trkpt><trkpt lat="44.93673767210102" lon="10.17754216296406"><ele>35.0</ele><time>2026-05-04T16:31:51Z</time></trkpt><trkpt lat="44.93667136450214" lon="10.177811498984722"><ele>35.0</ele><time>2026-05-04T16:31:52Z</time></trkpt><trkpt lat="44.93657875929506" lon="10.178073978459977"><ele>35.0</ele><time>2026-05-04T16:31:53Z</time></trkpt><trkpt lat="44.936490223847294" lon="10.178339110239664"><ele>35.0</ele><time>2026-05-04T16:31:54Z</time></trkpt><trkpt lat="44.936401938973425" lon="10.17860731483944"><ele>35.0</ele><time>2026-05-04T16:31:55Z</time></trkpt><trkpt lat="44.93631402580383" lon="10.178879213394445"><ele>35.0</ele><time>2026-05-04T16:31:56Z</time></trkpt><trkpt lat="44.93622496602404" lon="10.17914906650849"><ele>35.0</ele><time>2026-05-04T16:31:57Z</time></trkpt><trkpt lat="44.936136930524796" lon="10.179413284631574"><ele>35.0</ele><time>2026-05-04T16:31:58Z</time></trkpt><trkpt lat="44.936052164104396" lon="10.179674507073116"><ele>35.0</ele><time>2026-05-04T16:31:59Z</time></trkpt><trkpt lat="44.935967681767" lon="10.179927038209815"><ele>35.33333333333333</ele><time>2026-05-04T16:32:00Z</time></trkpt><trkpt lat="44.93588469815263" lon="10.180171757315112"><ele>35.666666666666664</ele><time>2026-05-04T16:32:01Z</time></trkpt><trkpt lat="44.93580512422658" lon="10.180418073365772"><ele>36.0</ele><time>2026-05-04T16:32:02Z</time></trkpt><trkpt lat="44.93572354624685" lon="10.18067114283031"><ele>35.333333333333336</ele><time>2026-05-04T16:32:03Z</time></trkpt><trkpt lat="44.9356401519392" lon="10.180926905532235"><ele>34.66666666666667</ele><time>2026-05-04T16:32:04Z</time></trkpt><trkpt lat="44.9355537741054" lon="10.18118591136708"><ele>34.0</ele><time>2026-05-04T16:32:05Z</time></trkpt><trkpt lat="44.935467109552974" lon="10.181449692558804"><ele>34.0</ele><time>2026-05-04T16:32:06Z</time></trkpt><trkpt lat="44.935381740283866" lon="10.181712968975049"><ele>34.0</ele><time>2026-05-04T16:32:07Z</time></trkpt><trkpt lat="44.9352964064941" lon="10.181976113736154"><ele>34.0</ele><time>2026-05-04T16:32:08Z</time></trkpt><trkpt lat="44.93521097932843" lon="10.182233879915017"><ele>34.0</ele><time>2026-05-04T16:32:09Z</time></trkpt><trkpt lat="44.93512803126192" lon="10.182482330825003"><ele>34.0</ele><time>2026-05-04T16:32:10Z</time></trkpt><trkpt lat="44.93506172794524" lon="10.182713007463754"><ele>34.0</ele><time>2026-05-04T16:32:11Z</time></trkpt><trkpt lat="44.93501257030703" lon="10.182927017001397"><ele>34.0</ele><time>2026-05-04T16:32:12Z</time></trkpt><trkpt lat="44.934989580880256" lon="10.183150125959035"><ele>34.0</ele><time>2026-05-04T16:32:13Z</time></trkpt><trkpt lat="44.934987269246676" lon="10.183387907156282"><ele>34.0</ele><time>2026-05-04T16:32:14Z</time></trkpt><trkpt lat="44.93498876746987" lon="10.183631100121953"><ele>34.333333333333336</ele><time>2026-05-04T16:32:15Z</time></trkpt><trkpt lat="44.93497832785151" lon="10.183877953892514"><ele>34.666666666666664</ele><time>2026-05-04T16:32:16Z</time></trkpt><trkpt lat="44.93496453417518" lon="10.1841235883988"><ele>35.0</ele><time>2026-05-04T16:32:17Z</time></trkpt><trkpt lat="44.93494960158522" lon="10.184361212716206"><ele>35.33333333333333</ele><time>2026-05-04T16:32:18Z</time></trkpt><trkpt lat="44.93493345899357" lon="10.18458216965292"><ele>35.666666666666664</ele><time>2026-05-04T16:32:19Z</time></trkpt><trkpt lat="44.93491661956943" lon="10.184798136690512"><ele>36.0</ele><time>2026-05-04T16:32:20Z</time></trkpt><trkpt lat="44.934885816986515" lon="10.184998845830814"><ele>35.333333333333336</ele><time>2026-05-04T16:32:21Z</time></trkpt><trkpt lat="44.93482577160756" lon="10.185190486060296"><ele>34.66666666666667</ele><time>2026-05-04T16:32:22Z</time></trkpt><trkpt lat="44.93473394449712" lon="10.185361856215629"><ele>34.0</ele><time>2026-05-04T16:32:23Z</time></trkpt><trkpt lat="44.93462449718921" lon="10.18550918506211"><ele>34.0</ele><time>2026-05-04T16:32:24Z</time></trkpt><trkpt lat="44.93450823433763" lon="10.185668571615237"><ele>34.0</ele><time>2026-05-04T16:32:25Z</time></trkpt><trkpt lat="44.93438780312409" lon="10.18583590996701"><ele>34.0</ele><time>2026-05-04T16:32:26Z</time></trkpt><trkpt lat="44.93426216064666" lon="10.18601468232031"><ele>34.333333333333336</ele><time>2026-05-04T16:32:27Z</time></trkpt><trkpt lat="44.93412806701808" lon="10.186197752831673"><ele>34.666666666666664</ele><time>2026-05-04T16:32:28Z</time></trkpt><trkpt lat="44.93398686024806" lon="10.186388802434161"><ele>35.0</ele><time>2026-05-04T16:32:29Z</time></trkpt><trkpt lat="44.93383669664273" lon="10.186584049257604"><ele>34.666666666666664</ele><time>2026-05-04T16:32:30Z</time></trkpt><trkpt lat="44.93368070983406" lon="10.186783167243291"><ele>34.333333333333336</ele><time>2026-05-04T16:32:31Z</time></trkpt><trkpt lat="44.93351152469838" lon="10.186987886028305"><ele>34.0</ele><time>2026-05-04T16:32:32Z</time></trkpt><trkpt lat="44.93333152016364" lon="10.18718795926842"><ele>34.0</ele><time>2026-05-04T16:32:33Z</time></trkpt><trkpt lat="44.93315486329295" lon="10.187398416202669"><ele>34.0</ele><time>2026-05-04T16:32:34Z</time></trkpt><trkpt lat="44.932979496422675" lon="10.187611698827908"><ele>34.0</ele><time>2026-05-04T16:32:35Z</time></trkpt><trkpt lat="44.93280683894489" lon="10.187837141441063"><ele>34.0</ele><time>2026-05-04T16:32:36Z</time></trkpt><trkpt lat="44.93264022442924" lon="10.188076920152064"><ele>33.5</ele><time>2026-05-04T16:32:37Z</time></trkpt><trkpt lat="44.932471375562145" lon="10.18831903299908"><ele>33.0</ele><time>2026-05-04T16:32:38Z</time></trkpt><trkpt lat="44.93230158067233" lon="10.188566101191212"><ele>33.0</ele><time>2026-05-04T16:32:39Z</time></trkpt><trkpt lat="44.93213240795469" lon="10.188806523784608"><ele>33.0</ele><time>2026-05-04T16:32:40Z</time></trkpt><trkpt lat="44.93196600274307" lon="10.18904236596653"><ele>33.0</ele><time>2026-05-04T16:32:41Z</time></trkpt><trkpt lat="44.93180361198193" lon="10.189271560339462"><ele>33.0</ele><time>2026-05-04T16:32:42Z</time></trkpt><trkpt lat="44.93165538918446" lon="10.189493329734667"><ele>33.0</ele><time>2026-05-04T16:32:43Z</time></trkpt><trkpt lat="44.93152997882623" lon="10.189720947859112"><ele>32.666666666666664</ele><time>2026-05-04T16:32:44Z</time></trkpt><trkpt lat="44.93143274244552" lon="10.18997313877337"><ele>32.33333333333333</ele><time>2026-05-04T16:32:45Z</time></trkpt><trkpt lat="44.93136899475262" lon="10.190250067475857"><ele>32.0</ele><time>2026-05-04T16:32:46Z</time></trkpt><trkpt lat="44.93132111000759" lon="10.1905395505681"><ele>32.0</ele><time>2026-05-04T16:32:47Z</time></trkpt><trkpt lat="44.93127176846375" lon="10.19083284813157"><ele>32.0</ele><time>2026-05-04T16:32:48Z</time></trkpt><trkpt lat="44.93122421396958" lon="10.191136204116884"><ele>32.0</ele><time>2026-05-04T16:32:49Z</time></trkpt><trkpt lat="44.93117452298196" lon="10.191440700162127"><ele>32.0</ele><time>2026-05-04T16:32:50Z</time></trkpt><trkpt lat="44.93112208381224" lon="10.191753550750702"><ele>32.0</ele><time>2026-05-04T16:32:51Z</time></trkpt><trkpt lat="44.931069334012385" lon="10.192073463953585"><ele>32.0</ele><time>2026-05-04T16:32:52Z</time></trkpt><trkpt lat="44.93101532318202" lon="10.192399928057567"><ele>32.0</ele><time>2026-05-04T16:32:53Z</time></trkpt><trkpt lat="44.930959927927844" lon="10.192728788962523"><ele>32.0</ele><time>2026-05-04T16:32:54Z</time></trkpt><trkpt lat="44.930905705982816" lon="10.193065952736282"><ele>32.0</ele><time>2026-05-04T16:32:55Z</time></trkpt><trkpt lat="44.930852710854914" lon="10.193406189281697"><ele>33.0</ele><time>2026-05-04T16:32:56Z</time></trkpt><trkpt lat="44.93080083074312" lon="10.193754699026451"><ele>34.0</ele><time>2026-05-04T16:32:57Z</time></trkpt><trkpt lat="44.93074402571054" lon="10.194106570641631"><ele>34.0</ele><time>2026-05-04T16:32:58Z</time></trkpt><trkpt lat="44.930685686947854" lon="10.194456203409231"><ele>34.0</ele><time>2026-05-04T16:32:59Z</time></trkpt><trkpt lat="44.93062528447044" lon="10.194810780442555"><ele>34.0</ele><time>2026-05-04T16:33:00Z</time></trkpt><trkpt lat="44.93056872206974" lon="10.195173998389423"><ele>34.0</ele><time>2026-05-04T16:33:01Z</time></trkpt><trkpt lat="44.93051190032577" lon="10.19553715223753"><ele>34.0</ele><time>2026-05-04T16:33:02Z</time></trkpt><trkpt lat="44.93045633059165" lon="10.195900523334885"><ele>34.0</ele><time>2026-05-04T16:33:03Z</time></trkpt><trkpt lat="44.9304023670644" lon="10.196268684192745"><ele>33.0</ele><time>2026-05-04T16:33:04Z</time></trkpt><trkpt lat="44.9303508770798" lon="10.196643792002323"><ele>32.0</ele><time>2026-05-04T16:33:05Z</time></trkpt><trkpt lat="44.9303029126948" lon="10.19702410457726"><ele>31.5</ele><time>2026-05-04T16:33:06Z</time></trkpt><trkpt lat="44.93026035947473" lon="10.197408368938529"><ele>31.0</ele><time>2026-05-04T16:33:07Z</time></trkpt><trkpt lat="44.93021943334631" lon="10.19779219755324"><ele>31.0</ele><time>2026-05-04T16:33:08Z</time></trkpt><trkpt lat="44.93017977489791" lon="10.198164575746242"><ele>31.0</ele><time>2026-05-04T16:33:09Z</time></trkpt><trkpt lat="44.93013796151908" lon="10.198531024059681"><ele>31.0</ele><time>2026-05-04T16:33:10Z</time></trkpt><trkpt lat="44.93010046411394" lon="10.198890561925422"><ele>31.0</ele><time>2026-05-04T16:33:11Z</time></trkpt><trkpt lat="44.930062304903124" lon="10.199243001398624"><ele>31.5</ele><time>2026-05-04T16:33:12Z</time></trkpt><trkpt lat="44.93001869874666" lon="10.199592060070067"><ele>32.0</ele><time>2026-05-04T16:33:13Z</time></trkpt><trkpt lat="44.929972309512685" lon="10.199935598279652"><ele>32.5</ele><time>2026-05-04T16:33:14Z</time></trkpt><trkpt lat="44.929917838539026" lon="10.200274658920414"><ele>33.0</ele><time>2026-05-04T16:33:15Z</time></trkpt><trkpt lat="44.929849176191745" lon="10.200606773378375"><ele>32.0</ele><time>2026-05-04T16:33:16Z</time></trkpt><trkpt lat="44.929766162516074" lon="10.200937833749864"><ele>31.0</ele><time>2026-05-04T16:33:17Z</time></trkpt><trkpt lat="44.929686609575455" lon="10.201266473033998"><ele>32.0</ele><time>2026-05-04T16:33:18Z</time></trkpt><trkpt lat="44.9296048481101" lon="10.20159248023572"><ele>33.0</ele><time>2026-05-04T16:33:19Z</time></trkpt><trkpt lat="44.92952069066372" lon="10.20192184154588"><ele>33.0</ele><time>2026-05-04T16:33:20Z</time></trkpt><trkpt lat="44.929437009235016" lon="10.202250723381177"><ele>33.0</ele><time>2026-05-04T16:33:21Z</time></trkpt><trkpt lat="44.92935355149679" lon="10.202583413974631"><ele>33.0</ele><time>2026-05-04T16:33:22Z</time></trkpt><trkpt lat="44.929271140487174" lon="10.20292067970748"><ele>33.0</ele><time>2026-05-04T16:33:23Z</time></trkpt><trkpt lat="44.92917131990497" lon="10.203251002415419"><ele>32.5</ele><time>2026-05-04T16:33:24Z</time></trkpt><trkpt lat="44.929102174484484" lon="10.203600383306455"><ele>32.0</ele><time>2026-05-04T16:33:25Z</time></trkpt><trkpt lat="44.92901635508483" lon="10.203939256840474"><ele>32.0</ele><time>2026-05-04T16:33:26Z</time></trkpt><trkpt lat="44.92893053528216" lon="10.204282391771509"><ele>32.0</ele><time>2026-05-04T16:33:27Z</time></trkpt><trkpt lat="44.92884287973448" lon="10.204625746451432"><ele>32.0</ele><time>2026-05-04T16:33:28Z</time></trkpt><trkpt lat="44.92875681225921" lon="10.204969227535026"><ele>32.0</ele><time>2026-05-04T16:33:29Z</time></trkpt><trkpt lat="44.928677901676274" lon="10.205311651461718"><ele>32.0</ele><time>2026-05-04T16:33:30Z</time></trkpt><trkpt lat="44.92861505578874" lon="10.205646606971571"><ele>32.0</ele><time>2026-05-04T16:33:31Z</time></trkpt><trkpt lat="44.92856763065048" lon="10.205980092229375"><ele>31.5</ele><time>2026-05-04T16:33:32Z</time></trkpt><trkpt lat="44.92851633315389" lon="10.206304784327864"><ele>31.0</ele><time>2026-05-04T16:33:33Z</time></trkpt><trkpt lat="44.92849481397679" lon="10.20663189639345"><ele>31.0</ele><time>2026-05-04T16:33:34Z</time></trkpt><trkpt lat="44.928487189865486" lon="10.206960454601894"><ele>31.0</ele><time>2026-05-04T16:33:35Z</time></trkpt><trkpt lat="44.9284858004031" lon="10.207291016000664"><ele>31.5</ele><time>2026-05-04T16:33:36Z</time></trkpt><trkpt lat="44.92848642636992" lon="10.207625546116265"><ele>32.0</ele><time>2026-05-04T16:33:37Z</time></trkpt><trkpt lat="44.92848704873357" lon="10.207958150604147"><ele>32.0</ele><time>2026-05-04T16:33:38Z</time></trkpt><trkpt lat="44.928487552980435" lon="10.20828320281772"><ele>32.0</ele><time>2026-05-04T16:33:39Z</time></trkpt><trkpt lat="44.92850072566995" lon="10.208609616807669"><ele>32.0</ele><time>2026-05-04T16:33:40Z</time></trkpt><trkpt lat="44.92849144028633" lon="10.208934891769363"><ele>32.0</ele><time>2026-05-04T16:33:41Z</time></trkpt><trkpt lat="44.92846743568521" lon="10.209260682422428"><ele>32.0</ele><time>2026-05-04T16:33:42Z</time></trkpt><trkpt lat="44.92842687152319" lon="10.2095872019771"><ele>32.0</ele><time>2026-05-04T16:33:43Z</time></trkpt><trkpt lat="44.928374695400045" lon="10.209912172995514"><ele>32.0</ele><time>2026-05-04T16:33:44Z</time></trkpt><trkpt lat="44.92831505591372" lon="10.210232118585168"><ele>32.0</ele><time>2026-05-04T16:33:45Z</time></trkpt><trkpt lat="44.92824806786393" lon="10.2105500218634"><ele>33.0</ele><time>2026-05-04T16:33:46Z</time></trkpt><trkpt lat="44.92817655745198" lon="10.210861841136499"><ele>34.0</ele><time>2026-05-04T16:33:47Z</time></trkpt><trkpt lat="44.92810368650721" lon="10.2111712865024"><ele>34.0</ele><time>2026-05-04T16:33:48Z</time></trkpt><trkpt lat="44.92801538389056" lon="10.211471702586271"><ele>34.0</ele><time>2026-05-04T16:33:49Z</time></trkpt><trkpt lat="44.927904653253464" lon="10.211754629344524"><ele>33.5</ele><time>2026-05-04T16:33:50Z</time></trkpt><trkpt lat="44.92777665152614" lon="10.212021883279835"><ele>33.0</ele><time>2026-05-04T16:33:51Z</time></trkpt><trkpt lat="44.92764188925741" lon="10.212284960837342"><ele>33.0</ele><time>2026-05-04T16:33:52Z</time></trkpt><trkpt lat="44.92750802207996" lon="10.21254737278994"><ele>33.0</ele><time>2026-05-04T16:33:53Z</time></trkpt><trkpt lat="44.927377728130594" lon="10.212807553901547"><ele>33.0</ele><time>2026-05-04T16:33:54Z</time></trkpt><trkpt lat="44.927255534324786" lon="10.213068055370524"><ele>33.0</ele><time>2026-05-04T16:33:55Z</time></trkpt><trkpt lat="44.92714355258007" lon="10.21333179504157"><ele>33.0</ele><time>2026-05-04T16:33:56Z</time></trkpt><trkpt lat="44.92704128640075" lon="10.213596431098448"><ele>33.0</ele><time>2026-05-04T16:33:57Z</time></trkpt><trkpt lat="44.92694738358043" lon="10.213860881358379"><ele>33.0</ele><time>2026-05-04T16:33:58Z</time></trkpt><trkpt lat="44.92685700209947" lon="10.21412641675185"><ele>33.0</ele><time>2026-05-04T16:33:59Z</time></trkpt><trkpt lat="44.9267737173987" lon="10.214398045097159"><ele>33.0</ele><time>2026-05-04T16:34:00Z</time></trkpt><trkpt lat="44.92670158425416" lon="10.214672349780555"><ele>33.0</ele><time>2026-05-04T16:34:01Z</time></trkpt><trkpt lat="44.92663511503364" lon="10.214952893948407"><ele>33.0</ele><time>2026-05-04T16:34:02Z</time></trkpt><trkpt lat="44.92657973330067" lon="10.215235057048924"><ele>33.0</ele><time>2026-05-04T16:34:03Z</time></trkpt><trkpt lat="44.92653029151151" lon="10.215518160851811"><ele>33.0</ele><time>2026-05-04T16:34:04Z</time></trkpt><trkpt lat="44.92648654469398" lon="10.215797485268709"><ele>33.0</ele><time>2026-05-04T16:34:05Z</time></trkpt><trkpt lat="44.92645018181824" lon="10.21607866887425"><ele>32.666666666666664</ele><time>2026-05-04T16:34:06Z</time></trkpt><trkpt lat="44.926422458653526" lon="10.216357641053571"><ele>32.33333333333333</ele><time>2026-05-04T16:34:07Z</time></trkpt><trkpt lat="44.926402012385154" lon="10.216634823217388"><ele>32.0</ele><time>2026-05-04T16:34:08Z</time></trkpt><trkpt lat="44.92638956792157" lon="10.21691910588039"><ele>32.0</ele><time>2026-05-04T16:34:09Z</time></trkpt><trkpt lat="44.92637778795037" lon="10.217202024226712"><ele>32.0</ele><time>2026-05-04T16:34:10Z</time></trkpt><trkpt lat="44.92636792854108" lon="10.217484528657984"><ele>32.0</ele><time>2026-05-04T16:34:11Z</time></trkpt><trkpt lat="44.92635894819253" lon="10.217762880525695"><ele>32.0</ele><time>2026-05-04T16:34:12Z</time></trkpt><trkpt lat="44.92634261542165" lon="10.218034852990101"><ele>32.0</ele><time>2026-05-04T16:34:13Z</time></trkpt><trkpt lat="44.926305057475545" lon="10.218297760840489"><ele>32.0</ele><time>2026-05-04T16:34:14Z</time></trkpt><trkpt lat="44.92623690759443" lon="10.21854869298942"><ele>32.33333333333333</ele><time>2026-05-04T16:34:15Z</time></trkpt><trkpt lat="44.926147437459655" lon="10.218783820583731"><ele>32.666666666666664</ele><time>2026-05-04T16:34:16Z</time></trkpt><trkpt lat="44.92603876605742" lon="10.219007878483964"><ele>33.0</ele><time>2026-05-04T16:34:17Z</time></trkpt><trkpt lat="44.92592628154194" lon="10.21922758258265"><ele>32.666666666666664</ele><time>2026-05-04T16:34:18Z</time></trkpt><trkpt lat="44.92581496399701" lon="10.219438294792248"><ele>32.33333333333333</ele><time>2026-05-04T16:34:19Z</time></trkpt><trkpt lat="44.92570938025999" lon="10.219646796015668"><ele>32.0</ele><time>2026-05-04T16:34:20Z</time></trkpt><trkpt lat="44.92560459488376" lon="10.219853879974485"><ele>31.666666666666664</ele><time>2026-05-04T16:34:21Z</time></trkpt><trkpt lat="44.92549950016331" lon="10.22005620690771"><ele>31.333333333333336</ele><time>2026-05-04T16:34:22Z</time></trkpt><trkpt lat="44.9253860104118" lon="10.220253277081147"><ele>31.0</ele><time>2026-05-04T16:34:23Z</time></trkpt><trkpt lat="44.925266752618334" lon="10.220444895637836"><ele>31.0</ele><time>2026-05-04T16:34:24Z</time></trkpt><trkpt lat="44.92514515761087" lon="10.220638944613414"><ele>31.0</ele><time>2026-05-04T16:34:25Z</time></trkpt><trkpt lat="44.92502017752387" lon="10.220830796194209"><ele>31.0</ele><time>2026-05-04T16:34:26Z</time></trkpt><trkpt lat="44.92489734076382" lon="10.221026518207742"><ele>32.0</ele><time>2026-05-04T16:34:27Z</time></trkpt><trkpt lat="44.92477471820003" lon="10.221219474499113"><ele>33.0</ele><time>2026-05-04T16:34:28Z</time></trkpt><trkpt lat="44.92465549768302" lon="10.221408185989251"><ele>34.0</ele><time>2026-05-04T16:34:29Z</time></trkpt><trkpt lat="44.924539578271904" lon="10.2215871081226"><ele>34.0</ele><time>2026-05-04T16:34:30Z</time></trkpt><trkpt lat="44.92442872006032" lon="10.221757869942476"><ele>34.0</ele><time>2026-05-04T16:34:31Z</time></trkpt><trkpt lat="44.92432141681728" lon="10.221923341933051"><ele>34.0</ele><time>2026-05-04T16:34:32Z</time></trkpt><trkpt lat="44.92421111216195" lon="10.222087808210755"><ele>34.0</ele><time>2026-05-04T16:34:33Z</time></trkpt><trkpt lat="44.92410235772375" lon="10.22225487408932"><ele>34.0</ele><time>2026-05-04T16:34:34Z</time></trkpt><trkpt lat="44.92399204215885" lon="10.222420449447604"><ele>34.0</ele><time>2026-05-04T16:34:35Z</time></trkpt><trkpt lat="44.92388410995477" lon="10.222592548880641"><ele>33.66666666666667</ele><time>2026-05-04T16:34:36Z</time></trkpt><trkpt lat="44.923775718957096" lon="10.222759286541846"><ele>33.333333333333336</ele><time>2026-05-04T16:34:37Z</time></trkpt><trkpt lat="44.92366887766363" lon="10.222925440940038"><ele>33.0</ele><time>2026-05-04T16:34:38Z</time></trkpt><trkpt lat="44.92356386172253" lon="10.223090548255442"><ele>33.0</ele><time>2026-05-04T16:34:39Z</time></trkpt><trkpt lat="44.923462925707376" lon="10.223252165812983"><ele>33.0</ele><time>2026-05-04T16:34:40Z</time></trkpt><trkpt lat="44.92336660838932" lon="10.223407064644578"><ele>33.0</ele><time>2026-05-04T16:34:41Z</time></trkpt><trkpt lat="44.92326960667251" lon="10.223560739901268"><ele>33.0</ele><time>2026-05-04T16:34:42Z</time></trkpt><trkpt lat="44.923179250052264" lon="10.223704388774337"><ele>33.0</ele><time>2026-05-04T16:34:43Z</time></trkpt><trkpt lat="44.923089919275874" lon="10.223841458283445"><ele>33.0</ele><time>2026-05-04T16:34:44Z</time></trkpt><trkpt lat="44.92300008126677" lon="10.223978712690862"><ele>33.0</ele><time>2026-05-04T16:34:45Z</time></trkpt><trkpt lat="44.92290751566691" lon="10.22411874375327"><ele>33.0</ele><time>2026-05-04T16:34:46Z</time></trkpt><trkpt lat="44.92281552580287" lon="10.22425541551441"><ele>33.5</ele><time>2026-05-04T16:34:47Z</time></trkpt><trkpt lat="44.922723893491344" lon="10.224391459818573"><ele>34.0</ele><time>2026-05-04T16:34:48Z</time></trkpt><trkpt lat="44.92263698986933" lon="10.22452330837581"><ele>34.5</ele><time>2026-05-04T16:34:49Z</time></trkpt><trkpt lat="44.9225488050857" lon="10.22465387745736"><ele>35.0</ele><time>2026-05-04T16:34:50Z</time></trkpt><trkpt lat="44.92246161400731" lon="10.22478023238413"><ele>35.2</ele><time>2026-05-04T16:34:51Z</time></trkpt><trkpt lat="44.92237755207289" lon="10.224901812034684"><ele>35.4</ele><time>2026-05-04T16:34:52Z</time></trkpt><trkpt lat="44.92229961787391" lon="10.22502069738244"><ele>35.6</ele><time>2026-05-04T16:34:53Z</time></trkpt><trkpt lat="44.922226417246804" lon="10.225127471832446"><ele>35.8</ele><time>2026-05-04T16:34:54Z</time></trkpt><trkpt lat="44.92215729348246" lon="10.22523362713784"><ele>36.0</ele><time>2026-05-04T16:34:55Z</time></trkpt><trkpt lat="44.92208594266401" lon="10.225334499080457"><ele>36.0</ele><time>2026-05-04T16:34:56Z</time></trkpt><trkpt lat="44.922012964466035" lon="10.225432843190662"><ele>36.0</ele><time>2026-05-04T16:34:57Z</time></trkpt><trkpt lat="44.9219449095783" lon="10.225532825752705"><ele>36.0</ele><time>2026-05-04T16:34:58Z</time></trkpt><trkpt lat="44.921878165071014" lon="10.22563887087894"><ele>36.0</ele><time>2026-05-04T16:34:59Z</time></trkpt><trkpt lat="44.921815461615076" lon="10.225751615091495"><ele>36.0</ele><time>2026-05-04T16:35:00Z</time></trkpt><trkpt lat="44.92176371667772" lon="10.22587283835313"><ele>36.0</ele><time>2026-05-04T16:35:01Z</time></trkpt><trkpt lat="44.921723184119955" lon="10.226001874174582"><ele>36.0</ele><time>2026-05-04T16:35:02Z</time></trkpt><trkpt lat="44.921689692462124" lon="10.22612693785652"><ele>36.0</ele><time>2026-05-04T16:35:03Z</time></trkpt><trkpt lat="44.921665604511496" lon="10.226250903821903"><ele>36.0</ele><time>2026-05-04T16:35:04Z</time></trkpt><trkpt lat="44.92165168750945" lon="10.226360235344872"><ele>36.0</ele><time>2026-05-04T16:35:05Z</time></trkpt><trkpt lat="44.921639750301594" lon="10.226461433899852"><ele>36.0</ele><time>2026-05-04T16:35:06Z</time></trkpt><trkpt lat="44.92163349224532" lon="10.226559991536597"><ele>36.0</ele><time>2026-05-04T16:35:07Z</time></trkpt><trkpt lat="44.92162170676604" lon="10.226706719140637"><ele>36.0</ele><time>2026-05-04T16:35:09Z</time></trkpt><trkpt lat="44.92161134392689" lon="10.226825010651627"><ele>36.0</ele><time>2026-05-04T16:35:11Z</time></trkpt><trkpt lat="44.92160718783804" lon="10.22694889427532"><ele>36.0</ele><time>2026-05-04T16:35:13Z</time></trkpt><trkpt lat="44.92164312715387" lon="10.227047632456207"><ele>36.0</ele><time>2026-05-04T16:35:17Z</time></trkpt><trkpt lat="44.92174801560553" lon="10.227089590968616"><ele>36.166666666666664</ele><time>2026-05-04T16:35:19Z</time></trkpt><trkpt lat="44.92180982395147" lon="10.227108775622785"><ele>36.333333333333336</ele><time>2026-05-04T16:35:20Z</time></trkpt><trkpt lat="44.92188624033214" lon="10.227130422434737"><ele>36.5</ele><time>2026-05-04T16:35:21Z</time></trkpt><trkpt lat="44.921978375621386" lon="10.22715519891333"><ele>36.66666666666667</ele><time>2026-05-04T16:35:22Z</time></trkpt><trkpt lat="44.92207913393902" lon="10.227175805891433"><ele>36.833333333333336</ele><time>2026-05-04T16:35:23Z</time></trkpt><trkpt lat="44.92218153742763" lon="10.227194848271072"><ele>37.0</ele><time>2026-05-04T16:35:24Z</time></trkpt><trkpt lat="44.922283539959835" lon="10.227222876406998"><ele>37.0</ele><time>2026-05-04T16:35:25Z</time></trkpt><trkpt lat="44.92237561965896" lon="10.227280509694136"><ele>37.0</ele><time>2026-05-04T16:35:26Z</time></trkpt><trkpt lat="44.92246271504429" lon="10.227351965887019"><ele>37.0</ele><time>2026-05-04T16:35:27Z</time></trkpt><trkpt lat="44.922537052564834" lon="10.227447468216289"><ele>37.0</ele><time>2026-05-04T16:35:28Z</time></trkpt><trkpt lat="44.922595715727375" lon="10.227571473812898"><ele>37.0</ele><time>2026-05-04T16:35:29Z</time></trkpt><trkpt lat="44.92263927525962" lon="10.227704048540279"><ele>36.800000000000004</ele><time>2026-05-04T16:35:30Z</time></trkpt><trkpt lat="44.9226724688043" lon="10.227845357294148"><ele>36.6</ele><time>2026-05-04T16:35:31Z</time></trkpt><trkpt lat="44.92269471806243" lon="10.227995431054548"><ele>36.400000000000006</ele><time>2026-05-04T16:35:32Z</time></trkpt><trkpt lat="44.92271157236576" lon="10.228142617103614"><ele>36.2</ele><time>2026-05-04T16:35:33Z</time></trkpt><trkpt lat="44.92272678355823" lon="10.228268123618173"><ele>36.0</ele><time>2026-05-04T16:35:34Z</time></trkpt><trkpt lat="44.92273314808544" lon="10.228400148316783"><ele>36.0</ele><time>2026-05-04T16:35:36Z</time></trkpt><trkpt lat="44.92272529591673" lon="10.228526588861733"><ele>36.0</ele><time>2026-05-04T16:35:38Z</time></trkpt><trkpt lat="44.92272672067633" lon="10.228695808042715"><ele>36.0</ele><time>2026-05-04T16:35:40Z</time></trkpt><trkpt lat="44.922726940970584" lon="10.228808845852248"><ele>36.0</ele><time>2026-05-04T16:35:41Z</time></trkpt><trkpt lat="44.92278007572583" lon="10.228910509271136"><ele>36.0</ele><time>2026-05-04T16:35:42Z</time></trkpt><trkpt lat="44.92280248376772" lon="10.229032338838685"><ele>36.0</ele><time>2026-05-04T16:35:43Z</time></trkpt><trkpt lat="44.922821889962684" lon="10.229167527496038"><ele>36.0</ele><time>2026-05-04T16:35:44Z</time></trkpt><trkpt lat="44.92283877765826" lon="10.229316148453252"><ele>36.0</ele><time>2026-05-04T16:35:45Z</time></trkpt><trkpt lat="44.92285349641177" lon="10.229473320296185"><ele>36.0</ele><time>2026-05-04T16:35:46Z</time></trkpt><trkpt lat="44.92287236436187" lon="10.229633150303444"><ele>36.0</ele><time>2026-05-04T16:35:47Z</time></trkpt><trkpt lat="44.92288616880708" lon="10.22979915231111"><ele>36.0</ele><time>2026-05-04T16:35:48Z</time></trkpt><trkpt lat="44.92288890476848" lon="10.229969954643025"><ele>36.0</ele><time>2026-05-04T16:35:49Z</time></trkpt><trkpt lat="44.922877131414396" lon="10.230143268580825"><ele>36.0</ele><time>2026-05-04T16:35:50Z</time></trkpt><trkpt lat="44.92284626183259" lon="10.230306772982415"><ele>36.0</ele><time>2026-05-04T16:35:51Z</time></trkpt><trkpt lat="44.922800905473956" lon="10.23047157394351"><ele>36.0</ele><time>2026-05-04T16:35:52Z</time></trkpt><trkpt lat="44.922749460320105" lon="10.23062064748733"><ele>36.0</ele><time>2026-05-04T16:35:53Z</time></trkpt><trkpt lat="44.92269616527858" lon="10.230751498860487"><ele>36.0</ele><time>2026-05-04T16:35:54Z</time></trkpt><trkpt lat="44.922640090720314" lon="10.23085971727371"><ele>36.0</ele><time>2026-05-04T16:35:55Z</time></trkpt><trkpt lat="44.9225802665806" lon="10.230957030690664"><ele>36.0</ele><time>2026-05-04T16:35:56Z</time></trkpt><trkpt lat="44.92251185127454" lon="10.231045721491487"><ele>36.4</ele><time>2026-05-04T16:35:57Z</time></trkpt><trkpt lat="44.92243501947245" lon="10.231132587506673"><ele>36.8</ele><time>2026-05-04T16:35:58Z</time></trkpt><trkpt lat="44.922349070853315" lon="10.231209817143041"><ele>37.199999999999996</ele><time>2026-05-04T16:35:59Z</time></trkpt><trkpt lat="44.92225468876788" lon="10.231282134048865"><ele>37.6</ele><time>2026-05-04T16:36:00Z</time></trkpt><trkpt lat="44.922142550131184" lon="10.231357601540777"><ele>38.0</ele><time>2026-05-04T16:36:01Z</time></trkpt><trkpt lat="44.92202478401836" lon="10.231424732870819"><ele>38.0</ele><time>2026-05-04T16:36:02Z</time></trkpt><trkpt lat="44.92190340584132" lon="10.231483785346315"><ele>38.0</ele><time>2026-05-04T16:36:03Z</time></trkpt><trkpt lat="44.921777601835124" lon="10.231511685450684"><ele>38.0</ele><time>2026-05-04T16:36:04Z</time></trkpt><trkpt lat="44.9216540119298" lon="10.23152005174857"><ele>38.0</ele><time>2026-05-04T16:36:05Z</time></trkpt><trkpt lat="44.9215315890785" lon="10.231514522544554"><ele>38.0</ele><time>2026-05-04T16:36:06Z</time></trkpt><trkpt lat="44.92143210019235" lon="10.231509787426397"><ele>38.0</ele><time>2026-05-04T16:36:07Z</time></trkpt><trkpt lat="44.92130802599948" lon="10.231496750755303"><ele>38.0</ele><time>2026-05-04T16:36:09Z</time></trkpt><trkpt lat="44.9212451829413" lon="10.231488417124602"><ele>38.0</ele><time>2026-05-04T16:36:10Z</time></trkpt><trkpt lat="44.921170913640886" lon="10.231478064461925"><ele>38.0</ele><time>2026-05-04T16:36:11Z</time></trkpt><trkpt lat="44.92108861446262" lon="10.231468862327777"><ele>38.0</ele><time>2026-05-04T16:36:12Z</time></trkpt><trkpt lat="44.920994931004614" lon="10.231459754539888"><ele>38.0</ele><time>2026-05-04T16:36:13Z</time></trkpt><trkpt lat="44.920893163785315" lon="10.231448418280134"><ele>38.0</ele><time>2026-05-04T16:36:14Z</time></trkpt><trkpt lat="44.920783210169866" lon="10.23143367086781"><ele>38.0</ele><time>2026-05-04T16:36:15Z</time></trkpt><trkpt lat="44.920667275220886" lon="10.231417862555794"><ele>38.0</ele><time>2026-05-04T16:36:16Z</time></trkpt><trkpt lat="44.920546597752754" lon="10.231404948206754"><ele>38.0</ele><time>2026-05-04T16:36:17Z</time></trkpt><trkpt lat="44.92042656283068" lon="10.231389674553258"><ele>38.0</ele><time>2026-05-04T16:36:18Z</time></trkpt><trkpt lat="44.920307125307524" lon="10.231379751005157"><ele>38.0</ele><time>2026-05-04T16:36:19Z</time></trkpt><trkpt lat="44.92019926831683" lon="10.23137208234548"><ele>38.0</ele><time>2026-05-04T16:36:20Z</time></trkpt><trkpt lat="44.92010916860418" lon="10.231366875426348"><ele>38.0</ele><time>2026-05-04T16:36:21Z</time></trkpt><trkpt lat="44.92003690168433" lon="10.231403589799445"><ele>38.0</ele><time>2026-05-04T16:36:22Z</time></trkpt><trkpt lat="44.919944896672355" lon="10.231388990110734"><ele>38.0</ele><time>2026-05-04T16:36:24Z</time></trkpt><trkpt lat="44.91986135253302" lon="10.23137468626007"><ele>38.0</ele><time>2026-05-04T16:36:26Z</time></trkpt><trkpt lat="44.919784979379266" lon="10.23150174386116"><ele>38.0</ele><time>2026-05-04T16:36:28Z</time></trkpt><trkpt lat="44.91977461201267" lon="10.23161311552272"><ele>38.0</ele><time>2026-05-04T16:36:29Z</time></trkpt><trkpt lat="44.91977075431837" lon="10.231734546528589"><ele>37.8</ele><time>2026-05-04T16:36:30Z</time></trkpt><trkpt lat="44.91976158441193" lon="10.23186375811111"><ele>37.599999999999994</ele><time>2026-05-04T16:36:31Z</time></trkpt><trkpt lat="44.91975083955951" lon="10.231999967024706"><ele>37.400000000000006</ele><time>2026-05-04T16:36:32Z</time></trkpt><trkpt lat="44.91973552260649" lon="10.232146442521383"><ele>37.2</ele><time>2026-05-04T16:36:33Z</time></trkpt><trkpt lat="44.919715678077495" lon="10.232301057648606"><ele>37.0</ele><time>2026-05-04T16:36:34Z</time></trkpt><trkpt lat="44.91969755021936" lon="10.232459008173779"><ele>37.0</ele><time>2026-05-04T16:36:35Z</time></trkpt><trkpt lat="44.91968145024255" lon="10.232607975811078"><ele>37.0</ele><time>2026-05-04T16:36:36Z</time></trkpt><trkpt lat="44.919667776752085" lon="10.232734732219264"><ele>37.0</ele><time>2026-05-04T16:36:37Z</time></trkpt><trkpt lat="44.91965247752708" lon="10.232852732658225"><ele>37.0</ele><time>2026-05-04T16:36:38Z</time></trkpt><trkpt lat="44.919638027501556" lon="10.232960478669531"><ele>37.0</ele><time>2026-05-04T16:36:39Z</time></trkpt><trkpt lat="44.91962717848659" lon="10.23305010634767"><ele>37.0</ele><time>2026-05-04T16:36:40Z</time></trkpt><trkpt lat="44.919611527177196" lon="10.233195855407063"><ele>37.0</ele><time>2026-05-04T16:36:42Z</time></trkpt><trkpt lat="44.919599310307" lon="10.233294479878559"><ele>37.0</ele><time>2026-05-04T16:36:44Z</time></trkpt><trkpt lat="44.91958725408364" lon="10.233404826910238"><ele>37.0</ele><time>2026-05-04T16:36:47Z</time></trkpt><trkpt lat="44.919570872689846" lon="10.23355653283221"><ele>37.0</ele><time>2026-05-04T16:36:49Z</time></trkpt><trkpt lat="44.91955648092737" lon="10.23366980882358"><ele>37.0</ele><time>2026-05-04T16:36:51Z</time></trkpt><trkpt lat="44.91955769581673" lon="10.233774325496197"><ele>37.0</ele><time>2026-05-04T16:36:56Z</time></trkpt><trkpt lat="44.9196530645954" lon="10.233865843693042"><ele>37.0</ele><time>2026-05-04T16:36:59Z</time></trkpt><trkpt lat="44.919724781144176" lon="10.233884360458928"><ele>37.0</ele><time>2026-05-04T16:37:01Z</time></trkpt><trkpt lat="44.91981792842965" lon="10.233871879494012"><ele>37.0</ele><time>2026-05-04T16:37:04Z</time></trkpt><trkpt lat="44.91991110483514" lon="10.233876428983196"><ele>37.0</ele><time>2026-05-04T16:37:06Z</time></trkpt><trkpt lat="44.920003325137735" lon="10.233883205570589"><ele>37.0</ele><time>2026-05-04T16:37:08Z</time></trkpt><trkpt lat="44.91993293546723" lon="10.233887489145435"><ele>37.0</ele><time>2026-05-04T16:37:38Z</time></trkpt><trkpt lat="44.91986274850742" lon="10.23388031903115"><ele>37.0</ele><time>2026-05-04T16:37:45Z</time></trkpt><trkpt lat="44.919778471957756" lon="10.233872242231053"><ele>37.0</ele><time>2026-05-04T16:37:49Z</time></trkpt><trkpt lat="44.91970632523398" lon="10.233865813840813"><ele>37.0</ele><time>2026-05-04T16:37:53Z</time></trkpt><trkpt lat="44.919707308115655" lon="10.23368847200051"><ele>37.0</ele><time>2026-05-04T16:40:18Z</time></trkpt><trkpt lat="44.91974866685502" lon="10.233610301873256"><ele>37.0</ele><time>2026-05-04T16:40:25Z</time></trkpt><trkpt lat="44.919767764827235" lon="10.233515372035713"><ele>37.0</ele><time>2026-05-04T16:40:33Z</time></trkpt><trkpt lat="44.91997096886979" lon="10.233654955787706"><ele>37.0</ele><time>2026-05-04T16:50:07Z</time></trkpt><trkpt lat="44.91979000513374" lon="10.233487257653323"><ele>37.0</ele><time>2026-05-04T16:50:12Z</time></trkpt></trkseg></trk></gpx>